Sasaki, Shun (2026): Radiosonde measurements from station Abashiri (2025-12) [dataset]. Japan Meteorological Agency, Tokyo, PANGAEA, https://doi.org/10.1594/PANGAEA.992668
Always quote citation above when using data! You can download the citation in several formats below.
Published: 2026-02-26 • DOI registered: 2026-03-27
Other version:
Sasaki, Shun (2026): BSRN Station-to-archive file for station Abashiri (2025-12) [dataset]. ftp://ftp.bsrn.awi.de/abs/abs1225.dat.gz
Project(s):
Coverage:
Latitude: 44.017800 * Longitude: 144.279700
Date/Time Start: 2025-12-01T00:00:00 * Date/Time End: 2025-12-31T23:59:00
Minimum ALTITUDE: 18 m * Maximum ALTITUDE: 27564 m
Event(s):
ABS (Abashiri) * Latitude: 44.017800 * Longitude: 144.279700 * Date/Time: 2021-03-01T00:00:00 * Elevation: 38.0 m * Station info: Abashiri.pdf * Location: Japan * Method/Device: Monitoring station (MONS) * Comment: BSRN station no: 86; Surface type: asphalt; Topography type: flat, rural; Horizon: doi:10.1594/PANGAEA.947000; Station scientist: SASAKI Shun (rrc-jma@met.kishou.go.jp)
Parameter(s):
| # | Name | Short Name | Unit | Principal Investigator | Method/Device | Comment |
|---|---|---|---|---|---|---|
| 1 | DATE/TIME | Date/Time | Sasaki, Shun | Geocode | ||
| 2 | ALTITUDE | Altitude | m | Sasaki, Shun | Geocode | |
| 3 | Pressure, at given altitude | PPPP | hPa | Sasaki, Shun | Radiosonde, Meisei, iMS | |
| 4 | Temperature, air | TTT | °C | Sasaki, Shun | Radiosonde, Meisei, iMS | |
| 5 | Dew/frost point | TdTdTd | °C | Sasaki, Shun | Radiosonde, Meisei, iMS | |
| 6 | Wind direction | dd | deg | Sasaki, Shun | Radiosonde, Meisei, iMS | |
| 7 | Wind speed | ff | m/s | Sasaki, Shun | Radiosonde, Meisei, iMS |
License:
Status:
Curation Level: Enhanced curation (CurationLevelC)
Size:
25335 data points
Data
| 1 Date/Time | 2 Altitude [m] | 3 PPPP [hPa] | 4 TTT [°C] | 5 TdTdTd [°C] | 6 dd [deg] | 7 ff [m/s] |
|---|---|---|---|---|---|---|
| 2025-12-01T00:00 | 10820 | 222 | -55.8 | |||
| 2025-12-01T00:00 | 10988 | 217 | -56.6 | |||
| 2025-12-01T00:00 | 11018 | 216 | 241 | 60 | ||
| 2025-12-01T00:01 | 11315 | 206 | 245 | 61 | ||
| 2025-12-01T00:01 | 11461 | 201 | -54.1 | |||
| 2025-12-01T00:02 | 11619 | 196 | 253 | 63 | ||
| 2025-12-01T00:02 | 11651 | 195 | -51.0 | |||
| 2025-12-01T00:02 | 11791 | 191 | 254 | 60 | ||
| 2025-12-01T00:02 | 11854 | 189 | -50.0 | |||
| 2025-12-01T00:03 | 12148 | 181 | -50.9 | |||
| 2025-12-01T00:03 | 12230 | 179 | 256 | 60 | ||
| 2025-12-01T00:03 | 12383 | 174 | -51.6 | |||
| 2025-12-01T00:04 | 12632 | 168 | -51.6 | |||
| 2025-12-01T00:04 | 12694 | 166 | 256 | 57 | ||
| 2025-12-01T00:05 | 12997 | 159 | 257 | 55 | ||
| 2025-12-01T00:05 | 13099 | 156 | -52.1 | |||
| 2025-12-01T00:05 | 13254 | 152 | -52.5 | |||
| 2025-12-01T00:06 | 13400 | 149 | 250 | 54 | ||
| 2025-12-01T00:06 | 13617 | 144 | -53.8 | |||
| 2025-12-01T00:07 | 13701 | 142 | 251 | 56 | ||
| 2025-12-01T00:07 | 13826 | 139 | 254 | 58 | ||
| 2025-12-01T00:08 | 14090 | 134 | -53.8 | |||
| 2025-12-01T00:08 | 14248 | 131 | 254 | 56 | ||
| 2025-12-01T00:09 | 14596 | 124 | -56.6 | |||
| 2025-12-01T00:09 | 14662 | 122 | 256 | 54 | ||
| 2025-12-01T00:10 | 15069 | 115 | 254 | 49 | ||
| 2025-12-01T00:10 | 15177 | 113 | -57.3 | |||
| 2025-12-01T00:11 | 15407 | 109 | 254 | 52 | ||
| 2025-12-01T00:11 | 15473 | 108 | -57.5 | |||
| 2025-12-01T00:12 | 15784 | 102 | 254 | 47 | ||
| 2025-12-01T00:12 | 15971 | 99 | -60.6 | |||
| 2025-12-01T00:13 | 16119 | 97 | 248 | 48 | ||
| 2025-12-01T00:14 | 16462 | 92 | -61.3 | |||
| 2025-12-01T00:14 | 16488 | 91 | 247 | 48 | ||
| 2025-12-01T00:15 | 16723 | 88 | 237 | 45 | ||
| 2025-12-01T00:16 | 16970 | 85 | 246 | 51 | ||
| 2025-12-01T00:16 | 17074 | 83 | 247 | 53 | ||
| 2025-12-01T00:17 | 17216 | 81 | 249 | 53 | ||
| 2025-12-01T00:17 | 17224 | 81 | -59.0 | |||
| 2025-12-01T00:17 | 17336 | 80 | -57.8 | |||
| 2025-12-01T00:17 | 17454 | 78 | 248 | 47 | ||
| 2025-12-01T00:18 | 17503 | 78 | -56.7 | |||
| 2025-12-01T00:18 | 17872 | 73 | 266 | 43 | ||
| 2025-12-01T00:19 | 18327 | 68 | 265 | 38 | ||
| 2025-12-01T00:20 | 18361 | 68 | -60.7 | |||
| 2025-12-01T00:21 | 18757 | 64 | 269 | 39 | ||
| 2025-12-01T00:21 | 18845 | 63 | -63.5 | |||
| 2025-12-01T00:21 | 19123 | 60 | -64.0 | |||
| 2025-12-01T00:22 | 19145 | 60 | 266 | 36 | ||
| 2025-12-01T00:22 | 19374 | 58 | -64.6 | |||
| 2025-12-01T00:23 | 19555 | 56 | 255 | 42 | ||
| 2025-12-01T00:23 | 19776 | 54 | -66.8 | |||
| 2025-12-01T00:23 | 19805 | 54 | -66.6 | 254 | 49 | |
| 2025-12-01T11:30 | 18 | 1012 | 4.0 | -7.2 | 240 | 4 |
| 2025-12-01T11:30 | 22 | 1012 | 4.2 | -7.6 | 240 | 1 |
| 2025-12-01T11:30 | 66 | 1006 | 268 | 4 | ||
| 2025-12-01T11:30 | 177 | 993 | 284 | 7 | ||
| 2025-12-01T11:31 | 353 | 971 | 273 | 10 | ||
| 2025-12-01T11:31 | 495 | 954 | 280 | 8 | ||
| 2025-12-01T11:32 | 735 | 926 | 256 | 9 | ||
| 2025-12-01T11:32 | 820 | 916 | -3.8 | -10.0 | ||
| 2025-12-01T11:33 | 994 | 896 | 250 | 11 | ||
| 2025-12-01T11:34 | 1253 | 867 | 249 | 13 | ||
| 2025-12-01T11:34 | 1311 | 860 | -8.3 | -11.6 | ||
| 2025-12-01T11:35 | 1504 | 839 | -10.3 | -12.2 | ||
| 2025-12-01T11:35 | 1538 | 835 | 259 | 12 | ||
| 2025-12-01T11:35 | 1542 | 835 | -10.5 | -13.3 | ||
| 2025-12-01T11:35 | 1574 | 831 | -10.1 | -15.4 | ||
| 2025-12-01T11:35 | 1622 | 826 | -10.4 | -17.7 | ||
| 2025-12-01T11:35 | 1644 | 824 | -9.9 | -21.0 | ||
| 2025-12-01T11:35 | 1664 | 822 | 271 | 14 | ||
| 2025-12-01T11:35 | 1678 | 820 | -10.4 | -21.4 | ||
| 2025-12-01T11:35 | 1701 | 818 | -9.2 | -29.2 | ||
| 2025-12-01T11:36 | 1745 | 813 | -9.6 | -30.1 | ||
| 2025-12-01T11:36 | 1783 | 809 | -8.8 | -46.5 | ||
| 2025-12-01T11:36 | 1834 | 804 | 284 | 21 | ||
| 2025-12-01T11:37 | 2134 | 773 | 283 | 23 | ||
| 2025-12-01T11:38 | 2509 | 736 | 284 | 22 | ||
| 2025-12-01T11:38 | 2567 | 730 | -15.3 | -43.5 | ||
| 2025-12-01T11:39 | 2769 | 711 | -15.8 | -54.8 | ||
| 2025-12-01T11:39 | 2810 | 707 | 281 | 24 | ||
| 2025-12-01T11:39 | 2961 | 693 | -16.5 | -55.3 | ||
| 2025-12-01T11:39 | 3036 | 686 | -15.7 | -60.3 | ||
| 2025-12-01T11:40 | 3102 | 680 | -15.3 | -60.1 | ||
| 2025-12-01T11:40 | 3129 | 678 | 272 | 30 | ||
| 2025-12-01T11:40 | 3268 | 666 | -14.9 | -50.8 | ||
| 2025-12-01T11:40 | 3364 | 657 | -15.3 | -42.3 | ||
| 2025-12-01T11:40 | 3458 | 649 | -15.8 | -34.7 | ||
| 2025-12-01T11:41 | 3470 | 648 | 267 | 31 | ||
| 2025-12-01T11:41 | 3739 | 625 | -16.9 | -31.9 | ||
| 2025-12-01T11:42 | 3783 | 621 | 258 | 37 | ||
| 2025-12-01T11:42 | 3956 | 607 | -16.7 | -31.0 | ||
| 2025-12-01T11:42 | 4070 | 598 | 250 | 40 | ||
| 2025-12-01T11:43 | 4137 | 593 | -17.4 | -30.2 | ||
| 2025-12-01T11:43 | 4378 | 574 | 250 | 39 | ||
| 2025-12-01T11:44 | 4617 | 556 | -21.3 | -32.7 | ||
| 2025-12-01T11:44 | 4771 | 544 | 250 | 40 | ||
| 2025-12-01T11:45 | 4872 | 537 | -23.5 | -33.9 | ||
| 2025-12-01T11:45 | 5198 | 513 | -26.1 | -34.8 | ||
| 2025-12-01T11:46 | 5213 | 512 | 249 | 41 | ||
| 2025-12-01T11:46 | 5359 | 502 | 252 | 43 | ||
| 2025-12-01T11:46 | 5516 | 491 | -28.8 | -34.7 | ||
| 2025-12-01T11:46 | 5592 | 486 | 254 | 46 | ||
| 2025-12-01T11:47 | 5766 | 474 | -31.0 | -35.9 | ||
| 2025-12-01T11:47 | 5967 | 461 | 252 | 44 | ||
| 2025-12-01T11:48 | 6114 | 451 | 252 | 44 | ||
| 2025-12-01T11:48 | 6184 | 447 | -34.1 | -40.2 | ||
| 2025-12-01T11:49 | 6425 | 432 | 252 | 47 | ||
| 2025-12-01T11:49 | 6625 | 419 | -36.8 | -44.2 | ||
| 2025-12-01T11:50 | 6712 | 414 | 253 | 48 | ||
| 2025-12-01T11:50 | 6815 | 408 | -38.2 | -45.7 | ||
| 2025-12-01T11:50 | 7064 | 393 | -39.7 | -48.9 | ||
| 2025-12-01T11:51 | 7106 | 391 | -40.0 | -49.4 | ||
| 2025-12-01T11:51 | 7113 | 391 | 253 | 51 | ||
| 2025-12-01T11:51 | 7390 | 375 | 257 | 51 | ||
| 2025-12-01T11:52 | 7607 | 363 | 258 | 54 | ||
| 2025-12-01T11:52 | 7834 | 351 | 256 | 54 | ||
| 2025-12-01T11:53 | 7987 | 343 | -47.4 | |||
| 2025-12-01T11:53 | 8085 | 338 | 258 | 56 | ||
| 2025-12-01T11:54 | 8434 | 320 | 257 | 60 | ||
| 2025-12-01T11:55 | 8792 | 303 | 256 | 58 | ||
| 2025-12-01T11:55 | 8798 | 303 | -52.6 | |||
| 2025-12-01T11:55 | 8985 | 294 | -52.1 | |||
| 2025-12-01T11:56 | 9201 | 285 | 255 | 58 | ||
| 2025-12-01T11:56 | 9289 | 281 | -53.4 | |||
| 2025-12-01T11:57 | 9564 | 269 | 257 | 62 | ||
| 2025-12-01T11:57 | 9694 | 264 | -53.6 | |||
| 2025-12-01T11:57 | 9729 | 262 | 254 | 59 | ||
| 2025-12-01T11:58 | 10053 | 249 | 253 | 59 | ||
| 2025-12-01T11:58 | 10072 | 249 | -54.3 | |||
| 2025-12-01T11:59 | 10314 | 239 | 256 | 59 | ||
| 2025-12-01T12:00 | 10478 | 233 | -51.6 | |||
| 2025-12-01T12:00 | 10652 | 227 | 258 | 61 | ||
| 2025-12-01T12:01 | 10848 | 220 | 259 | 56 | ||
| 2025-12-01T12:01 | 10938 | 217 | -51.8 | |||
| 2025-12-01T12:02 | 11175 | 210 | -50.4 | |||
| 2025-12-01T12:02 | 11256 | 207 | 253 | 52 | ||
| 2025-12-01T12:02 | 11316 | 205 | -49.9 | |||
| 2025-12-01T12:03 | 11648 | 195 | 249 | 48 | ||
| 2025-12-01T12:04 | 11945 | 186 | 250 | 56 | ||
| 2025-12-01T12:04 | 12082 | 182 | 251 | 51 | ||
| 2025-12-01T12:04 | 12106 | 182 | -50.4 | |||
| 2025-12-01T12:04 | 12221 | 179 | -50.1 | |||
| 2025-12-01T12:05 | 12392 | 174 | 252 | 49 | ||
| 2025-12-01T12:05 | 12520 | 171 | -52.0 | |||
| 2025-12-01T12:06 | 12688 | 166 | 246 | 45 | ||
| 2025-12-01T12:06 | 13011 | 158 | 248 | 49 | ||
| 2025-12-01T12:07 | 13292 | 151 | 250 | 48 | ||
| 2025-12-01T12:08 | 13675 | 143 | 248 | 49 | ||
| 2025-12-01T12:08 | 13782 | 140 | -54.3 | |||
| 2025-12-01T12:09 | 13933 | 137 | 243 | 48 | ||
| 2025-12-01T12:09 | 14002 | 135 | -53.9 | |||
| 2025-12-01T12:10 | 14171 | 132 | 242 | 47 | ||
| 2025-12-01T12:10 | 14306 | 129 | 241 | 49 | ||
| 2025-12-01T12:11 | 14389 | 128 | -52.9 | |||
| 2025-12-01T12:11 | 14577 | 124 | 238 | 44 | ||
| 2025-12-01T12:12 | 14959 | 117 | -54.7 | |||
| 2025-12-01T12:12 | 15007 | 116 | 237 | 41 | ||
| 2025-12-01T12:13 | 15561 | 106 | 248 | 46 | ||
| 2025-12-01T12:14 | 15932 | 100 | -60.7 | |||
| 2025-12-01T12:14 | 16138 | 97 | 252 | 43 | ||
| 2025-12-01T12:14 | 16155 | 97 | -61.5 | |||
| 2025-12-01T12:15 | 16612 | 90 | 249 | 46 | ||
| 2025-12-01T12:16 | 16784 | 87 | -64.0 | |||
| 2025-12-01T12:16 | 16898 | 86 | 253 | 48 | ||
| 2025-12-01T12:16 | 16972 | 85 | -63.3 | |||
| 2025-12-01T12:17 | 17119 | 83 | 256 | 51 | ||
| 2025-12-01T12:18 | 17334 | 80 | -62.0 | |||
| 2025-12-01T12:18 | 17446 | 78 | 255 | 52 | ||
| 2025-12-01T12:19 | 17849 | 73 | -63.3 | |||
| 2025-12-01T12:19 | 17956 | 72 | 258 | 50 | ||
| 2025-12-01T12:19 | 18246 | 69 | -63.2 | |||
| 2025-12-01T12:20 | 18363 | 67 | 253 | 47 | ||
| 2025-12-01T12:20 | 18480 | 66 | -62.2 | |||
| 2025-12-01T12:20 | 18710 | 64 | 251 | 52 | ||
| 2025-12-01T12:21 | 18908 | 62 | -61.7 | |||
| 2025-12-01T12:21 | 18998 | 61 | 256 | 54 | ||
| 2025-12-01T12:22 | 19240 | 59 | -59.3 | 264 | 59 | |
| 2025-12-01T12:23 | 19424 | 57 | 263 | 53 | ||
| 2025-12-01T12:23 | 19501 | 56 | -55.7 | |||
| 2025-12-01T12:23 | 19744 | 54 | 263 | 48 | ||
| 2025-12-01T12:24 | 19980 | 52 | 259 | 43 | ||
| 2025-12-01T12:24 | 20099 | 51 | -53.9 | |||
| 2025-12-01T12:24 | 20384 | 49 | -54.3 | |||
| 2025-12-01T12:24 | 20407 | 49 | 267 | 46 | ||
| 2025-12-01T12:25 | 20831 | 46 | 261 | 38 | ||
| 2025-12-01T12:25 | 20872 | 45 | -52.8 | |||
| 2025-12-01T12:26 | 21076 | 44 | 243 | 40 | ||
| 2025-12-01T12:26 | 21225 | 43 | -51.8 | |||
| 2025-12-01T12:27 | 21347 | 42 | 253 | 44 | ||
| 2025-12-01T12:27 | 21367 | 42 | -51.5 | 253 | 45 | |
| 2025-12-01T23:30 | 18 | 1015 | 1.4 | -6.0 | 180 | 1 |
| 2025-12-01T23:30 | 23 | 1014 | 1.6 | -6.5 | 0 | 0 |
| 2025-12-01T23:30 | 160 | 997 | 195 | 3 | ||
| 2025-12-01T23:31 | 403 | 967 | 180 | 3 | ||
| 2025-12-01T23:31 | 528 | 952 | -2.5 | -10.3 | ||
| 2025-12-01T23:31 | 548 | 950 | 171 | 1 | ||
| 2025-12-01T23:32 | 730 | 928 | -4.2 | -11.7 | ||
| 2025-12-01T23:32 | 779 | 922 | 273 | 3 | ||
| 2025-12-01T23:32 | 834 | 916 | -4.6 | -16.2 | ||
| 2025-12-01T23:32 | 966 | 901 | 267 | 5 | ||
| 2025-12-01T23:33 | 1086 | 887 | -6.4 | -19.7 | ||
| 2025-12-01T23:33 | 1128 | 882 | 254 | 6 | ||
| 2025-12-01T23:33 | 1242 | 869 | -7.0 | -29.3 | ||
| 2025-12-01T23:33 | 1300 | 863 | -6.5 | -33.2 | ||
| 2025-12-01T23:33 | 1371 | 855 | 241 | 10 | ||
| 2025-12-01T23:33 | 1419 | 850 | -6.4 | -26.3 | ||
| 2025-12-01T23:34 | 1637 | 826 | 245 | 8 | ||
| 2025-12-01T23:34 | 1722 | 817 | -9.2 | -21.5 | ||
| 2025-12-01T23:35 | 1968 | 792 | 247 | 12 | ||
| 2025-12-01T23:35 | 1974 | 791 | -11.1 | -17.3 | ||
| 2025-12-01T23:36 | 2270 | 761 | -12.7 | -15.1 | ||
| 2025-12-01T23:36 | 2355 | 753 | 256 | 18 | ||
| 2025-12-01T23:36 | 2388 | 749 | -13.4 | -16.6 | ||
| 2025-12-01T23:36 | 2569 | 732 | -14.6 | -18.0 | ||
| 2025-12-01T23:37 | 2656 | 723 | 257 | 23 | ||
| 2025-12-01T23:37 | 2825 | 707 | -14.6 | -19.9 | ||
| 2025-12-01T23:37 | 2909 | 699 | 259 | 32 | ||
| 2025-12-01T23:37 | 2992 | 692 | -15.2 | -18.8 | ||
| 2025-12-01T23:38 | 3168 | 676 | -15.9 | -21.0 | ||
| 2025-12-01T23:38 | 3188 | 674 | 256 | 37 | ||
| 2025-12-01T23:38 | 3365 | 658 | -15.9 | -23.3 | ||
| 2025-12-01T23:39 | 3579 | 640 | 248 | 38 | ||
| 2025-12-01T23:39 | 3670 | 632 | -18.1 | -23.8 | ||
| 2025-12-01T23:40 | 3888 | 614 | -19.5 | -21.7 | ||
| 2025-12-01T23:40 | 3974 | 607 | 245 | 41 | ||
| 2025-12-01T23:40 | 3981 | 607 | -19.9 | -23.5 | ||
| 2025-12-01T23:41 | 4296 | 581 | -21.9 | -26.1 | ||
| 2025-12-01T23:41 | 4367 | 576 | 248 | 38 | ||
| 2025-12-01T23:42 | 4653 | 554 | -24.0 | -28.6 | ||
| 2025-12-01T23:42 | 4769 | 545 | 246 | 40 | ||
| 2025-12-01T23:43 | 5013 | 527 | -26.8 | -29.9 | ||
| 2025-12-01T23:43 | 5163 | 516 | 243 | 42 | ||
| 2025-12-01T23:44 | 5411 | 498 | 247 | 45 | ||
| 2025-12-01T23:44 | 5457 | 495 | -29.8 | -33.2 | ||
| 2025-12-01T23:44 | 5691 | 479 | -31.8 | -34.4 | ||
| 2025-12-01T23:45 | 5799 | 472 | 250 | 47 | ||
| 2025-12-01T23:45 | 5877 | 467 | -33.2 | -36.0 | ||
| 2025-12-01T23:45 | 6033 | 456 | -34.2 | -36.7 | ||
| 2025-12-01T23:45 | 6151 | 449 | 248 | 52 | ||
| 2025-12-01T23:46 | 6290 | 440 | -35.8 | -37.2 | ||
| 2025-12-01T23:46 | 6416 | 432 | 243 | 55 | ||
| 2025-12-01T23:47 | 6580 | 422 | 245 | 58 | ||
| 2025-12-01T23:47 | 6593 | 421 | -37.7 | -40.2 | ||
| 2025-12-01T23:47 | 6718 | 413 | -38.6 | -42.2 | ||
| 2025-12-01T23:47 | 6863 | 405 | -39.7 | -44.5 | ||
| 2025-12-01T23:47 | 6897 | 403 | -40.0 | -45.0 | ||
| 2025-12-01T23:48 | 6993 | 397 | 247 | 58 | ||
| 2025-12-01T23:48 | 7298 | 380 | -43.1 | |||
| 2025-12-01T23:48 | 7335 | 378 | 248 | 57 | ||
| 2025-12-01T23:49 | 7760 | 354 | 250 | 54 | ||
| 2025-12-01T23:49 | 7795 | 352 | -46.9 | |||
| 2025-12-01T23:50 | 8196 | 332 | 246 | 52 | ||
| 2025-12-01T23:51 | 8331 | 325 | 249 | 56 | ||
| 2025-12-01T23:51 | 8449 | 319 | -52.1 | |||
| 2025-12-01T23:51 | 8582 | 312 | 251 | 54 | ||
| 2025-12-01T23:52 | 8779 | 303 | -53.8 | |||
| 2025-12-01T23:52 | 8952 | 295 | 252 | 55 | ||
| 2025-12-01T23:52 | 9000 | 293 | -53.8 | |||
| 2025-12-01T23:53 | 9127 | 287 | 253 | 52 | ||
| 2025-12-01T23:53 | 9234 | 282 | -55.4 | |||
| 2025-12-01T23:53 | 9288 | 280 | 246 | 50 | ||
| 2025-12-01T23:54 | 9407 | 275 | -55.4 | |||
| 2025-12-01T23:54 | 9655 | 264 | 247 | 51 | ||
| 2025-12-01T23:55 | 9858 | 256 | -55.4 | |||
| 2025-12-01T23:55 | 9915 | 254 | 248 | 53 | ||
| 2025-12-01T23:55 | 10062 | 248 | -55.7 | |||
| 2025-12-01T23:55 | 10095 | 247 | 241 | 50 | ||
| 2025-12-01T23:56 | 10378 | 236 | 236 | 54 | ||
| 2025-12-01T23:57 | 10603 | 228 | -57.5 | 233 | 59 | |
| 2025-12-01T23:57 | 10740 | 223 | -56.3 | |||
| 2025-12-01T23:58 | 10937 | 216 | -56.2 | 237 | 63 | |
| 2025-12-01T23:59 | 11265 | 205 | -54.3 | |||
| 2025-12-01T23:59 | 11282 | 205 | 243 | 62 | ||
| 2025-12-01T23:59 | 11425 | 200 | 242 | 58 | ||
| 2025-12-02T00:00 | 11764 | 190 | 244 | 57 | ||
| 2025-12-02T00:00 | 11823 | 188 | -52.0 | |||
| 2025-12-02T00:01 | 12123 | 180 | 247 | 54 | ||
| 2025-12-02T00:02 | 12456 | 171 | 247 | 50 | ||
| 2025-12-02T00:02 | 12569 | 168 | -53.3 | |||
| 2025-12-02T00:03 | 12762 | 163 | 246 | 51 | ||
| 2025-12-02T00:04 | 13061 | 155 | 249 | 51 | ||
| 2025-12-02T00:05 | 13215 | 152 | -53.4 | |||
| 2025-12-02T00:05 | 13377 | 148 | 247 | 47 | ||
| 2025-12-02T00:05 | 13488 | 145 | -54.6 | |||
| 2025-12-02T00:06 | 13652 | 142 | 248 | 47 | ||
| 2025-12-02T00:07 | 13890 | 136 | 247 | 45 | ||
| 2025-12-02T00:07 | 13940 | 135 | -54.9 | |||
| 2025-12-02T00:08 | 14229 | 129 | 249 | 47 | ||
| 2025-12-02T00:08 | 14314 | 128 | -56.2 | |||
| 2025-12-02T00:08 | 14522 | 124 | 249 | 42 | ||
| 2025-12-02T00:09 | 14714 | 120 | -56.9 | |||
| 2025-12-02T00:09 | 14779 | 119 | 245 | 43 | ||
| 2025-12-02T00:10 | 15019 | 114 | -58.4 | |||
| 2025-12-02T00:10 | 15124 | 112 | 249 | 48 | ||
| 2025-12-02T00:10 | 15179 | 111 | -58.8 | |||
| 2025-12-02T00:11 | 15474 | 106 | 246 | 44 | ||
| 2025-12-02T00:12 | 15827 | 100 | 244 | 46 | ||
| 2025-12-02T00:12 | 15851 | 100 | -59.2 | |||
| 2025-12-02T00:13 | 16168 | 95 | 251 | 48 | ||
| 2025-12-02T00:13 | 16243 | 94 | -59.0 | |||
| 2025-12-02T00:14 | 16510 | 90 | 258 | 45 | ||
| 2025-12-02T00:15 | 16798 | 86 | 253 | 49 | ||
| 2025-12-02T00:15 | 16817 | 86 | -58.7 | |||
| 2025-12-02T00:16 | 17188 | 81 | 253 | 40 | ||
| 2025-12-02T00:17 | 17440 | 78 | 244 | 37 | ||
| 2025-12-02T00:17 | 17613 | 76 | -57.3 | |||
| 2025-12-02T00:18 | 17826 | 73 | 238 | 36 | ||
| 2025-12-02T00:19 | 18188 | 69 | 248 | 45 | ||
| 2025-12-02T00:19 | 18280 | 68 | -59.1 | |||
| 2025-12-02T00:19 | 18527 | 65 | 246 | 43 | ||
| 2025-12-02T00:20 | 18652 | 64 | -58.6 | |||
| 2025-12-02T00:21 | 18923 | 61 | 248 | 41 | ||
| 2025-12-02T00:21 | 19139 | 59 | -57.7 | |||
| 2025-12-02T00:21 | 19291 | 58 | 244 | 40 | ||
| 2025-12-02T00:21 | 19304 | 58 | -55.8 | |||
| 2025-12-02T00:22 | 19689 | 54 | 244 | 37 | ||
| 2025-12-02T00:23 | 19808 | 53 | -54.9 | |||
| 2025-12-02T00:23 | 20026 | 52 | 235 | 41 | ||
| 2025-12-02T00:24 | 20213 | 50 | -56.6 | |||
| 2025-12-02T00:24 | 20461 | 48 | 244 | 45 | ||
| 2025-12-02T00:24 | 20539 | 48 | -57.0 | |||
| 2025-12-02T00:25 | 20727 | 46 | 249 | 45 | ||
| 2025-12-02T00:25 | 20982 | 44 | 249 | 40 | ||
| 2025-12-02T00:26 | 21070 | 44 | -55.3 | |||
| 2025-12-02T00:26 | 21125 | 43 | 251 | 39 | ||
| 2025-12-02T00:26 | 21354 | 42 | 249 | 36 | ||
| 2025-12-02T00:27 | 21621 | 40 | -52.2 | |||
| 2025-12-02T00:27 | 21686 | 40 | 254 | 38 | ||
| 2025-12-02T00:27 | 21818 | 39 | -51.2 | |||
| 2025-12-02T00:28 | 21939 | 38 | -49.2 | |||
| 2025-12-02T00:28 | 22058 | 38 | 256 | 36 | ||
| 2025-12-02T00:29 | 22397 | 36 | -50.0 | |||
| 2025-12-02T00:29 | 22424 | 36 | -49.8 | 260 | 33 | |
| 2025-12-02T11:30 | 18 | 1006 | 2.8 | 1.3 | 330 | 6 |
| 2025-12-02T11:30 | 22 | 1005 | 2.9 | 1.1 | 319 | 1 |
| 2025-12-02T11:30 | 101 | 996 | 339 | 5 | ||
| 2025-12-02T11:31 | 266 | 976 | 325 | 13 | ||
| 2025-12-02T11:31 | 403 | 959 | -0.3 | -0.7 | ||
| 2025-12-02T11:31 | 526 | 945 | 318 | 12 | ||
| 2025-12-02T11:32 | 665 | 928 | -0.5 | -1.2 | ||
| 2025-12-02T11:32 | 799 | 913 | 294 | 3 | ||
| 2025-12-02T11:32 | 812 | 911 | -1.7 | -2.1 | ||
| 2025-12-02T11:32 | 890 | 902 | -1.6 | -2.2 | ||
| 2025-12-02T11:33 | 929 | 898 | 256 | 7 | ||
| 2025-12-02T11:34 | 1347 | 852 | 245 | 11 | ||
| 2025-12-02T11:34 | 1512 | 834 | -5.1 | -5.9 | ||
| 2025-12-02T11:34 | 1597 | 825 | -5.8 | -6.7 | ||
| 2025-12-02T11:34 | 1715 | 813 | -6.5 | -7.4 | ||
| 2025-12-02T11:35 | 1809 | 803 | 255 | 14 | ||
| 2025-12-02T11:35 | 2059 | 777 | -9.7 | -11.3 | ||
| 2025-12-02T11:35 | 2089 | 774 | 247 | 18 | ||
| 2025-12-02T11:36 | 2546 | 730 | 240 | 25 | ||
| 2025-12-02T11:36 | 2633 | 721 | -14.4 | -18.8 | ||
| 2025-12-02T11:37 | 2910 | 695 | -16.8 | -24.3 | ||
| 2025-12-02T11:37 | 3007 | 686 | 227 | 31 | ||
| 2025-12-02T11:37 | 3029 | 684 | -17.5 | -26.6 | ||
| 2025-12-02T11:38 | 3222 | 667 | -17.6 | -21.8 | ||
| 2025-12-02T11:38 | 3393 | 652 | -18.6 | -21.2 | ||
| 2025-12-02T11:38 | 3426 | 649 | 229 | 33 | ||
| 2025-12-02T11:38 | 3554 | 638 | -18.7 | -20.6 | ||
| 2025-12-02T11:39 | 3794 | 618 | 224 | 34 | ||
| 2025-12-02T11:40 | 4037 | 597 | -22.5 | -25.6 | ||
| 2025-12-02T11:40 | 4117 | 591 | -23.4 | -32.3 | ||
| 2025-12-02T11:40 | 4140 | 589 | 221 | 34 | ||
| 2025-12-02T11:40 | 4169 | 587 | -23.9 | -36.0 | ||
| 2025-12-02T11:40 | 4227 | 582 | -24.1 | -38.2 | ||
| 2025-12-02T11:41 | 4490 | 561 | 223 | 34 | ||
| 2025-12-02T11:42 | 4721 | 544 | -26.0 | -41.9 | ||
| 2025-12-02T11:42 | 4785 | 539 | -25.8 | -39.0 | ||
| 2025-12-02T11:42 | 4842 | 535 | -25.6 | -33.6 | ||
| 2025-12-02T11:42 | 4861 | 533 | 225 | 40 | ||
| 2025-12-02T11:43 | 5209 | 508 | 227 | 40 | ||
| 2025-12-02T11:44 | 5411 | 494 | -30.1 | -33.2 | ||
| 2025-12-02T11:44 | 5627 | 479 | 234 | 43 | ||
| 2025-12-02T11:45 | 5905 | 461 | -33.6 | -37.0 | ||
| 2025-12-02T11:45 | 5972 | 456 | 234 | 49 | ||
| 2025-12-02T11:46 | 6258 | 438 | 230 | 53 | ||
| 2025-12-02T11:46 | 6351 | 432 | -37.3 | -40.6 | ||
| 2025-12-02T11:47 | 6637 | 415 | -40.0 | -43.2 | ||
| 2025-12-02T11:47 | 6657 | 413 | 232 | 52 | ||
| 2025-12-02T11:47 | 6867 | 401 | 233 | 55 | ||
| 2025-12-02T11:48 | 7041 | 391 | -43.0 | |||
| 2025-12-02T11:48 | 7169 | 383 | -43.6 | |||
| 2025-12-02T11:48 | 7224 | 380 | 231 | 58 | ||
| 2025-12-02T11:49 | 7616 | 358 | 232 | 58 | ||
| 2025-12-02T11:50 | 7783 | 349 | -48.7 | |||
| 2025-12-02T11:50 | 8016 | 337 | 229 | 56 | ||
| 2025-12-02T11:50 | 8057 | 335 | -49.5 | |||
| 2025-12-02T11:51 | 8416 | 317 | 232 | 56 | ||
| 2025-12-02T11:51 | 8462 | 315 | -51.6 | |||
| 2025-12-02T11:52 | 8822 | 298 | 236 | 56 | ||
| 2025-12-02T11:53 | 9041 | 288 | -54.6 | |||
| 2025-12-02T11:53 | 9181 | 282 | 234 | 54 | ||
| 2025-12-02T11:54 | 9534 | 267 | 232 | 56 | ||
| 2025-12-02T11:55 | 9686 | 260 | 237 | 56 | ||
| 2025-12-02T11:55 | 9727 | 259 | -54.4 | |||
| 2025-12-02T11:55 | 9945 | 250 | -53.8 | |||
| 2025-12-02T11:56 | 10051 | 246 | 238 | 56 | ||
| 2025-12-02T11:56 | 10274 | 238 | 245 | 55 | ||
| 2025-12-02T11:57 | 10596 | 226 | -53.8 | |||
| 2025-12-02T11:57 | 10667 | 223 | 243 | 53 | ||
| 2025-12-02T11:58 | 11028 | 211 | 240 | 53 | ||
| 2025-12-02T11:59 | 11213 | 205 | -52.8 | |||
| 2025-12-02T11:59 | 11305 | 202 | 243 | 55 | ||
| 2025-12-02T12:00 | 11541 | 195 | 246 | 54 | ||
| 2025-12-02T12:00 | 11608 | 193 | -51.0 | |||
| 2025-12-02T12:01 | 11688 | 191 | 247 | 51 | ||
| 2025-12-02T12:01 | 11886 | 185 | -51.0 | |||
| 2025-12-02T12:02 | 12025 | 181 | 248 | 52 | ||
| 2025-12-02T12:02 | 12146 | 178 | -51.3 | |||
| 2025-12-02T12:03 | 12404 | 171 | 251 | 52 | ||
| 2025-12-02T12:03 | 12471 | 169 | -51.1 | |||
| 2025-12-02T12:03 | 12614 | 165 | 250 | 52 | ||
| 2025-12-02T12:04 | 12912 | 158 | 250 | 51 | ||
| 2025-12-02T12:05 | 13180 | 152 | 250 | 49 | ||
| 2025-12-02T12:05 | 13218 | 151 | -51.6 | |||
| 2025-12-02T12:06 | 13494 | 144 | 249 | 48 | ||
| 2025-12-02T12:07 | 13832 | 137 | -52.9 | |||
| 2025-12-02T12:07 | 13857 | 137 | 243 | 49 | ||
| 2025-12-02T12:08 | 14215 | 129 | 243 | 51 | ||
| 2025-12-02T12:08 | 14226 | 129 | -54.1 | |||
| 2025-12-02T12:09 | 14529 | 123 | 247 | 49 | ||
| 2025-12-02T12:10 | 14759 | 119 | -55.2 | |||
| 2025-12-02T12:10 | 14834 | 117 | 244 | 44 | ||
| 2025-12-02T12:10 | 14915 | 116 | -54.9 | |||
| 2025-12-02T12:11 | 15190 | 111 | 239 | 48 | ||
| 2025-12-02T12:11 | 15208 | 111 | -56.7 | |||
| 2025-12-02T12:12 | 15394 | 107 | -56.7 | |||
| 2025-12-02T12:12 | 15542 | 105 | 243 | 43 | ||
| 2025-12-02T12:13 | 15891 | 99 | -57.4 | 241 | 49 | |
| 2025-12-02T12:14 | 16097 | 96 | 244 | 53 | ||
| 2025-12-02T12:15 | 16357 | 92 | 250 | 50 | ||
| 2025-12-02T12:15 | 16507 | 90 | -58.6 | |||
| 2025-12-02T12:15 | 16604 | 89 | 255 | 48 | ||
| 2025-12-02T12:15 | 16640 | 88 | -55.6 | |||
| 2025-12-02T12:16 | 16754 | 87 | 255 | 44 | ||
| 2025-12-02T12:16 | 16893 | 85 | -56.0 | |||
| 2025-12-02T12:16 | 16913 | 84 | 247 | 35 | ||
| 2025-12-02T12:17 | 17108 | 82 | -55.6 | |||
| 2025-12-02T12:17 | 17267 | 80 | 240 | 34 | ||
| 2025-12-02T12:18 | 17637 | 75 | 248 | 33 | ||
| 2025-12-02T12:19 | 17834 | 73 | -54.8 | |||
| 2025-12-02T12:19 | 18021 | 71 | 233 | 33 | ||
| 2025-12-02T12:20 | 18417 | 67 | 234 | 41 | ||
| 2025-12-02T12:20 | 18579 | 65 | 237 | 44 | ||
| 2025-12-02T12:20 | 18591 | 65 | -58.3 | |||
| 2025-12-02T12:21 | 18718 | 64 | 240 | 46 | ||
| 2025-12-02T12:21 | 18758 | 63 | -56.7 | |||
| 2025-12-02T12:22 | 19088 | 60 | 254 | 44 | ||
| 2025-12-02T12:22 | 19259 | 58 | 260 | 40 | ||
| 2025-12-02T12:23 | 19439 | 57 | -55.2 | |||
| 2025-12-02T12:23 | 19624 | 55 | 248 | 41 | ||
| 2025-12-02T12:23 | 19636 | 55 | -53.8 | |||
| 2025-12-02T12:24 | 19995 | 52 | 243 | 40 | ||
| 2025-12-02T12:25 | 20069 | 51 | -53.7 | |||
| 2025-12-02T12:25 | 20297 | 50 | -53.5 | |||
| 2025-12-02T12:25 | 20374 | 49 | 235 | 37 | ||
| 2025-12-02T12:26 | 20738 | 46 | 235 | 43 | ||
| 2025-12-02T12:27 | 20878 | 45 | -53.5 | |||
| 2025-12-02T12:27 | 21064 | 44 | 238 | 41 | ||
| 2025-12-02T12:28 | 21320 | 42 | -52.4 | |||
| 2025-12-02T12:28 | 21395 | 42 | 225 | 42 | ||
| 2025-12-02T12:29 | 21760 | 40 | 225 | 39 | ||
| 2025-12-02T12:30 | 22125 | 37 | -55.4 | |||
| 2025-12-02T12:30 | 22143 | 37 | 229 | 36 | ||
| 2025-12-02T12:31 | 22302 | 36 | -53.2 | |||
| 2025-12-02T12:31 | 22537 | 35 | 228 | 35 | ||
| 2025-12-02T12:32 | 22762 | 34 | 234 | 34 | ||
| 2025-12-02T12:33 | 23016 | 33 | -49.4 | |||
| 2025-12-02T12:33 | 23139 | 32 | 238 | 38 | ||
| 2025-12-02T12:33 | 23266 | 31 | 243 | 38 | ||
| 2025-12-02T12:33 | 23306 | 31 | -46.9 | |||
| 2025-12-02T12:34 | 23566 | 30 | 251 | 36 | ||
| 2025-12-02T12:35 | 23725 | 29 | 258 | 30 | ||
| 2025-12-02T12:35 | 23935 | 28 | -43.0 | |||
| 2025-12-02T12:35 | 24054 | 28 | 250 | 23 | ||
| 2025-12-02T12:36 | 24227 | 27 | -39.8 | |||
| 2025-12-02T12:36 | 24406 | 26 | 210 | 15 | ||
| 2025-12-02T12:37 | 24857 | 25 | 213 | 12 | ||
| 2025-12-02T12:38 | 25357 | 23 | 197 | 11 | ||
| 2025-12-02T12:39 | 25561 | 22 | 199 | 14 | ||
| 2025-12-02T12:39 | 25792 | 21 | -50.6 | 208 | 15 | |
| 2025-12-02T23:30 | 18 | 1008 | 0.5 | -4.3 | 50 | 2 |
| 2025-12-02T23:30 | 23 | 1007 | 0.8 | -4.6 | 0 | 0 |
| 2025-12-02T23:31 | 189 | 986 | -1.2 | -5.2 | ||
| 2025-12-02T23:31 | 308 | 972 | 129 | 3 | ||
| 2025-12-02T23:31 | 355 | 966 | -2.9 | -6.2 | ||
| 2025-12-02T23:31 | 409 | 960 | -3.0 | -9.1 | ||
| 2025-12-02T23:32 | 522 | 946 | 163 | 3 | ||
| 2025-12-02T23:32 | 533 | 945 | -4.3 | -8.6 | ||
| 2025-12-02T23:32 | 580 | 939 | 187 | 1 | ||
| 2025-12-02T23:32 | 592 | 938 | -4.6 | -10.2 | ||
| 2025-12-02T23:32 | 652 | 931 | -5.3 | -9.7 | 291 | 3 |
| 2025-12-02T23:32 | 702 | 925 | -5.5 | -12.2 | ||
| 2025-12-02T23:32 | 766 | 917 | -6.2 | -13.6 | ||
| 2025-12-02T23:32 | 818 | 911 | -6.1 | -17.5 | ||
| 2025-12-02T23:32 | 838 | 909 | 259 | 11 | ||
| 2025-12-02T23:33 | 1130 | 875 | -8.5 | -21.2 | 263 | 12 |
| 2025-12-02T23:33 | 1294 | 857 | -9.4 | -25.0 | ||
| 2025-12-02T23:34 | 1435 | 841 | 276 | 16 | ||
| 2025-12-02T23:34 | 1477 | 837 | -10.1 | -31.9 | ||
| 2025-12-02T23:34 | 1560 | 828 | -10.3 | -33.5 | ||
| 2025-12-02T23:35 | 1929 | 789 | 265 | 19 | ||
| 2025-12-02T23:35 | 2094 | 772 | -15.5 | -30.7 | ||
| 2025-12-02T23:36 | 2363 | 745 | -17.6 | -28.8 | ||
| 2025-12-02T23:36 | 2395 | 742 | 256 | 23 | ||
| 2025-12-02T23:36 | 2577 | 724 | -18.7 | -30.7 | ||
| 2025-12-02T23:36 | 2699 | 712 | 256 | 29 | ||
| 2025-12-02T23:37 | 2794 | 703 | -20.5 | -27.6 | ||
| 2025-12-02T23:37 | 3069 | 677 | -22.6 | -24.2 | ||
| 2025-12-02T23:37 | 3123 | 672 | 249 | 32 | ||
| 2025-12-02T23:38 | 3383 | 649 | -25.3 | -26.8 | ||
| 2025-12-02T23:38 | 3442 | 644 | -25.4 | -34.3 | ||
| 2025-12-02T23:38 | 3489 | 640 | -25.6 | -45.3 | 252 | 31 |
| 2025-12-02T23:38 | 3546 | 635 | -25.3 | -45.1 | ||
| 2025-12-02T23:39 | 3615 | 629 | -25.3 | -39.6 | ||
| 2025-12-02T23:39 | 3671 | 624 | -25.0 | -40.6 | ||
| 2025-12-02T23:39 | 3824 | 611 | 238 | 33 | ||
| 2025-12-02T23:40 | 3986 | 597 | -25.3 | -40.4 | ||
| 2025-12-02T23:40 | 4051 | 592 | 240 | 37 | ||
| 2025-12-02T23:41 | 4390 | 565 | 243 | 38 | ||
| 2025-12-02T23:41 | 4460 | 559 | -28.0 | -44.5 | ||
| 2025-12-02T23:42 | 4749 | 537 | 239 | 39 | ||
| 2025-12-02T23:43 | 4994 | 519 | -32.6 | -47.2 | ||
| 2025-12-02T23:43 | 5094 | 511 | 236 | 39 | ||
| 2025-12-02T23:43 | 5242 | 501 | 236 | 41 | ||
| 2025-12-02T23:44 | 5540 | 480 | -37.1 | -47.0 | ||
| 2025-12-02T23:44 | 5615 | 474 | 235 | 39 | ||
| 2025-12-02T23:45 | 5765 | 464 | 233 | 39 | ||
| 2025-12-02T23:45 | 5980 | 450 | -39.0 | -53.1 | ||
| 2025-12-02T23:46 | 6124 | 441 | -40.0 | -54.0 | ||
| 2025-12-02T23:46 | 6150 | 439 | 235 | 43 | ||
| 2025-12-02T23:46 | 6317 | 428 | 238 | 46 | ||
| 2025-12-02T23:46 | 6350 | 426 | -40.9 | |||
| 2025-12-02T23:46 | 6449 | 420 | 236 | 50 | ||
| 2025-12-02T23:47 | 6710 | 404 | -41.7 | |||
| 2025-12-02T23:47 | 6827 | 397 | 240 | 60 | ||
| 2025-12-02T23:48 | 7011 | 387 | -41.6 | |||
| 2025-12-02T23:48 | 7077 | 383 | -41.3 | |||
| 2025-12-02T23:48 | 7220 | 375 | 241 | 76 | ||
| 2025-12-02T23:49 | 7648 | 352 | -44.9 | 241 | 81 | |
| 2025-12-02T23:50 | 8070 | 330 | 241 | 82 | ||
| 2025-12-02T23:51 | 8145 | 326 | -48.5 | |||
| 2025-12-02T23:51 | 8247 | 321 | 241 | 81 | ||
| 2025-12-02T23:51 | 8331 | 317 | -49.6 | |||
| 2025-12-02T23:51 | 8455 | 311 | 241 | 77 | ||
| 2025-12-02T23:52 | 8472 | 310 | -49.9 | |||
| 2025-12-02T23:52 | 8613 | 304 | -50.5 | |||
| 2025-12-02T23:52 | 8728 | 299 | 240 | 75 | ||
| 2025-12-02T23:53 | 9030 | 285 | 239 | 70 | ||
| 2025-12-02T23:53 | 9081 | 283 | -49.7 | |||
| 2025-12-02T23:54 | 9282 | 274 | -49.2 | |||
| 2025-12-02T23:54 | 9329 | 272 | 243 | 68 | ||
| 2025-12-02T23:55 | 9591 | 262 | 241 | 66 | ||
| 2025-12-02T23:56 | 9663 | 259 | -46.8 | |||
| 2025-12-02T23:56 | 9847 | 252 | 238 | 63 | ||
| 2025-12-02T23:56 | 9883 | 250 | -46.6 | |||
| 2025-12-02T23:57 | 10136 | 241 | 243 | 64 | ||
| 2025-12-02T23:58 | 10373 | 233 | 240 | 62 | ||
| 2025-12-02T23:59 | 10598 | 225 | -46.6 | |||
| 2025-12-02T23:59 | 10747 | 220 | 239 | 62 | ||
| 2025-12-03T00:00 | 11103 | 208 | 240 | 62 | ||
| 2025-12-03T00:00 | 11205 | 205 | -48.9 | |||
| 2025-12-03T00:01 | 11430 | 198 | 243 | 59 | ||
| 2025-12-03T00:02 | 11718 | 190 | 238 | 58 | ||
| 2025-12-03T00:02 | 11759 | 188 | -50.2 | |||
| 2025-12-03T00:03 | 11873 | 185 | -49.4 | |||
| 2025-12-03T00:03 | 11996 | 182 | 244 | 59 | ||
| 2025-12-03T00:04 | 12310 | 173 | 244 | 55 | ||
| 2025-12-03T00:04 | 12469 | 169 | -50.1 | |||
| 2025-12-03T00:05 | 12672 | 164 | 247 | 52 | ||
| 2025-12-03T00:05 | 12794 | 161 | -51.0 | |||
| 2025-12-03T00:05 | 12839 | 160 | 247 | 49 | ||
| 2025-12-03T00:06 | 13185 | 151 | -53.1 | 247 | 52 | |
| 2025-12-03T00:07 | 13471 | 145 | -52.6 | |||
| 2025-12-03T00:07 | 13491 | 144 | 247 | 49 | ||
| 2025-12-03T00:08 | 13650 | 141 | -52.2 | |||
| 2025-12-03T00:08 | 13774 | 138 | 237 | 46 | ||
| 2025-12-03T00:09 | 13952 | 134 | -52.5 | |||
| 2025-12-03T00:09 | 14069 | 132 | 240 | 44 | ||
| 2025-12-03T00:10 | 14402 | 125 | 240 | 41 | ||
| 2025-12-03T00:11 | 14579 | 122 | -55.8 | |||
| 2025-12-03T00:11 | 14764 | 118 | 234 | 44 | ||
| 2025-12-03T00:12 | 15062 | 113 | 239 | 46 | ||
| 2025-12-03T00:12 | 15104 | 112 | -58.2 | |||
| 2025-12-03T00:13 | 15478 | 106 | 241 | 45 | ||
| 2025-12-03T00:13 | 15578 | 104 | -57.3 | |||
| 2025-12-03T00:14 | 15820 | 100 | 238 | 40 | ||
| 2025-12-03T00:15 | 16155 | 95 | 240 | 41 | ||
| 2025-12-03T00:16 | 16483 | 90 | 250 | 45 | ||
| 2025-12-03T00:16 | 16501 | 90 | -60.6 | |||
| 2025-12-03T00:17 | 16820 | 85 | -60.5 | |||
| 2025-12-03T00:17 | 16904 | 84 | 250 | 44 | ||
| 2025-12-03T00:17 | 17127 | 81 | -61.1 | |||
| 2025-12-03T00:17 | 17150 | 81 | 240 | 45 | ||
| 2025-12-03T00:18 | 17364 | 78 | 242 | 48 | ||
| 2025-12-03T00:19 | 17709 | 74 | -60.7 | |||
| 2025-12-03T00:19 | 17727 | 74 | 248 | 53 | ||
| 2025-12-03T00:20 | 17926 | 71 | -59.0 | |||
| 2025-12-03T00:20 | 18022 | 70 | 252 | 50 | ||
| 2025-12-03T00:20 | 18130 | 69 | -55.3 | |||
| 2025-12-03T00:21 | 18194 | 68 | 252 | 52 | ||
| 2025-12-03T00:21 | 18386 | 66 | -52.4 | |||
| 2025-12-03T00:22 | 18475 | 66 | 253 | 44 | ||
| 2025-12-03T00:22 | 18554 | 65 | -50.3 | |||
| 2025-12-03T00:22 | 18658 | 64 | -48.9 | |||
| 2025-12-03T00:23 | 18825 | 62 | 254 | 29 | ||
| 2025-12-03T00:23 | 19040 | 60 | -47.2 | |||
| 2025-12-03T00:24 | 19243 | 58 | 251 | 21 | ||
| 2025-12-03T00:25 | 19660 | 55 | 230 | 16 | ||
| 2025-12-03T00:25 | 19673 | 55 | -48.5 | |||
| 2025-12-03T00:25 | 19966 | 52 | 230 | 13 | ||
| 2025-12-03T00:26 | 20288 | 50 | -51.6 | |||
| 2025-12-03T00:26 | 20300 | 50 | 222 | 21 | ||
| 2025-12-03T00:27 | 20538 | 48 | 229 | 28 | ||
| 2025-12-03T00:28 | 20760 | 46 | -52.5 | |||
| 2025-12-03T00:28 | 20873 | 45 | 235 | 28 | ||
| 2025-12-03T00:29 | 21018 | 44 | 235 | 24 | ||
| 2025-12-03T00:29 | 21152 | 44 | -49.8 | |||
| 2025-12-03T00:29 | 21227 | 43 | 230 | 29 | ||
| 2025-12-03T00:30 | 21570 | 41 | 208 | 26 | ||
| 2025-12-03T00:31 | 21635 | 40 | -49.8 | |||
| 2025-12-03T00:31 | 22001 | 38 | 204 | 27 | ||
| 2025-12-03T00:32 | 22465 | 36 | 207 | 29 | ||
| 2025-12-03T00:33 | 22502 | 35 | -56.7 | |||
| 2025-12-03T00:33 | 22910 | 33 | 225 | 36 | ||
| 2025-12-03T00:34 | 22965 | 33 | -56.6 | |||
| 2025-12-03T00:34 | 23182 | 32 | -57.3 | |||
| 2025-12-03T00:34 | 23262 | 31 | 234 | 40 | ||
| 2025-12-03T00:35 | 23345 | 31 | -53.0 | |||
| 2025-12-03T00:35 | 23475 | 30 | -47.9 | |||
| 2025-12-03T00:36 | 23583 | 30 | 248 | 32 | ||
| 2025-12-03T00:36 | 23810 | 29 | -44.2 | |||
| 2025-12-03T00:36 | 23930 | 28 | 245 | 26 | ||
| 2025-12-03T00:37 | 24411 | 26 | 244 | 30 | ||
| 2025-12-03T00:38 | 24544 | 26 | -47.5 | |||
| 2025-12-03T00:38 | 24749 | 25 | -46.4 | |||
| 2025-12-03T00:38 | 24857 | 25 | 244 | 24 | ||
| 2025-12-03T00:39 | 25216 | 23 | 236 | 22 | ||
| 2025-12-03T00:40 | 25447 | 23 | 230 | 17 | ||
| 2025-12-03T00:40 | 25509 | 22 | -48.3 | |||
| 2025-12-03T00:41 | 25808 | 21 | 218 | 18 | ||
| 2025-12-03T00:41 | 25961 | 21 | -51.3 | |||
| 2025-12-03T00:41 | 25993 | 21 | 225 | 17 | ||
| 2025-12-03T00:42 | 26089 | 20 | 211 | 12 | ||
| 2025-12-03T00:42 | 26153 | 20 | -49.6 | |||
| 2025-12-03T00:42 | 26283 | 20 | -49.0 | 225 | 11 | |
| 2025-12-03T11:30 | 18 | 1004 | -2.3 | -6.1 | 330 | 4 |
| 2025-12-03T11:30 | 22 | 1003 | -2.1 | -6.5 | 0 | 0 |
| 2025-12-03T11:30 | 63 | 998 | 318 | 3 | ||
| 2025-12-03T11:30 | 166 | 985 | 326 | 7 | ||
| 2025-12-03T11:31 | 227 | 978 | -4.1 | -9.5 | ||
| 2025-12-03T11:31 | 429 | 953 | -5.6 | -10.9 | ||
| 2025-12-03T11:31 | 435 | 952 | 294 | 7 | ||
| 2025-12-03T11:32 | 573 | 936 | 311 | 4 | ||
| 2025-12-03T11:32 | 697 | 921 | 305 | 4 | ||
| 2025-12-03T11:32 | 803 | 908 | 273 | 4 | ||
| 2025-12-03T11:33 | 944 | 892 | -10.2 | -12.7 | ||
| 2025-12-03T11:33 | 1038 | 881 | -10.7 | -14.4 | ||
| 2025-12-03T11:33 | 1049 | 880 | 284 | 6 | ||
| 2025-12-03T11:34 | 1197 | 863 | -12.2 | -14.8 | ||
| 2025-12-03T11:34 | 1240 | 858 | 274 | 9 | ||
| 2025-12-03T11:34 | 1253 | 857 | -12.5 | -16.2 | ||
| 2025-12-03T11:34 | 1329 | 848 | -12.8 | -16.3 | ||
| 2025-12-03T11:34 | 1433 | 837 | -13.5 | -17.0 | ||
| 2025-12-03T11:34 | 1486 | 831 | 308 | 7 | ||
| 2025-12-03T11:35 | 1680 | 810 | -15.0 | -17.8 | ||
| 2025-12-03T11:35 | 1724 | 805 | 301 | 3 | ||
| 2025-12-03T11:35 | 1812 | 796 | -15.2 | -18.6 | ||
| 2025-12-03T11:35 | 1836 | 793 | 267 | 4 | ||
| 2025-12-03T11:36 | 2157 | 760 | 248 | 8 | ||
| 2025-12-03T11:36 | 2250 | 751 | -18.6 | -20.8 | ||
| 2025-12-03T11:37 | 2491 | 727 | 246 | 12 | ||
| 2025-12-03T11:38 | 2657 | 711 | -22.0 | -23.4 | ||
| 2025-12-03T11:38 | 2806 | 697 | 238 | 18 | ||
| 2025-12-03T11:38 | 2812 | 696 | -22.7 | -24.8 | ||
| 2025-12-03T11:38 | 2897 | 688 | -22.6 | -24.8 | ||
| 2025-12-03T11:39 | 3041 | 675 | -23.2 | -25.4 | 218 | 12 |
| 2025-12-03T11:39 | 3324 | 649 | -24.0 | -26.1 | ||
| 2025-12-03T11:39 | 3384 | 644 | 211 | 21 | ||
| 2025-12-03T11:40 | 3618 | 623 | 213 | 26 | ||
| 2025-12-03T11:41 | 3813 | 606 | -26.8 | -29.6 | ||
| 2025-12-03T11:41 | 3995 | 591 | 190 | 23 | ||
| 2025-12-03T11:41 | 4033 | 588 | -27.8 | -30.5 | ||
| 2025-12-03T11:42 | 4379 | 560 | 198 | 24 | ||
| 2025-12-03T11:43 | 4566 | 546 | -32.6 | -35.9 | ||
| 2025-12-03T11:43 | 4764 | 530 | 193 | 25 | ||
| 2025-12-03T11:43 | 4858 | 523 | -34.8 | -38.3 | ||
| 2025-12-03T11:44 | 5034 | 510 | 191 | 26 | ||
| 2025-12-03T11:44 | 5041 | 510 | -35.7 | -41.0 | ||
| 2025-12-03T11:45 | 5429 | 482 | -38.4 | -45.7 | 204 | 30 |
| 2025-12-03T11:45 | 5566 | 473 | -39.2 | -48.7 | ||
| 2025-12-03T11:45 | 5605 | 470 | 208 | 34 | ||
| 2025-12-03T11:46 | 5689 | 464 | -40.0 | -51.9 | ||
| 2025-12-03T11:46 | 5807 | 456 | -40.4 | |||
| 2025-12-03T11:46 | 5878 | 452 | 213 | 35 | ||
| 2025-12-03T11:47 | 6203 | 431 | 212 | 40 | ||
| 2025-12-03T11:47 | 6255 | 427 | -40.9 | |||
| 2025-12-03T11:48 | 6596 | 406 | 218 | 38 | ||
| 2025-12-03T11:49 | 6950 | 385 | 218 | 39 | ||
| 2025-12-03T11:49 | 7046 | 380 | -46.4 | |||
| 2025-12-03T11:50 | 7275 | 367 | -47.4 | |||
| 2025-12-03T11:50 | 7342 | 363 | 217 | 43 | ||
| 2025-12-03T11:50 | 7632 | 348 | -48.4 | |||
| 2025-12-03T11:51 | 7703 | 344 | -47.8 | |||
| 2025-12-03T11:51 | 7724 | 343 | 218 | 43 | ||
| 2025-12-03T11:51 | 7844 | 337 | 218 | 40 | ||
| 2025-12-03T11:51 | 7879 | 335 | -48.5 | |||
| 2025-12-03T11:52 | 8176 | 320 | -48.3 | |||
| 2025-12-03T11:52 | 8205 | 319 | 212 | 43 | ||
| 2025-12-03T11:52 | 8386 | 310 | -49.0 | |||
| 2025-12-03T11:52 | 8485 | 305 | -49.2 | |||
| 2025-12-03T11:53 | 8573 | 301 | -48.9 | |||
| 2025-12-03T11:53 | 8604 | 300 | 210 | 45 | ||
| 2025-12-03T11:53 | 8726 | 294 | 210 | 46 | ||
| 2025-12-03T11:53 | 8737 | 294 | -48.8 | |||
| 2025-12-03T11:53 | 8819 | 290 | 208 | 48 | ||
| 2025-12-03T11:54 | 9007 | 282 | -47.8 | |||
| 2025-12-03T11:54 | 9030 | 281 | 211 | 51 | ||
| 2025-12-03T11:55 | 9218 | 273 | -47.4 | |||
| 2025-12-03T11:55 | 9263 | 271 | 218 | 51 | ||
| 2025-12-03T11:55 | 9349 | 268 | -46.3 | |||
| 2025-12-03T11:55 | 9401 | 266 | 216 | 52 | ||
| 2025-12-03T11:56 | 9582 | 259 | -46.5 | |||
| 2025-12-03T11:56 | 9755 | 252 | 216 | 51 | ||
| 2025-12-03T11:56 | 9761 | 252 | -46.3 | |||
| 2025-12-03T11:56 | 9875 | 247 | -45.9 | |||
| 2025-12-03T11:57 | 10100 | 239 | 217 | 52 | ||
| 2025-12-03T11:58 | 10467 | 226 | 224 | 54 | ||
| 2025-12-03T11:59 | 10629 | 221 | -45.9 | |||
| 2025-12-03T11:59 | 10852 | 214 | 227 | 53 | ||
| 2025-12-03T11:59 | 10935 | 211 | -45.7 | |||
| 2025-12-03T12:00 | 11220 | 202 | 231 | 55 | ||
| 2025-12-03T12:01 | 11439 | 196 | -45.8 | |||
| 2025-12-03T12:01 | 11555 | 192 | 231 | 50 | ||
| 2025-12-03T12:02 | 11768 | 186 | -47.4 | |||
| 2025-12-03T12:02 | 11884 | 183 | 233 | 51 | ||
| 2025-12-03T12:03 | 12077 | 178 | -47.8 | |||
| 2025-12-03T12:03 | 12239 | 173 | 230 | 52 | ||
| 2025-12-03T12:04 | 12392 | 169 | 234 | 49 | ||
| 2025-12-03T12:05 | 12729 | 161 | 237 | 50 | ||
| 2025-12-03T12:05 | 12741 | 161 | -50.3 | |||
| 2025-12-03T12:05 | 13000 | 154 | 235 | 46 | ||
| 2025-12-03T12:06 | 13364 | 146 | 236 | 49 | ||
| 2025-12-03T12:06 | 13376 | 146 | -50.2 | |||
| 2025-12-03T12:07 | 13720 | 138 | 240 | 47 | ||
| 2025-12-03T12:08 | 13829 | 136 | -50.2 | |||
| 2025-12-03T12:08 | 14062 | 131 | 240 | 43 | ||
| 2025-12-03T12:09 | 14247 | 127 | -51.2 | |||
| 2025-12-03T12:09 | 14433 | 124 | 240 | 44 | ||
| 2025-12-03T12:10 | 14770 | 117 | -54.0 | |||
| 2025-12-03T12:10 | 14821 | 117 | 243 | 45 | ||
| 2025-12-03T12:11 | 15074 | 112 | 246 | 44 | ||
| 2025-12-03T12:11 | 15146 | 111 | -54.2 | |||
| 2025-12-03T12:12 | 15369 | 107 | -55.1 | |||
| 2025-12-03T12:12 | 15407 | 106 | 245 | 39 | ||
| 2025-12-03T12:12 | 15608 | 103 | 245 | 42 | ||
| 2025-12-03T12:13 | 15740 | 101 | -54.4 | |||
| 2025-12-03T12:13 | 16000 | 97 | 253 | 42 | ||
| 2025-12-03T12:14 | 16076 | 96 | -53.5 | |||
| 2025-12-03T12:14 | 16366 | 92 | 243 | 39 | ||
| 2025-12-03T12:15 | 16622 | 88 | -52.8 | |||
| 2025-12-03T12:15 | 16739 | 86 | 234 | 40 | ||
| 2025-12-03T12:16 | 16960 | 84 | -52.2 | |||
| 2025-12-03T12:16 | 17128 | 81 | 235 | 41 | ||
| 2025-12-03T12:17 | 17349 | 79 | -54.1 | |||
| 2025-12-03T12:17 | 17498 | 77 | 245 | 41 | ||
| 2025-12-03T12:18 | 17608 | 76 | -53.9 | |||
| 2025-12-03T12:18 | 17887 | 72 | 245 | 36 | ||
| 2025-12-03T12:18 | 17974 | 71 | -54.4 | |||
| 2025-12-03T12:19 | 18279 | 68 | 245 | 34 | ||
| 2025-12-03T12:20 | 18529 | 65 | -53.8 | |||
| 2025-12-03T12:20 | 18659 | 64 | 236 | 34 | ||
| 2025-12-03T12:21 | 18975 | 61 | 238 | 32 | ||
| 2025-12-03T12:21 | 19008 | 61 | -53.7 | |||
| 2025-12-03T12:21 | 19116 | 60 | 242 | 25 | ||
| 2025-12-03T12:22 | 19323 | 58 | -53.2 | |||
| 2025-12-03T12:22 | 19371 | 57 | 248 | 28 | ||
| 2025-12-03T12:22 | 19530 | 56 | -53.1 | |||
| 2025-12-03T12:22 | 19599 | 55 | 247 | 21 | ||
| 2025-12-03T12:23 | 19751 | 54 | -52.7 | |||
| 2025-12-03T12:23 | 20008 | 52 | 218 | 26 | ||
| 2025-12-03T12:24 | 20347 | 49 | -56.5 | 209 | 29 | |
| 2025-12-03T12:25 | 20776 | 46 | 211 | 32 | ||
| 2025-12-03T12:25 | 20804 | 46 | -56.0 | |||
| 2025-12-03T12:26 | 21001 | 45 | 218 | 36 | ||
| 2025-12-03T12:26 | 21147 | 44 | -52.5 | |||
| 2025-12-03T12:26 | 21236 | 43 | 217 | 42 | ||
| 2025-12-03T12:27 | 21463 | 41 | 218 | 44 | ||
| 2025-12-03T12:27 | 21545 | 41 | -54.5 | |||
| 2025-12-03T12:28 | 21784 | 39 | -52.2 | 222 | 46 | |
| 2025-12-03T23:30 | 18 | 1002 | -4.0 | -12.4 | 300 | 5 |
| 2025-12-03T23:30 | 19 | 1002 | -3.7 | -12.1 | 300 | 1 |
| 2025-12-03T23:30 | 23 | 1002 | -3.8 | -13.0 | ||
| 2025-12-03T23:30 | 36 | 1000 | -4.4 | -14.3 | ||
| 2025-12-03T23:30 | 51 | 998 | 292 | 5 | ||
| 2025-12-03T23:30 | 148 | 986 | 305 | 10 | ||
| 2025-12-03T23:31 | 401 | 955 | 282 | 8 | ||
| 2025-12-03T23:32 | 597 | 931 | 288 | 10 | ||
| 2025-12-03T23:32 | 807 | 906 | -11.7 | -17.5 | ||
| 2025-12-03T23:32 | 932 | 891 | 286 | 12 | ||
| 2025-12-03T23:33 | 938 | 890 | -12.6 | -19.6 | ||
| 2025-12-03T23:33 | 1010 | 882 | -13.2 | -19.9 | ||
| 2025-12-03T23:33 | 1189 | 861 | -14.7 | -21.3 | ||
| 2025-12-03T23:33 | 1301 | 849 | 291 | 16 | ||
| 2025-12-03T23:34 | 1451 | 832 | -17.3 | -20.2 | ||
| 2025-12-03T23:34 | 1673 | 808 | 297 | 16 | ||
| 2025-12-03T23:35 | 1698 | 805 | -19.3 | -21.2 | ||
| 2025-12-03T23:35 | 2028 | 770 | 309 | 17 | ||
| 2025-12-03T23:36 | 2149 | 757 | -22.2 | -25.3 | ||
| 2025-12-03T23:37 | 2387 | 733 | 318 | 16 | ||
| 2025-12-03T23:37 | 2451 | 726 | -24.6 | -28.0 | ||
| 2025-12-03T23:37 | 2644 | 707 | -26.2 | -29.7 | ||
| 2025-12-03T23:37 | 2739 | 698 | 323 | 15 | ||
| 2025-12-03T23:38 | 2859 | 687 | -27.9 | -32.3 | ||
| 2025-12-03T23:38 | 2961 | 677 | -28.8 | -33.5 | ||
| 2025-12-03T23:38 | 3041 | 669 | -29.4 | -34.1 | ||
| 2025-12-03T23:39 | 3101 | 664 | 324 | 18 | ||
| 2025-12-03T23:39 | 3113 | 663 | -29.9 | -36.4 | ||
| 2025-12-03T23:39 | 3276 | 648 | -31.3 | -36.5 | ||
| 2025-12-03T23:39 | 3317 | 644 | -30.2 | -39.2 | ||
| 2025-12-03T23:39 | 3341 | 642 | 314 | 16 | ||
| 2025-12-03T23:40 | 3497 | 628 | -31.0 | -44.3 | ||
| 2025-12-03T23:40 | 3579 | 621 | -31.6 | -45.9 | ||
| 2025-12-03T23:40 | 3623 | 617 | 305 | 14 | ||
| 2025-12-03T23:40 | 3750 | 606 | -32.2 | -49.1 | ||
| 2025-12-03T23:41 | 3870 | 596 | -33.1 | -49.9 | ||
| 2025-12-03T23:41 | 4004 | 584 | 307 | 18 | ||
| 2025-12-03T23:42 | 4286 | 561 | -36.3 | -50.8 | ||
| 2025-12-03T23:42 | 4333 | 557 | 312 | 20 | ||
| 2025-12-03T23:43 | 4580 | 538 | -37.5 | -53.1 | ||
| 2025-12-03T23:43 | 4692 | 529 | 312 | 20 | ||
| 2025-12-03T23:43 | 4772 | 523 | -38.8 | -53.8 | ||
| 2025-12-03T23:43 | 4891 | 514 | 305 | 18 | ||
| 2025-12-03T23:44 | 5027 | 504 | -39.5 | -55.8 | ||
| 2025-12-03T23:44 | 5127 | 497 | -39.7 | -56.5 | ||
| 2025-12-03T23:44 | 5168 | 494 | -40.0 | -56.8 | ||
| 2025-12-03T23:44 | 5284 | 485 | 306 | 23 | ||
| 2025-12-03T23:45 | 5507 | 470 | -41.9 | |||
| 2025-12-03T23:45 | 5629 | 461 | 305 | 22 | ||
| 2025-12-03T23:45 | 5709 | 456 | -42.2 | |||
| 2025-12-03T23:46 | 5900 | 443 | -42.2 | |||
| 2025-12-03T23:46 | 5959 | 439 | 289 | 20 | ||
| 2025-12-03T23:47 | 6216 | 423 | 293 | 22 | ||
| 2025-12-03T23:47 | 6282 | 419 | -44.1 | |||
| 2025-12-03T23:47 | 6468 | 407 | -45.0 | |||
| 2025-12-03T23:48 | 6525 | 404 | 277 | 21 | ||
| 2025-12-03T23:48 | 6751 | 390 | -46.9 | |||
| 2025-12-03T23:49 | 6891 | 382 | 287 | 22 | ||
| 2025-12-03T23:49 | 6962 | 378 | -47.6 | |||
| 2025-12-03T23:49 | 7049 | 373 | -47.0 | |||
| 2025-12-03T23:49 | 7073 | 372 | 296 | 19 | ||
| 2025-12-03T23:49 | 7149 | 367 | -47.2 | |||
| 2025-12-03T23:49 | 7188 | 365 | 288 | 18 | ||
| 2025-12-03T23:50 | 7243 | 362 | -46.9 | |||
| 2025-12-03T23:50 | 7356 | 356 | -47.3 | |||
| 2025-12-03T23:50 | 7408 | 353 | -46.9 | |||
| 2025-12-03T23:50 | 7437 | 352 | 274 | 20 | ||
| 2025-12-03T23:51 | 7663 | 340 | -47.2 | |||
| 2025-12-03T23:51 | 7714 | 337 | 291 | 23 | ||
| 2025-12-03T23:51 | 7735 | 336 | -46.9 | |||
| 2025-12-03T23:52 | 7885 | 329 | -46.6 | |||
| 2025-12-03T23:52 | 8023 | 322 | 288 | 18 | ||
| 2025-12-03T23:52 | 8029 | 322 | -46.2 | |||
| 2025-12-03T23:52 | 8094 | 318 | -45.5 | |||
| 2025-12-03T23:53 | 8183 | 314 | 280 | 22 | ||
| 2025-12-03T23:53 | 8250 | 311 | -45.0 | |||
| 2025-12-03T23:53 | 8350 | 307 | 271 | 29 | ||
| 2025-12-03T23:53 | 8393 | 305 | -44.5 | |||
| 2025-12-03T23:54 | 8550 | 298 | -43.7 | |||
| 2025-12-03T23:54 | 8556 | 297 | 274 | 29 | ||
| 2025-12-03T23:54 | 8830 | 285 | -44.4 | |||
| 2025-12-03T23:55 | 8963 | 280 | 269 | 25 | ||
| 2025-12-03T23:55 | 9252 | 268 | 249 | 24 | ||
| 2025-12-03T23:55 | 9301 | 266 | -44.4 | |||
| 2025-12-03T23:56 | 9594 | 255 | 257 | 27 | ||
| 2025-12-03T23:57 | 9827 | 246 | -44.9 | |||
| 2025-12-03T23:57 | 9881 | 244 | 261 | 27 | ||
| 2025-12-03T23:58 | 10143 | 235 | 259 | 32 | ||
| 2025-12-03T23:59 | 10288 | 230 | -44.1 | |||
| 2025-12-03T23:59 | 10442 | 224 | 265 | 35 | ||
| 2025-12-04T00:00 | 10716 | 215 | -44.9 | |||
| 2025-12-04T00:00 | 10832 | 212 | 259 | 35 | ||
| 2025-12-04T00:01 | 10951 | 208 | -44.1 | |||
| 2025-12-04T00:01 | 11214 | 200 | 258 | 37 | ||
| 2025-12-04T00:02 | 11288 | 198 | -44.6 | |||
| 2025-12-04T00:02 | 11396 | 195 | -44.3 | |||
| 2025-12-04T00:02 | 11529 | 191 | 251 | 35 | ||
| 2025-12-04T00:03 | 11684 | 186 | -45.4 | |||
| 2025-12-04T00:03 | 11715 | 186 | 252 | 37 | ||
| 2025-12-04T00:04 | 11977 | 178 | -44.2 | |||
| 2025-12-04T00:04 | 11987 | 178 | 253 | 36 | ||
| 2025-12-04T00:04 | 12068 | 176 | -43.4 | |||
| 2025-12-04T00:05 | 12186 | 173 | 246 | 31 | ||
| 2025-12-04T00:05 | 12434 | 167 | -44.9 | |||
| 2025-12-04T00:06 | 12551 | 164 | 245 | 37 | ||
| 2025-12-04T00:06 | 12682 | 161 | -46.2 | |||
| 2025-12-04T00:07 | 12922 | 155 | 249 | 40 | ||
| 2025-12-04T00:08 | 13191 | 149 | 251 | 37 | ||
| 2025-12-04T00:08 | 13223 | 148 | -47.8 | |||
| 2025-12-04T00:08 | 13294 | 146 | -47.2 | |||
| 2025-12-04T00:09 | 13404 | 144 | 244 | 33 | ||
| 2025-12-04T00:09 | 13439 | 143 | -46.8 | |||
| 2025-12-04T00:09 | 13561 | 141 | 239 | 35 | ||
| 2025-12-04T00:10 | 13626 | 139 | -46.4 | |||
| 2025-12-04T00:10 | 13788 | 136 | -46.7 | |||
| 2025-12-04T00:10 | 13816 | 135 | 245 | 40 | ||
| 2025-12-04T00:11 | 14137 | 129 | -47.8 | |||
| 2025-12-04T00:11 | 14211 | 128 | 255 | 37 | ||
| 2025-12-04T00:12 | 14495 | 122 | 251 | 31 | ||
| 2025-12-04T00:12 | 14635 | 120 | -48.7 | |||
| 2025-12-04T00:12 | 14671 | 119 | 248 | 34 | ||
| 2025-12-04T00:12 | 14763 | 117 | -47.6 | |||
| 2025-12-04T00:13 | 15073 | 112 | 247 | 33 | ||
| 2025-12-04T00:14 | 15186 | 110 | -48.9 | |||
| 2025-12-04T00:14 | 15343 | 107 | 242 | 34 | ||
| 2025-12-04T00:14 | 15505 | 105 | -50.6 | |||
| 2025-12-04T00:15 | 15537 | 104 | 240 | 39 | ||
| 2025-12-04T00:15 | 15700 | 102 | -50.9 | |||
| 2025-12-04T00:15 | 15843 | 99 | 248 | 31 | ||
| 2025-12-04T00:16 | 15873 | 99 | -51.1 | |||
| 2025-12-04T00:16 | 16050 | 96 | -50.2 | |||
| 2025-12-04T00:16 | 16215 | 94 | 245 | 30 | ||
| 2025-12-04T00:17 | 16434 | 91 | -51.6 | |||
| 2025-12-04T00:17 | 16626 | 88 | 242 | 37 | ||
| 2025-12-04T00:18 | 17024 | 83 | 246 | 30 | ||
| 2025-12-04T00:19 | 17164 | 81 | -54.6 | |||
| 2025-12-04T00:19 | 17300 | 79 | 240 | 26 | ||
| 2025-12-04T00:20 | 17627 | 75 | 251 | 34 | ||
| 2025-12-04T00:20 | 17789 | 74 | 247 | 30 | ||
| 2025-12-04T00:21 | 18150 | 70 | -51.4 | |||
| 2025-12-04T00:22 | 18207 | 69 | 225 | 24 | ||
| 2025-12-04T00:23 | 18663 | 64 | 228 | 23 | ||
| 2025-12-04T00:24 | 19113 | 60 | 216 | 28 | ||
| 2025-12-04T00:24 | 19489 | 56 | -59.6 | |||
| 2025-12-04T00:25 | 19514 | 56 | 221 | 35 | ||
| 2025-12-04T00:25 | 19673 | 55 | -57.7 | |||
| 2025-12-04T00:25 | 19768 | 54 | 226 | 39 | ||
| 2025-12-04T00:26 | 19945 | 52 | -55.6 | 233 | 39 | |
| 2025-12-04T00:26 | 20182 | 51 | 234 | 48 | ||
| 2025-12-04T00:27 | 20207 | 50 | -52.7 | |||
| 2025-12-04T00:27 | 20575 | 48 | 242 | 39 | ||
| 2025-12-04T00:28 | 20602 | 47 | -51.5 | |||
| 2025-12-04T00:28 | 20716 | 47 | 244 | 34 | ||
| 2025-12-04T00:29 | 21062 | 44 | 244 | 34 | ||
| 2025-12-04T00:29 | 21186 | 43 | -45.8 | |||
| 2025-12-04T00:29 | 21249 | 43 | 239 | 27 | ||
| 2025-12-04T00:30 | 21469 | 42 | -46.0 | |||
| 2025-12-04T00:30 | 21679 | 40 | 224 | 28 | ||
| 2025-12-04T00:31 | 22050 | 38 | 223 | 31 | ||
| 2025-12-04T00:31 | 22117 | 38 | -50.8 | |||
| 2025-12-04T00:32 | 22240 | 37 | 228 | 35 | ||
| 2025-12-04T00:33 | 22551 | 35 | 215 | 28 | ||
| 2025-12-04T00:33 | 22587 | 35 | -47.5 | |||
| 2025-12-04T00:33 | 22721 | 34 | 205 | 26 | ||
| 2025-12-04T00:33 | 22818 | 34 | 201 | 28 | ||
| 2025-12-04T00:34 | 22956 | 33 | -47.0 | |||
| 2025-12-04T00:34 | 23179 | 32 | 193 | 26 | ||
| 2025-12-04T00:35 | 23621 | 30 | 182 | 18 | ||
| 2025-12-04T00:36 | 24094 | 28 | 203 | 22 | ||
| 2025-12-04T00:37 | 24335 | 27 | -55.2 | 205 | 23 | |
| 2025-12-04T11:30 | 18 | 1005 | -3.2 | -6.5 | 90 | 1 |
| 2025-12-04T11:30 | 23 | 1004 | -3.2 | -7.0 | 0 | 0 |
| 2025-12-04T11:31 | 345 | 964 | 17 | 3 | ||
| 2025-12-04T11:31 | 362 | 962 | -6.1 | -8.7 | ||
| 2025-12-04T11:31 | 450 | 951 | -6.1 | -10.7 | 349 | 2 |
| 2025-12-04T11:32 | 524 | 942 | 294 | 3 | ||
| 2025-12-04T11:32 | 700 | 921 | 272 | 5 | ||
| 2025-12-04T11:32 | 718 | 919 | -8.6 | -12.6 | ||
| 2025-12-04T11:32 | 768 | 913 | -8.4 | -14.2 | ||
| 2025-12-04T11:33 | 821 | 907 | 273 | 8 | ||
| 2025-12-04T11:33 | 949 | 892 | -9.9 | -14.7 | ||
| 2025-12-04T11:33 | 964 | 890 | 278 | 13 | ||
| 2025-12-04T11:34 | 1069 | 878 | 274 | 14 | ||
| 2025-12-04T11:35 | 1353 | 846 | -13.5 | -16.8 | ||
| 2025-12-04T11:35 | 1369 | 844 | 267 | 16 | ||
| 2025-12-04T11:35 | 1537 | 826 | -14.8 | -18.7 | ||
| 2025-12-04T11:36 | 1658 | 813 | -15.7 | -19.3 | ||
| 2025-12-04T11:36 | 1716 | 807 | 271 | 22 | ||
| 2025-12-04T11:36 | 1803 | 797 | -16.3 | -21.9 | ||
| 2025-12-04T11:37 | 2069 | 770 | -18.6 | -24.3 | ||
| 2025-12-04T11:37 | 2132 | 763 | -18.3 | -28.1 | ||
| 2025-12-04T11:37 | 2139 | 762 | 288 | 23 | ||
| 2025-12-04T11:37 | 2264 | 750 | -19.1 | -29.1 | ||
| 2025-12-04T11:38 | 2496 | 727 | -20.5 | -30.9 | ||
| 2025-12-04T11:38 | 2552 | 721 | 286 | 22 | ||
| 2025-12-04T11:39 | 2950 | 683 | 283 | 24 | ||
| 2025-12-04T11:39 | 3191 | 661 | -25.7 | -34.9 | ||
| 2025-12-04T11:40 | 3340 | 647 | 283 | 24 | ||
| 2025-12-04T11:40 | 3378 | 644 | -26.7 | -38.5 | ||
| 2025-12-04T11:40 | 3552 | 629 | -27.8 | -38.9 | ||
| 2025-12-04T11:41 | 3715 | 615 | 281 | 27 | ||
| 2025-12-04T11:41 | 3901 | 599 | -29.7 | -43.1 | ||
| 2025-12-04T11:42 | 4122 | 580 | 273 | 26 | ||
| 2025-12-04T11:42 | 4190 | 575 | -31.3 | -48.4 | ||
| 2025-12-04T11:43 | 4542 | 547 | -33.0 | -51.5 | 273 | 33 |
| 2025-12-04T11:44 | 4973 | 514 | 276 | 32 | ||
| 2025-12-04T11:44 | 5197 | 498 | -37.8 | -55.5 | ||
| 2025-12-04T11:45 | 5391 | 484 | 276 | 32 | ||
| 2025-12-04T11:45 | 5501 | 476 | -39.4 | -59.5 | ||
| 2025-12-04T11:45 | 5619 | 468 | -40.0 | -60.0 | ||
| 2025-12-04T11:46 | 5810 | 455 | 273 | 32 | ||
| 2025-12-04T11:46 | 5890 | 450 | -42.3 | |||
| 2025-12-04T11:47 | 6244 | 427 | 276 | 32 | ||
| 2025-12-04T11:47 | 6338 | 421 | -44.9 | |||
| 2025-12-04T11:48 | 6625 | 403 | -45.9 | |||
| 2025-12-04T11:48 | 6658 | 401 | 276 | 33 | ||
| 2025-12-04T11:48 | 6848 | 390 | 273 | 33 | ||
| 2025-12-04T11:49 | 7232 | 368 | -47.6 | |||
| 2025-12-04T11:49 | 7245 | 367 | 270 | 36 | ||
| 2025-12-04T11:50 | 7491 | 354 | -49.0 | |||
| 2025-12-04T11:50 | 7665 | 344 | 267 | 35 | ||
| 2025-12-04T11:51 | 7911 | 331 | -52.3 | |||
| 2025-12-04T11:51 | 7982 | 328 | -52.2 | |||
| 2025-12-04T11:51 | 8045 | 325 | 265 | 34 | ||
| 2025-12-04T11:51 | 8077 | 323 | -51.1 | |||
| 2025-12-04T11:51 | 8179 | 318 | 261 | 35 | ||
| 2025-12-04T11:52 | 8438 | 306 | -50.2 | |||
| 2025-12-04T11:52 | 8528 | 301 | 262 | 39 | ||
| 2025-12-04T11:53 | 8819 | 288 | -50.2 | |||
| 2025-12-04T11:53 | 9018 | 280 | 265 | 42 | ||
| 2025-12-04T11:54 | 9217 | 271 | -50.5 | |||
| 2025-12-04T11:54 | 9313 | 267 | 266 | 39 | ||
| 2025-12-04T11:54 | 9456 | 261 | -48.2 | |||
| 2025-12-04T11:55 | 9560 | 257 | -47.0 | |||
| 2025-12-04T11:55 | 9615 | 255 | 265 | 43 | ||
| 2025-12-04T11:55 | 9716 | 251 | -44.4 | |||
| 2025-12-04T11:55 | 9816 | 248 | -43.4 | |||
| 2025-12-04T11:56 | 9928 | 244 | 264 | 43 | ||
| 2025-12-04T11:56 | 10089 | 238 | -42.6 | |||
| 2025-12-04T11:57 | 10244 | 232 | 264 | 42 | ||
| 2025-12-04T11:57 | 10369 | 228 | -43.0 | |||
| 2025-12-04T11:58 | 10683 | 218 | 266 | 42 | ||
| 2025-12-04T11:58 | 10739 | 216 | -44.9 | |||
| 2025-12-04T11:59 | 11055 | 206 | 267 | 39 | ||
| 2025-12-04T11:59 | 11321 | 198 | 265 | 42 | ||
| 2025-12-04T11:59 | 11327 | 198 | -44.5 | |||
| 2025-12-04T12:00 | 11538 | 192 | 261 | 40 | ||
| 2025-12-04T12:01 | 11800 | 184 | -45.7 | |||
| 2025-12-04T12:01 | 11954 | 180 | 265 | 36 | ||
| 2025-12-04T12:01 | 12086 | 176 | -46.7 | |||
| 2025-12-04T12:02 | 12308 | 171 | 256 | 38 | ||
| 2025-12-04T12:02 | 12323 | 170 | -46.2 | |||
| 2025-12-04T12:02 | 12546 | 165 | 254 | 38 | ||
| 2025-12-04T12:02 | 12593 | 163 | -46.8 | |||
| 2025-12-04T12:03 | 12826 | 158 | 251 | 38 | ||
| 2025-12-04T12:03 | 12962 | 155 | -47.9 | |||
| 2025-12-04T12:04 | 13161 | 150 | -48.6 | |||
| 2025-12-04T12:04 | 13240 | 148 | 247 | 42 | ||
| 2025-12-04T12:05 | 13521 | 142 | -50.1 | |||
| 2025-12-04T12:05 | 13572 | 141 | 249 | 40 | ||
| 2025-12-04T12:05 | 13669 | 139 | -50.3 | |||
| 2025-12-04T12:06 | 13933 | 133 | 252 | 40 | ||
| 2025-12-04T12:06 | 14068 | 130 | -51.1 | |||
| 2025-12-04T12:06 | 14134 | 129 | 250 | 37 | ||
| 2025-12-04T12:07 | 14440 | 123 | 253 | 41 | ||
| 2025-12-04T12:07 | 14732 | 118 | -53.0 | |||
| 2025-12-04T12:08 | 14889 | 115 | 260 | 39 | ||
| 2025-12-04T12:09 | 15324 | 107 | 252 | 38 | ||
| 2025-12-04T12:09 | 15625 | 102 | -53.7 | |||
| 2025-12-04T12:10 | 15652 | 102 | 255 | 40 | ||
| 2025-12-04T12:10 | 15769 | 100 | -53.0 | |||
| 2025-12-04T12:10 | 15993 | 97 | -52.1 | |||
| 2025-12-04T12:11 | 16070 | 96 | 256 | 41 | ||
| 2025-12-04T12:11 | 16317 | 92 | 257 | 45 | ||
| 2025-12-04T12:12 | 16645 | 87 | 266 | 40 | ||
| 2025-12-04T12:12 | 16761 | 86 | -55.8 | |||
| 2025-12-04T12:13 | 16897 | 84 | 264 | 37 | ||
| 2025-12-04T12:13 | 17123 | 81 | 254 | 33 | ||
| 2025-12-04T12:14 | 17331 | 79 | -53.5 | 245 | 34 | |
| 2025-12-04T12:14 | 17566 | 76 | 240 | 43 | ||
| 2025-12-04T12:15 | 17707 | 74 | -51.0 | |||
| 2025-12-04T12:15 | 17844 | 73 | 245 | 39 | ||
| 2025-12-04T12:15 | 17928 | 72 | -50.7 | |||
| 2025-12-04T12:15 | 18058 | 70 | 242 | 36 | ||
| 2025-12-04T12:16 | 18188 | 69 | -49.8 | |||
| 2025-12-04T12:16 | 18324 | 67 | 236 | 34 | ||
| 2025-12-04T12:16 | 18472 | 66 | 238 | 32 | ||
| 2025-12-04T12:17 | 18582 | 65 | -47.3 | |||
| 2025-12-04T12:17 | 18725 | 63 | 239 | 28 | ||
| 2025-12-04T12:18 | 19078 | 60 | 239 | 27 | ||
| 2025-12-04T12:19 | 19261 | 59 | -46.2 | |||
| 2025-12-04T12:19 | 19316 | 58 | 241 | 29 | ||
| 2025-12-04T12:19 | 19406 | 57 | -45.5 | |||
| 2025-12-04T12:19 | 19441 | 57 | 233 | 29 | ||
| 2025-12-04T12:19 | 19585 | 56 | 221 | 25 | ||
| 2025-12-04T12:20 | 19632 | 55 | -45.3 | |||
| 2025-12-04T12:20 | 19829 | 54 | -43.6 | |||
| 2025-12-04T12:20 | 19930 | 53 | 208 | 19 | ||
| 2025-12-04T12:21 | 20319 | 50 | 194 | 19 | ||
| 2025-12-04T12:22 | 20494 | 49 | -47.3 | |||
| 2025-12-04T12:22 | 20734 | 47 | 196 | 20 | ||
| 2025-12-04T12:23 | 20998 | 45 | -52.0 | 195 | 21 | |
| 2025-12-05T00:38 | 18 | 1007 | -1.8 | -5.5 | 160 | 2 |
| 2025-12-05T00:38 | 23 | 1006 | -1.7 | -6.1 | 0 | 0 |
| 2025-12-05T00:39 | 241 | 979 | -4.1 | -7.5 | ||
| 2025-12-05T00:39 | 374 | 962 | 340 | 1 | ||
| 2025-12-05T00:39 | 462 | 952 | -6.1 | -8.8 | ||
| 2025-12-05T00:39 | 535 | 943 | 298 | 4 | ||
| 2025-12-05T00:40 | 755 | 916 | 311 | 8 | ||
| 2025-12-05T00:41 | 1008 | 887 | 284 | 8 | ||
| 2025-12-05T00:41 | 1046 | 882 | -10.6 | -12.2 | ||
| 2025-12-05T00:41 | 1288 | 855 | 293 | 12 | ||
| 2025-12-05T00:41 | 1294 | 854 | -12.7 | -13.6 | ||
| 2025-12-05T00:42 | 1481 | 834 | 277 | 13 | ||
| 2025-12-05T00:42 | 1624 | 818 | 286 | 21 | ||
| 2025-12-05T00:43 | 1796 | 800 | -16.8 | -18.1 | ||
| 2025-12-05T00:43 | 1995 | 779 | 284 | 19 | ||
| 2025-12-05T00:43 | 2015 | 777 | -18.4 | -20.0 | ||
| 2025-12-05T00:43 | 2089 | 769 | -18.8 | -22.4 | ||
| 2025-12-05T00:44 | 2156 | 762 | -19.2 | -27.7 | ||
| 2025-12-05T00:44 | 2263 | 751 | -19.3 | -33.2 | ||
| 2025-12-05T00:44 | 2398 | 738 | 308 | 19 | ||
| 2025-12-05T00:44 | 2431 | 734 | -19.3 | -34.4 | ||
| 2025-12-05T00:45 | 2632 | 715 | -20.4 | -34.6 | ||
| 2025-12-05T00:45 | 2800 | 698 | 308 | 21 | ||
| 2025-12-05T00:46 | 3194 | 662 | 314 | 23 | ||
| 2025-12-05T00:46 | 3200 | 661 | -24.6 | -39.0 | ||
| 2025-12-05T00:47 | 3430 | 641 | -26.1 | -45.7 | ||
| 2025-12-05T00:47 | 3589 | 627 | 304 | 26 | ||
| 2025-12-05T00:48 | 3972 | 594 | 306 | 27 | ||
| 2025-12-05T00:48 | 4036 | 589 | -30.0 | -48.4 | ||
| 2025-12-05T00:49 | 4234 | 573 | -30.3 | -48.0 | ||
| 2025-12-05T00:49 | 4356 | 563 | 303 | 25 | ||
| 2025-12-05T00:50 | 4698 | 536 | -32.6 | -48.5 | ||
| 2025-12-05T00:50 | 4736 | 533 | 296 | 24 | ||
| 2025-12-05T00:51 | 5061 | 509 | -35.0 | -51.0 | ||
| 2025-12-05T00:51 | 5119 | 505 | 295 | 23 | ||
| 2025-12-05T00:51 | 5183 | 500 | -35.4 | -51.8 | ||
| 2025-12-05T00:52 | 5511 | 477 | 293 | 23 | ||
| 2025-12-05T00:53 | 5739 | 462 | -40.0 | -51.9 | ||
| 2025-12-05T00:53 | 5917 | 450 | 288 | 23 | ||
| 2025-12-05T00:54 | 6321 | 423 | 282 | 24 | ||
| 2025-12-05T00:54 | 6363 | 421 | -44.0 | |||
| 2025-12-05T00:55 | 6667 | 402 | -46.0 | |||
| 2025-12-05T00:55 | 6735 | 398 | 276 | 25 | ||
| 2025-12-05T00:56 | 7162 | 373 | 274 | 29 | ||
| 2025-12-05T00:57 | 7464 | 356 | -52.3 | |||
| 2025-12-05T00:57 | 7606 | 348 | 280 | 27 | ||
| 2025-12-05T00:58 | 7835 | 336 | -54.0 | |||
| 2025-12-05T00:58 | 8064 | 324 | 279 | 31 | ||
| 2025-12-05T00:58 | 8086 | 323 | -54.0 | |||
| 2025-12-05T00:59 | 8354 | 310 | -53.7 | |||
| 2025-12-05T00:59 | 8484 | 304 | 279 | 32 | ||
| 2025-12-05T00:59 | 8530 | 301 | -52.1 | |||
| 2025-12-05T01:00 | 8624 | 297 | -51.1 | |||
| 2025-12-05T01:00 | 8672 | 295 | 274 | 33 | ||
| 2025-12-05T01:01 | 8844 | 287 | -49.6 | |||
| 2025-12-05T01:01 | 8908 | 285 | 276 | 30 | ||
| 2025-12-05T01:01 | 8940 | 283 | -47.6 | |||
| 2025-12-05T01:02 | 9191 | 273 | 270 | 31 | ||
| 2025-12-05T01:02 | 9196 | 272 | -45.7 | |||
| 2025-12-05T01:03 | 9570 | 258 | -45.6 | |||
| 2025-12-05T01:03 | 9585 | 257 | 266 | 32 | ||
| 2025-12-05T01:04 | 10048 | 240 | 268 | 32 | ||
| 2025-12-05T01:04 | 10115 | 237 | -46.7 | |||
| 2025-12-05T01:05 | 10289 | 231 | -46.4 | |||
| 2025-12-05T01:05 | 10390 | 228 | 269 | 35 | ||
| 2025-12-05T01:06 | 10666 | 218 | -45.1 | |||
| 2025-12-05T01:06 | 10696 | 217 | 265 | 31 | ||
| 2025-12-05T01:07 | 10979 | 208 | -45.5 | |||
| 2025-12-05T01:07 | 10995 | 208 | 262 | 33 | ||
| 2025-12-05T01:08 | 11327 | 198 | 261 | 35 | ||
| 2025-12-05T01:09 | 11643 | 189 | -45.7 | |||
| 2025-12-05T01:09 | 11670 | 188 | 256 | 30 | ||
| 2025-12-05T01:09 | 11975 | 179 | -48.0 | |||
| 2025-12-05T01:10 | 12064 | 177 | 255 | 34 | ||
| 2025-12-05T01:10 | 12201 | 173 | -48.5 | |||
| 2025-12-05T01:11 | 12452 | 167 | -49.5 | 265 | 34 | |
| 2025-12-05T01:11 | 12671 | 161 | -49.5 | |||
| 2025-12-05T01:12 | 12857 | 157 | 257 | 38 | ||
| 2025-12-05T01:12 | 13020 | 153 | -50.9 | |||
| 2025-12-05T01:13 | 13228 | 148 | -50.5 | |||
| 2025-12-05T01:13 | 13279 | 147 | 259 | 38 | ||
| 2025-12-05T01:13 | 13555 | 141 | -51.9 | |||
| 2025-12-05T01:14 | 13700 | 138 | 256 | 37 | ||
| 2025-12-05T01:15 | 14086 | 130 | 250 | 37 | ||
| 2025-12-05T01:15 | 14193 | 128 | -53.4 | |||
| 2025-12-05T01:15 | 14288 | 126 | 254 | 40 | ||
| 2025-12-05T01:16 | 14431 | 123 | -53.3 | |||
| 2025-12-05T01:16 | 14649 | 119 | 258 | 41 | ||
| 2025-12-05T01:17 | 14836 | 115 | -54.8 | |||
| 2025-12-05T01:17 | 14881 | 115 | 265 | 43 | ||
| 2025-12-05T01:17 | 15040 | 112 | -53.9 | |||
| 2025-12-05T01:18 | 15293 | 108 | 263 | 40 | ||
| 2025-12-05T01:18 | 15457 | 105 | -53.4 | |||
| 2025-12-05T01:19 | 15689 | 101 | -50.9 | |||
| 2025-12-05T01:19 | 15725 | 101 | 257 | 39 | ||
| 2025-12-05T01:19 | 15988 | 97 | -50.9 | |||
| 2025-12-05T01:20 | 16146 | 94 | 252 | 42 | ||
| 2025-12-05T01:20 | 16399 | 91 | -52.3 | |||
| 2025-12-05T01:21 | 16544 | 89 | 252 | 43 | ||
| 2025-12-05T01:22 | 16862 | 84 | -51.9 | |||
| 2025-12-05T01:22 | 16880 | 84 | 269 | 37 | ||
| 2025-12-05T01:22 | 17090 | 81 | -51.8 | |||
| 2025-12-05T01:22 | 17097 | 81 | 258 | 38 | ||
| 2025-12-05T01:23 | 17323 | 79 | -52.4 | 255 | 41 | |
| 2025-12-05T01:24 | 17626 | 75 | 264 | 34 | ||
| 2025-12-05T01:24 | 17643 | 75 | -51.2 | |||
| 2025-12-05T01:25 | 18139 | 69 | 262 | 31 | ||
| 2025-12-05T01:25 | 18311 | 67 | -54.3 | |||
| 2025-12-05T01:26 | 18666 | 64 | 269 | 31 | ||
| 2025-12-05T01:26 | 18725 | 63 | -52.2 | |||
| 2025-12-05T01:26 | 18985 | 61 | 261 | 19 | ||
| 2025-12-05T01:27 | 19161 | 59 | -52.0 | |||
| 2025-12-05T01:27 | 19225 | 59 | 244 | 15 | ||
| 2025-12-05T01:27 | 19428 | 57 | 226 | 14 | ||
| 2025-12-05T01:27 | 19505 | 56 | -54.0 | |||
| 2025-12-05T01:28 | 19552 | 56 | 200 | 15 | ||
| 2025-12-05T01:28 | 19761 | 54 | -54.7 | |||
| 2025-12-05T01:28 | 19833 | 53 | 192 | 20 | ||
| 2025-12-05T01:28 | 19907 | 53 | -53.9 | |||
| 2025-12-05T01:29 | 20105 | 51 | -53.7 | |||
| 2025-12-05T01:29 | 20168 | 51 | 204 | 27 | ||
| 2025-12-05T01:30 | 20324 | 49 | -53.1 | |||
| 2025-12-05T01:30 | 20400 | 49 | -51.1 | |||
| 2025-12-05T01:30 | 20548 | 48 | 223 | 31 | ||
| 2025-12-05T01:31 | 20898 | 45 | -53.6 | |||
| 2025-12-05T01:31 | 20954 | 45 | 231 | 26 | ||
| 2025-12-05T01:32 | 21357 | 42 | 234 | 26 | ||
| 2025-12-05T01:33 | 21558 | 41 | -54.0 | |||
| 2025-12-05T01:33 | 21717 | 40 | 226 | 35 | ||
| 2025-12-05T01:34 | 21879 | 39 | -53.7 | |||
| 2025-12-05T01:34 | 22050 | 38 | 236 | 40 | ||
| 2025-12-05T01:34 | 22080 | 38 | -51.3 | 237 | 40 | |
| 2025-12-05T11:30 | 18 | 1008 | -1.1 | -3.3 | 140 | 2 |
| 2025-12-05T11:30 | 22 | 1007 | -0.8 | -3.8 | 0 | 0 |
| 2025-12-05T11:30 | 42 | 1005 | -1.0 | -4.0 | ||
| 2025-12-05T11:30 | 62 | 1002 | 150 | 3 | ||
| 2025-12-05T11:31 | 184 | 987 | -2.8 | -4.8 | ||
| 2025-12-05T11:31 | 224 | 982 | 170 | 3 | ||
| 2025-12-05T11:31 | 258 | 978 | -2.8 | -5.8 | ||
| 2025-12-05T11:31 | 286 | 974 | -2.4 | -6.2 | ||
| 2025-12-05T11:31 | 303 | 972 | 259 | 4 | ||
| 2025-12-05T11:31 | 417 | 958 | 303 | 7 | ||
| 2025-12-05T11:32 | 534 | 944 | -3.9 | -7.3 | ||
| 2025-12-05T11:32 | 761 | 917 | 282 | 13 | ||
| 2025-12-05T11:32 | 786 | 914 | -5.5 | -8.9 | ||
| 2025-12-05T11:33 | 996 | 890 | 283 | 15 | ||
| 2025-12-05T11:33 | 1023 | 887 | -7.4 | -10.3 | ||
| 2025-12-05T11:33 | 1215 | 865 | 281 | 18 | ||
| 2025-12-05T11:34 | 1271 | 859 | -9.4 | -11.6 | ||
| 2025-12-05T11:34 | 1399 | 845 | 283 | 21 | ||
| 2025-12-05T11:34 | 1436 | 841 | -10.3 | -13.2 | ||
| 2025-12-05T11:35 | 1772 | 805 | 281 | 23 | ||
| 2025-12-05T11:35 | 1791 | 803 | -13.2 | -15.3 | ||
| 2025-12-05T11:35 | 2008 | 780 | -15.1 | -16.1 | ||
| 2025-12-05T11:36 | 2171 | 763 | 279 | 23 | ||
| 2025-12-05T11:37 | 2561 | 725 | 274 | 23 | ||
| 2025-12-05T11:38 | 2860 | 696 | 282 | 26 | ||
| 2025-12-05T11:38 | 3010 | 682 | 288 | 27 | ||
| 2025-12-05T11:38 | 3029 | 680 | -22.1 | -23.9 | ||
| 2025-12-05T11:39 | 3193 | 665 | -23.2 | -25.8 | ||
| 2025-12-05T11:39 | 3417 | 645 | 291 | 30 | ||
| 2025-12-05T11:40 | 3693 | 621 | -27.4 | -28.9 | ||
| 2025-12-05T11:40 | 3742 | 617 | 293 | 31 | ||
| 2025-12-05T11:40 | 3763 | 615 | -26.9 | -31.5 | ||
| 2025-12-05T11:40 | 3886 | 605 | -27.4 | -33.2 | ||
| 2025-12-05T11:41 | 4136 | 584 | 295 | 35 | ||
| 2025-12-05T11:41 | 4142 | 583 | -27.4 | -37.2 | ||
| 2025-12-05T11:42 | 4363 | 566 | -28.3 | -41.2 | ||
| 2025-12-05T11:42 | 4452 | 559 | -27.9 | -44.0 | ||
| 2025-12-05T11:42 | 4480 | 557 | 297 | 37 | ||
| 2025-12-05T11:43 | 4802 | 532 | -28.2 | -46.3 | 305 | 40 |
| 2025-12-05T11:44 | 5144 | 507 | 301 | 42 | ||
| 2025-12-05T11:44 | 5320 | 495 | -31.1 | -50.5 | ||
| 2025-12-05T11:45 | 5493 | 483 | 303 | 43 | ||
| 2025-12-05T11:45 | 5657 | 472 | -33.1 | -53.6 | ||
| 2025-12-05T11:46 | 5847 | 459 | 304 | 42 | ||
| 2025-12-05T11:46 | 5972 | 451 | -34.6 | -54.8 | ||
| 2025-12-05T11:47 | 6238 | 434 | 303 | 44 | ||
| 2025-12-05T11:47 | 6392 | 424 | 304 | 42 | ||
| 2025-12-05T11:48 | 6757 | 402 | -40.0 | -60.8 | ||
| 2025-12-05T11:48 | 6770 | 402 | 306 | 41 | ||
| 2025-12-05T11:49 | 7179 | 378 | 304 | 40 | ||
| 2025-12-05T11:49 | 7264 | 373 | -43.6 | |||
| 2025-12-05T11:50 | 7544 | 358 | 301 | 42 | ||
| 2025-12-05T11:51 | 7656 | 352 | -45.4 | |||
| 2025-12-05T11:51 | 7702 | 350 | 302 | 38 | ||
| 2025-12-05T11:51 | 7807 | 344 | -46.1 | |||
| 2025-12-05T11:52 | 8058 | 331 | 298 | 38 | ||
| 2025-12-05T11:52 | 8373 | 316 | -49.0 | |||
| 2025-12-05T11:53 | 8440 | 313 | 302 | 36 | ||
| 2025-12-05T11:53 | 8647 | 303 | 299 | 36 | ||
| 2025-12-05T11:53 | 8719 | 300 | -51.0 | |||
| 2025-12-05T11:54 | 9054 | 284 | 296 | 36 | ||
| 2025-12-05T11:55 | 9269 | 275 | -54.5 | |||
| 2025-12-05T11:55 | 9505 | 265 | 295 | 35 | ||
| 2025-12-05T11:55 | 9513 | 265 | -54.7 | |||
| 2025-12-05T11:56 | 9704 | 257 | -54.5 | |||
| 2025-12-05T11:56 | 9852 | 251 | -54.2 | |||
| 2025-12-05T11:56 | 9950 | 247 | 279 | 33 | ||
| 2025-12-05T11:57 | 10199 | 238 | 284 | 35 | ||
| 2025-12-05T11:57 | 10310 | 234 | -54.2 | |||
| 2025-12-05T11:57 | 10366 | 232 | 281 | 38 | ||
| 2025-12-05T11:58 | 10587 | 224 | -54.1 | |||
| 2025-12-05T11:58 | 10676 | 221 | 282 | 39 | ||
| 2025-12-05T11:59 | 10829 | 216 | -54.4 | |||
| 2025-12-05T11:59 | 10976 | 211 | 278 | 41 | ||
| 2025-12-05T12:00 | 11075 | 207 | -54.4 | |||
| 2025-12-05T12:00 | 11288 | 201 | 273 | 41 | ||
| 2025-12-05T12:00 | 11310 | 200 | -53.7 | |||
| 2025-12-05T12:01 | 11408 | 197 | -52.7 | |||
| 2025-12-05T12:01 | 11558 | 192 | -53.6 | |||
| 2025-12-05T12:01 | 11635 | 190 | 267 | 46 | ||
| 2025-12-05T12:01 | 11675 | 189 | -52.3 | |||
| 2025-12-05T12:02 | 12017 | 179 | 260 | 48 | ||
| 2025-12-05T12:02 | 12051 | 178 | -53.7 | |||
| 2025-12-05T12:03 | 12403 | 169 | 259 | 51 | ||
| 2025-12-05T12:03 | 12468 | 167 | -53.2 | |||
| 2025-12-05T12:04 | 12615 | 163 | -52.8 | |||
| 2025-12-05T12:04 | 12689 | 161 | 261 | 54 | ||
| 2025-12-05T12:05 | 12774 | 159 | -52.4 | |||
| 2025-12-05T12:05 | 12934 | 155 | 259 | 51 | ||
| 2025-12-05T12:05 | 13074 | 152 | -51.3 | |||
| 2025-12-05T12:06 | 13354 | 146 | 260 | 51 | ||
| 2025-12-05T12:06 | 13449 | 144 | -48.8 | |||
| 2025-12-05T12:07 | 13736 | 138 | 266 | 49 | ||
| 2025-12-05T12:07 | 13839 | 135 | -49.4 | |||
| 2025-12-05T12:07 | 13877 | 135 | 261 | 44 | ||
| 2025-12-05T12:08 | 14117 | 130 | -48.6 | |||
| 2025-12-05T12:08 | 14285 | 126 | 260 | 43 | ||
| 2025-12-05T12:08 | 14411 | 124 | -49.4 | |||
| 2025-12-05T12:09 | 14491 | 123 | 258 | 44 | ||
| 2025-12-05T12:09 | 14738 | 118 | 259 | 46 | ||
| 2025-12-05T12:09 | 14784 | 117 | -51.3 | |||
| 2025-12-05T12:10 | 14982 | 114 | -50.8 | |||
| 2025-12-05T12:10 | 15176 | 110 | 263 | 40 | ||
| 2025-12-05T12:10 | 15184 | 110 | -50.8 | |||
| 2025-12-05T12:11 | 15414 | 106 | -52.0 | |||
| 2025-12-05T12:11 | 15554 | 104 | 270 | 37 | ||
| 2025-12-05T12:12 | 15847 | 99 | -52.3 | |||
| 2025-12-05T12:12 | 15894 | 99 | 284 | 31 | ||
| 2025-12-05T12:13 | 16182 | 94 | -54.0 | |||
| 2025-12-05T12:13 | 16293 | 93 | 278 | 31 | ||
| 2025-12-05T12:13 | 16489 | 90 | -53.8 | |||
| 2025-12-05T12:14 | 16662 | 88 | 275 | 36 | ||
| 2025-12-05T12:14 | 16735 | 87 | -55.1 | |||
| 2025-12-05T12:15 | 16982 | 83 | 279 | 33 | ||
| 2025-12-05T12:16 | 17373 | 78 | 267 | 31 | ||
| 2025-12-05T12:16 | 17389 | 78 | -56.6 | |||
| 2025-12-05T12:16 | 17608 | 76 | 254 | 26 | ||
| 2025-12-05T12:16 | 17631 | 75 | -54.0 | |||
| 2025-12-05T12:17 | 18053 | 70 | 260 | 27 | ||
| 2025-12-05T12:18 | 18199 | 69 | -55.9 | |||
| 2025-12-05T12:18 | 18455 | 66 | 261 | 35 | ||
| 2025-12-05T12:19 | 18581 | 65 | -56.8 | |||
| 2025-12-05T12:19 | 18849 | 62 | -57.0 | |||
| 2025-12-05T12:19 | 18859 | 62 | 248 | 36 | ||
| 2025-12-05T12:20 | 19026 | 60 | -53.8 | |||
| 2025-12-05T12:20 | 19122 | 60 | 232 | 35 | ||
| 2025-12-05T12:20 | 19221 | 59 | -51.9 | |||
| 2025-12-05T12:21 | 19290 | 58 | -48.8 | |||
| 2025-12-05T12:21 | 19370 | 57 | 225 | 27 | ||
| 2025-12-05T12:21 | 19553 | 56 | -49.0 | |||
| 2025-12-05T12:22 | 19744 | 54 | 201 | 27 | ||
| 2025-12-05T12:22 | 19877 | 53 | -51.7 | 197 | 28 | |
| 2025-12-05T23:30 | 18 | 1015 | 1.5 | -2.8 | 140 | 2 |
| 2025-12-05T23:30 | 23 | 1014 | 1.7 | -3.4 | 0 | 0 |
| 2025-12-05T23:30 | 88 | 1006 | 120 | 3 | ||
| 2025-12-05T23:30 | 115 | 1002 | 1.1 | -4.3 | ||
| 2025-12-05T23:31 | 177 | 995 | 2.1 | -6.0 | ||
| 2025-12-05T23:31 | 246 | 986 | 95 | 5 | ||
| 2025-12-05T23:31 | 484 | 957 | 93 | 2 | ||
| 2025-12-05T23:32 | 613 | 942 | -1.5 | -7.0 | ||
| 2025-12-05T23:32 | 814 | 918 | 269 | 3 | ||
| 2025-12-05T23:33 | 991 | 898 | 293 | 7 | ||
| 2025-12-05T23:33 | 1071 | 889 | -5.4 | -8.1 | ||
| 2025-12-05T23:33 | 1137 | 881 | 275 | 9 | ||
| 2025-12-05T23:33 | 1300 | 863 | 267 | 11 | ||
| 2025-12-05T23:34 | 1435 | 848 | -8.6 | -9.4 | ||
| 2025-12-05T23:34 | 1492 | 842 | 264 | 12 | ||
| 2025-12-05T23:34 | 1633 | 827 | -9.7 | -10.8 | ||
| 2025-12-05T23:34 | 1685 | 821 | -9.0 | -12.0 | ||
| 2025-12-05T23:35 | 1777 | 812 | -8.7 | -13.0 | ||
| 2025-12-05T23:35 | 1816 | 807 | -7.9 | -13.3 | ||
| 2025-12-05T23:35 | 1832 | 806 | 278 | 16 | ||
| 2025-12-05T23:35 | 1856 | 803 | -7.7 | -14.1 | ||
| 2025-12-05T23:35 | 1897 | 799 | -6.9 | -13.6 | ||
| 2025-12-05T23:35 | 2105 | 778 | -8.2 | -13.4 | ||
| 2025-12-05T23:35 | 2151 | 773 | -7.6 | -14.0 | ||
| 2025-12-05T23:36 | 2300 | 759 | 284 | 21 | ||
| 2025-12-05T23:36 | 2507 | 739 | -10.0 | -17.8 | ||
| 2025-12-05T23:37 | 2710 | 719 | 279 | 23 | ||
| 2025-12-05T23:37 | 3050 | 688 | -13.7 | -23.6 | ||
| 2025-12-05T23:38 | 3109 | 683 | 281 | 23 | ||
| 2025-12-05T23:38 | 3213 | 673 | -14.4 | -24.8 | ||
| 2025-12-05T23:39 | 3499 | 648 | 278 | 24 | ||
| 2025-12-05T23:39 | 3836 | 620 | -19.1 | -29.1 | ||
| 2025-12-05T23:40 | 3896 | 615 | 284 | 22 | ||
| 2025-12-05T23:40 | 4181 | 592 | 285 | 24 | ||
| 2025-12-05T23:41 | 4365 | 577 | -22.9 | -36.1 | ||
| 2025-12-05T23:41 | 4462 | 569 | -23.7 | -31.9 | ||
| 2025-12-05T23:41 | 4597 | 559 | 281 | 23 | ||
| 2025-12-05T23:42 | 4756 | 547 | -26.0 | -35.9 | ||
| 2025-12-05T23:42 | 4984 | 530 | -27.8 | -34.6 | ||
| 2025-12-05T23:42 | 5027 | 527 | 281 | 23 | ||
| 2025-12-05T23:43 | 5161 | 517 | -28.5 | -38.9 | ||
| 2025-12-05T23:43 | 5251 | 510 | -29.0 | -40.2 | ||
| 2025-12-05T23:43 | 5359 | 503 | 279 | 25 | ||
| 2025-12-05T23:44 | 5648 | 483 | -31.3 | -43.2 | ||
| 2025-12-05T23:44 | 5752 | 475 | 280 | 25 | ||
| 2025-12-05T23:45 | 6120 | 451 | 286 | 24 | ||
| 2025-12-05T23:45 | 6211 | 445 | -36.1 | -46.6 | ||
| 2025-12-05T23:46 | 6349 | 437 | 279 | 22 | ||
| 2025-12-05T23:46 | 6474 | 429 | 277 | 24 | ||
| 2025-12-05T23:46 | 6514 | 426 | -37.8 | -51.7 | ||
| 2025-12-05T23:47 | 6821 | 408 | -40.0 | -52.9 | 284 | 23 |
| 2025-12-05T23:48 | 7184 | 386 | 281 | 23 | ||
| 2025-12-05T23:49 | 7463 | 371 | 280 | 23 | ||
| 2025-12-05T23:49 | 7481 | 370 | -45.3 | |||
| 2025-12-05T23:49 | 7574 | 364 | 280 | 24 | ||
| 2025-12-05T23:49 | 7678 | 359 | 285 | 28 | ||
| 2025-12-05T23:50 | 7812 | 352 | 280 | 26 | ||
| 2025-12-05T23:50 | 7871 | 349 | -47.9 | |||
| 2025-12-05T23:51 | 8148 | 334 | 283 | 24 | ||
| 2025-12-05T23:52 | 8420 | 320 | -50.9 | |||
| 2025-12-05T23:52 | 8475 | 318 | 283 | 25 | ||
| 2025-12-05T23:52 | 8619 | 311 | -51.5 | |||
| 2025-12-05T23:53 | 8772 | 304 | 283 | 25 | ||
| 2025-12-05T23:53 | 8854 | 300 | -52.0 | |||
| 2025-12-05T23:54 | 9169 | 285 | 280 | 28 | ||
| 2025-12-05T23:54 | 9353 | 277 | -54.1 | |||
| 2025-12-05T23:55 | 9623 | 266 | 272 | 30 | ||
| 2025-12-05T23:55 | 9631 | 266 | -54.3 | |||
| 2025-12-05T23:55 | 9787 | 259 | -54.0 | |||
| 2025-12-05T23:56 | 10080 | 248 | -55.4 | |||
| 2025-12-05T23:56 | 10087 | 247 | 271 | 36 | ||
| 2025-12-05T23:56 | 10211 | 243 | -54.7 | |||
| 2025-12-05T23:56 | 10392 | 236 | 268 | 37 | ||
| 2025-12-05T23:57 | 10466 | 233 | -53.7 | |||
| 2025-12-05T23:57 | 10588 | 229 | -51.7 | |||
| 2025-12-05T23:57 | 10690 | 225 | 271 | 40 | ||
| 2025-12-05T23:58 | 10789 | 222 | -49.5 | |||
| 2025-12-05T23:58 | 10863 | 219 | -49.0 | |||
| 2025-12-05T23:58 | 11013 | 214 | 270 | 39 | ||
| 2025-12-05T23:59 | 11350 | 204 | 265 | 39 | ||
| 2025-12-06T00:00 | 11434 | 201 | -51.4 | |||
| 2025-12-06T00:00 | 11574 | 197 | -50.2 | |||
| 2025-12-06T00:00 | 11725 | 192 | 266 | 41 | ||
| 2025-12-06T00:01 | 11903 | 187 | -50.9 | |||
| 2025-12-06T00:01 | 12073 | 182 | 268 | 40 | ||
| 2025-12-06T00:02 | 12156 | 180 | -51.6 | |||
| 2025-12-06T00:02 | 12360 | 174 | 268 | 43 | ||
| 2025-12-06T00:03 | 12428 | 172 | -52.5 | |||
| 2025-12-06T00:03 | 12535 | 170 | -51.4 | |||
| 2025-12-06T00:03 | 12645 | 167 | 270 | 43 | ||
| 2025-12-06T00:03 | 12708 | 165 | -51.8 | |||
| 2025-12-06T00:04 | 12993 | 158 | 270 | 42 | ||
| 2025-12-06T00:05 | 13175 | 154 | -52.4 | |||
| 2025-12-06T00:05 | 13364 | 149 | 271 | 42 | ||
| 2025-12-06T00:06 | 13513 | 146 | -52.9 | |||
| 2025-12-06T00:06 | 13669 | 142 | 272 | 37 | ||
| 2025-12-06T00:07 | 13824 | 139 | 266 | 40 | ||
| 2025-12-06T00:07 | 14063 | 134 | 259 | 36 | ||
| 2025-12-06T00:08 | 14233 | 130 | -54.8 | |||
| 2025-12-06T00:08 | 14415 | 127 | 263 | 43 | ||
| 2025-12-06T00:09 | 14612 | 123 | 266 | 42 | ||
| 2025-12-06T00:10 | 14942 | 117 | 267 | 42 | ||
| 2025-12-06T00:10 | 14955 | 116 | -55.4 | |||
| 2025-12-06T00:10 | 15218 | 112 | -56.1 | |||
| 2025-12-06T00:11 | 15326 | 110 | 263 | 45 | ||
| 2025-12-06T00:12 | 15746 | 103 | 271 | 44 | ||
| 2025-12-06T00:12 | 15866 | 101 | -57.1 | |||
| 2025-12-06T00:12 | 16029 | 98 | 271 | 43 | ||
| 2025-12-06T00:13 | 16419 | 92 | 268 | 42 | ||
| 2025-12-06T00:14 | 16593 | 90 | -55.2 | |||
| 2025-12-06T00:14 | 16811 | 87 | 272 | 43 | ||
| 2025-12-06T00:15 | 17189 | 82 | 268 | 40 | ||
| 2025-12-06T00:16 | 17307 | 80 | -55.0 | |||
| 2025-12-06T00:16 | 17535 | 78 | 264 | 36 | ||
| 2025-12-06T00:17 | 17644 | 76 | -52.5 | |||
| 2025-12-06T00:17 | 17748 | 75 | 271 | 36 | ||
| 2025-12-06T00:17 | 17782 | 75 | -50.2 | |||
| 2025-12-06T00:18 | 18098 | 71 | -50.0 | |||
| 2025-12-06T00:18 | 18255 | 69 | 284 | 11 | ||
| 2025-12-06T00:18 | 18425 | 68 | -50.5 | |||
| 2025-12-06T00:18 | 18442 | 67 | 236 | 4 | ||
| 2025-12-06T00:19 | 18640 | 65 | -51.1 | |||
| 2025-12-06T00:19 | 18712 | 65 | 215 | 10 | ||
| 2025-12-06T00:20 | 19144 | 61 | 245 | 11 | ||
| 2025-12-06T00:21 | 19361 | 59 | -55.0 | |||
| 2025-12-06T00:21 | 19449 | 58 | 251 | 16 | ||
| 2025-12-06T00:21 | 19741 | 55 | 248 | 16 | ||
| 2025-12-06T00:22 | 19998 | 53 | -57.2 | |||
| 2025-12-06T00:22 | 20181 | 51 | 218 | 16 | ||
| 2025-12-06T00:23 | 20428 | 49 | -59.8 | 209 | 19 | |
| 2025-12-06T00:24 | 20621 | 48 | 208 | 23 | ||
| 2025-12-06T00:24 | 20687 | 47 | -59.3 | |||
| 2025-12-06T00:24 | 20835 | 46 | 226 | 28 | ||
| 2025-12-06T00:25 | 20932 | 46 | -57.9 | |||
| 2025-12-06T00:25 | 21224 | 44 | 238 | 32 | ||
| 2025-12-06T00:26 | 21566 | 41 | -60.3 | |||
| 2025-12-06T00:26 | 21745 | 40 | 252 | 33 | ||
| 2025-12-06T00:26 | 21799 | 40 | -55.0 | |||
| 2025-12-06T00:27 | 21913 | 39 | 264 | 32 | ||
| 2025-12-06T00:27 | 22102 | 38 | -48.1 | |||
| 2025-12-06T00:27 | 22204 | 37 | 261 | 16 | ||
| 2025-12-06T00:28 | 22567 | 35 | 219 | 16 | ||
| 2025-12-06T00:29 | 22771 | 34 | 215 | 24 | ||
| 2025-12-06T00:29 | 22871 | 34 | -49.3 | |||
| 2025-12-06T00:29 | 22921 | 33 | -48.9 | 221 | 20 | |
| 2025-12-06T11:30 | 18 | 1013 | 4.8 | -0.2 | 170 | 3 |
| 2025-12-06T11:30 | 24 | 1012 | 4.9 | -0.7 | 0 | 0 |
| 2025-12-06T11:30 | 77 | 1006 | 170 | 3 | ||
| 2025-12-06T11:30 | 94 | 1004 | 5.1 | -0.7 | ||
| 2025-12-06T11:31 | 230 | 987 | 164 | 10 | ||
| 2025-12-06T11:31 | 393 | 967 | 2.9 | -1.3 | ||
| 2025-12-06T11:31 | 467 | 958 | 3.1 | -1.6 | ||
| 2025-12-06T11:31 | 494 | 955 | 169 | 13 | ||
| 2025-12-06T11:31 | 501 | 955 | 3.2 | -1.7 | ||
| 2025-12-06T11:32 | 628 | 940 | 196 | 7 | ||
| 2025-12-06T11:32 | 800 | 920 | 199 | 10 | ||
| 2025-12-06T11:32 | 899 | 909 | 0.8 | -2.8 | ||
| 2025-12-06T11:33 | 1026 | 894 | 214 | 11 | ||
| 2025-12-06T11:33 | 1133 | 882 | -1.3 | -3.2 | ||
| 2025-12-06T11:33 | 1273 | 867 | 223 | 16 | ||
| 2025-12-06T11:34 | 1469 | 846 | -3.2 | -5.1 | ||
| 2025-12-06T11:34 | 1510 | 841 | 233 | 17 | ||
| 2025-12-06T11:34 | 1671 | 824 | -3.8 | -7.4 | ||
| 2025-12-06T11:35 | 1727 | 819 | -3.3 | -9.5 | ||
| 2025-12-06T11:35 | 1796 | 812 | 241 | 19 | ||
| 2025-12-06T11:35 | 1808 | 810 | -3.4 | -11.6 | ||
| 2025-12-06T11:36 | 2140 | 777 | -5.9 | -14.4 | ||
| 2025-12-06T11:36 | 2181 | 773 | 245 | 16 | ||
| 2025-12-06T11:37 | 2548 | 737 | -9.5 | -16.2 | ||
| 2025-12-06T11:37 | 2607 | 732 | 241 | 17 | ||
| 2025-12-06T11:37 | 2775 | 716 | -11.3 | -19.0 | ||
| 2025-12-06T11:37 | 2875 | 707 | -12.2 | -16.4 | ||
| 2025-12-06T11:38 | 2959 | 699 | -13.0 | -16.7 | ||
| 2025-12-06T11:38 | 2975 | 697 | 249 | 18 | ||
| 2025-12-06T11:38 | 3012 | 694 | -12.9 | -23.4 | ||
| 2025-12-06T11:38 | 3194 | 678 | -13.9 | -28.1 | ||
| 2025-12-06T11:38 | 3276 | 670 | -14.6 | -28.7 | ||
| 2025-12-06T11:39 | 3394 | 660 | 250 | 20 | ||
| 2025-12-06T11:39 | 3407 | 659 | -15.7 | -33.1 | ||
| 2025-12-06T11:39 | 3516 | 649 | -16.7 | -31.3 | ||
| 2025-12-06T11:39 | 3561 | 645 | 251 | 20 | ||
| 2025-12-06T11:39 | 3631 | 639 | -17.7 | -25.8 | ||
| 2025-12-06T11:39 | 3728 | 631 | -18.3 | -33.9 | ||
| 2025-12-06T11:40 | 3880 | 618 | 244 | 22 | ||
| 2025-12-06T11:40 | 4002 | 608 | -20.2 | -34.4 | ||
| 2025-12-06T11:40 | 4015 | 607 | 243 | 22 | ||
| 2025-12-06T11:41 | 4401 | 576 | 242 | 24 | ||
| 2025-12-06T11:42 | 4627 | 559 | 238 | 22 | ||
| 2025-12-06T11:42 | 4646 | 557 | -25.3 | -38.9 | ||
| 2025-12-06T11:42 | 4714 | 552 | -25.9 | -37.8 | ||
| 2025-12-06T11:42 | 4845 | 542 | -26.7 | -29.7 | ||
| 2025-12-06T11:43 | 4996 | 531 | -27.9 | -30.7 | ||
| 2025-12-06T11:43 | 5002 | 530 | 246 | 22 | ||
| 2025-12-06T11:43 | 5176 | 517 | 241 | 19 | ||
| 2025-12-06T11:43 | 5189 | 517 | -29.3 | -32.7 | ||
| 2025-12-06T11:44 | 5309 | 508 | -30.2 | -31.9 | ||
| 2025-12-06T11:44 | 5328 | 507 | 247 | 20 | ||
| 2025-12-06T11:44 | 5471 | 496 | -31.2 | -34.3 | ||
| 2025-12-06T11:44 | 5567 | 490 | -31.4 | -35.8 | ||
| 2025-12-06T11:45 | 5665 | 483 | 252 | 21 | ||
| 2025-12-06T11:45 | 5732 | 478 | -32.4 | -36.0 | ||
| 2025-12-06T11:45 | 5904 | 467 | -33.3 | -37.3 | ||
| 2025-12-06T11:46 | 6027 | 459 | 253 | 21 | ||
| 2025-12-06T11:46 | 6051 | 457 | -34.3 | -38.1 | ||
| 2025-12-06T11:46 | 6285 | 442 | -36.3 | -39.0 | ||
| 2025-12-06T11:47 | 6410 | 434 | 254 | 20 | ||
| 2025-12-06T11:47 | 6535 | 427 | -38.5 | -41.9 | ||
| 2025-12-06T11:47 | 6710 | 416 | -40.0 | -43.0 | ||
| 2025-12-06T11:48 | 6799 | 410 | 252 | 21 | ||
| 2025-12-06T11:48 | 7123 | 391 | 249 | 22 | ||
| 2025-12-06T11:49 | 7202 | 387 | -44.0 | |||
| 2025-12-06T11:49 | 7353 | 378 | -44.1 | |||
| 2025-12-06T11:49 | 7487 | 370 | 248 | 22 | ||
| 2025-12-06T11:50 | 7537 | 368 | -44.7 | |||
| 2025-12-06T11:50 | 7869 | 350 | -46.7 | |||
| 2025-12-06T11:50 | 7876 | 349 | 254 | 25 | ||
| 2025-12-06T11:51 | 8281 | 329 | 255 | 21 | ||
| 2025-12-06T11:52 | 8598 | 313 | -51.5 | |||
| 2025-12-06T11:52 | 8704 | 308 | 257 | 22 | ||
| 2025-12-06T11:53 | 8880 | 300 | -53.4 | |||
| 2025-12-06T11:53 | 9037 | 292 | 267 | 23 | ||
| 2025-12-06T11:54 | 9280 | 281 | -54.2 | |||
| 2025-12-06T11:54 | 9416 | 276 | 251 | 21 | ||
| 2025-12-06T11:55 | 9685 | 264 | -53.9 | |||
| 2025-12-06T11:55 | 9722 | 263 | 243 | 24 | ||
| 2025-12-06T11:55 | 9864 | 257 | 254 | 25 | ||
| 2025-12-06T11:56 | 10038 | 250 | -53.3 | |||
| 2025-12-06T11:56 | 10090 | 248 | 259 | 32 | ||
| 2025-12-06T11:56 | 10266 | 241 | -52.7 | 255 | 32 | |
| 2025-12-06T11:57 | 10446 | 235 | -53.3 | |||
| 2025-12-06T11:57 | 10512 | 232 | 250 | 28 | ||
| 2025-12-06T11:57 | 10593 | 229 | -52.2 | |||
| 2025-12-06T11:57 | 10715 | 225 | -50.4 | |||
| 2025-12-06T11:58 | 10756 | 224 | 256 | 33 | ||
| 2025-12-06T11:58 | 10870 | 220 | -49.2 | |||
| 2025-12-06T11:58 | 10984 | 216 | -48.9 | |||
| 2025-12-06T11:58 | 11026 | 215 | 251 | 32 | ||
| 2025-12-06T11:59 | 11209 | 209 | -47.5 | |||
| 2025-12-06T11:59 | 11318 | 205 | 258 | 38 | ||
| 2025-12-06T11:59 | 11439 | 202 | -47.8 | |||
| 2025-12-06T12:00 | 11652 | 195 | -47.8 | |||
| 2025-12-06T12:00 | 11707 | 194 | 256 | 37 | ||
| 2025-12-06T12:00 | 11874 | 189 | 257 | 34 | ||
| 2025-12-06T12:01 | 11941 | 187 | -48.7 | |||
| 2025-12-06T12:01 | 12008 | 185 | 255 | 38 | ||
| 2025-12-06T12:01 | 12091 | 183 | -49.3 | |||
| 2025-12-06T12:02 | 12329 | 176 | -49.7 | |||
| 2025-12-06T12:02 | 12354 | 175 | 254 | 35 | ||
| 2025-12-06T12:02 | 12643 | 168 | 254 | 41 | ||
| 2025-12-06T12:03 | 12773 | 165 | -51.9 | |||
| 2025-12-06T12:03 | 13021 | 158 | -51.3 | |||
| 2025-12-06T12:03 | 13027 | 158 | 256 | 39 | ||
| 2025-12-06T12:04 | 13168 | 155 | -52.1 | |||
| 2025-12-06T12:04 | 13345 | 151 | 255 | 44 | ||
| 2025-12-06T12:05 | 13653 | 144 | 258 | 39 | ||
| 2025-12-06T12:06 | 13841 | 139 | 259 | 42 | ||
| 2025-12-06T12:06 | 13921 | 138 | -52.1 | |||
| 2025-12-06T12:06 | 14134 | 133 | -52.6 | |||
| 2025-12-06T12:07 | 14207 | 132 | 262 | 41 | ||
| 2025-12-06T12:07 | 14505 | 126 | 258 | 42 | ||
| 2025-12-06T12:08 | 14657 | 123 | 261 | 45 | ||
| 2025-12-06T12:08 | 14729 | 122 | -51.5 | |||
| 2025-12-06T12:09 | 15022 | 116 | 264 | 41 | ||
| 2025-12-06T12:09 | 15097 | 115 | -52.3 | |||
| 2025-12-06T12:10 | 15401 | 110 | 264 | 38 | ||
| 2025-12-06T12:11 | 15659 | 105 | -52.6 | |||
| 2025-12-06T12:11 | 15800 | 103 | 265 | 39 | ||
| 2025-12-06T12:12 | 16111 | 98 | 263 | 36 | ||
| 2025-12-06T12:12 | 16275 | 96 | -54.1 | |||
| 2025-12-06T12:13 | 16503 | 92 | 262 | 34 | ||
| 2025-12-06T12:13 | 16522 | 92 | -53.8 | |||
| 2025-12-06T12:14 | 16897 | 87 | 259 | 42 | ||
| 2025-12-06T12:14 | 17088 | 84 | -55.0 | |||
| 2025-12-06T12:15 | 17294 | 82 | 257 | 38 | ||
| 2025-12-06T12:16 | 17717 | 76 | 255 | 36 | ||
| 2025-12-06T12:16 | 17876 | 74 | -57.9 | |||
| 2025-12-06T12:16 | 18007 | 73 | 257 | 36 | ||
| 2025-12-06T12:17 | 18113 | 72 | -57.8 | |||
| 2025-12-06T12:17 | 18327 | 69 | 264 | 35 | ||
| 2025-12-06T12:18 | 18495 | 68 | -57.1 | |||
| 2025-12-06T12:18 | 18557 | 67 | 262 | 33 | ||
| 2025-12-06T12:18 | 18674 | 66 | 262 | 27 | ||
| 2025-12-06T12:18 | 18840 | 64 | 258 | 24 | ||
| 2025-12-06T12:19 | 19186 | 61 | -57.4 | |||
| 2025-12-06T12:19 | 19260 | 60 | 261 | 30 | ||
| 2025-12-06T12:20 | 19432 | 58 | -55.7 | |||
| 2025-12-06T12:20 | 19464 | 58 | 259 | 24 | ||
| 2025-12-06T12:21 | 19872 | 54 | 242 | 23 | ||
| 2025-12-06T12:21 | 19885 | 54 | -56.4 | |||
| 2025-12-06T12:22 | 20195 | 52 | -56.6 | |||
| 2025-12-06T12:22 | 20232 | 51 | 261 | 25 | ||
| 2025-12-06T12:22 | 20296 | 51 | -55.3 | |||
| 2025-12-06T12:22 | 20461 | 50 | -55.2 | 268 | 23 | |
| 2025-12-06T12:23 | 20836 | 47 | -56.1 | 282 | 21 | |
| 2025-12-06T23:30 | 18 | 1011 | 5.5 | 2.3 | 170 | 3 |
| 2025-12-06T23:30 | 24 | 1010 | 5.7 | 1.8 | 188 | 1 |
| 2025-12-06T23:30 | 80 | 1003 | 6.2 | 1.1 | ||
| 2025-12-06T23:30 | 114 | 999 | 180 | 3 | ||
| 2025-12-06T23:30 | 168 | 993 | 6.7 | 0.6 | ||
| 2025-12-06T23:31 | 222 | 986 | 216 | 7 | ||
| 2025-12-06T23:32 | 559 | 947 | 216 | 4 | ||
| 2025-12-06T23:32 | 779 | 921 | 1.5 | -2.1 | ||
| 2025-12-06T23:32 | 859 | 912 | 242 | 7 | ||
| 2025-12-06T23:33 | 1222 | 872 | 248 | 11 | ||
| 2025-12-06T23:34 | 1456 | 847 | -3.7 | -5.9 | ||
| 2025-12-06T23:34 | 1516 | 840 | -4.1 | -6.4 | ||
| 2025-12-06T23:34 | 1585 | 833 | 256 | 14 | ||
| 2025-12-06T23:35 | 1753 | 815 | -5.4 | -8.8 | ||
| 2025-12-06T23:35 | 1985 | 792 | 267 | 17 | ||
| 2025-12-06T23:36 | 2116 | 778 | -7.8 | -11.8 | ||
| 2025-12-06T23:36 | 2409 | 749 | 261 | 18 | ||
| 2025-12-06T23:37 | 2778 | 714 | -13.2 | -14.2 | ||
| 2025-12-06T23:37 | 2853 | 707 | 253 | 17 | ||
| 2025-12-06T23:38 | 3138 | 681 | -15.6 | -16.1 | ||
| 2025-12-06T23:38 | 3300 | 667 | 257 | 19 | ||
| 2025-12-06T23:39 | 3567 | 643 | -18.2 | -19.1 | 255 | 22 |
| 2025-12-06T23:39 | 3671 | 634 | -18.6 | -20.2 | ||
| 2025-12-06T23:40 | 3839 | 620 | -19.9 | -24.6 | ||
| 2025-12-06T23:40 | 3965 | 610 | 256 | 16 | ||
| 2025-12-06T23:40 | 4037 | 604 | -21.6 | -27.9 | ||
| 2025-12-06T23:41 | 4351 | 579 | 242 | 18 | ||
| 2025-12-06T23:42 | 4543 | 564 | -24.7 | -26.8 | ||
| 2025-12-06T23:42 | 4689 | 552 | -25.6 | -26.6 | ||
| 2025-12-06T23:42 | 4720 | 550 | 230 | 17 | ||
| 2025-12-06T23:43 | 5067 | 524 | 233 | 19 | ||
| 2025-12-06T23:43 | 5155 | 518 | -29.3 | -30.3 | ||
| 2025-12-06T23:44 | 5244 | 511 | -30.2 | -32.0 | ||
| 2025-12-06T23:44 | 5426 | 498 | 229 | 18 | ||
| 2025-12-06T23:44 | 5577 | 488 | -33.2 | -35.7 | ||
| 2025-12-06T23:45 | 5812 | 472 | 229 | 18 | ||
| 2025-12-06T23:45 | 5885 | 467 | -36.0 | -38.6 | ||
| 2025-12-06T23:46 | 6034 | 457 | -37.3 | -39.9 | ||
| 2025-12-06T23:46 | 6109 | 452 | -37.3 | -44.9 | ||
| 2025-12-06T23:46 | 6186 | 447 | 238 | 21 | ||
| 2025-12-06T23:46 | 6332 | 438 | -38.7 | -49.5 | ||
| 2025-12-06T23:47 | 6506 | 427 | -40.0 | -51.3 | ||
| 2025-12-06T23:47 | 6604 | 421 | 241 | 21 | ||
| 2025-12-06T23:48 | 6853 | 405 | 247 | 26 | ||
| 2025-12-06T23:48 | 7000 | 397 | -42.9 | |||
| 2025-12-06T23:48 | 7118 | 390 | -42.7 | |||
| 2025-12-06T23:48 | 7181 | 386 | 252 | 29 | ||
| 2025-12-06T23:49 | 7309 | 379 | 257 | 31 | ||
| 2025-12-06T23:50 | 7682 | 358 | 255 | 32 | ||
| 2025-12-06T23:50 | 7853 | 349 | -46.6 | |||
| 2025-12-06T23:51 | 8048 | 339 | 257 | 32 | ||
| 2025-12-06T23:51 | 8294 | 327 | -48.8 | |||
| 2025-12-06T23:52 | 8426 | 320 | 258 | 32 | ||
| 2025-12-06T23:52 | 8551 | 314 | -49.7 | |||
| 2025-12-06T23:52 | 8723 | 306 | 257 | 35 | ||
| 2025-12-06T23:53 | 8910 | 297 | -50.6 | |||
| 2025-12-06T23:53 | 8968 | 295 | 260 | 35 | ||
| 2025-12-06T23:53 | 9128 | 287 | -50.9 | |||
| 2025-12-06T23:53 | 9143 | 287 | 259 | 35 | ||
| 2025-12-06T23:54 | 9317 | 279 | 255 | 36 | ||
| 2025-12-06T23:54 | 9381 | 276 | -50.4 | |||
| 2025-12-06T23:54 | 9607 | 267 | 257 | 41 | ||
| 2025-12-06T23:55 | 9786 | 260 | -50.3 | |||
| 2025-12-06T23:55 | 9812 | 259 | 264 | 41 | ||
| 2025-12-06T23:55 | 9875 | 256 | -49.2 | |||
| 2025-12-06T23:56 | 10008 | 251 | 267 | 43 | ||
| 2025-12-06T23:56 | 10331 | 239 | 258 | 37 | ||
| 2025-12-06T23:57 | 10349 | 238 | -49.9 | |||
| 2025-12-06T23:57 | 10491 | 233 | -48.2 | |||
| 2025-12-06T23:57 | 10575 | 230 | 266 | 41 | ||
| 2025-12-06T23:57 | 10622 | 229 | -48.6 | |||
| 2025-12-06T23:58 | 10837 | 221 | -48.6 | |||
| 2025-12-06T23:58 | 10858 | 221 | 261 | 37 | ||
| 2025-12-06T23:58 | 10987 | 216 | -47.9 | |||
| 2025-12-06T23:58 | 11124 | 212 | -46.2 | |||
| 2025-12-06T23:59 | 11268 | 207 | 262 | 41 | ||
| 2025-12-06T23:59 | 11523 | 200 | -45.6 | |||
| 2025-12-07T00:00 | 11680 | 195 | 266 | 41 | ||
| 2025-12-07T00:01 | 12073 | 184 | 272 | 42 | ||
| 2025-12-07T00:02 | 12328 | 177 | 268 | 41 | ||
| 2025-12-07T00:02 | 12675 | 167 | -50.8 | |||
| 2025-12-07T00:03 | 12695 | 167 | 270 | 38 | ||
| 2025-12-07T00:04 | 13083 | 157 | 266 | 39 | ||
| 2025-12-07T00:04 | 13199 | 154 | -51.6 | |||
| 2025-12-07T00:05 | 13473 | 148 | 263 | 41 | ||
| 2025-12-07T00:05 | 13512 | 147 | -51.9 | |||
| 2025-12-07T00:05 | 13816 | 140 | 261 | 42 | ||
| 2025-12-07T00:06 | 13916 | 138 | -52.3 | |||
| 2025-12-07T00:06 | 14225 | 132 | 263 | 44 | ||
| 2025-12-07T00:07 | 14440 | 127 | -53.4 | |||
| 2025-12-07T00:07 | 14662 | 123 | 255 | 45 | ||
| 2025-12-07T00:08 | 14966 | 117 | -54.2 | |||
| 2025-12-07T00:08 | 15081 | 115 | 257 | 43 | ||
| 2025-12-07T00:09 | 15422 | 109 | 258 | 44 | ||
| 2025-12-07T00:10 | 15550 | 107 | -54.7 | |||
| 2025-12-07T00:10 | 15668 | 105 | -54.1 | |||
| 2025-12-07T00:10 | 15796 | 103 | 267 | 44 | ||
| 2025-12-07T00:10 | 15802 | 103 | -54.0 | |||
| 2025-12-07T00:11 | 16135 | 98 | 262 | 46 | ||
| 2025-12-07T00:12 | 16357 | 94 | 265 | 43 | ||
| 2025-12-07T00:12 | 16559 | 92 | 266 | 41 | ||
| 2025-12-07T00:13 | 16952 | 86 | -56.8 | |||
| 2025-12-07T00:13 | 16958 | 86 | 260 | 41 | ||
| 2025-12-07T00:14 | 17263 | 82 | -57.0 | |||
| 2025-12-07T00:14 | 17357 | 81 | 265 | 41 | ||
| 2025-12-07T00:15 | 17711 | 76 | 268 | 40 | ||
| 2025-12-07T00:16 | 17988 | 73 | -54.7 | |||
| 2025-12-07T00:16 | 18050 | 72 | 268 | 37 | ||
| 2025-12-07T00:17 | 18292 | 70 | 267 | 36 | ||
| 2025-12-07T00:18 | 18515 | 67 | -56.0 | |||
| 2025-12-07T00:18 | 18571 | 67 | 268 | 34 | ||
| 2025-12-07T00:19 | 18942 | 63 | 257 | 27 | ||
| 2025-12-07T00:19 | 18953 | 63 | -57.2 | |||
| 2025-12-07T00:19 | 19262 | 60 | 249 | 30 | ||
| 2025-12-07T00:20 | 19430 | 58 | -60.0 | |||
| 2025-12-07T00:20 | 19604 | 57 | 256 | 30 | ||
| 2025-12-07T00:21 | 19840 | 55 | 260 | 36 | ||
| 2025-12-07T00:21 | 19895 | 54 | -61.1 | |||
| 2025-12-07T00:21 | 20020 | 53 | 269 | 38 | ||
| 2025-12-07T00:22 | 20142 | 52 | 270 | 37 | ||
| 2025-12-07T00:22 | 20247 | 51 | -59.5 | |||
| 2025-12-07T00:22 | 20300 | 51 | 273 | 32 | ||
| 2025-12-07T00:22 | 20472 | 49 | 274 | 31 | ||
| 2025-12-07T00:23 | 20765 | 47 | 265 | 24 | ||
| 2025-12-07T00:24 | 21039 | 45 | -55.9 | |||
| 2025-12-07T00:24 | 21051 | 45 | 243 | 30 | ||
| 2025-12-07T00:24 | 21135 | 44 | -53.5 | |||
| 2025-12-07T00:24 | 21296 | 43 | 249 | 30 | ||
| 2025-12-07T00:25 | 21511 | 42 | -55.0 | |||
| 2025-12-07T00:25 | 21679 | 41 | 279 | 27 | ||
| 2025-12-07T00:26 | 21887 | 39 | 276 | 20 | ||
| 2025-12-07T00:26 | 22126 | 38 | -50.8 | |||
| 2025-12-07T00:26 | 22278 | 37 | 274 | 15 | ||
| 2025-12-07T00:28 | 22768 | 34 | 251 | 10 | ||
| 2025-12-07T00:28 | 22847 | 34 | -53.3 | 238 | 10 | |
| 2025-12-07T11:30 | 18 | 1009 | 5.5 | 1.0 | 270 | 2 |
| 2025-12-07T11:30 | 23 | 1008 | 5.0 | 0.6 | 0 | 0 |
| 2025-12-07T11:30 | 55 | 1004 | 5.8 | 0.1 | ||
| 2025-12-07T11:30 | 162 | 991 | 5.6 | -1.1 | ||
| 2025-12-07T11:31 | 192 | 988 | 238 | 2 | ||
| 2025-12-07T11:32 | 550 | 945 | 253 | 5 | ||
| 2025-12-07T11:32 | 599 | 939 | 2.2 | -3.9 | ||
| 2025-12-07T11:32 | 812 | 915 | 294 | 5 | ||
| 2025-12-07T11:33 | 1146 | 877 | -2.1 | -7.2 | ||
| 2025-12-07T11:33 | 1157 | 876 | 273 | 9 | ||
| 2025-12-07T11:34 | 1405 | 849 | -4.1 | -9.9 | ||
| 2025-12-07T11:34 | 1523 | 836 | 266 | 12 | ||
| 2025-12-07T11:35 | 1885 | 799 | 270 | 10 | ||
| 2025-12-07T11:36 | 2105 | 776 | -9.8 | -12.1 | ||
| 2025-12-07T11:36 | 2252 | 762 | 272 | 10 | ||
| 2025-12-07T11:36 | 2326 | 755 | -11.5 | -14.3 | ||
| 2025-12-07T11:37 | 2400 | 747 | -11.8 | -15.3 | ||
| 2025-12-07T11:37 | 2579 | 730 | -12.7 | -17.7 | ||
| 2025-12-07T11:37 | 2634 | 725 | 251 | 14 | ||
| 2025-12-07T11:37 | 2710 | 717 | -13.8 | -19.9 | ||
| 2025-12-07T11:38 | 2938 | 696 | 247 | 15 | ||
| 2025-12-07T11:38 | 3082 | 683 | -16.6 | -21.3 | ||
| 2025-12-07T11:39 | 3343 | 660 | 249 | 18 | ||
| 2025-12-07T11:39 | 3444 | 651 | -18.6 | -24.8 | ||
| 2025-12-07T11:40 | 3558 | 641 | -19.3 | -26.3 | ||
| 2025-12-07T11:40 | 3750 | 625 | 238 | 17 | ||
| 2025-12-07T11:40 | 3838 | 617 | -21.5 | -30.8 | ||
| 2025-12-07T11:41 | 4056 | 599 | -22.3 | -37.8 | ||
| 2025-12-07T11:41 | 4157 | 591 | 249 | 17 | ||
| 2025-12-07T11:42 | 4457 | 567 | 251 | 22 | ||
| 2025-12-07T11:42 | 4589 | 557 | -26.3 | -42.6 | ||
| 2025-12-07T11:43 | 4774 | 543 | 239 | 27 | ||
| 2025-12-07T11:43 | 4880 | 535 | -27.6 | -46.4 | ||
| 2025-12-07T11:44 | 5176 | 513 | 239 | 23 | ||
| 2025-12-07T11:44 | 5300 | 504 | -31.1 | -51.2 | ||
| 2025-12-07T11:44 | 5411 | 496 | 242 | 27 | ||
| 2025-12-07T11:44 | 5545 | 487 | -32.3 | -55.6 | ||
| 2025-12-07T11:45 | 5837 | 467 | 245 | 31 | ||
| 2025-12-07T11:45 | 5924 | 461 | -35.0 | -57.7 | ||
| 2025-12-07T11:46 | 6240 | 441 | -37.2 | -59.5 | ||
| 2025-12-07T11:46 | 6277 | 439 | 250 | 34 | ||
| 2025-12-07T11:46 | 6439 | 428 | -38.0 | -60.1 | ||
| 2025-12-07T11:47 | 6483 | 426 | 250 | 39 | ||
| 2025-12-07T11:47 | 6578 | 420 | -38.4 | -60.4 | ||
| 2025-12-07T11:48 | 6911 | 400 | -39.8 | -63.7 | ||
| 2025-12-07T11:48 | 6918 | 399 | 256 | 38 | ||
| 2025-12-07T11:48 | 6967 | 397 | -40.0 | -65.3 | ||
| 2025-12-07T11:48 | 7205 | 383 | 261 | 44 | ||
| 2025-12-07T11:48 | 7291 | 378 | -41.3 | |||
| 2025-12-07T11:49 | 7377 | 373 | 262 | 41 | ||
| 2025-12-07T11:49 | 7646 | 359 | -43.8 | |||
| 2025-12-07T11:50 | 7770 | 352 | 261 | 42 | ||
| 2025-12-07T11:50 | 7919 | 344 | -44.8 | |||
| 2025-12-07T11:51 | 8175 | 331 | 262 | 46 | ||
| 2025-12-07T11:51 | 8262 | 327 | -45.6 | |||
| 2025-12-07T11:52 | 8595 | 311 | 259 | 48 | ||
| 2025-12-07T11:52 | 8778 | 303 | 259 | 48 | ||
| 2025-12-07T11:52 | 8894 | 297 | -48.9 | |||
| 2025-12-07T11:53 | 9184 | 284 | 259 | 48 | ||
| 2025-12-07T11:54 | 9519 | 270 | -52.2 | |||
| 2025-12-07T11:54 | 9579 | 268 | 255 | 48 | ||
| 2025-12-07T11:55 | 9849 | 257 | -51.6 | |||
| 2025-12-07T11:55 | 9971 | 252 | 257 | 51 | ||
| 2025-12-07T11:55 | 10073 | 248 | -49.6 | |||
| 2025-12-07T11:56 | 10162 | 245 | -46.9 | |||
| 2025-12-07T11:56 | 10232 | 242 | 262 | 52 | ||
| 2025-12-07T11:56 | 10355 | 238 | -46.5 | |||
| 2025-12-07T11:57 | 10591 | 229 | 262 | 50 | ||
| 2025-12-07T11:57 | 10765 | 224 | -44.5 | |||
| 2025-12-07T11:58 | 10950 | 217 | 268 | 52 | ||
| 2025-12-07T11:58 | 11074 | 213 | -44.8 | |||
| 2025-12-07T11:59 | 11241 | 208 | -43.8 | |||
| 2025-12-07T11:59 | 11270 | 207 | 265 | 46 | ||
| 2025-12-07T11:59 | 11482 | 201 | 260 | 42 | ||
| 2025-12-07T12:00 | 11571 | 198 | -42.8 | |||
| 2025-12-07T12:00 | 11855 | 190 | -43.2 | |||
| 2025-12-07T12:00 | 11892 | 189 | 256 | 44 | ||
| 2025-12-07T12:01 | 12342 | 177 | 261 | 44 | ||
| 2025-12-07T12:02 | 12586 | 170 | -45.9 | |||
| 2025-12-07T12:02 | 12779 | 166 | 264 | 38 | ||
| 2025-12-07T12:03 | 12967 | 161 | -47.6 | |||
| 2025-12-07T12:03 | 13174 | 156 | 259 | 39 | ||
| 2025-12-07T12:04 | 13512 | 148 | 257 | 40 | ||
| 2025-12-07T12:05 | 13812 | 141 | -50.2 | |||
| 2025-12-07T12:05 | 13874 | 140 | 257 | 42 | ||
| 2025-12-07T12:06 | 14037 | 137 | -51.0 | |||
| 2025-12-07T12:06 | 14258 | 132 | 254 | 46 | ||
| 2025-12-07T12:06 | 14284 | 132 | -51.3 | |||
| 2025-12-07T12:07 | 14662 | 124 | 255 | 48 | ||
| 2025-12-07T12:08 | 15068 | 117 | 254 | 50 | ||
| 2025-12-07T12:08 | 15185 | 114 | -52.8 | |||
| 2025-12-07T12:09 | 15363 | 111 | 252 | 50 | ||
| 2025-12-07T12:09 | 15520 | 109 | 257 | 50 | ||
| 2025-12-07T12:10 | 15753 | 105 | 259 | 47 | ||
| 2025-12-07T12:10 | 15852 | 103 | -54.4 | |||
| 2025-12-07T12:11 | 16000 | 101 | 254 | 49 | ||
| 2025-12-07T12:11 | 16166 | 98 | -54.4 | |||
| 2025-12-07T12:12 | 16317 | 96 | 249 | 49 | ||
| 2025-12-07T12:12 | 16392 | 95 | -54.9 | |||
| 2025-12-07T12:12 | 16540 | 93 | 249 | 50 | ||
| 2025-12-07T12:13 | 16813 | 89 | -53.2 | |||
| 2025-12-07T12:13 | 16840 | 88 | 257 | 48 | ||
| 2025-12-07T12:14 | 17081 | 85 | -53.1 | |||
| 2025-12-07T12:14 | 17179 | 84 | 254 | 43 | ||
| 2025-12-07T12:15 | 17551 | 79 | 251 | 47 | ||
| 2025-12-07T12:15 | 17799 | 76 | -56.4 | |||
| 2025-12-07T12:15 | 17874 | 75 | 258 | 44 | ||
| 2025-12-07T12:16 | 18220 | 71 | 264 | 47 | ||
| 2025-12-07T12:16 | 18255 | 71 | -58.3 | |||
| 2025-12-07T12:17 | 18453 | 69 | -56.8 | |||
| 2025-12-07T12:17 | 18546 | 68 | -54.3 | |||
| 2025-12-07T12:17 | 18568 | 67 | -54.4 | 271 | 38 | |
| 2025-12-07T23:30 | 18 | 1009 | 2.3 | -0.1 | 240 | 1 |
| 2025-12-07T23:30 | 22 | 1008 | 2.2 | -0.4 | 0 | 0 |
| 2025-12-07T23:30 | 40 | 1006 | 1.9 | -0.7 | ||
| 2025-12-07T23:30 | 90 | 1000 | 2.1 | -1.7 | ||
| 2025-12-07T23:30 | 123 | 996 | 3.5 | -3.1 | ||
| 2025-12-07T23:31 | 356 | 967 | 231 | 1 | ||
| 2025-12-07T23:31 | 369 | 966 | 1.9 | -4.0 | ||
| 2025-12-07T23:32 | 551 | 944 | 0.9 | -4.9 | ||
| 2025-12-07T23:32 | 720 | 925 | 244 | 2 | ||
| 2025-12-07T23:33 | 960 | 897 | 230 | 3 | ||
| 2025-12-07T23:33 | 1121 | 879 | 228 | 3 | ||
| 2025-12-07T23:34 | 1359 | 853 | -6.3 | -7.4 | ||
| 2025-12-07T23:34 | 1430 | 845 | 224 | 7 | ||
| 2025-12-07T23:35 | 1697 | 817 | -8.5 | -10.3 | ||
| 2025-12-07T23:35 | 1745 | 812 | 233 | 9 | ||
| 2025-12-07T23:35 | 1999 | 785 | -10.7 | -12.2 | ||
| 2025-12-07T23:36 | 2153 | 770 | 220 | 10 | ||
| 2025-12-07T23:36 | 2186 | 767 | -11.8 | -13.7 | ||
| 2025-12-07T23:37 | 2544 | 731 | 216 | 11 | ||
| 2025-12-07T23:37 | 2758 | 711 | -15.8 | -17.3 | ||
| 2025-12-07T23:38 | 2918 | 696 | 224 | 12 | ||
| 2025-12-07T23:39 | 3285 | 662 | 232 | 14 | ||
| 2025-12-07T23:39 | 3481 | 645 | -20.3 | -22.7 | ||
| 2025-12-07T23:40 | 3672 | 629 | 244 | 24 | ||
| 2025-12-07T23:40 | 3706 | 626 | -21.2 | -23.9 | ||
| 2025-12-07T23:41 | 4077 | 595 | 239 | 31 | ||
| 2025-12-07T23:41 | 4351 | 573 | -25.7 | -28.1 | ||
| 2025-12-07T23:42 | 4502 | 561 | 248 | 33 | ||
| 2025-12-07T23:43 | 4927 | 529 | 246 | 38 | ||
| 2025-12-07T23:43 | 5172 | 511 | -31.9 | -34.2 | ||
| 2025-12-07T23:44 | 5348 | 498 | 244 | 39 | ||
| 2025-12-07T23:44 | 5561 | 484 | 245 | 43 | ||
| 2025-12-07T23:44 | 5589 | 482 | -35.2 | -38.1 | ||
| 2025-12-07T23:45 | 5764 | 470 | -36.8 | -39.5 | ||
| 2025-12-07T23:45 | 5860 | 463 | -37.7 | -41.6 | ||
| 2025-12-07T23:45 | 5977 | 455 | 245 | 46 | ||
| 2025-12-07T23:45 | 6032 | 452 | -39.2 | -43.2 | ||
| 2025-12-07T23:46 | 6134 | 445 | -40.0 | -44.2 | ||
| 2025-12-07T23:46 | 6389 | 428 | 248 | 48 | ||
| 2025-12-07T23:46 | 6477 | 423 | -42.5 | |||
| 2025-12-07T23:47 | 6587 | 416 | -42.3 | |||
| 2025-12-07T23:47 | 6648 | 412 | -42.0 | |||
| 2025-12-07T23:47 | 6796 | 404 | 256 | 51 | ||
| 2025-12-07T23:48 | 6936 | 395 | -42.6 | |||
| 2025-12-07T23:48 | 7192 | 381 | 256 | 54 | ||
| 2025-12-07T23:49 | 7383 | 370 | -44.6 | |||
| 2025-12-07T23:49 | 7600 | 358 | -45.5 | 256 | 57 | |
| 2025-12-07T23:50 | 8024 | 336 | 259 | 57 | ||
| 2025-12-07T23:50 | 8123 | 331 | -46.7 | |||
| 2025-12-07T23:51 | 8248 | 325 | -47.3 | |||
| 2025-12-07T23:51 | 8345 | 320 | -47.0 | |||
| 2025-12-07T23:51 | 8446 | 315 | 259 | 58 | ||
| 2025-12-07T23:51 | 8539 | 311 | -46.1 | |||
| 2025-12-07T23:52 | 8712 | 303 | -46.5 | |||
| 2025-12-07T23:52 | 8832 | 297 | 262 | 57 | ||
| 2025-12-07T23:52 | 8881 | 295 | -44.9 | |||
| 2025-12-07T23:53 | 9161 | 283 | 265 | 53 | ||
| 2025-12-07T23:53 | 9273 | 279 | -44.0 | |||
| 2025-12-07T23:54 | 9462 | 271 | -43.8 | |||
| 2025-12-07T23:54 | 9548 | 267 | 264 | 51 | ||
| 2025-12-07T23:54 | 9580 | 266 | -42.7 | |||
| 2025-12-07T23:55 | 9787 | 258 | -43.1 | |||
| 2025-12-07T23:55 | 9828 | 257 | 268 | 48 | ||
| 2025-12-07T23:55 | 10029 | 249 | -43.4 | |||
| 2025-12-07T23:55 | 10163 | 244 | -41.9 | |||
| 2025-12-07T23:56 | 10225 | 242 | 265 | 43 | ||
| 2025-12-07T23:56 | 10475 | 233 | 262 | 37 | ||
| 2025-12-07T23:56 | 10482 | 233 | -42.6 | |||
| 2025-12-07T23:57 | 10800 | 222 | 253 | 40 | ||
| 2025-12-07T23:58 | 10980 | 216 | 253 | 41 | ||
| 2025-12-07T23:59 | 11316 | 206 | -45.6 | |||
| 2025-12-07T23:59 | 11327 | 205 | 252 | 41 | ||
| 2025-12-07T23:59 | 11610 | 197 | -45.1 | |||
| 2025-12-08T00:00 | 11667 | 195 | 249 | 42 | ||
| 2025-12-08T00:00 | 11853 | 190 | -45.1 | |||
| 2025-12-08T00:01 | 12030 | 185 | 251 | 42 | ||
| 2025-12-08T00:02 | 12398 | 175 | 255 | 43 | ||
| 2025-12-08T00:02 | 12615 | 169 | -46.8 | |||
| 2025-12-08T00:03 | 12767 | 165 | 250 | 39 | ||
| 2025-12-08T00:04 | 13159 | 156 | 250 | 41 | ||
| 2025-12-08T00:04 | 13393 | 150 | -50.6 | |||
| 2025-12-08T00:04 | 13504 | 148 | 244 | 44 | ||
| 2025-12-08T00:05 | 13828 | 141 | 250 | 48 | ||
| 2025-12-08T00:06 | 14194 | 133 | -53.7 | |||
| 2025-12-08T00:06 | 14217 | 132 | 239 | 48 | ||
| 2025-12-08T00:07 | 14641 | 124 | 235 | 55 | ||
| 2025-12-08T00:07 | 14718 | 122 | -57.0 | |||
| 2025-12-08T00:08 | 14816 | 120 | 243 | 57 | ||
| 2025-12-08T00:08 | 15092 | 115 | -57.6 | |||
| 2025-12-08T00:09 | 15170 | 114 | 251 | 54 | ||
| 2025-12-08T00:09 | 15344 | 111 | -57.6 | |||
| 2025-12-08T00:09 | 15477 | 108 | -56.1 | |||
| 2025-12-08T00:10 | 15512 | 108 | 252 | 55 | ||
| 2025-12-08T00:10 | 15751 | 104 | -57.4 | |||
| 2025-12-08T00:11 | 15870 | 102 | 260 | 55 | ||
| 2025-12-08T00:11 | 15914 | 101 | -55.6 | |||
| 2025-12-08T00:11 | 15999 | 100 | -54.0 | |||
| 2025-12-08T00:11 | 16113 | 98 | 259 | 53 | ||
| 2025-12-08T00:11 | 16162 | 97 | -52.1 | |||
| 2025-12-08T00:11 | 16245 | 96 | 258 | 49 | ||
| 2025-12-08T00:12 | 16345 | 95 | -45.6 | |||
| 2025-12-08T00:12 | 16359 | 95 | 255 | 41 | ||
| 2025-12-08T00:12 | 16647 | 91 | 249 | 39 | ||
| 2025-12-08T00:13 | 16702 | 90 | -45.7 | |||
| 2025-12-08T00:13 | 16815 | 88 | 255 | 35 | ||
| 2025-12-08T00:14 | 17149 | 84 | -47.8 | |||
| 2025-12-08T00:14 | 17202 | 83 | 256 | 35 | ||
| 2025-12-08T00:14 | 17449 | 80 | 254 | 31 | ||
| 2025-12-08T00:15 | 17752 | 77 | 261 | 28 | ||
| 2025-12-08T00:15 | 17829 | 76 | -51.4 | |||
| 2025-12-08T00:16 | 18152 | 72 | 266 | 30 | ||
| 2025-12-08T00:16 | 18274 | 71 | -53.6 | |||
| 2025-12-08T00:17 | 18522 | 68 | -52.8 | |||
| 2025-12-08T00:17 | 18533 | 68 | 249 | 25 | ||
| 2025-12-08T00:18 | 18744 | 66 | -53.7 | |||
| 2025-12-08T00:18 | 18933 | 64 | -54.4 | |||
| 2025-12-08T00:18 | 18963 | 63 | 238 | 25 | ||
| 2025-12-08T00:18 | 19128 | 62 | -55.0 | |||
| 2025-12-08T00:19 | 19307 | 60 | -54.6 | |||
| 2025-12-08T00:19 | 19392 | 59 | 240 | 20 | ||
| 2025-12-08T00:20 | 19835 | 55 | 248 | 20 | ||
| 2025-12-08T00:20 | 19869 | 55 | -58.2 | |||
| 2025-12-08T00:21 | 20234 | 52 | -58.9 | |||
| 2025-12-08T00:21 | 20282 | 52 | 233 | 19 | ||
| 2025-12-08T00:22 | 20675 | 48 | -59.2 | |||
| 2025-12-08T00:22 | 20724 | 48 | 226 | 19 | ||
| 2025-12-08T00:23 | 21139 | 45 | 242 | 15 | ||
| 2025-12-08T00:23 | 21193 | 45 | -61.5 | |||
| 2025-12-08T00:24 | 21363 | 43 | -59.8 | |||
| 2025-12-08T00:24 | 21397 | 43 | 243 | 16 | ||
| 2025-12-08T00:24 | 21525 | 42 | -58.3 | |||
| 2025-12-08T00:24 | 21553 | 42 | 244 | 16 | ||
| 2025-12-08T00:25 | 21929 | 40 | -54.5 | |||
| 2025-12-08T00:25 | 21992 | 39 | 210 | 10 | ||
| 2025-12-08T00:26 | 22362 | 37 | -56.0 | |||
| 2025-12-08T00:26 | 22414 | 37 | 235 | 12 | ||
| 2025-12-08T00:27 | 22624 | 36 | 258 | 10 | ||
| 2025-12-08T00:27 | 22993 | 34 | -56.2 | |||
| 2025-12-08T00:28 | 23034 | 33 | 277 | 12 | ||
| 2025-12-08T00:28 | 23288 | 32 | 299 | 2 | ||
| 2025-12-08T00:28 | 23307 | 32 | -53.7 | |||
| 2025-12-08T00:28 | 23430 | 31 | 113 | 3 | ||
| 2025-12-08T00:29 | 23870 | 29 | 203 | 5 | ||
| 2025-12-08T00:30 | 24028 | 29 | 197 | 4 | ||
| 2025-12-08T00:30 | 24249 | 28 | -57.2 | 160 | 3 | |
| 2025-12-08T00:31 | 24380 | 27 | -55.7 | 162 | 4 | |
| 2025-12-08T11:30 | 18 | 1011 | -0.4 | -1.0 | 280 | 4 |
| 2025-12-08T11:30 | 23 | 1010 | -0.5 | -0.9 | 285 | 1 |
| 2025-12-08T11:30 | 41 | 1008 | 322 | 3 | ||
| 2025-12-08T11:30 | 71 | 1004 | 288 | 5 | ||
| 2025-12-08T11:31 | 278 | 978 | -2.1 | -2.5 | ||
| 2025-12-08T11:31 | 444 | 958 | 309 | 13 | ||
| 2025-12-08T11:32 | 795 | 917 | 309 | 16 | ||
| 2025-12-08T11:33 | 940 | 900 | -6.3 | -7.4 | ||
| 2025-12-08T11:33 | 1146 | 876 | 318 | 17 | ||
| 2025-12-08T11:34 | 1406 | 847 | 320 | 15 | ||
| 2025-12-08T11:35 | 1761 | 809 | 314 | 14 | ||
| 2025-12-08T11:35 | 1975 | 787 | -13.3 | -15.4 | 305 | 13 |
| 2025-12-08T11:36 | 2378 | 746 | 300 | 10 | ||
| 2025-12-08T11:37 | 2550 | 729 | -17.9 | -20.1 | ||
| 2025-12-08T11:37 | 2682 | 716 | 300 | 8 | ||
| 2025-12-08T11:38 | 2909 | 695 | -20.9 | -21.9 | ||
| 2025-12-08T11:38 | 3007 | 685 | -21.6 | -23.6 | ||
| 2025-12-08T11:38 | 3097 | 677 | 291 | 9 | ||
| 2025-12-08T11:39 | 3257 | 662 | -23.7 | -25.1 | ||
| 2025-12-08T11:39 | 3322 | 656 | 284 | 9 | ||
| 2025-12-08T11:40 | 3704 | 623 | -27.7 | -29.1 | ||
| 2025-12-08T11:40 | 3752 | 619 | 283 | 10 | ||
| 2025-12-08T11:40 | 3766 | 617 | -28.2 | -31.3 | ||
| 2025-12-08T11:40 | 3964 | 600 | 278 | 14 | ||
| 2025-12-08T11:41 | 4047 | 593 | -30.7 | -34.5 | ||
| 2025-12-08T11:41 | 4207 | 580 | -32.0 | -36.7 | ||
| 2025-12-08T11:41 | 4259 | 576 | -32.2 | -37.5 | ||
| 2025-12-08T11:41 | 4321 | 571 | -32.6 | -40.1 | ||
| 2025-12-08T11:41 | 4397 | 565 | 268 | 19 | ||
| 2025-12-08T11:41 | 4412 | 563 | -33.0 | -41.3 | ||
| 2025-12-08T11:41 | 4480 | 558 | -33.4 | -41.7 | ||
| 2025-12-08T11:42 | 4620 | 547 | -33.8 | -42.5 | ||
| 2025-12-08T11:42 | 4828 | 531 | 275 | 22 | ||
| 2025-12-08T11:42 | 4835 | 530 | -35.2 | -44.8 | ||
| 2025-12-08T11:42 | 4902 | 525 | -35.3 | -46.2 | ||
| 2025-12-08T11:43 | 4981 | 519 | -35.2 | -45.0 | ||
| 2025-12-08T11:43 | 5070 | 513 | -35.4 | -48.1 | ||
| 2025-12-08T11:43 | 5215 | 502 | -35.7 | -45.5 | 260 | 21 |
| 2025-12-08T11:44 | 5387 | 490 | -36.5 | -47.8 | ||
| 2025-12-08T11:44 | 5518 | 481 | 260 | 26 | ||
| 2025-12-08T11:44 | 5551 | 479 | -37.2 | -48.2 | ||
| 2025-12-08T11:44 | 5651 | 472 | -37.6 | -53.2 | ||
| 2025-12-08T11:45 | 5745 | 465 | -37.8 | -49.6 | ||
| 2025-12-08T11:45 | 5922 | 453 | 260 | 34 | ||
| 2025-12-08T11:45 | 5977 | 450 | -38.4 | -51.8 | ||
| 2025-12-08T11:45 | 6078 | 443 | -39.2 | -50.8 | ||
| 2025-12-08T11:46 | 6139 | 439 | 260 | 35 | ||
| 2025-12-08T11:46 | 6153 | 438 | -39.7 | -53.7 | ||
| 2025-12-08T11:46 | 6207 | 435 | -40.0 | -51.6 | ||
| 2025-12-08T11:47 | 6549 | 414 | 254 | 39 | ||
| 2025-12-08T11:47 | 6799 | 399 | -41.8 | |||
| 2025-12-08T11:48 | 7003 | 387 | 253 | 42 | ||
| 2025-12-08T11:48 | 7241 | 373 | -43.6 | |||
| 2025-12-08T11:49 | 7412 | 364 | 254 | 44 | ||
| 2025-12-08T11:50 | 7847 | 341 | 257 | 43 | ||
| 2025-12-08T11:50 | 8142 | 326 | -48.0 | |||
| 2025-12-08T11:50 | 8219 | 322 | 257 | 42 | ||
| 2025-12-08T11:51 | 8277 | 320 | -47.5 | |||
| 2025-12-08T11:51 | 8388 | 314 | -46.6 | |||
| 2025-12-08T11:51 | 8437 | 312 | 254 | 42 | ||
| 2025-12-08T11:51 | 8442 | 312 | -46.3 | |||
| 2025-12-08T11:51 | 8519 | 308 | -46.2 | |||
| 2025-12-08T11:52 | 8694 | 300 | 259 | 42 | ||
| 2025-12-08T11:52 | 8828 | 294 | -45.0 | |||
| 2025-12-08T11:53 | 9015 | 286 | 254 | 39 | ||
| 2025-12-08T11:53 | 9184 | 279 | -44.5 | |||
| 2025-12-08T11:54 | 9357 | 272 | 256 | 40 | ||
| 2025-12-08T11:55 | 9694 | 258 | 259 | 38 | ||
| 2025-12-08T11:56 | 9991 | 247 | -42.2 | |||
| 2025-12-08T11:56 | 10013 | 247 | 261 | 32 | ||
| 2025-12-08T11:57 | 10277 | 237 | -43.9 | |||
| 2025-12-08T11:57 | 10347 | 235 | 254 | 32 | ||
| 2025-12-08T11:58 | 10658 | 224 | 250 | 33 | ||
| 2025-12-08T11:59 | 10982 | 213 | 244 | 34 | ||
| 2025-12-08T11:59 | 11093 | 210 | -44.8 | |||
| 2025-12-08T11:59 | 11205 | 206 | -44.3 | |||
| 2025-12-08T12:00 | 11312 | 203 | -44.0 | |||
| 2025-12-08T12:00 | 11358 | 202 | 247 | 33 | ||
| 2025-12-08T12:01 | 11728 | 191 | 257 | 34 | ||
| 2025-12-08T12:01 | 11804 | 189 | -45.8 | |||
| 2025-12-08T12:01 | 11974 | 184 | -45.8 | |||
| 2025-12-08T12:02 | 12120 | 180 | 240 | 32 | ||
| 2025-12-08T12:02 | 12147 | 179 | -46.6 | |||
| 2025-12-08T12:03 | 12477 | 171 | 239 | 36 | ||
| 2025-12-08T12:03 | 12641 | 166 | -48.1 | |||
| 2025-12-08T12:04 | 12752 | 164 | 241 | 38 | ||
| 2025-12-08T12:04 | 13002 | 158 | 244 | 36 | ||
| 2025-12-08T12:05 | 13259 | 152 | -49.4 | |||
| 2025-12-08T12:05 | 13309 | 150 | 240 | 39 | ||
| 2025-12-08T12:06 | 13609 | 144 | 239 | 44 | ||
| 2025-12-08T12:07 | 13761 | 140 | -49.8 | |||
| 2025-12-08T12:07 | 13956 | 136 | 245 | 44 | ||
| 2025-12-08T12:08 | 14081 | 134 | -49.2 | |||
| 2025-12-08T12:08 | 14354 | 128 | 244 | 42 | ||
| 2025-12-08T12:08 | 14368 | 128 | -49.2 | |||
| 2025-12-08T12:09 | 14637 | 123 | 241 | 43 | ||
| 2025-12-08T12:09 | 14644 | 123 | -48.8 | |||
| 2025-12-08T12:10 | 14952 | 117 | -48.5 | |||
| 2025-12-08T12:10 | 15042 | 115 | 249 | 42 | ||
| 2025-12-08T12:10 | 15178 | 113 | -48.5 | |||
| 2025-12-08T12:11 | 15296 | 111 | 246 | 37 | ||
| 2025-12-08T12:11 | 15350 | 110 | -49.0 | |||
| 2025-12-08T12:12 | 15661 | 105 | 246 | 38 | ||
| 2025-12-08T12:12 | 15904 | 101 | -52.4 | |||
| 2025-12-08T12:13 | 16044 | 99 | 249 | 42 | ||
| 2025-12-08T12:14 | 16364 | 94 | 254 | 40 | ||
| 2025-12-08T12:14 | 16537 | 92 | -54.5 | |||
| 2025-12-08T12:14 | 16587 | 91 | 253 | 37 | ||
| 2025-12-08T12:15 | 16795 | 88 | 253 | 41 | ||
| 2025-12-08T12:15 | 16802 | 88 | -52.3 | |||
| 2025-12-08T12:16 | 16968 | 86 | -49.2 | |||
| 2025-12-08T12:16 | 16984 | 86 | 261 | 38 | ||
| 2025-12-08T12:16 | 17115 | 84 | 252 | 32 | ||
| 2025-12-08T12:17 | 17422 | 80 | -46.4 | |||
| 2025-12-08T12:17 | 17491 | 79 | 251 | 31 | ||
| 2025-12-08T12:18 | 17782 | 76 | 244 | 28 | ||
| 2025-12-08T12:18 | 17879 | 75 | -47.1 | |||
| 2025-12-08T12:19 | 18158 | 72 | 251 | 29 | ||
| 2025-12-08T12:19 | 18249 | 71 | -48.1 | |||
| 2025-12-08T12:20 | 18489 | 68 | 234 | 21 | ||
| 2025-12-08T12:20 | 18607 | 67 | -46.8 | |||
| 2025-12-08T12:21 | 18869 | 64 | 204 | 19 | ||
| 2025-12-08T12:22 | 19245 | 61 | 195 | 23 | ||
| 2025-12-08T12:23 | 19548 | 58 | -53.5 | |||
| 2025-12-08T12:23 | 19570 | 58 | 209 | 24 | ||
| 2025-12-08T12:24 | 19877 | 55 | 218 | 20 | ||
| 2025-12-08T12:24 | 20043 | 54 | -54.8 | |||
| 2025-12-08T12:25 | 20114 | 53 | 241 | 20 | ||
| 2025-12-08T12:25 | 20163 | 53 | -54.1 | |||
| 2025-12-08T12:26 | 20334 | 51 | 240 | 17 | ||
| 2025-12-08T12:26 | 20499 | 50 | -55.4 | 232 | 9 | |
| 2025-12-08T12:27 | 20656 | 49 | 194 | 6 | ||
| 2025-12-08T12:28 | 21011 | 46 | 190 | 7 | ||
| 2025-12-08T12:28 | 21231 | 44 | 220 | 10 | ||
| 2025-12-08T12:29 | 21389 | 43 | -61.2 | |||
| 2025-12-08T12:29 | 21462 | 43 | 240 | 20 | ||
| 2025-12-08T12:29 | 21595 | 42 | -58.7 | |||
| 2025-12-08T12:30 | 21623 | 42 | 246 | 25 | ||
| 2025-12-08T12:30 | 21671 | 41 | -55.1 | |||
| 2025-12-08T12:30 | 21989 | 39 | 270 | 19 | ||
| 2025-12-08T12:31 | 22055 | 39 | -52.8 | |||
| 2025-12-08T12:31 | 22359 | 37 | 238 | 13 | ||
| 2025-12-08T12:32 | 22622 | 36 | 217 | 14 | ||
| 2025-12-08T12:33 | 22966 | 34 | 215 | 19 | ||
| 2025-12-08T12:33 | 23117 | 33 | -57.3 | |||
| 2025-12-08T12:34 | 23355 | 32 | 240 | 14 | ||
| 2025-12-08T12:35 | 23624 | 31 | -52.3 | |||
| 2025-12-08T12:35 | 23797 | 30 | 283 | 12 | ||
| 2025-12-08T12:35 | 23971 | 29 | 281 | 6 | ||
| 2025-12-08T12:35 | 24085 | 28 | 260 | 1 | ||
| 2025-12-08T12:36 | 24156 | 28 | -53.4 | |||
| 2025-12-08T12:36 | 24270 | 28 | 105 | 3 | ||
| 2025-12-08T12:36 | 24504 | 27 | 177 | 5 | ||
| 2025-12-08T12:37 | 24674 | 26 | -57.5 | |||
| 2025-12-08T12:37 | 24770 | 26 | -52.8 | |||
| 2025-12-08T12:37 | 24821 | 25 | 175 | 5 | ||
| 2025-12-08T12:37 | 24923 | 25 | 192 | 6 | ||
| 2025-12-08T12:38 | 25138 | 24 | 117 | 6 | ||
| 2025-12-08T12:39 | 25356 | 23 | -53.3 | |||
| 2025-12-08T12:39 | 25407 | 23 | 128 | 6 | ||
| 2025-12-08T12:40 | 25844 | 22 | 164 | 3 | ||
| 2025-12-08T12:40 | 25902 | 21 | -52.3 | |||
| 2025-12-08T12:40 | 25963 | 21 | 221 | 1 | ||
| 2025-12-08T12:40 | 26088 | 21 | -51.8 | |||
| 2025-12-08T12:40 | 26151 | 21 | 105 | 3 | ||
| 2025-12-08T12:41 | 26504 | 20 | 124 | 10 | ||
| 2025-12-08T12:42 | 26770 | 19 | -53.2 | 165 | 7 | |
| 2025-12-08T23:30 | 18 | 1016 | -1.2 | -5.4 | 250 | 3 |
| 2025-12-08T23:30 | 21 | 1015 | -1.2 | -6.0 | 0 | 0 |
| 2025-12-08T23:30 | 107 | 1004 | 300 | 3 | ||
| 2025-12-08T23:31 | 371 | 971 | 300 | 10 | ||
| 2025-12-08T23:31 | 394 | 969 | -5.0 | -8.7 | ||
| 2025-12-08T23:32 | 749 | 926 | 298 | 9 | ||
| 2025-12-08T23:33 | 1182 | 875 | 285 | 11 | ||
| 2025-12-08T23:33 | 1354 | 856 | -12.5 | -13.7 | ||
| 2025-12-08T23:34 | 1593 | 829 | 283 | 12 | ||
| 2025-12-08T23:35 | 2010 | 785 | 283 | 15 | ||
| 2025-12-08T23:35 | 2130 | 772 | -18.7 | -20.2 | ||
| 2025-12-08T23:36 | 2425 | 742 | 284 | 15 | ||
| 2025-12-08T23:37 | 2716 | 713 | -23.6 | -25.4 | ||
| 2025-12-08T23:37 | 2794 | 705 | 279 | 14 | ||
| 2025-12-08T23:37 | 2819 | 703 | -24.6 | -29.1 | ||
| 2025-12-08T23:37 | 2872 | 698 | -25.1 | -32.5 | ||
| 2025-12-08T23:37 | 2950 | 690 | -25.0 | -37.3 | ||
| 2025-12-08T23:38 | 3149 | 672 | -24.1 | -45.5 | ||
| 2025-12-08T23:38 | 3155 | 671 | 285 | 21 | ||
| 2025-12-08T23:38 | 3300 | 658 | -24.6 | -47.6 | ||
| 2025-12-08T23:39 | 3407 | 649 | 283 | 21 | ||
| 2025-12-08T23:39 | 3476 | 642 | -25.5 | -50.2 | ||
| 2025-12-08T23:39 | 3552 | 636 | 284 | 22 | ||
| 2025-12-08T23:39 | 3576 | 634 | -25.1 | -51.1 | ||
| 2025-12-08T23:39 | 3681 | 625 | -25.0 | -43.6 | ||
| 2025-12-08T23:40 | 3700 | 623 | 273 | 24 | ||
| 2025-12-08T23:40 | 3767 | 617 | -25.4 | -43.9 | ||
| 2025-12-08T23:40 | 3904 | 606 | -26.0 | -39.5 | ||
| 2025-12-08T23:41 | 4074 | 592 | 274 | 23 | ||
| 2025-12-08T23:41 | 4105 | 589 | -27.7 | -36.0 | ||
| 2025-12-08T23:41 | 4279 | 575 | -28.8 | -36.8 | ||
| 2025-12-08T23:41 | 4333 | 571 | 263 | 25 | ||
| 2025-12-08T23:42 | 4487 | 558 | -30.0 | -39.3 | ||
| 2025-12-08T23:42 | 4735 | 539 | 264 | 25 | ||
| 2025-12-08T23:43 | 4942 | 523 | -33.5 | -42.0 | ||
| 2025-12-08T23:43 | 5135 | 509 | 266 | 27 | ||
| 2025-12-08T23:44 | 5285 | 498 | -35.8 | -44.4 | ||
| 2025-12-08T23:44 | 5523 | 482 | -36.7 | -52.0 | 264 | 33 |
| 2025-12-08T23:45 | 5756 | 466 | -37.4 | -57.9 | ||
| 2025-12-08T23:45 | 5900 | 456 | 260 | 39 | ||
| 2025-12-08T23:45 | 5926 | 454 | -38.2 | -53.7 | ||
| 2025-12-08T23:46 | 6222 | 435 | -40.0 | -51.6 | ||
| 2025-12-08T23:46 | 6289 | 431 | 260 | 40 | ||
| 2025-12-08T23:47 | 6698 | 406 | 262 | 42 | ||
| 2025-12-08T23:47 | 6712 | 405 | -42.4 | |||
| 2025-12-08T23:48 | 7002 | 388 | -43.5 | |||
| 2025-12-08T23:48 | 7125 | 381 | 261 | 42 | ||
| 2025-12-08T23:48 | 7233 | 375 | -44.8 | |||
| 2025-12-08T23:49 | 7378 | 367 | -45.6 | |||
| 2025-12-08T23:49 | 7557 | 357 | 263 | 44 | ||
| 2025-12-08T23:49 | 7671 | 351 | -46.9 | |||
| 2025-12-08T23:50 | 7965 | 335 | 262 | 46 | ||
| 2025-12-08T23:50 | 8043 | 332 | -49.3 | |||
| 2025-12-08T23:51 | 8356 | 316 | -50.6 | 262 | 47 | |
| 2025-12-08T23:52 | 8539 | 307 | -51.5 | |||
| 2025-12-08T23:52 | 8609 | 304 | -51.0 | |||
| 2025-12-08T23:52 | 8682 | 301 | 263 | 44 | ||
| 2025-12-08T23:53 | 8904 | 290 | 261 | 42 | ||
| 2025-12-08T23:53 | 9099 | 282 | -51.4 | |||
| 2025-12-08T23:54 | 9321 | 272 | 266 | 42 | ||
| 2025-12-08T23:54 | 9532 | 264 | -51.0 | 262 | 42 | |
| 2025-12-08T23:54 | 9699 | 257 | 270 | 41 | ||
| 2025-12-08T23:55 | 9806 | 253 | -49.0 | |||
| 2025-12-08T23:55 | 9898 | 249 | 260 | 37 | ||
| 2025-12-08T23:55 | 10009 | 245 | -47.9 | |||
| 2025-12-08T23:56 | 10153 | 240 | -46.5 | |||
| 2025-12-08T23:56 | 10210 | 238 | 258 | 39 | ||
| 2025-12-08T23:56 | 10315 | 234 | -46.0 | |||
| 2025-12-08T23:56 | 10415 | 231 | -45.4 | |||
| 2025-12-08T23:56 | 10436 | 230 | 264 | 37 | ||
| 2025-12-08T23:57 | 10603 | 224 | 262 | 32 | ||
| 2025-12-08T23:57 | 10786 | 218 | 261 | 31 | ||
| 2025-12-08T23:57 | 10809 | 218 | -45.0 | |||
| 2025-12-08T23:58 | 11218 | 205 | 246 | 28 | ||
| 2025-12-08T23:59 | 11439 | 198 | 253 | 29 | ||
| 2025-12-08T23:59 | 11467 | 197 | -46.6 | |||
| 2025-12-08T23:59 | 11724 | 190 | 260 | 28 | ||
| 2025-12-09T00:00 | 11906 | 184 | 249 | 28 | ||
| 2025-12-09T00:00 | 12058 | 180 | -48.7 | |||
| 2025-12-09T00:01 | 12284 | 174 | 252 | 28 | ||
| 2025-12-09T00:02 | 12583 | 166 | 255 | 29 | ||
| 2025-12-09T00:02 | 12815 | 160 | -50.0 | |||
| 2025-12-09T00:03 | 12931 | 158 | 256 | 34 | ||
| 2025-12-09T00:03 | 13123 | 153 | -48.8 | |||
| 2025-12-09T00:03 | 13250 | 150 | 252 | 36 | ||
| 2025-12-09T00:04 | 13377 | 147 | -49.9 | |||
| 2025-12-09T00:04 | 13513 | 144 | -50.2 | |||
| 2025-12-09T00:04 | 13657 | 141 | 258 | 35 | ||
| 2025-12-09T00:05 | 13789 | 138 | 257 | 38 | ||
| 2025-12-09T00:05 | 14020 | 133 | 258 | 39 | ||
| 2025-12-09T00:05 | 14040 | 133 | -49.9 | |||
| 2025-12-09T00:06 | 14365 | 127 | -49.7 | |||
| 2025-12-09T00:06 | 14424 | 125 | 262 | 38 | ||
| 2025-12-09T00:07 | 14569 | 123 | -49.9 | |||
| 2025-12-09T00:07 | 14697 | 120 | -49.9 | |||
| 2025-12-09T00:07 | 14778 | 119 | 266 | 36 | ||
| 2025-12-09T00:08 | 14915 | 116 | -49.2 | |||
| 2025-12-09T00:08 | 14955 | 116 | 266 | 29 | ||
| 2025-12-09T00:08 | 15103 | 113 | 264 | 33 | ||
| 2025-12-09T00:09 | 15354 | 109 | -48.3 | |||
| 2025-12-09T00:09 | 15450 | 107 | 266 | 25 | ||
| 2025-12-09T00:09 | 15651 | 104 | -49.4 | |||
| 2025-12-09T00:10 | 15848 | 101 | 261 | 23 | ||
| 2025-12-09T00:10 | 16062 | 98 | -51.2 | |||
| 2025-12-09T00:11 | 16238 | 95 | 253 | 21 | ||
| 2025-12-09T00:12 | 16509 | 91 | -51.0 | |||
| 2025-12-09T00:12 | 16667 | 89 | 244 | 23 | ||
| 2025-12-09T00:12 | 16952 | 85 | 247 | 23 | ||
| 2025-12-09T00:13 | 17016 | 84 | -52.8 | |||
| 2025-12-09T00:13 | 17176 | 82 | -50.9 | |||
| 2025-12-09T00:13 | 17258 | 81 | 225 | 19 | ||
| 2025-12-09T00:14 | 17407 | 79 | -51.7 | |||
| 2025-12-09T00:14 | 17448 | 79 | 222 | 21 | ||
| 2025-12-09T00:14 | 17638 | 77 | 218 | 25 | ||
| 2025-12-09T00:14 | 17699 | 76 | -51.6 | |||
| 2025-12-09T00:15 | 17839 | 74 | -49.6 | |||
| 2025-12-09T00:15 | 18017 | 72 | 230 | 22 | ||
| 2025-12-09T00:16 | 18333 | 69 | 232 | 29 | ||
| 2025-12-09T00:16 | 18378 | 68 | -51.1 | |||
| 2025-12-09T00:16 | 18574 | 66 | 237 | 28 | ||
| 2025-12-09T00:17 | 18830 | 64 | 239 | 21 | ||
| 2025-12-09T00:17 | 19068 | 61 | -53.0 | |||
| 2025-12-09T00:18 | 19302 | 59 | 235 | 27 | ||
| 2025-12-09T00:18 | 19409 | 58 | -53.9 | |||
| 2025-12-09T00:19 | 19671 | 56 | 255 | 31 | ||
| 2025-12-09T00:19 | 19753 | 55 | -53.2 | |||
| 2025-12-09T00:19 | 19894 | 54 | -51.5 | |||
| 2025-12-09T00:20 | 19944 | 54 | 257 | 26 | ||
| 2025-12-09T00:21 | 20341 | 50 | 248 | 31 | ||
| 2025-12-09T00:21 | 20493 | 49 | -54.3 | |||
| 2025-12-09T00:21 | 20596 | 48 | 249 | 31 | ||
| 2025-12-09T00:21 | 20611 | 48 | -53.2 | |||
| 2025-12-09T00:21 | 20691 | 48 | -49.5 | |||
| 2025-12-09T00:22 | 20777 | 47 | 254 | 21 | ||
| 2025-12-09T00:22 | 21173 | 44 | 243 | 12 | ||
| 2025-12-09T00:23 | 21367 | 43 | 203 | 11 | ||
| 2025-12-09T00:23 | 21552 | 42 | -53.6 | |||
| 2025-12-09T00:24 | 21769 | 40 | 211 | 14 | ||
| 2025-12-09T00:24 | 21979 | 39 | 201 | 12 | ||
| 2025-12-09T00:25 | 22378 | 37 | 203 | 16 | ||
| 2025-12-09T00:26 | 22462 | 36 | -58.5 | |||
| 2025-12-09T00:27 | 22879 | 34 | 231 | 17 | ||
| 2025-12-09T00:27 | 22968 | 33 | -57.2 | |||
| 2025-12-09T00:28 | 23340 | 32 | 221 | 12 | ||
| 2025-12-09T00:28 | 23403 | 31 | -56.4 | |||
| 2025-12-09T00:28 | 23507 | 31 | -53.1 | |||
| 2025-12-09T00:28 | 23591 | 30 | 174 | 14 | ||
| 2025-12-09T00:29 | 24028 | 28 | 174 | 16 | ||
| 2025-12-09T00:30 | 24205 | 28 | -58.0 | 180 | 13 | |
| 2025-12-09T00:30 | 24305 | 27 | -57.3 | 198 | 10 | |
| 2025-12-09T11:30 | 18 | 1016 | -3.3 | -5.3 | 190 | 1 |
| 2025-12-09T11:30 | 23 | 1016 | -2.8 | -5.6 | 0 | 0 |
| 2025-12-09T11:31 | 178 | 996 | 189 | 3 | ||
| 2025-12-09T11:31 | 199 | 993 | -4.6 | -7.5 | ||
| 2025-12-09T11:31 | 293 | 981 | -4.7 | -8.6 | ||
| 2025-12-09T11:31 | 310 | 979 | 223 | 3 | ||
| 2025-12-09T11:31 | 383 | 970 | 214 | 3 | ||
| 2025-12-09T11:31 | 497 | 956 | 282 | 6 | ||
| 2025-12-09T11:32 | 634 | 940 | -6.9 | -11.3 | ||
| 2025-12-09T11:32 | 681 | 934 | 289 | 9 | ||
| 2025-12-09T11:32 | 835 | 916 | 288 | 10 | ||
| 2025-12-09T11:33 | 1166 | 877 | 280 | 11 | ||
| 2025-12-09T11:34 | 1278 | 864 | -12.6 | -14.5 | ||
| 2025-12-09T11:34 | 1342 | 857 | 292 | 15 | ||
| 2025-12-09T11:35 | 1695 | 818 | 286 | 15 | ||
| 2025-12-09T11:36 | 1890 | 797 | -17.3 | -19.5 | ||
| 2025-12-09T11:36 | 2040 | 782 | 284 | 16 | ||
| 2025-12-09T11:37 | 2408 | 744 | 269 | 18 | ||
| 2025-12-09T11:37 | 2452 | 739 | -21.4 | -23.8 | ||
| 2025-12-09T11:37 | 2538 | 731 | -22.2 | -25.0 | ||
| 2025-12-09T11:38 | 2650 | 719 | 268 | 21 | ||
| 2025-12-09T11:38 | 2716 | 713 | -23.3 | -27.9 | ||
| 2025-12-09T11:38 | 2834 | 702 | -23.7 | -30.8 | ||
| 2025-12-09T11:39 | 3054 | 681 | 266 | 23 | ||
| 2025-12-09T11:39 | 3174 | 670 | -26.6 | -32.9 | ||
| 2025-12-09T11:39 | 3251 | 663 | -26.7 | -37.3 | ||
| 2025-12-09T11:39 | 3366 | 652 | -27.4 | -38.5 | ||
| 2025-12-09T11:39 | 3458 | 644 | 279 | 25 | ||
| 2025-12-09T11:40 | 3660 | 626 | -28.8 | -48.6 | ||
| 2025-12-09T11:40 | 3847 | 610 | -29.1 | -48.2 | ||
| 2025-12-09T11:40 | 3906 | 605 | 281 | 24 | ||
| 2025-12-09T11:41 | 4030 | 594 | -30.7 | -46.8 | ||
| 2025-12-09T11:41 | 4216 | 579 | -32.1 | -40.5 | ||
| 2025-12-09T11:41 | 4336 | 569 | 277 | 25 | ||
| 2025-12-09T11:42 | 4461 | 559 | -33.7 | -41.8 | ||
| 2025-12-09T11:42 | 4590 | 549 | -34.6 | -43.7 | ||
| 2025-12-09T11:42 | 4740 | 537 | 280 | 27 | ||
| 2025-12-09T11:43 | 4891 | 525 | -37.3 | -44.7 | ||
| 2025-12-09T11:43 | 4959 | 520 | -36.7 | -54.6 | ||
| 2025-12-09T11:43 | 5112 | 509 | 276 | 28 | ||
| 2025-12-09T11:44 | 5212 | 501 | -36.9 | -56.7 | ||
| 2025-12-09T11:44 | 5500 | 481 | 281 | 29 | ||
| 2025-12-09T11:45 | 5689 | 468 | -40.0 | -60.0 | ||
| 2025-12-09T11:45 | 5913 | 453 | 278 | 28 | ||
| 2025-12-09T11:46 | 6127 | 438 | -42.8 | |||
| 2025-12-09T11:46 | 6233 | 432 | 275 | 33 | ||
| 2025-12-09T11:47 | 6600 | 409 | -45.6 | |||
| 2025-12-09T11:47 | 6638 | 406 | 275 | 33 | ||
| 2025-12-09T11:48 | 6875 | 392 | -46.6 | |||
| 2025-12-09T11:48 | 7000 | 385 | 273 | 34 | ||
| 2025-12-09T11:49 | 7135 | 377 | -46.3 | |||
| 2025-12-09T11:49 | 7226 | 372 | 275 | 38 | ||
| 2025-12-09T11:50 | 7482 | 358 | -45.9 | |||
| 2025-12-09T11:50 | 7556 | 354 | 278 | 35 | ||
| 2025-12-09T11:51 | 7883 | 337 | 282 | 39 | ||
| 2025-12-09T11:51 | 7974 | 332 | -46.3 | |||
| 2025-12-09T11:51 | 8145 | 324 | 284 | 40 | ||
| 2025-12-09T11:52 | 8256 | 318 | 283 | 39 | ||
| 2025-12-09T11:52 | 8396 | 312 | -46.9 | |||
| 2025-12-09T11:53 | 8674 | 299 | 282 | 35 | ||
| 2025-12-09T11:53 | 8913 | 288 | -48.4 | |||
| 2025-12-09T11:53 | 8942 | 287 | 282 | 40 | ||
| 2025-12-09T11:54 | 9201 | 276 | 280 | 38 | ||
| 2025-12-09T11:55 | 9439 | 266 | -49.4 | |||
| 2025-12-09T11:55 | 9494 | 264 | 282 | 38 | ||
| 2025-12-09T11:56 | 9642 | 258 | 276 | 39 | ||
| 2025-12-09T11:56 | 9651 | 258 | -47.9 | |||
| 2025-12-09T11:56 | 9773 | 253 | 276 | 39 | ||
| 2025-12-09T11:56 | 9856 | 250 | -46.3 | |||
| 2025-12-09T11:57 | 9925 | 247 | 277 | 35 | ||
| 2025-12-09T11:57 | 9989 | 245 | -45.4 | |||
| 2025-12-09T11:57 | 10168 | 238 | 278 | 43 | ||
| 2025-12-09T11:58 | 10319 | 233 | -45.1 | |||
| 2025-12-09T11:58 | 10334 | 232 | 279 | 43 | ||
| 2025-12-09T11:58 | 10623 | 223 | -42.7 | |||
| 2025-12-09T11:59 | 10722 | 219 | 283 | 30 | ||
| 2025-12-09T11:59 | 10957 | 212 | 277 | 23 | ||
| 2025-12-09T12:00 | 11156 | 206 | -43.4 | |||
| 2025-12-09T12:00 | 11173 | 205 | 263 | 17 | ||
| 2025-12-09T12:00 | 11393 | 199 | -44.6 | |||
| 2025-12-09T12:01 | 11504 | 195 | 250 | 23 | ||
| 2025-12-09T12:01 | 11657 | 191 | -45.5 | |||
| 2025-12-09T12:02 | 11851 | 185 | 247 | 26 | ||
| 2025-12-09T12:02 | 12110 | 178 | -48.8 | |||
| 2025-12-09T12:03 | 12186 | 176 | 251 | 30 | ||
| 2025-12-09T12:03 | 12424 | 170 | -49.3 | |||
| 2025-12-09T12:04 | 12584 | 166 | 260 | 26 | ||
| 2025-12-09T12:05 | 12931 | 157 | 263 | 26 | ||
| 2025-12-09T12:05 | 13025 | 155 | -52.2 | |||
| 2025-12-09T12:05 | 13079 | 154 | 261 | 27 | ||
| 2025-12-09T12:06 | 13271 | 149 | -51.0 | |||
| 2025-12-09T12:06 | 13324 | 148 | 261 | 37 | ||
| 2025-12-09T12:07 | 13571 | 142 | -47.5 | |||
| 2025-12-09T12:07 | 13640 | 141 | 270 | 37 | ||
| 2025-12-09T12:07 | 13698 | 140 | -45.9 | |||
| 2025-12-09T12:08 | 13912 | 135 | 270 | 33 | ||
| 2025-12-09T12:08 | 14127 | 131 | -45.6 | |||
| 2025-12-09T12:09 | 14254 | 129 | 255 | 25 | ||
| 2025-12-09T12:09 | 14444 | 125 | 249 | 27 | ||
| 2025-12-09T12:09 | 14488 | 124 | -47.4 | |||
| 2025-12-09T12:10 | 14731 | 120 | 257 | 28 | ||
| 2025-12-09T12:11 | 15043 | 114 | -49.8 | |||
| 2025-12-09T12:11 | 15054 | 114 | 260 | 27 | ||
| 2025-12-09T12:12 | 15378 | 108 | 255 | 25 | ||
| 2025-12-09T12:13 | 15605 | 105 | -51.5 | |||
| 2025-12-09T12:13 | 15748 | 102 | 248 | 28 | ||
| 2025-12-09T12:13 | 15878 | 100 | -52.3 | |||
| 2025-12-09T12:14 | 16172 | 96 | 251 | 33 | ||
| 2025-12-09T12:15 | 16541 | 91 | 261 | 35 | ||
| 2025-12-09T12:16 | 16852 | 86 | 261 | 34 | ||
| 2025-12-09T12:16 | 16889 | 86 | -53.5 | |||
| 2025-12-09T12:16 | 17018 | 84 | -52.7 | |||
| 2025-12-09T12:17 | 17134 | 83 | -50.1 | |||
| 2025-12-09T12:17 | 17197 | 82 | 261 | 37 | ||
| 2025-12-09T12:18 | 17593 | 77 | 264 | 34 | ||
| 2025-12-09T12:18 | 17609 | 77 | -50.7 | |||
| 2025-12-09T12:18 | 17826 | 74 | -48.3 | |||
| 2025-12-09T12:19 | 17844 | 74 | 262 | 29 | ||
| 2025-12-09T12:19 | 18053 | 72 | 255 | 17 | ||
| 2025-12-09T12:19 | 18126 | 71 | -47.5 | |||
| 2025-12-09T12:20 | 18285 | 69 | -46.8 | |||
| 2025-12-09T12:20 | 18296 | 69 | 258 | 20 | ||
| 2025-12-09T12:20 | 18589 | 66 | -46.2 | |||
| 2025-12-09T12:20 | 18653 | 66 | 217 | 11 | ||
| 2025-12-09T12:21 | 19026 | 62 | 220 | 13 | ||
| 2025-12-09T12:22 | 19469 | 58 | 232 | 13 | ||
| 2025-12-09T12:23 | 19849 | 55 | -54.6 | |||
| 2025-12-09T12:23 | 19910 | 54 | 249 | 14 | ||
| 2025-12-09T12:24 | 20062 | 53 | -55.3 | |||
| 2025-12-09T12:24 | 20185 | 52 | 261 | 18 | ||
| 2025-12-09T12:24 | 20211 | 52 | -54.9 | |||
| 2025-12-09T12:24 | 20396 | 50 | 242 | 19 | ||
| 2025-12-09T12:25 | 20453 | 50 | -55.2 | |||
| 2025-12-09T12:25 | 20790 | 47 | 236 | 25 | ||
| 2025-12-09T12:26 | 20955 | 46 | -59.1 | |||
| 2025-12-09T12:26 | 21008 | 45 | 240 | 30 | ||
| 2025-12-09T12:27 | 21354 | 43 | 231 | 20 | ||
| 2025-12-09T12:27 | 21516 | 42 | -56.3 | |||
| 2025-12-09T12:28 | 21763 | 40 | 213 | 28 | ||
| 2025-12-09T12:28 | 21920 | 39 | -58.5 | |||
| 2025-12-09T12:28 | 22000 | 39 | 224 | 30 | ||
| 2025-12-09T12:29 | 22084 | 38 | -54.9 | |||
| 2025-12-09T12:29 | 22240 | 37 | -53.5 | 245 | 25 | |
| 2025-12-09T12:29 | 22300 | 37 | -51.6 | 252 | 21 | |
| 2025-12-09T23:30 | 18 | 1018 | -2.0 | -9.2 | 240 | 3 |
| 2025-12-09T23:30 | 22 | 1017 | -1.9 | -10.0 | 0 | 0 |
| 2025-12-09T23:30 | 48 | 1014 | 219 | 3 | ||
| 2025-12-09T23:30 | 144 | 1002 | 257 | 3 | ||
| 2025-12-09T23:31 | 299 | 982 | -3.9 | -12.8 | ||
| 2025-12-09T23:31 | 368 | 974 | 251 | 8 | ||
| 2025-12-09T23:31 | 535 | 953 | -6.1 | -13.7 | ||
| 2025-12-09T23:31 | 549 | 951 | 289 | 11 | ||
| 2025-12-09T23:31 | 582 | 947 | -6.3 | -14.1 | ||
| 2025-12-09T23:32 | 699 | 933 | -6.5 | -17.6 | ||
| 2025-12-09T23:32 | 940 | 905 | 290 | 11 | ||
| 2025-12-09T23:33 | 1327 | 860 | 291 | 11 | ||
| 2025-12-09T23:34 | 1727 | 816 | -16.2 | -21.1 | 295 | 11 |
| 2025-12-09T23:35 | 2016 | 785 | -19.0 | -23.3 | ||
| 2025-12-09T23:35 | 2111 | 775 | 301 | 12 | ||
| 2025-12-09T23:35 | 2131 | 773 | -19.7 | -24.1 | ||
| 2025-12-09T23:36 | 2318 | 754 | -21.2 | -23.1 | ||
| 2025-12-09T23:36 | 2393 | 746 | 303 | 14 | ||
| 2025-12-09T23:36 | 2400 | 746 | -21.8 | -24.5 | ||
| 2025-12-09T23:36 | 2487 | 737 | -22.1 | -32.1 | ||
| 2025-12-09T23:36 | 2546 | 731 | 294 | 14 | ||
| 2025-12-09T23:36 | 2558 | 730 | -22.5 | -38.9 | ||
| 2025-12-09T23:37 | 2725 | 713 | -23.3 | -37.9 | ||
| 2025-12-09T23:37 | 2912 | 695 | 299 | 15 | ||
| 2025-12-09T23:38 | 3044 | 683 | -25.9 | -38.7 | ||
| 2025-12-09T23:38 | 3093 | 678 | 291 | 16 | ||
| 2025-12-09T23:38 | 3180 | 670 | -26.5 | -43.8 | ||
| 2025-12-09T23:39 | 3384 | 651 | -26.8 | -47.7 | ||
| 2025-12-09T23:39 | 3452 | 645 | 281 | 20 | ||
| 2025-12-09T23:39 | 3550 | 637 | -26.8 | -52.4 | ||
| 2025-12-09T23:39 | 3662 | 627 | -27.0 | -53.8 | ||
| 2025-12-09T23:40 | 3807 | 614 | 288 | 25 | ||
| 2025-12-09T23:40 | 3912 | 605 | -27.0 | -53.8 | ||
| 2025-12-09T23:41 | 4183 | 583 | 283 | 27 | ||
| 2025-12-09T23:41 | 4361 | 569 | -28.0 | -56.1 | ||
| 2025-12-09T23:42 | 4527 | 556 | -27.7 | -60.0 | ||
| 2025-12-09T23:42 | 4582 | 551 | -27.6 | -59.9 | ||
| 2025-12-09T23:42 | 4589 | 551 | 282 | 32 | ||
| 2025-12-09T23:42 | 4746 | 539 | 283 | 33 | ||
| 2025-12-09T23:43 | 4841 | 532 | -28.7 | -52.7 | ||
| 2025-12-09T23:43 | 4994 | 521 | -29.8 | -47.6 | ||
| 2025-12-09T23:43 | 5171 | 508 | 284 | 34 | ||
| 2025-12-09T23:44 | 5607 | 477 | 280 | 35 | ||
| 2025-12-09T23:45 | 6007 | 451 | 279 | 35 | ||
| 2025-12-09T23:46 | 6186 | 439 | -39.2 | -51.8 | ||
| 2025-12-09T23:46 | 6268 | 434 | -40.0 | -51.9 | ||
| 2025-12-09T23:46 | 6408 | 425 | 275 | 35 | ||
| 2025-12-09T23:47 | 6816 | 400 | 274 | 37 | ||
| 2025-12-09T23:48 | 7170 | 379 | 270 | 37 | ||
| 2025-12-09T23:48 | 7245 | 375 | -48.2 | |||
| 2025-12-09T23:49 | 7586 | 356 | 274 | 37 | ||
| 2025-12-09T23:49 | 7676 | 351 | -51.3 | |||
| 2025-12-09T23:50 | 7746 | 347 | 270 | 38 | ||
| 2025-12-09T23:50 | 7857 | 341 | -51.9 | |||
| 2025-12-09T23:50 | 7919 | 338 | -51.1 | 273 | 38 | |
| 2025-12-09T23:50 | 8022 | 333 | -51.6 | |||
| 2025-12-09T23:51 | 8246 | 321 | -52.7 | |||
| 2025-12-09T23:51 | 8339 | 317 | 273 | 37 | ||
| 2025-12-09T23:51 | 8411 | 313 | -53.5 | |||
| 2025-12-09T23:51 | 8506 | 309 | -53.7 | |||
| 2025-12-09T23:52 | 8586 | 305 | 274 | 39 | ||
| 2025-12-09T23:52 | 8629 | 303 | -54.1 | |||
| 2025-12-09T23:52 | 8716 | 299 | -53.0 | |||
| 2025-12-09T23:52 | 8798 | 295 | 274 | 36 | ||
| 2025-12-09T23:53 | 9056 | 283 | -53.9 | |||
| 2025-12-09T23:53 | 9240 | 275 | 271 | 37 | ||
| 2025-12-09T23:53 | 9281 | 274 | -54.1 | |||
| 2025-12-09T23:54 | 9477 | 265 | 271 | 37 | ||
| 2025-12-09T23:54 | 9601 | 260 | -53.4 | |||
| 2025-12-09T23:54 | 9773 | 253 | -54.0 | |||
| 2025-12-09T23:55 | 9881 | 249 | -53.5 | |||
| 2025-12-09T23:55 | 9888 | 249 | 267 | 37 | ||
| 2025-12-09T23:55 | 10097 | 241 | -53.3 | |||
| 2025-12-09T23:55 | 10243 | 236 | -51.1 | |||
| 2025-12-09T23:56 | 10296 | 234 | 280 | 37 | ||
| 2025-12-09T23:56 | 10457 | 228 | 279 | 33 | ||
| 2025-12-09T23:56 | 10543 | 225 | -49.6 | |||
| 2025-12-09T23:56 | 10644 | 222 | -48.9 | |||
| 2025-12-09T23:57 | 10729 | 219 | 270 | 31 | ||
| 2025-12-09T23:57 | 10822 | 216 | -49.5 | |||
| 2025-12-09T23:57 | 10924 | 212 | -48.4 | |||
| 2025-12-09T23:57 | 10988 | 210 | 268 | 31 | ||
| 2025-12-09T23:58 | 11131 | 206 | -48.6 | |||
| 2025-12-09T23:58 | 11379 | 198 | 270 | 32 | ||
| 2025-12-09T23:59 | 11549 | 193 | -48.6 | |||
| 2025-12-09T23:59 | 11650 | 190 | 267 | 32 | ||
| 2025-12-09T23:59 | 11786 | 186 | -49.0 | |||
| 2025-12-10T00:00 | 11942 | 182 | 271 | 29 | ||
| 2025-12-10T00:00 | 12046 | 179 | -49.5 | |||
| 2025-12-10T00:01 | 12304 | 172 | 259 | 30 | ||
| 2025-12-10T00:01 | 12450 | 168 | 258 | 33 | ||
| 2025-12-10T00:01 | 12568 | 165 | -49.3 | |||
| 2025-12-10T00:02 | 12769 | 160 | 266 | 30 | ||
| 2025-12-10T00:02 | 12899 | 157 | -50.6 | |||
| 2025-12-10T00:03 | 13173 | 151 | 260 | 26 | ||
| 2025-12-10T00:03 | 13272 | 148 | -51.3 | |||
| 2025-12-10T00:03 | 13364 | 146 | 257 | 30 | ||
| 2025-12-10T00:04 | 13624 | 140 | 264 | 37 | ||
| 2025-12-10T00:04 | 13678 | 139 | -51.8 | |||
| 2025-12-10T00:04 | 13866 | 135 | -51.9 | |||
| 2025-12-10T00:05 | 14027 | 132 | 271 | 31 | ||
| 2025-12-10T00:05 | 14237 | 128 | -51.8 | |||
| 2025-12-10T00:06 | 14418 | 124 | 258 | 31 | ||
| 2025-12-10T00:06 | 14664 | 120 | -49.9 | |||
| 2025-12-10T00:07 | 14784 | 117 | 266 | 31 | ||
| 2025-12-10T00:07 | 14857 | 116 | -48.5 | |||
| 2025-12-10T00:07 | 14983 | 114 | 262 | 30 | ||
| 2025-12-10T00:08 | 15128 | 111 | -48.6 | |||
| 2025-12-10T00:08 | 15402 | 107 | 275 | 32 | ||
| 2025-12-10T00:09 | 15838 | 100 | -49.7 | |||
| 2025-12-10T00:09 | 15846 | 100 | -49.7 | |||
| 2025-12-10T00:09 | 15853 | 100 | 257 | 26 | ||
| 2025-12-10T00:10 | 16267 | 94 | 260 | 27 | ||
| 2025-12-10T00:11 | 16379 | 92 | -49.8 | |||
| 2025-12-10T00:11 | 16607 | 89 | 263 | 26 | ||
| 2025-12-10T00:12 | 16849 | 86 | 267 | 26 | ||
| 2025-12-10T00:13 | 17209 | 81 | 265 | 34 | ||
| 2025-12-10T00:13 | 17267 | 80 | -48.0 | |||
| 2025-12-10T00:14 | 17406 | 79 | 265 | 33 | ||
| 2025-12-10T00:14 | 17449 | 78 | -47.7 | |||
| 2025-12-10T00:14 | 17853 | 74 | 268 | 22 | ||
| 2025-12-10T00:15 | 18082 | 71 | 266 | 24 | ||
| 2025-12-10T00:15 | 18102 | 71 | -49.9 | |||
| 2025-12-10T00:16 | 18422 | 67 | 248 | 12 | ||
| 2025-12-10T00:16 | 18479 | 67 | -50.3 | |||
| 2025-12-10T00:17 | 18881 | 63 | 215 | 16 | ||
| 2025-12-10T00:18 | 19345 | 58 | 210 | 23 | ||
| 2025-12-10T00:18 | 19644 | 56 | -58.1 | |||
| 2025-12-10T00:19 | 19793 | 54 | 230 | 24 | ||
| 2025-12-10T00:19 | 20088 | 52 | 227 | 25 | ||
| 2025-12-10T00:20 | 20198 | 51 | -59.1 | |||
| 2025-12-10T00:20 | 20318 | 50 | 239 | 25 | ||
| 2025-12-10T00:20 | 20396 | 49 | -57.6 | |||
| 2025-12-10T00:21 | 20699 | 47 | 255 | 19 | ||
| 2025-12-10T00:21 | 20757 | 47 | -55.8 | |||
| 2025-12-10T00:22 | 21036 | 45 | 244 | 17 | ||
| 2025-12-10T00:22 | 21076 | 44 | -54.8 | |||
| 2025-12-10T00:22 | 21208 | 44 | 246 | 17 | ||
| 2025-12-10T00:23 | 21604 | 41 | 245 | 25 | ||
| 2025-12-10T00:23 | 21619 | 41 | -53.0 | |||
| 2025-12-10T00:24 | 21777 | 40 | 248 | 19 | ||
| 2025-12-10T00:24 | 21877 | 39 | -51.2 | |||
| 2025-12-10T00:24 | 21933 | 39 | 258 | 12 | ||
| 2025-12-10T00:24 | 22131 | 38 | 261 | 11 | ||
| 2025-12-10T00:25 | 22273 | 37 | 242 | 7 | ||
| 2025-12-10T00:25 | 22572 | 35 | 223 | 5 | ||
| 2025-12-10T00:26 | 22719 | 34 | 202 | 8 | ||
| 2025-12-10T00:26 | 22885 | 34 | -55.9 | |||
| 2025-12-10T00:26 | 22943 | 33 | 227 | 11 | ||
| 2025-12-10T00:27 | 23198 | 32 | 229 | 17 | ||
| 2025-12-10T00:27 | 23217 | 32 | -55.9 | |||
| 2025-12-10T00:27 | 23310 | 31 | -53.8 | 248 | 17 | |
| 2025-12-10T11:30 | 18 | 1017 | -1.3 | -7.9 | 150 | 3 |
| 2025-12-10T11:30 | 23 | 1016 | -1.3 | -8.5 | 0 | 0 |
| 2025-12-10T11:30 | 77 | 1009 | 160 | 3 | ||
| 2025-12-10T11:30 | 133 | 1002 | -2.1 | -9.3 | ||
| 2025-12-10T11:31 | 208 | 993 | 140 | 6 | ||
| 2025-12-10T11:31 | 345 | 976 | 150 | 3 | ||
| 2025-12-10T11:31 | 376 | 972 | -3.7 | -8.7 | ||
| 2025-12-10T11:31 | 465 | 961 | 206 | 6 | ||
| 2025-12-10T11:32 | 588 | 946 | -5.2 | -8.6 | ||
| 2025-12-10T11:32 | 632 | 941 | 227 | 11 | ||
| 2025-12-10T11:32 | 805 | 920 | -6.3 | -10.0 | ||
| 2025-12-10T11:33 | 989 | 899 | 244 | 14 | ||
| 2025-12-10T11:33 | 1177 | 877 | -8.6 | -11.6 | ||
| 2025-12-10T11:34 | 1264 | 868 | 256 | 18 | ||
| 2025-12-10T11:34 | 1393 | 853 | -9.6 | -13.5 | ||
| 2025-12-10T11:35 | 1621 | 828 | 269 | 20 | ||
| 2025-12-10T11:35 | 1827 | 806 | -12.8 | -17.5 | ||
| 2025-12-10T11:36 | 1995 | 788 | 280 | 19 | ||
| 2025-12-10T11:36 | 2007 | 787 | -14.2 | -18.3 | ||
| 2025-12-10T11:36 | 2113 | 776 | -15.0 | -19.2 | ||
| 2025-12-10T11:36 | 2314 | 756 | -16.5 | -20.7 | ||
| 2025-12-10T11:36 | 2333 | 754 | 273 | 20 | ||
| 2025-12-10T11:37 | 2567 | 731 | -18.6 | -21.8 | ||
| 2025-12-10T11:37 | 2705 | 717 | 278 | 22 | ||
| 2025-12-10T11:38 | 2941 | 695 | -21.7 | -24.4 | ||
| 2025-12-10T11:38 | 3083 | 681 | 280 | 22 | ||
| 2025-12-10T11:39 | 3149 | 675 | -23.2 | -25.4 | ||
| 2025-12-10T11:39 | 3420 | 651 | -23.9 | -27.7 | ||
| 2025-12-10T11:39 | 3444 | 649 | 284 | 28 | ||
| 2025-12-10T11:40 | 3535 | 641 | -24.0 | -28.1 | ||
| 2025-12-10T11:40 | 3678 | 628 | -24.3 | -29.0 | ||
| 2025-12-10T11:40 | 3802 | 618 | 289 | 35 | ||
| 2025-12-10T11:41 | 3943 | 606 | -25.5 | -31.9 | ||
| 2025-12-10T11:41 | 4162 | 588 | -26.6 | -34.8 | 286 | 33 |
| 2025-12-10T11:42 | 4427 | 566 | -28.3 | -36.8 | ||
| 2025-12-10T11:42 | 4486 | 562 | 276 | 34 | ||
| 2025-12-10T11:43 | 4678 | 547 | -29.8 | -37.1 | ||
| 2025-12-10T11:43 | 4806 | 537 | 277 | 35 | ||
| 2025-12-10T11:44 | 5116 | 514 | -33.0 | -40.1 | ||
| 2025-12-10T11:44 | 5195 | 508 | 275 | 36 | ||
| 2025-12-10T11:44 | 5268 | 503 | -33.8 | -41.9 | ||
| 2025-12-10T11:45 | 5541 | 484 | -35.9 | -42.8 | ||
| 2025-12-10T11:45 | 5579 | 481 | 281 | 37 | ||
| 2025-12-10T11:46 | 5812 | 465 | -37.4 | -46.5 | ||
| 2025-12-10T11:46 | 5971 | 454 | 280 | 38 | ||
| 2025-12-10T11:47 | 6204 | 439 | -40.0 | -49.9 | ||
| 2025-12-10T11:47 | 6368 | 429 | 281 | 39 | ||
| 2025-12-10T11:48 | 6782 | 403 | 283 | 40 | ||
| 2025-12-10T11:48 | 6796 | 403 | -44.0 | |||
| 2025-12-10T11:49 | 7214 | 378 | 286 | 41 | ||
| 2025-12-10T11:50 | 7631 | 355 | 284 | 42 | ||
| 2025-12-10T11:50 | 7645 | 354 | -49.6 | |||
| 2025-12-10T11:51 | 7881 | 342 | 288 | 44 | ||
| 2025-12-10T11:51 | 8042 | 333 | 285 | 44 | ||
| 2025-12-10T11:52 | 8393 | 315 | -54.1 | |||
| 2025-12-10T11:52 | 8415 | 314 | 289 | 47 | ||
| 2025-12-10T11:53 | 8532 | 309 | -54.5 | |||
| 2025-12-10T11:53 | 8714 | 300 | -55.8 | 285 | 45 | |
| 2025-12-10T11:53 | 8845 | 294 | 289 | 46 | ||
| 2025-12-10T11:54 | 9274 | 275 | 287 | 48 | ||
| 2025-12-10T11:54 | 9383 | 270 | -56.8 | |||
| 2025-12-10T11:55 | 9546 | 263 | 284 | 44 | ||
| 2025-12-10T11:55 | 9560 | 263 | -56.3 | |||
| 2025-12-10T11:55 | 9717 | 256 | -54.7 | |||
| 2025-12-10T11:56 | 9912 | 249 | 280 | 43 | ||
| 2025-12-10T11:56 | 9957 | 247 | -52.1 | |||
| 2025-12-10T11:57 | 10162 | 239 | -52.4 | |||
| 2025-12-10T11:57 | 10231 | 237 | 277 | 46 | ||
| 2025-12-10T11:57 | 10349 | 232 | -50.5 | |||
| 2025-12-10T11:58 | 10553 | 225 | 283 | 43 | ||
| 2025-12-10T11:58 | 10635 | 222 | -50.2 | |||
| 2025-12-10T11:58 | 10750 | 219 | -49.4 | |||
| 2025-12-10T11:59 | 10887 | 214 | 276 | 34 | ||
| 2025-12-10T11:59 | 11025 | 210 | -48.9 | 274 | 36 | |
| 2025-12-10T11:59 | 11153 | 206 | -49.1 | |||
| 2025-12-10T11:59 | 11191 | 204 | 264 | 32 | ||
| 2025-12-10T12:00 | 11514 | 194 | 271 | 35 | ||
| 2025-12-10T12:00 | 11611 | 192 | -50.7 | |||
| 2025-12-10T12:00 | 11674 | 190 | 277 | 39 | ||
| 2025-12-10T12:01 | 12036 | 179 | 278 | 39 | ||
| 2025-12-10T12:02 | 12136 | 177 | -50.7 | |||
| 2025-12-10T12:02 | 12163 | 176 | 281 | 38 | ||
| 2025-12-10T12:03 | 12479 | 168 | 272 | 30 | ||
| 2025-12-10T12:03 | 12695 | 162 | -50.7 | |||
| 2025-12-10T12:03 | 12725 | 161 | 266 | 32 | ||
| 2025-12-10T12:04 | 12928 | 156 | 272 | 35 | ||
| 2025-12-10T12:04 | 12953 | 156 | -50.6 | |||
| 2025-12-10T12:05 | 13120 | 152 | -49.8 | |||
| 2025-12-10T12:05 | 13211 | 150 | 269 | 36 | ||
| 2025-12-10T12:05 | 13259 | 149 | -50.2 | |||
| 2025-12-10T12:06 | 13442 | 145 | -50.4 | |||
| 2025-12-10T12:06 | 13477 | 144 | 267 | 45 | ||
| 2025-12-10T12:06 | 13628 | 141 | -48.1 | |||
| 2025-12-10T12:06 | 13720 | 139 | 276 | 40 | ||
| 2025-12-10T12:07 | 14013 | 133 | -48.1 | |||
| 2025-12-10T12:07 | 14163 | 130 | 272 | 28 | ||
| 2025-12-10T12:08 | 14342 | 126 | -48.9 | |||
| 2025-12-10T12:08 | 14477 | 124 | 263 | 23 | ||
| 2025-12-10T12:09 | 14832 | 117 | -48.9 | |||
| 2025-12-10T12:09 | 14845 | 117 | 259 | 28 | ||
| 2025-12-10T12:10 | 15162 | 111 | -49.6 | 255 | 35 | |
| 2025-12-10T12:10 | 15389 | 108 | -48.8 | |||
| 2025-12-10T12:11 | 15558 | 105 | 268 | 34 | ||
| 2025-12-10T12:11 | 15596 | 104 | -49.4 | |||
| 2025-12-10T12:11 | 15705 | 102 | -48.3 | |||
| 2025-12-10T12:12 | 15897 | 100 | -47.7 | |||
| 2025-12-10T12:12 | 15904 | 99 | 264 | 33 | ||
| 2025-12-10T12:12 | 16045 | 97 | -46.6 | |||
| 2025-12-10T12:13 | 16174 | 95 | 259 | 32 | ||
| 2025-12-10T12:13 | 16237 | 95 | -46.3 | |||
| 2025-12-10T12:14 | 16451 | 92 | 258 | 35 | ||
| 2025-12-10T12:14 | 16718 | 88 | -45.4 | |||
| 2025-12-10T12:15 | 16870 | 86 | 275 | 33 | ||
| 2025-12-10T12:16 | 17316 | 80 | -44.4 | |||
| 2025-12-10T12:16 | 17368 | 80 | 281 | 30 | ||
| 2025-12-10T12:17 | 17894 | 74 | 280 | 20 | ||
| 2025-12-10T12:18 | 18285 | 69 | -50.7 | 275 | 21 | |
| 2025-12-10T12:19 | 18793 | 64 | 274 | 23 | ||
| 2025-12-10T12:19 | 18972 | 62 | -54.3 | |||
| 2025-12-10T12:20 | 19214 | 60 | 271 | 25 | ||
| 2025-12-10T12:20 | 19342 | 59 | -53.6 | |||
| 2025-12-10T12:20 | 19440 | 58 | 272 | 23 | ||
| 2025-12-10T12:21 | 19566 | 57 | 273 | 26 | ||
| 2025-12-10T12:21 | 19646 | 56 | -52.7 | |||
| 2025-12-10T12:21 | 19716 | 56 | -51.5 | |||
| 2025-12-10T12:21 | 19748 | 55 | 276 | 23 | ||
| 2025-12-10T12:21 | 19821 | 55 | -50.5 | |||
| 2025-12-10T12:22 | 19915 | 54 | 276 | 23 | ||
| 2025-12-10T12:22 | 20111 | 52 | 278 | 19 | ||
| 2025-12-10T12:22 | 20150 | 52 | -50.3 | |||
| 2025-12-10T12:23 | 20536 | 49 | 282 | 13 | ||
| 2025-12-10T12:23 | 20681 | 48 | -53.0 | |||
| 2025-12-10T12:24 | 20982 | 46 | 278 | 12 | ||
| 2025-12-10T12:24 | 21099 | 45 | -54.2 | |||
| 2025-12-10T12:24 | 21127 | 45 | 278 | 10 | ||
| 2025-12-10T12:25 | 21270 | 44 | 309 | 5 | ||
| 2025-12-10T12:25 | 21358 | 43 | -54.3 | |||
| 2025-12-10T12:26 | 21582 | 42 | 250 | 6 | ||
| 2025-12-10T12:27 | 21946 | 39 | 258 | 11 | ||
| 2025-12-10T12:27 | 22075 | 39 | -57.2 | |||
| 2025-12-10T12:27 | 22193 | 38 | 269 | 17 | ||
| 2025-12-10T12:28 | 22293 | 37 | -56.3 | |||
| 2025-12-10T12:28 | 22433 | 36 | -55.7 | |||
| 2025-12-10T12:28 | 22503 | 36 | 288 | 16 | ||
| 2025-12-10T12:29 | 22790 | 34 | -55.6 | |||
| 2025-12-10T12:29 | 22829 | 34 | 301 | 7 | ||
| 2025-12-10T12:30 | 23153 | 33 | 247 | 9 | ||
| 2025-12-10T12:30 | 23290 | 32 | -56.3 | |||
| 2025-12-10T12:30 | 23310 | 32 | 262 | 10 | ||
| 2025-12-10T12:31 | 23506 | 31 | -55.6 | 256 | 14 | |
| 2025-12-10T23:30 | 18 | 1009 | 0.3 | -0.1 | 320 | 1 |
| 2025-12-10T23:30 | 22 | 1009 | 0.4 | -0.2 | 0 | 0 |
| 2025-12-10T23:30 | 76 | 1002 | 312 | 3 | ||
| 2025-12-10T23:31 | 169 | 990 | -0.8 | -1.1 | ||
| 2025-12-10T23:31 | 206 | 986 | 316 | 4 | ||
| 2025-12-10T23:31 | 300 | 974 | -1.1 | -1.8 | ||
| 2025-12-10T23:32 | 386 | 963 | 316 | 6 | ||
| 2025-12-10T23:32 | 509 | 948 | 340 | 4 | ||
| 2025-12-10T23:33 | 656 | 931 | 321 | 4 | ||
| 2025-12-10T23:33 | 674 | 929 | -3.2 | -4.2 | ||
| 2025-12-10T23:33 | 736 | 922 | 325 | 3 | ||
| 2025-12-10T23:33 | 838 | 910 | 255 | 5 | ||
| 2025-12-10T23:34 | 1036 | 888 | -4.5 | -5.2 | ||
| 2025-12-10T23:34 | 1057 | 885 | 235 | 6 | ||
| 2025-12-10T23:35 | 1319 | 857 | 255 | 6 | ||
| 2025-12-10T23:36 | 1452 | 842 | 257 | 6 | ||
| 2025-12-10T23:36 | 1493 | 838 | -7.4 | -9.0 | ||
| 2025-12-10T23:37 | 1731 | 812 | 213 | 9 | ||
| 2025-12-10T23:38 | 2029 | 782 | 222 | 12 | ||
| 2025-12-10T23:38 | 2288 | 756 | -11.1 | -12.3 | ||
| 2025-12-10T23:39 | 2328 | 752 | 239 | 17 | ||
| 2025-12-10T23:40 | 2611 | 725 | 247 | 19 | ||
| 2025-12-10T23:40 | 2892 | 699 | 254 | 23 | ||
| 2025-12-10T23:41 | 3215 | 669 | 257 | 27 | ||
| 2025-12-10T23:42 | 3538 | 641 | 252 | 30 | ||
| 2025-12-10T23:43 | 3685 | 628 | -20.2 | -22.2 | ||
| 2025-12-10T23:43 | 3870 | 613 | 256 | 30 | ||
| 2025-12-10T23:44 | 4066 | 597 | 252 | 30 | ||
| 2025-12-10T23:45 | 4306 | 577 | 251 | 32 | ||
| 2025-12-10T23:45 | 4498 | 562 | -26.2 | -28.4 | ||
| 2025-12-10T23:45 | 4533 | 560 | 244 | 33 | ||
| 2025-12-10T23:46 | 4830 | 537 | 247 | 36 | ||
| 2025-12-10T23:47 | 5073 | 519 | 241 | 37 | ||
| 2025-12-10T23:48 | 5442 | 492 | 243 | 41 | ||
| 2025-12-10T23:48 | 5599 | 482 | -34.7 | -36.7 | ||
| 2025-12-10T23:48 | 5611 | 481 | 247 | 40 | ||
| 2025-12-10T23:49 | 5836 | 465 | -36.8 | -39.1 | ||
| 2025-12-10T23:49 | 5958 | 457 | 251 | 42 | ||
| 2025-12-10T23:49 | 5991 | 455 | -37.8 | -39.5 | ||
| 2025-12-10T23:50 | 6226 | 440 | -39.3 | -41.3 | ||
| 2025-12-10T23:50 | 6281 | 436 | 251 | 45 | ||
| 2025-12-10T23:50 | 6303 | 435 | -40.0 | -42.0 | ||
| 2025-12-10T23:51 | 6606 | 416 | 256 | 48 | ||
| 2025-12-10T23:51 | 6617 | 415 | -42.4 | |||
| 2025-12-10T23:52 | 6948 | 395 | 256 | 53 | ||
| 2025-12-10T23:53 | 7043 | 390 | -45.7 | |||
| 2025-12-10T23:53 | 7300 | 375 | 254 | 53 | ||
| 2025-12-10T23:54 | 7655 | 355 | 252 | 56 | ||
| 2025-12-10T23:55 | 7873 | 343 | -52.0 | |||
| 2025-12-10T23:55 | 8018 | 336 | -52.5 | 258 | 55 | |
| 2025-12-10T23:56 | 8271 | 323 | -53.5 | |||
| 2025-12-10T23:56 | 8353 | 319 | 263 | 56 | ||
| 2025-12-10T23:57 | 8515 | 311 | -53.7 | |||
| 2025-12-10T23:57 | 8743 | 300 | 265 | 58 | ||
| 2025-12-10T23:58 | 9135 | 282 | 266 | 59 | ||
| 2025-12-10T23:59 | 9523 | 265 | 267 | 58 | ||
| 2025-12-10T23:59 | 9574 | 263 | -59.4 | |||
| 2025-12-11T00:00 | 9797 | 254 | 270 | 56 | ||
| 2025-12-11T00:00 | 9866 | 251 | -58.8 | |||
| 2025-12-11T00:00 | 9993 | 246 | 269 | 53 | ||
| 2025-12-11T00:01 | 10376 | 231 | -57.4 | 272 | 51 | |
| 2025-12-11T00:02 | 10572 | 224 | 271 | 49 | ||
| 2025-12-11T00:02 | 10764 | 218 | 274 | 49 | ||
| 2025-12-11T00:03 | 11018 | 209 | -53.0 | |||
| 2025-12-11T00:03 | 11145 | 205 | 265 | 42 | ||
| 2025-12-11T00:04 | 11425 | 197 | -50.2 | |||
| 2025-12-11T00:04 | 11523 | 194 | 259 | 38 | ||
| 2025-12-11T00:05 | 11680 | 189 | -50.3 | |||
| 2025-12-11T00:05 | 11909 | 182 | -50.7 | |||
| 2025-12-11T00:05 | 11931 | 182 | 270 | 44 | ||
| 2025-12-11T00:06 | 12076 | 178 | 273 | 49 | ||
| 2025-12-11T00:06 | 12184 | 175 | -50.0 | |||
| 2025-12-11T00:06 | 12306 | 172 | 275 | 42 | ||
| 2025-12-11T00:07 | 12472 | 167 | -49.1 | |||
| 2025-12-11T00:07 | 12628 | 163 | -47.9 | |||
| 2025-12-11T00:07 | 12695 | 162 | 274 | 34 | ||
| 2025-12-11T00:08 | 12964 | 155 | -49.0 | |||
| 2025-12-11T00:08 | 12976 | 155 | 272 | 32 | ||
| 2025-12-11T00:09 | 13164 | 151 | 271 | 32 | ||
| 2025-12-11T00:09 | 13352 | 146 | 270 | 27 | ||
| 2025-12-11T00:10 | 13574 | 141 | -51.3 | |||
| 2025-12-11T00:10 | 13717 | 138 | 258 | 28 | ||
| 2025-12-11T00:11 | 14048 | 132 | -51.4 | |||
| 2025-12-11T00:11 | 14059 | 131 | 248 | 33 | ||
| 2025-12-11T00:12 | 14291 | 127 | -51.9 | |||
| 2025-12-11T00:12 | 14396 | 125 | 261 | 42 | ||
| 2025-12-11T00:13 | 14696 | 119 | -50.0 | |||
| 2025-12-11T00:13 | 14743 | 118 | 268 | 40 | ||
| 2025-12-11T00:13 | 14830 | 117 | -48.4 | |||
| 2025-12-11T00:14 | 15007 | 114 | -48.4 | |||
| 2025-12-11T00:14 | 15123 | 112 | 271 | 33 | ||
| 2025-12-11T00:15 | 15373 | 107 | -47.6 | |||
| 2025-12-11T00:15 | 15406 | 107 | 271 | 33 | ||
| 2025-12-11T00:15 | 15471 | 106 | -46.6 | |||
| 2025-12-11T00:15 | 15566 | 104 | 262 | 28 | ||
| 2025-12-11T00:16 | 15757 | 101 | -46.9 | |||
| 2025-12-11T00:16 | 15971 | 98 | 255 | 32 | ||
| 2025-12-11T00:17 | 16203 | 95 | 255 | 35 | ||
| 2025-12-11T00:17 | 16382 | 92 | 259 | 38 | ||
| 2025-12-11T00:17 | 16467 | 91 | -45.8 | |||
| 2025-12-11T00:18 | 16677 | 88 | 255 | 26 | ||
| 2025-12-11T00:18 | 16844 | 86 | -46.0 | |||
| 2025-12-11T00:19 | 17113 | 83 | 241 | 28 | ||
| 2025-12-11T00:19 | 17297 | 80 | -48.5 | |||
| 2025-12-11T00:20 | 17481 | 78 | 243 | 34 | ||
| 2025-12-11T00:21 | 17815 | 74 | -50.1 | |||
| 2025-12-11T00:21 | 17823 | 74 | 252 | 39 | ||
| 2025-12-11T00:22 | 18141 | 71 | 258 | 35 | ||
| 2025-12-11T00:23 | 18358 | 68 | -48.8 | |||
| 2025-12-11T00:23 | 18472 | 67 | 271 | 28 | ||
| 2025-12-11T00:23 | 18642 | 65 | 261 | 23 | ||
| 2025-12-11T00:24 | 18950 | 62 | -48.9 | |||
| 2025-12-11T00:24 | 18959 | 62 | 249 | 23 | ||
| 2025-12-11T00:25 | 19337 | 59 | 252 | 25 | ||
| 2025-12-11T00:25 | 19392 | 58 | -50.8 | |||
| 2025-12-11T00:26 | 19540 | 57 | 254 | 16 | ||
| 2025-12-11T00:26 | 19550 | 57 | -50.3 | |||
| 2025-12-11T00:27 | 19938 | 54 | 251 | 22 | ||
| 2025-12-11T00:27 | 20110 | 52 | -53.6 | |||
| 2025-12-11T00:27 | 20194 | 52 | 250 | 26 | ||
| 2025-12-11T00:28 | 20335 | 50 | -52.3 | |||
| 2025-12-11T00:28 | 20465 | 49 | 262 | 22 | ||
| 2025-12-11T00:29 | 20841 | 47 | 276 | 17 | ||
| 2025-12-11T00:29 | 20994 | 46 | -53.3 | |||
| 2025-12-11T00:30 | 21256 | 44 | 297 | 13 | ||
| 2025-12-11T00:30 | 21402 | 43 | -52.2 | |||
| 2025-12-11T00:31 | 21679 | 41 | 307 | 12 | ||
| 2025-12-11T00:32 | 22053 | 39 | 318 | 10 | ||
| 2025-12-11T00:32 | 22067 | 39 | -56.2 | |||
| 2025-12-11T00:32 | 22183 | 38 | 293 | 7 | ||
| 2025-12-11T00:33 | 22397 | 37 | -57.1 | 288 | 8 | |
| 2025-12-11T11:31 | 18 | 1006 | -2.5 | -9.0 | 310 | 3 |
| 2025-12-11T11:31 | 23 | 1006 | -2.6 | -9.9 | 0 | 0 |
| 2025-12-11T11:31 | 46 | 1003 | -2.2 | -10.3 | ||
| 2025-12-11T11:31 | 103 | 996 | 318 | 3 | ||
| 2025-12-11T11:32 | 271 | 975 | 303 | 7 | ||
| 2025-12-11T11:32 | 407 | 958 | -5.6 | -13.0 | ||
| 2025-12-11T11:33 | 515 | 945 | 293 | 11 | ||
| 2025-12-11T11:34 | 842 | 906 | 293 | 11 | ||
| 2025-12-11T11:34 | 990 | 888 | 295 | 11 | ||
| 2025-12-11T11:34 | 1066 | 880 | -11.4 | -16.3 | ||
| 2025-12-11T11:35 | 1333 | 850 | 298 | 12 | ||
| 2025-12-11T11:36 | 1556 | 825 | -15.8 | -16.8 | ||
| 2025-12-11T11:36 | 1627 | 817 | 315 | 11 | ||
| 2025-12-11T11:36 | 1694 | 810 | -16.6 | -17.6 | ||
| 2025-12-11T11:37 | 1809 | 797 | -17.2 | -19.5 | ||
| 2025-12-11T11:37 | 1847 | 793 | 295 | 10 | ||
| 2025-12-11T11:37 | 1862 | 792 | -16.7 | -21.9 | ||
| 2025-12-11T11:38 | 2079 | 769 | 291 | 10 | ||
| 2025-12-11T11:38 | 2144 | 762 | -18.4 | -22.9 | ||
| 2025-12-11T11:38 | 2213 | 756 | -18.5 | -24.2 | ||
| 2025-12-11T11:38 | 2277 | 749 | -18.4 | -25.6 | 272 | 15 |
| 2025-12-11T11:39 | 2451 | 732 | -18.2 | -24.6 | ||
| 2025-12-11T11:39 | 2475 | 729 | 254 | 23 | ||
| 2025-12-11T11:39 | 2537 | 723 | -17.9 | -27.7 | ||
| 2025-12-11T11:39 | 2608 | 716 | -18.0 | -31.0 | ||
| 2025-12-11T11:40 | 2768 | 701 | 253 | 28 | ||
| 2025-12-11T11:40 | 2817 | 697 | -19.3 | -25.9 | ||
| 2025-12-11T11:41 | 3060 | 674 | -20.5 | -26.3 | ||
| 2025-12-11T11:41 | 3104 | 670 | 250 | 34 | ||
| 2025-12-11T11:42 | 3368 | 646 | -23.2 | -26.5 | ||
| 2025-12-11T11:42 | 3509 | 634 | 247 | 36 | ||
| 2025-12-11T11:42 | 3709 | 617 | 245 | 35 | ||
| 2025-12-11T11:43 | 3862 | 604 | -27.3 | -28.6 | ||
| 2025-12-11T11:43 | 3868 | 603 | 245 | 35 | ||
| 2025-12-11T11:43 | 3943 | 597 | -26.6 | -28.1 | ||
| 2025-12-11T11:43 | 4031 | 590 | 243 | 38 | ||
| 2025-12-11T11:43 | 4045 | 589 | -27.2 | -30.3 | ||
| 2025-12-11T11:43 | 4092 | 585 | -27.6 | -34.5 | ||
| 2025-12-11T11:44 | 4191 | 577 | -28.0 | -39.9 | ||
| 2025-12-11T11:44 | 4257 | 572 | -28.2 | -53.5 | ||
| 2025-12-11T11:44 | 4428 | 558 | 238 | 38 | ||
| 2025-12-11T11:45 | 4719 | 536 | -31.8 | -57.5 | ||
| 2025-12-11T11:45 | 4812 | 529 | 241 | 39 | ||
| 2025-12-11T11:46 | 4947 | 519 | -32.8 | -59.8 | ||
| 2025-12-11T11:46 | 4992 | 515 | 233 | 39 | ||
| 2025-12-11T11:46 | 5150 | 504 | -33.1 | -53.6 | ||
| 2025-12-11T11:46 | 5255 | 496 | 231 | 47 | ||
| 2025-12-11T11:46 | 5300 | 493 | -34.2 | -46.7 | ||
| 2025-12-11T11:47 | 5598 | 472 | -36.8 | -44.4 | ||
| 2025-12-11T11:47 | 5645 | 469 | 228 | 47 | ||
| 2025-12-11T11:48 | 5885 | 453 | -39.6 | -44.0 | ||
| 2025-12-11T11:48 | 5931 | 450 | -40.0 | -43.9 | ||
| 2025-12-11T11:48 | 6040 | 443 | 232 | 48 | ||
| 2025-12-11T11:48 | 6059 | 442 | -40.9 | |||
| 2025-12-11T11:49 | 6212 | 432 | -41.1 | |||
| 2025-12-11T11:49 | 6433 | 418 | 229 | 44 | ||
| 2025-12-11T11:50 | 6748 | 399 | -44.7 | |||
| 2025-12-11T11:50 | 6845 | 393 | 233 | 44 | ||
| 2025-12-11T11:51 | 7260 | 369 | 230 | 45 | ||
| 2025-12-11T11:52 | 7403 | 361 | -49.4 | |||
| 2025-12-11T11:52 | 7666 | 347 | 234 | 45 | ||
| 2025-12-11T11:53 | 7809 | 340 | -51.7 | |||
| 2025-12-11T11:53 | 7997 | 330 | -51.7 | |||
| 2025-12-11T11:53 | 8025 | 328 | 236 | 44 | ||
| 2025-12-11T11:54 | 8259 | 317 | -53.3 | |||
| 2025-12-11T11:54 | 8390 | 310 | 234 | 47 | ||
| 2025-12-11T11:54 | 8447 | 308 | -53.6 | |||
| 2025-12-11T11:55 | 8642 | 298 | -53.9 | |||
| 2025-12-11T11:55 | 8746 | 294 | 242 | 45 | ||
| 2025-12-11T11:56 | 8888 | 287 | -53.0 | |||
| 2025-12-11T11:56 | 9030 | 281 | 243 | 46 | ||
| 2025-12-11T11:57 | 9156 | 275 | -51.3 | |||
| 2025-12-11T11:57 | 9206 | 273 | -50.2 | |||
| 2025-12-11T11:57 | 9275 | 271 | 249 | 43 | ||
| 2025-12-11T11:58 | 9461 | 263 | -48.3 | |||
| 2025-12-11T11:58 | 9582 | 258 | 238 | 40 | ||
| 2025-12-11T11:59 | 9924 | 245 | 236 | 39 | ||
| 2025-12-11T12:00 | 10110 | 238 | -50.4 | |||
| 2025-12-11T12:00 | 10280 | 232 | 243 | 40 | ||
| 2025-12-11T12:01 | 10445 | 226 | -49.7 | |||
| 2025-12-11T12:01 | 10532 | 223 | -49.2 | |||
| 2025-12-11T12:01 | 10611 | 221 | 246 | 46 | ||
| 2025-12-11T12:02 | 10772 | 215 | -49.6 | |||
| 2025-12-11T12:02 | 10896 | 211 | 252 | 43 | ||
| 2025-12-11T12:03 | 10990 | 208 | -47.6 | |||
| 2025-12-11T12:03 | 10995 | 208 | 255 | 40 | ||
| 2025-12-11T12:03 | 11286 | 199 | 257 | 42 | ||
| 2025-12-11T12:04 | 11451 | 194 | -49.2 | |||
| 2025-12-11T12:04 | 11547 | 191 | 260 | 44 | ||
| 2025-12-11T12:05 | 11690 | 187 | -49.2 | |||
| 2025-12-11T12:05 | 11923 | 181 | 265 | 40 | ||
| 2025-12-11T12:05 | 11948 | 180 | -50.1 | |||
| 2025-12-11T12:06 | 12279 | 171 | 267 | 39 | ||
| 2025-12-11T12:07 | 12442 | 167 | -50.6 | |||
| 2025-12-11T12:07 | 12591 | 163 | 260 | 35 | ||
| 2025-12-11T12:08 | 12673 | 161 | -51.5 | |||
| 2025-12-11T12:08 | 12832 | 157 | -50.9 | |||
| 2025-12-11T12:08 | 12916 | 155 | 257 | 36 | ||
| 2025-12-11T12:09 | 13094 | 151 | 254 | 39 | ||
| 2025-12-11T12:10 | 13433 | 143 | 253 | 35 | ||
| 2025-12-11T12:11 | 13779 | 136 | 256 | 40 | ||
| 2025-12-11T12:11 | 13784 | 136 | -49.3 | |||
| 2025-12-11T12:12 | 14008 | 131 | -49.6 | |||
| 2025-12-11T12:12 | 14069 | 130 | 255 | 41 | ||
| 2025-12-11T12:12 | 14120 | 129 | -48.7 | |||
| 2025-12-11T12:12 | 14177 | 128 | 256 | 39 | ||
| 2025-12-11T12:13 | 14316 | 125 | -45.8 | |||
| 2025-12-11T12:13 | 14448 | 123 | 244 | 35 | ||
| 2025-12-11T12:14 | 14696 | 118 | 251 | 38 | ||
| 2025-12-11T12:15 | 14994 | 113 | 244 | 35 | ||
| 2025-12-11T12:15 | 15064 | 112 | -43.1 | |||
| 2025-12-11T12:16 | 15261 | 109 | -42.3 | |||
| 2025-12-11T12:16 | 15291 | 108 | 238 | 35 | ||
| 2025-12-11T12:16 | 15379 | 107 | -41.3 | |||
| 2025-12-11T12:17 | 15591 | 104 | -40.4 | |||
| 2025-12-11T12:17 | 15599 | 104 | 247 | 34 | ||
| 2025-12-11T12:18 | 15949 | 98 | 243 | 36 | ||
| 2025-12-11T12:19 | 16360 | 93 | 250 | 36 | ||
| 2025-12-11T12:19 | 16445 | 91 | -46.0 | |||
| 2025-12-11T12:20 | 16789 | 87 | 256 | 31 | ||
| 2025-12-11T12:20 | 16930 | 85 | -45.5 | |||
| 2025-12-11T12:21 | 17039 | 84 | 249 | 33 | ||
| 2025-12-11T12:21 | 17167 | 82 | -46.5 | |||
| 2025-12-11T12:22 | 17331 | 80 | -46.7 | |||
| 2025-12-11T12:22 | 17389 | 79 | 245 | 34 | ||
| 2025-12-11T12:22 | 17498 | 78 | -47.2 | |||
| 2025-12-11T12:23 | 17706 | 76 | -43.3 | 264 | 35 | |
| 2025-12-11T12:23 | 17895 | 73 | -43.1 | |||
| 2025-12-11T12:24 | 18036 | 72 | 264 | 35 | ||
| 2025-12-11T12:25 | 18407 | 68 | -46.1 | 274 | 31 | |
| 2025-12-11T12:25 | 18665 | 65 | -46.2 | |||
| 2025-12-11T12:25 | 18675 | 65 | 286 | 26 | ||
| 2025-12-11T12:26 | 18808 | 64 | -44.1 | |||
| 2025-12-11T12:26 | 18870 | 63 | -42.6 | |||
| 2025-12-11T12:26 | 19005 | 62 | 311 | 7 | ||
| 2025-12-11T12:26 | 19169 | 61 | 291 | 8 | ||
| 2025-12-11T12:27 | 19288 | 60 | 346 | 6 | ||
| 2025-12-11T12:27 | 19389 | 59 | 22 | 5 | ||
| 2025-12-11T12:28 | 19663 | 56 | -47.7 | |||
| 2025-12-11T12:28 | 19698 | 56 | 20 | 5 | ||
| 2025-12-11T12:28 | 19854 | 55 | 64 | 5 | ||
| 2025-12-11T12:29 | 20060 | 53 | 69 | 5 | ||
| 2025-12-11T12:29 | 20186 | 52 | -51.2 | |||
| 2025-12-11T12:29 | 20196 | 52 | 54 | 3 | ||
| 2025-12-11T12:29 | 20310 | 51 | 158 | 3 | ||
| 2025-12-11T12:29 | 20335 | 51 | -51.0 | |||
| 2025-12-11T12:30 | 20546 | 49 | 162 | 5 | ||
| 2025-12-11T12:31 | 20949 | 46 | 187 | 9 | ||
| 2025-12-11T12:32 | 21215 | 44 | -57.8 | |||
| 2025-12-11T12:32 | 21241 | 44 | 209 | 14 | ||
| 2025-12-11T12:32 | 21600 | 42 | 200 | 9 | ||
| 2025-12-11T12:33 | 21613 | 42 | -54.6 | |||
| 2025-12-11T12:33 | 21635 | 42 | -54.8 | 201 | 10 | |
| 2025-12-11T23:30 | 18 | 1015 | -4.4 | -11.9 | 310 | 8 |
| 2025-12-11T23:30 | 25 | 1014 | -4.4 | -12.5 | 312 | 1 |
| 2025-12-11T23:30 | 83 | 1007 | 340 | 4 | ||
| 2025-12-11T23:30 | 119 | 1002 | -5.8 | -12.5 | ||
| 2025-12-11T23:30 | 137 | 1000 | 335 | 13 | ||
| 2025-12-11T23:31 | 256 | 985 | 327 | 15 | ||
| 2025-12-11T23:31 | 431 | 963 | -9.0 | -11.5 | ||
| 2025-12-11T23:31 | 449 | 961 | 327 | 16 | ||
| 2025-12-11T23:32 | 642 | 937 | -11.1 | -13.9 | ||
| 2025-12-11T23:32 | 774 | 921 | 316 | 15 | ||
| 2025-12-11T23:32 | 847 | 912 | -12.7 | -15.9 | ||
| 2025-12-11T23:33 | 978 | 897 | -13.8 | -15.5 | ||
| 2025-12-11T23:33 | 1060 | 887 | 313 | 14 | ||
| 2025-12-11T23:34 | 1160 | 875 | -15.2 | -17.6 | ||
| 2025-12-11T23:34 | 1381 | 850 | 307 | 14 | ||
| 2025-12-11T23:35 | 1510 | 836 | -18.1 | -20.0 | ||
| 2025-12-11T23:35 | 1635 | 822 | -19.0 | -20.9 | ||
| 2025-12-11T23:35 | 1676 | 817 | 314 | 15 | ||
| 2025-12-11T23:36 | 1880 | 795 | 314 | 12 | ||
| 2025-12-11T23:36 | 2005 | 782 | 320 | 12 | ||
| 2025-12-11T23:36 | 2112 | 770 | -22.6 | -24.0 | ||
| 2025-12-11T23:37 | 2380 | 742 | 310 | 14 | ||
| 2025-12-11T23:38 | 2621 | 718 | 309 | 16 | ||
| 2025-12-11T23:38 | 2706 | 710 | -27.9 | -29.3 | ||
| 2025-12-11T23:38 | 2769 | 704 | -28.4 | -31.3 | ||
| 2025-12-11T23:38 | 2840 | 697 | -28.7 | -33.2 | 298 | 15 |
| 2025-12-11T23:39 | 2878 | 693 | -28.4 | -34.6 | ||
| 2025-12-11T23:39 | 2949 | 686 | -28.4 | -35.6 | ||
| 2025-12-11T23:39 | 3145 | 668 | 301 | 15 | ||
| 2025-12-11T23:40 | 3486 | 636 | -32.5 | -40.4 | ||
| 2025-12-11T23:40 | 3572 | 628 | 292 | 20 | ||
| 2025-12-11T23:41 | 4019 | 589 | 303 | 23 | ||
| 2025-12-11T23:42 | 4217 | 573 | -37.8 | -46.9 | ||
| 2025-12-11T23:42 | 4322 | 564 | 315 | 23 | ||
| 2025-12-11T23:42 | 4330 | 563 | -37.9 | -47.7 | ||
| 2025-12-11T23:43 | 4652 | 538 | -40.0 | -49.6 | ||
| 2025-12-11T23:43 | 4737 | 531 | 299 | 20 | ||
| 2025-12-11T23:43 | 4905 | 518 | -41.2 | |||
| 2025-12-11T23:44 | 5031 | 508 | 299 | 24 | ||
| 2025-12-11T23:45 | 5323 | 487 | -43.8 | |||
| 2025-12-11T23:45 | 5353 | 485 | 297 | 25 | ||
| 2025-12-11T23:46 | 5644 | 464 | -44.1 | |||
| 2025-12-11T23:46 | 5659 | 463 | 298 | 25 | ||
| 2025-12-11T23:46 | 5794 | 454 | -44.1 | |||
| 2025-12-11T23:47 | 5928 | 445 | 299 | 25 | ||
| 2025-12-11T23:47 | 6016 | 439 | -44.7 | |||
| 2025-12-11T23:47 | 6109 | 433 | -44.6 | |||
| 2025-12-11T23:47 | 6192 | 427 | -44.6 | |||
| 2025-12-11T23:47 | 6242 | 424 | 295 | 23 | ||
| 2025-12-11T23:48 | 6502 | 408 | 300 | 24 | ||
| 2025-12-11T23:48 | 6632 | 400 | 298 | 23 | ||
| 2025-12-11T23:48 | 6759 | 392 | -48.1 | |||
| 2025-12-11T23:49 | 7043 | 376 | -49.8 | |||
| 2025-12-11T23:49 | 7113 | 372 | 294 | 21 | ||
| 2025-12-11T23:50 | 7475 | 352 | -51.9 | |||
| 2025-12-11T23:50 | 7604 | 345 | 297 | 28 | ||
| 2025-12-11T23:50 | 7667 | 341 | -52.1 | |||
| 2025-12-11T23:51 | 7819 | 333 | -51.5 | |||
| 2025-12-11T23:51 | 7925 | 328 | -52.0 | |||
| 2025-12-11T23:51 | 8004 | 324 | 290 | 30 | ||
| 2025-12-11T23:51 | 8141 | 317 | -51.4 | |||
| 2025-12-11T23:52 | 8300 | 310 | -49.9 | |||
| 2025-12-11T23:52 | 8325 | 309 | 288 | 33 | ||
| 2025-12-11T23:53 | 8512 | 300 | -47.4 | |||
| 2025-12-11T23:53 | 8633 | 294 | 282 | 35 | ||
| 2025-12-11T23:53 | 8743 | 290 | -46.6 | |||
| 2025-12-11T23:54 | 8990 | 279 | 288 | 35 | ||
| 2025-12-11T23:54 | 9236 | 269 | -46.2 | |||
| 2025-12-11T23:54 | 9333 | 265 | 285 | 41 | ||
| 2025-12-11T23:55 | 9421 | 262 | -46.2 | |||
| 2025-12-11T23:55 | 9543 | 257 | 289 | 37 | ||
| 2025-12-11T23:55 | 9658 | 252 | -46.8 | |||
| 2025-12-11T23:55 | 9800 | 247 | 281 | 43 | ||
| 2025-12-11T23:56 | 9855 | 245 | -47.6 | |||
| 2025-12-11T23:56 | 10069 | 237 | 285 | 34 | ||
| 2025-12-11T23:57 | 10261 | 230 | -47.2 | |||
| 2025-12-11T23:57 | 10363 | 227 | -47.1 | 280 | 34 | |
| 2025-12-11T23:58 | 10554 | 220 | -47.4 | |||
| 2025-12-11T23:58 | 10659 | 217 | 284 | 40 | ||
| 2025-12-11T23:59 | 10917 | 209 | -46.2 | |||
| 2025-12-11T23:59 | 11007 | 206 | 280 | 36 | ||
| 2025-12-11T23:59 | 11253 | 198 | -46.2 | |||
| 2025-12-12T00:00 | 11446 | 193 | 277 | 33 | ||
| 2025-12-12T00:01 | 11880 | 181 | 285 | 30 | ||
| 2025-12-12T00:01 | 12126 | 174 | -48.8 | |||
| 2025-12-12T00:02 | 12276 | 170 | 273 | 31 | ||
| 2025-12-12T00:02 | 12400 | 167 | -47.4 | |||
| 2025-12-12T00:02 | 12454 | 165 | 266 | 31 | ||
| 2025-12-12T00:03 | 12624 | 161 | 265 | 33 | ||
| 2025-12-12T00:03 | 12667 | 160 | -48.2 | |||
| 2025-12-12T00:04 | 13014 | 152 | 258 | 30 | ||
| 2025-12-12T00:04 | 13041 | 151 | -46.8 | |||
| 2025-12-12T00:05 | 13416 | 143 | 259 | 36 | ||
| 2025-12-12T00:06 | 13707 | 137 | -48.7 | |||
| 2025-12-12T00:06 | 13816 | 135 | 264 | 40 | ||
| 2025-12-12T00:06 | 13951 | 132 | -48.0 | |||
| 2025-12-12T00:07 | 14173 | 127 | 269 | 43 | ||
| 2025-12-12T00:07 | 14360 | 124 | -47.8 | |||
| 2025-12-12T00:07 | 14423 | 123 | 275 | 38 | ||
| 2025-12-12T00:08 | 14771 | 116 | 269 | 30 | ||
| 2025-12-12T00:08 | 14790 | 116 | -47.4 | |||
| 2025-12-12T00:09 | 14853 | 115 | -47.1 | |||
| 2025-12-12T00:09 | 14934 | 114 | -45.7 | |||
| 2025-12-12T00:09 | 15146 | 110 | 273 | 28 | ||
| 2025-12-12T00:09 | 15192 | 109 | -45.2 | |||
| 2025-12-12T00:10 | 15311 | 107 | 264 | 25 | ||
| 2025-12-12T00:11 | 15678 | 102 | -45.8 | |||
| 2025-12-12T00:11 | 15691 | 101 | 253 | 27 | ||
| 2025-12-12T00:12 | 16101 | 95 | 248 | 31 | ||
| 2025-12-12T00:13 | 16526 | 89 | 247 | 34 | ||
| 2025-12-12T00:13 | 16807 | 86 | -50.9 | |||
| 2025-12-12T00:14 | 16929 | 84 | 245 | 36 | ||
| 2025-12-12T00:14 | 17207 | 81 | -51.2 | |||
| 2025-12-12T00:15 | 17345 | 79 | 266 | 33 | ||
| 2025-12-12T00:15 | 17592 | 76 | -50.3 | |||
| 2025-12-12T00:15 | 17608 | 76 | 253 | 33 | ||
| 2025-12-12T00:16 | 17775 | 74 | -50.7 | |||
| 2025-12-12T00:16 | 17784 | 74 | 248 | 39 | ||
| 2025-12-12T00:16 | 17882 | 73 | -46.3 | |||
| 2025-12-12T00:17 | 18107 | 70 | -43.3 | |||
| 2025-12-12T00:17 | 18147 | 70 | 245 | 24 | ||
| 2025-12-12T00:17 | 18383 | 67 | -42.7 | |||
| 2025-12-12T00:18 | 18596 | 65 | 223 | 20 | ||
| 2025-12-12T00:19 | 18951 | 62 | -46.0 | |||
| 2025-12-12T00:19 | 19014 | 61 | 211 | 20 | ||
| 2025-12-12T00:20 | 19439 | 58 | 221 | 22 | ||
| 2025-12-12T00:21 | 19752 | 55 | 225 | 21 | ||
| 2025-12-12T00:21 | 19765 | 55 | -50.2 | |||
| 2025-12-12T00:22 | 20148 | 52 | 247 | 14 | ||
| 2025-12-12T00:22 | 20365 | 50 | -50.7 | |||
| 2025-12-12T00:23 | 20534 | 49 | 266 | 13 | ||
| 2025-12-12T00:23 | 20676 | 48 | -50.0 | |||
| 2025-12-12T00:23 | 20882 | 46 | 244 | 6 | ||
| 2025-12-12T00:24 | 21054 | 45 | 198 | 6 | ||
| 2025-12-12T00:24 | 21157 | 44 | -51.7 | |||
| 2025-12-12T00:24 | 21319 | 43 | 167 | 6 | ||
| 2025-12-12T00:25 | 21595 | 41 | 145 | 11 | ||
| 2025-12-12T00:25 | 21748 | 40 | -55.0 | |||
| 2025-12-12T00:26 | 21972 | 39 | 169 | 9 | ||
| 2025-12-12T00:26 | 22172 | 38 | 162 | 9 | ||
| 2025-12-12T00:27 | 22433 | 36 | 170 | 8 | ||
| 2025-12-12T00:27 | 22595 | 35 | 164 | 7 | ||
| 2025-12-12T00:27 | 22613 | 35 | -53.8 | |||
| 2025-12-12T00:28 | 22761 | 34 | 172 | 5 | ||
| 2025-12-12T00:28 | 22834 | 34 | -53.2 | |||
| 2025-12-12T00:28 | 23006 | 33 | 192 | 5 | ||
| 2025-12-12T00:29 | 23086 | 33 | -54.1 | 204 | 4 | |
| 2025-12-12T11:30 | 18 | 1020 | -5.0 | -10.8 | 300 | 6 |
| 2025-12-12T11:30 | 25 | 1019 | -5.0 | -11.6 | 294 | 1 |
| 2025-12-12T11:30 | 43 | 1017 | 261 | 3 | ||
| 2025-12-12T11:30 | 85 | 1012 | 304 | 9 | ||
| 2025-12-12T11:30 | 169 | 1001 | 291 | 9 | ||
| 2025-12-12T11:31 | 242 | 991 | -7.2 | -12.5 | 298 | 6 |
| 2025-12-12T11:31 | 366 | 976 | 302 | 17 | ||
| 2025-12-12T11:31 | 474 | 962 | -8.9 | -13.6 | ||
| 2025-12-12T11:32 | 740 | 930 | 313 | 17 | ||
| 2025-12-12T11:32 | 801 | 922 | -11.8 | -15.0 | ||
| 2025-12-12T11:33 | 1061 | 891 | -14.1 | -16.5 | ||
| 2025-12-12T11:33 | 1140 | 882 | 315 | 17 | ||
| 2025-12-12T11:34 | 1338 | 859 | -16.5 | -20.0 | ||
| 2025-12-12T11:34 | 1401 | 852 | -17.0 | -20.4 | ||
| 2025-12-12T11:34 | 1520 | 839 | 323 | 17 | ||
| 2025-12-12T11:34 | 1633 | 826 | -18.9 | -23.2 | ||
| 2025-12-12T11:35 | 1788 | 809 | -20.0 | -25.6 | ||
| 2025-12-12T11:35 | 1907 | 796 | 316 | 20 | ||
| 2025-12-12T11:36 | 2186 | 766 | -23.5 | -26.1 | ||
| 2025-12-12T11:36 | 2303 | 754 | 308 | 20 | ||
| 2025-12-12T11:36 | 2309 | 753 | -24.6 | -26.9 | ||
| 2025-12-12T11:36 | 2391 | 745 | -25.3 | -27.1 | ||
| 2025-12-12T11:37 | 2632 | 721 | -27.1 | -28.7 | ||
| 2025-12-12T11:37 | 2680 | 716 | -27.3 | -30.4 | 309 | 21 |
| 2025-12-12T11:37 | 2735 | 710 | -27.0 | -36.1 | ||
| 2025-12-12T11:37 | 2825 | 702 | -27.0 | -40.4 | 316 | 24 |
| 2025-12-12T11:38 | 2973 | 687 | -27.7 | -42.9 | ||
| 2025-12-12T11:38 | 3068 | 678 | -28.3 | -43.9 | ||
| 2025-12-12T11:38 | 3209 | 665 | 318 | 23 | ||
| 2025-12-12T11:39 | 3366 | 651 | -28.6 | -47.8 | ||
| 2025-12-12T11:39 | 3520 | 637 | -28.4 | -50.6 | ||
| 2025-12-12T11:39 | 3536 | 635 | 316 | 31 | ||
| 2025-12-12T11:40 | 3600 | 630 | -28.0 | -51.2 | ||
| 2025-12-12T11:40 | 3689 | 622 | -28.1 | -52.3 | ||
| 2025-12-12T11:40 | 3868 | 607 | -28.8 | -55.2 | ||
| 2025-12-12T11:40 | 3880 | 606 | 321 | 29 | ||
| 2025-12-12T11:41 | 4062 | 590 | -29.4 | -54.4 | ||
| 2025-12-12T11:41 | 4177 | 581 | -29.0 | -52.0 | ||
| 2025-12-12T11:41 | 4263 | 574 | 312 | 30 | ||
| 2025-12-12T11:42 | 4669 | 542 | -31.8 | -53.3 | ||
| 2025-12-12T11:42 | 4699 | 540 | 315 | 35 | ||
| 2025-12-12T11:43 | 5124 | 508 | 312 | 36 | ||
| 2025-12-12T11:44 | 5180 | 504 | -35.5 | -54.8 | ||
| 2025-12-12T11:44 | 5525 | 480 | 313 | 37 | ||
| 2025-12-12T11:45 | 5783 | 462 | -39.6 | -57.0 | ||
| 2025-12-12T11:45 | 5835 | 458 | -40.0 | -57.3 | ||
| 2025-12-12T11:45 | 5912 | 453 | 308 | 38 | ||
| 2025-12-12T11:46 | 6187 | 435 | -42.4 | |||
| 2025-12-12T11:46 | 6296 | 428 | 308 | 39 | ||
| 2025-12-12T11:47 | 6542 | 413 | -43.6 | |||
| 2025-12-12T11:47 | 6687 | 404 | 309 | 40 | ||
| 2025-12-12T11:48 | 6862 | 394 | -45.5 | |||
| 2025-12-12T11:48 | 7101 | 380 | 308 | 45 | ||
| 2025-12-12T11:49 | 7284 | 369 | -47.9 | |||
| 2025-12-12T11:49 | 7543 | 355 | 309 | 47 | ||
| 2025-12-12T11:50 | 7838 | 339 | -51.1 | |||
| 2025-12-12T11:50 | 8001 | 331 | -51.7 | 308 | 46 | |
| 2025-12-12T11:51 | 8216 | 320 | -52.1 | 303 | 47 | |
| 2025-12-12T11:51 | 8417 | 310 | -53.0 | |||
| 2025-12-12T11:52 | 8601 | 301 | -52.3 | |||
| 2025-12-12T11:52 | 8659 | 299 | -52.3 | 301 | 48 | |
| 2025-12-12T11:52 | 8885 | 289 | 298 | 40 | ||
| 2025-12-12T11:52 | 8898 | 288 | -49.5 | |||
| 2025-12-12T11:53 | 9082 | 280 | 299 | 45 | ||
| 2025-12-12T11:53 | 9319 | 270 | -51.7 | 303 | 50 | |
| 2025-12-12T11:54 | 9430 | 265 | -50.6 | |||
| 2025-12-12T11:54 | 9533 | 261 | 297 | 44 | ||
| 2025-12-12T11:54 | 9775 | 252 | -50.7 | |||
| 2025-12-12T11:55 | 9891 | 247 | 305 | 43 | ||
| 2025-12-12T11:55 | 10089 | 240 | 303 | 39 | ||
| 2025-12-12T11:56 | 10430 | 228 | -50.9 | |||
| 2025-12-12T11:56 | 10485 | 226 | 300 | 40 | ||
| 2025-12-12T11:57 | 10845 | 214 | 296 | 38 | ||
| 2025-12-12T11:57 | 10868 | 213 | -52.4 | |||
| 2025-12-12T11:58 | 11020 | 208 | 293 | 40 | ||
| 2025-12-12T11:58 | 11067 | 206 | -52.7 | |||
| 2025-12-12T11:58 | 11201 | 202 | 293 | 37 | ||
| 2025-12-12T11:59 | 11386 | 196 | 291 | 39 | ||
| 2025-12-12T11:59 | 11610 | 190 | -51.5 | |||
| 2025-12-12T12:00 | 11770 | 185 | 289 | 40 | ||
| 2025-12-12T12:00 | 12061 | 177 | -52.8 | |||
| 2025-12-12T12:01 | 12179 | 174 | 286 | 48 | ||
| 2025-12-12T12:01 | 12381 | 168 | -53.1 | |||
| 2025-12-12T12:02 | 12461 | 166 | 289 | 46 | ||
| 2025-12-12T12:02 | 12571 | 164 | -51.5 | |||
| 2025-12-12T12:02 | 12679 | 161 | 289 | 46 | ||
| 2025-12-12T12:03 | 13037 | 152 | 284 | 37 | ||
| 2025-12-12T12:03 | 13111 | 151 | -48.0 | |||
| 2025-12-12T12:04 | 13294 | 146 | -48.9 | |||
| 2025-12-12T12:04 | 13352 | 145 | 288 | 40 | ||
| 2025-12-12T12:04 | 13396 | 144 | -47.9 | |||
| 2025-12-12T12:05 | 13660 | 139 | 281 | 35 | ||
| 2025-12-12T12:05 | 13842 | 135 | -48.9 | |||
| 2025-12-12T12:06 | 14087 | 130 | 283 | 40 | ||
| 2025-12-12T12:06 | 14190 | 128 | -50.2 | |||
| 2025-12-12T12:07 | 14441 | 123 | 283 | 40 | ||
| 2025-12-12T12:07 | 14446 | 123 | -48.8 | |||
| 2025-12-12T12:07 | 14672 | 119 | 276 | 44 | ||
| 2025-12-12T12:08 | 14770 | 117 | -49.9 | |||
| 2025-12-12T12:08 | 14836 | 116 | -48.9 | |||
| 2025-12-12T12:08 | 14893 | 115 | 274 | 38 | ||
| 2025-12-12T12:08 | 14994 | 113 | -47.3 | |||
| 2025-12-12T12:09 | 15087 | 111 | 280 | 40 | ||
| 2025-12-12T12:09 | 15124 | 111 | -46.0 | |||
| 2025-12-12T12:09 | 15299 | 108 | 285 | 36 | ||
| 2025-12-12T12:10 | 15483 | 105 | -44.5 | |||
| 2025-12-12T12:10 | 15502 | 105 | 290 | 30 | ||
| 2025-12-12T12:10 | 15583 | 104 | -44.2 | |||
| 2025-12-12T12:11 | 15967 | 98 | 315 | 18 | ||
| 2025-12-12T12:11 | 16359 | 92 | 300 | 16 | ||
| 2025-12-12T12:12 | 16734 | 87 | 275 | 11 | ||
| 2025-12-12T12:12 | 16741 | 87 | -52.2 | |||
| 2025-12-12T12:13 | 16931 | 84 | 265 | 20 | ||
| 2025-12-12T12:13 | 16939 | 84 | -50.7 | |||
| 2025-12-12T12:14 | 17330 | 79 | 249 | 23 | ||
| 2025-12-12T12:14 | 17581 | 76 | -52.1 | |||
| 2025-12-12T12:14 | 17671 | 75 | 256 | 26 | ||
| 2025-12-12T12:15 | 17766 | 74 | -51.7 | |||
| 2025-12-12T12:15 | 17948 | 72 | -49.9 | |||
| 2025-12-12T12:15 | 18059 | 71 | 254 | 32 | ||
| 2025-12-12T12:16 | 18179 | 70 | -51.3 | |||
| 2025-12-12T12:16 | 18253 | 69 | 256 | 34 | ||
| 2025-12-12T12:16 | 18274 | 69 | -44.8 | |||
| 2025-12-12T12:16 | 18400 | 67 | 262 | 26 | ||
| 2025-12-12T12:17 | 18483 | 66 | -42.2 | |||
| 2025-12-12T12:17 | 18564 | 66 | -40.8 | |||
| 2025-12-12T12:17 | 18669 | 65 | 262 | 11 | ||
| 2025-12-12T12:18 | 18894 | 63 | 269 | 10 | ||
| 2025-12-12T12:18 | 19153 | 60 | 269 | 8 | ||
| 2025-12-12T12:19 | 19424 | 58 | 236 | 8 | ||
| 2025-12-12T12:20 | 19847 | 54 | 239 | 16 | ||
| 2025-12-12T12:20 | 20027 | 53 | -51.8 | |||
| 2025-12-12T12:21 | 20167 | 52 | -50.0 | |||
| 2025-12-12T12:21 | 20246 | 51 | 236 | 17 | ||
| 2025-12-12T12:22 | 20680 | 48 | 251 | 15 | ||
| 2025-12-12T12:23 | 20960 | 46 | 239 | 7 | ||
| 2025-12-12T12:23 | 21192 | 44 | 181 | 5 | ||
| 2025-12-12T12:23 | 21280 | 43 | 197 | 3 | ||
| 2025-12-12T12:24 | 21387 | 43 | 297 | 3 | ||
| 2025-12-12T12:24 | 21494 | 42 | -51.0 | |||
| 2025-12-12T12:24 | 21510 | 42 | 312 | 4 | ||
| 2025-12-12T12:24 | 21604 | 41 | -49.3 | 30 | 3 | |
| 2025-12-12T12:25 | 21882 | 40 | 38 | 7 | ||
| 2025-12-12T12:26 | 22247 | 37 | 42 | 7 | ||
| 2025-12-12T12:26 | 22420 | 36 | 57 | 4 | ||
| 2025-12-12T12:26 | 22440 | 36 | -55.3 | |||
| 2025-12-12T12:26 | 22545 | 36 | 14 | 3 | ||
| 2025-12-12T12:27 | 22691 | 35 | -53.9 | |||
| 2025-12-12T12:27 | 22821 | 34 | 149 | 3 | ||
| 2025-12-12T12:27 | 22971 | 33 | 129 | 5 | ||
| 2025-12-12T12:28 | 23137 | 33 | -53.3 | 134 | 5 | |
| 2025-12-12T23:30 | 18 | 1023 | -2.9 | -10.9 | 270 | 3 |
| 2025-12-12T23:30 | 23 | 1022 | -2.9 | -11.9 | 0 | 0 |
| 2025-12-12T23:30 | 54 | 1018 | 292 | 3 | ||
| 2025-12-12T23:31 | 226 | 996 | 281 | 8 | ||
| 2025-12-12T23:31 | 279 | 989 | -5.3 | -14.3 | ||
| 2025-12-12T23:31 | 361 | 979 | 291 | 5 | ||
| 2025-12-12T23:32 | 559 | 954 | 286 | 5 | ||
| 2025-12-12T23:33 | 930 | 910 | 302 | 9 | ||
| 2025-12-12T23:33 | 1166 | 882 | 301 | 13 | ||
| 2025-12-12T23:34 | 1392 | 856 | -15.7 | -17.0 | ||
| 2025-12-12T23:34 | 1512 | 842 | 314 | 13 | ||
| 2025-12-12T23:34 | 1518 | 842 | -15.8 | -16.2 | ||
| 2025-12-12T23:35 | 1746 | 816 | -17.2 | -18.6 | ||
| 2025-12-12T23:35 | 1782 | 813 | 318 | 14 | ||
| 2025-12-12T23:35 | 1792 | 811 | -17.3 | -22.8 | ||
| 2025-12-12T23:35 | 1818 | 809 | -17.5 | -25.2 | ||
| 2025-12-12T23:35 | 1843 | 806 | -17.7 | -25.0 | ||
| 2025-12-12T23:35 | 1890 | 801 | -17.4 | -29.5 | ||
| 2025-12-12T23:36 | 1943 | 795 | 306 | 20 | ||
| 2025-12-12T23:36 | 1980 | 791 | -16.5 | -32.8 | ||
| 2025-12-12T23:36 | 2109 | 778 | -16.3 | -31.4 | ||
| 2025-12-12T23:37 | 2276 | 761 | -16.9 | -29.4 | ||
| 2025-12-12T23:37 | 2289 | 760 | 312 | 21 | ||
| 2025-12-12T23:37 | 2566 | 732 | -18.6 | -30.0 | ||
| 2025-12-12T23:38 | 2677 | 721 | 312 | 21 | ||
| 2025-12-12T23:38 | 3031 | 687 | -20.3 | -33.1 | ||
| 2025-12-12T23:39 | 3069 | 684 | 302 | 25 | ||
| 2025-12-12T23:39 | 3345 | 659 | -21.0 | -35.9 | ||
| 2025-12-12T23:40 | 3452 | 649 | 306 | 24 | ||
| 2025-12-12T23:41 | 3830 | 617 | 307 | 24 | ||
| 2025-12-12T23:41 | 3930 | 608 | -24.9 | -41.9 | ||
| 2025-12-12T23:42 | 4194 | 586 | 306 | 26 | ||
| 2025-12-12T23:42 | 4246 | 582 | -26.9 | -45.8 | ||
| 2025-12-12T23:43 | 4547 | 558 | 306 | 25 | ||
| 2025-12-12T23:43 | 4640 | 551 | -29.9 | -47.7 | ||
| 2025-12-12T23:44 | 4903 | 531 | 304 | 26 | ||
| 2025-12-12T23:44 | 5229 | 507 | -33.5 | -50.7 | 301 | 30 |
| 2025-12-12T23:45 | 5609 | 480 | 306 | 32 | ||
| 2025-12-12T23:46 | 5653 | 477 | -36.2 | -54.8 | ||
| 2025-12-12T23:46 | 5823 | 466 | 299 | 35 | ||
| 2025-12-12T23:47 | 6056 | 450 | -38.8 | -56.9 | ||
| 2025-12-12T23:47 | 6201 | 441 | 293 | 35 | ||
| 2025-12-12T23:47 | 6214 | 440 | -40.0 | -58.5 | ||
| 2025-12-12T23:48 | 6555 | 418 | 296 | 40 | ||
| 2025-12-12T23:48 | 6624 | 414 | -42.1 | |||
| 2025-12-12T23:49 | 6804 | 403 | -43.0 | |||
| 2025-12-12T23:49 | 6927 | 396 | 297 | 44 | ||
| 2025-12-12T23:50 | 7196 | 380 | -44.7 | |||
| 2025-12-12T23:50 | 7215 | 379 | 295 | 47 | ||
| 2025-12-12T23:50 | 7493 | 364 | 294 | 55 | ||
| 2025-12-12T23:50 | 7500 | 363 | -46.6 | |||
| 2025-12-12T23:51 | 7831 | 345 | -48.7 | |||
| 2025-12-12T23:51 | 7849 | 345 | 294 | 58 | ||
| 2025-12-12T23:52 | 8226 | 325 | 295 | 56 | ||
| 2025-12-12T23:52 | 8240 | 324 | -51.6 | |||
| 2025-12-12T23:53 | 8343 | 319 | -52.0 | |||
| 2025-12-12T23:53 | 8426 | 315 | -51.7 | |||
| 2025-12-12T23:53 | 8460 | 314 | 289 | 56 | ||
| 2025-12-12T23:54 | 8768 | 299 | -53.8 | |||
| 2025-12-12T23:54 | 8857 | 295 | 291 | 56 | ||
| 2025-12-12T23:55 | 9143 | 282 | 293 | 55 | ||
| 2025-12-12T23:55 | 9149 | 282 | -55.1 | |||
| 2025-12-12T23:55 | 9291 | 276 | -54.3 | |||
| 2025-12-12T23:56 | 9531 | 265 | 290 | 51 | ||
| 2025-12-12T23:56 | 9729 | 257 | -55.1 | |||
| 2025-12-12T23:57 | 9855 | 252 | -55.1 | |||
| 2025-12-12T23:57 | 9902 | 250 | 288 | 50 | ||
| 2025-12-12T23:57 | 10078 | 244 | -53.5 | |||
| 2025-12-12T23:57 | 10111 | 242 | 289 | 48 | ||
| 2025-12-12T23:58 | 10192 | 239 | -53.5 | |||
| 2025-12-12T23:58 | 10334 | 234 | -54.2 | |||
| 2025-12-12T23:58 | 10430 | 231 | -53.0 | |||
| 2025-12-12T23:58 | 10455 | 230 | 288 | 51 | ||
| 2025-12-12T23:59 | 10665 | 222 | -54.5 | |||
| 2025-12-12T23:59 | 10791 | 218 | 289 | 47 | ||
| 2025-12-13T00:00 | 10910 | 214 | -53.2 | |||
| 2025-12-13T00:00 | 10995 | 211 | -51.4 | |||
| 2025-12-13T00:00 | 11070 | 209 | 288 | 51 | ||
| 2025-12-13T00:01 | 11160 | 206 | -52.4 | |||
| 2025-12-13T00:01 | 11292 | 202 | 288 | 50 | ||
| 2025-12-13T00:01 | 11427 | 198 | -52.1 | |||
| 2025-12-13T00:02 | 11611 | 192 | 282 | 51 | ||
| 2025-12-13T00:02 | 11724 | 189 | -53.3 | |||
| 2025-12-13T00:03 | 11892 | 184 | -50.8 | |||
| 2025-12-13T00:03 | 11931 | 183 | 282 | 48 | ||
| 2025-12-13T00:03 | 12013 | 181 | -50.8 | |||
| 2025-12-13T00:04 | 12259 | 174 | 281 | 48 | ||
| 2025-12-13T00:04 | 12383 | 171 | -53.0 | |||
| 2025-12-13T00:05 | 12567 | 166 | -53.2 | |||
| 2025-12-13T00:05 | 12589 | 165 | 283 | 47 | ||
| 2025-12-13T00:06 | 12831 | 159 | -52.2 | |||
| 2025-12-13T00:06 | 12914 | 157 | 287 | 44 | ||
| 2025-12-13T00:06 | 12931 | 157 | -52.3 | |||
| 2025-12-13T00:06 | 13061 | 154 | -50.6 | |||
| 2025-12-13T00:07 | 13157 | 151 | -50.1 | |||
| 2025-12-13T00:07 | 13252 | 149 | 290 | 38 | ||
| 2025-12-13T00:08 | 13516 | 143 | 292 | 35 | ||
| 2025-12-13T00:08 | 13656 | 140 | -51.9 | |||
| 2025-12-13T00:09 | 13840 | 136 | 289 | 36 | ||
| 2025-12-13T00:09 | 13899 | 135 | -52.9 | |||
| 2025-12-13T00:10 | 14171 | 129 | 291 | 39 | ||
| 2025-12-13T00:10 | 14204 | 129 | -53.9 | |||
| 2025-12-13T00:11 | 14502 | 123 | 277 | 34 | ||
| 2025-12-13T00:11 | 14546 | 122 | -53.4 | |||
| 2025-12-13T00:12 | 14838 | 117 | 278 | 30 | ||
| 2025-12-13T00:12 | 14897 | 116 | -54.7 | |||
| 2025-12-13T00:12 | 15094 | 112 | -54.4 | |||
| 2025-12-13T00:13 | 15185 | 111 | -54.1 | |||
| 2025-12-13T00:13 | 15191 | 110 | 272 | 33 | ||
| 2025-12-13T00:13 | 15374 | 107 | -55.0 | |||
| 2025-12-13T00:13 | 15417 | 107 | 273 | 36 | ||
| 2025-12-13T00:14 | 15545 | 105 | -54.3 | |||
| 2025-12-13T00:14 | 15710 | 102 | -53.9 | |||
| 2025-12-13T00:14 | 15770 | 101 | 272 | 34 | ||
| 2025-12-13T00:15 | 15858 | 100 | -52.6 | |||
| 2025-12-13T00:15 | 16137 | 95 | 276 | 31 | ||
| 2025-12-13T00:16 | 16503 | 90 | 278 | 25 | ||
| 2025-12-13T00:17 | 16638 | 88 | -53.2 | |||
| 2025-12-13T00:17 | 16684 | 88 | 268 | 29 | ||
| 2025-12-13T00:17 | 16769 | 86 | -52.1 | |||
| 2025-12-13T00:17 | 16917 | 84 | 273 | 36 | ||
| 2025-12-13T00:18 | 17270 | 80 | 276 | 42 | ||
| 2025-12-13T00:19 | 17402 | 78 | -53.3 | |||
| 2025-12-13T00:19 | 17408 | 78 | -53.2 | 284 | 41 | |
| 2025-12-13T11:30 | 18 | 1020 | -1.5 | -6.6 | 150 | 2 |
| 2025-12-13T11:30 | 22 | 1019 | -1.2 | -6.9 | 0 | 0 |
| 2025-12-13T11:30 | 53 | 1016 | 132 | 3 | ||
| 2025-12-13T11:30 | 126 | 1006 | -2.0 | -8.1 | ||
| 2025-12-13T11:30 | 176 | 1000 | 183 | 4 | ||
| 2025-12-13T11:31 | 238 | 992 | -2.3 | -8.8 | ||
| 2025-12-13T11:31 | 289 | 986 | 188 | 4 | ||
| 2025-12-13T11:31 | 333 | 980 | -3.0 | -9.3 | ||
| 2025-12-13T11:31 | 390 | 973 | 247 | 6 | ||
| 2025-12-13T11:31 | 416 | 970 | -3.3 | -9.3 | ||
| 2025-12-13T11:32 | 765 | 928 | 259 | 6 | ||
| 2025-12-13T11:33 | 1013 | 899 | 281 | 6 | ||
| 2025-12-13T11:33 | 1109 | 888 | -8.4 | -11.1 | ||
| 2025-12-13T11:33 | 1192 | 879 | 284 | 10 | ||
| 2025-12-13T11:34 | 1583 | 835 | 294 | 11 | ||
| 2025-12-13T11:34 | 1597 | 834 | -12.5 | -13.0 | ||
| 2025-12-13T11:35 | 1809 | 811 | -13.8 | -14.8 | ||
| 2025-12-13T11:35 | 1974 | 793 | -15.1 | -16.5 | ||
| 2025-12-13T11:35 | 2002 | 790 | 293 | 9 | ||
| 2025-12-13T11:35 | 2023 | 788 | -15.5 | -26.6 | ||
| 2025-12-13T11:36 | 2147 | 775 | -15.4 | -29.4 | ||
| 2025-12-13T11:36 | 2365 | 753 | 279 | 14 | ||
| 2025-12-13T11:36 | 2449 | 745 | -15.0 | -33.5 | ||
| 2025-12-13T11:37 | 2727 | 718 | -15.2 | -36.8 | ||
| 2025-12-13T11:37 | 2739 | 717 | 279 | 15 | ||
| 2025-12-13T11:37 | 2818 | 709 | -14.9 | -35.8 | ||
| 2025-12-13T11:38 | 3099 | 683 | 276 | 15 | ||
| 2025-12-13T11:38 | 3135 | 680 | -16.6 | -34.9 | ||
| 2025-12-13T11:39 | 3428 | 654 | -18.3 | -40.8 | ||
| 2025-12-13T11:39 | 3458 | 651 | 273 | 16 | ||
| 2025-12-13T11:40 | 3728 | 628 | -19.7 | -46.9 | ||
| 2025-12-13T11:40 | 3885 | 615 | 269 | 19 | ||
| 2025-12-13T11:41 | 4121 | 596 | -22.0 | -38.0 | ||
| 2025-12-13T11:41 | 4212 | 588 | -22.6 | -37.3 | ||
| 2025-12-13T11:41 | 4290 | 582 | 260 | 20 | ||
| 2025-12-13T11:41 | 4324 | 579 | -23.4 | -32.5 | ||
| 2025-12-13T11:42 | 4673 | 552 | -26.4 | -31.7 | ||
| 2025-12-13T11:42 | 4702 | 550 | 265 | 20 | ||
| 2025-12-13T11:42 | 4844 | 539 | -27.2 | -31.0 | ||
| 2025-12-13T11:43 | 4965 | 530 | -27.6 | -31.7 | ||
| 2025-12-13T11:43 | 5132 | 518 | 261 | 22 | ||
| 2025-12-13T11:44 | 5349 | 503 | -29.3 | -33.0 | ||
| 2025-12-13T11:44 | 5564 | 488 | 265 | 25 | ||
| 2025-12-13T11:44 | 5779 | 473 | -30.9 | -36.1 | ||
| 2025-12-13T11:45 | 6056 | 455 | -32.6 | -38.6 | 269 | 31 |
| 2025-12-13T11:46 | 6311 | 439 | -34.5 | -41.7 | ||
| 2025-12-13T11:46 | 6562 | 423 | 276 | 37 | ||
| 2025-12-13T11:47 | 6950 | 400 | -40.0 | -42.9 | ||
| 2025-12-13T11:47 | 7039 | 395 | -40.7 | |||
| 2025-12-13T11:47 | 7094 | 392 | 270 | 50 | ||
| 2025-12-13T11:47 | 7130 | 390 | -40.2 | |||
| 2025-12-13T11:48 | 7459 | 371 | -42.1 | |||
| 2025-12-13T11:48 | 7479 | 370 | 273 | 56 | ||
| 2025-12-13T11:49 | 7788 | 353 | -44.9 | |||
| 2025-12-13T11:49 | 7906 | 347 | 270 | 59 | ||
| 2025-12-13T11:50 | 8290 | 328 | -48.9 | |||
| 2025-12-13T11:50 | 8367 | 324 | 265 | 57 | ||
| 2025-12-13T11:51 | 8622 | 311 | 270 | 62 | ||
| 2025-12-13T11:51 | 8839 | 301 | 271 | 63 | ||
| 2025-12-13T11:52 | 9266 | 282 | -56.7 | |||
| 2025-12-13T11:52 | 9289 | 281 | 271 | 67 | ||
| 2025-12-13T11:53 | 9519 | 271 | 273 | 68 | ||
| 2025-12-13T11:53 | 9828 | 258 | 273 | 68 | ||
| 2025-12-13T11:54 | 10125 | 246 | 271 | 64 | ||
| 2025-12-13T11:54 | 10133 | 246 | -57.5 | |||
| 2025-12-13T11:54 | 10281 | 240 | -56.9 | |||
| 2025-12-13T11:54 | 10404 | 235 | 271 | 57 | ||
| 2025-12-13T11:55 | 10612 | 228 | 271 | 53 | ||
| 2025-12-13T11:55 | 10700 | 225 | -55.8 | |||
| 2025-12-13T11:55 | 10729 | 224 | 272 | 50 | ||
| 2025-12-13T11:56 | 10969 | 215 | 274 | 50 | ||
| 2025-12-13T11:56 | 11034 | 213 | -54.5 | |||
| 2025-12-13T11:56 | 11205 | 207 | -55.1 | |||
| 2025-12-13T11:56 | 11300 | 204 | 268 | 47 | ||
| 2025-12-13T11:57 | 11366 | 202 | -54.4 | |||
| 2025-12-13T11:57 | 11492 | 198 | 274 | 49 | ||
| 2025-12-13T11:57 | 11672 | 193 | -53.7 | |||
| 2025-12-13T11:58 | 11870 | 187 | -53.7 | |||
| 2025-12-13T11:58 | 11884 | 187 | 268 | 55 | ||
| 2025-12-13T11:59 | 12294 | 175 | 268 | 52 | ||
| 2025-12-13T11:59 | 12435 | 171 | -53.9 | |||
| 2025-12-13T12:00 | 12624 | 166 | -53.9 | |||
| 2025-12-13T12:00 | 12709 | 164 | 269 | 51 | ||
| 2025-12-13T12:00 | 12952 | 158 | -53.3 | |||
| 2025-12-13T12:01 | 13107 | 154 | 275 | 49 | ||
| 2025-12-13T12:01 | 13192 | 152 | -53.5 | |||
| 2025-12-13T12:01 | 13344 | 149 | 275 | 46 | ||
| 2025-12-13T12:02 | 13512 | 145 | 277 | 45 | ||
| 2025-12-13T12:02 | 13703 | 141 | 277 | 45 | ||
| 2025-12-13T12:02 | 13763 | 139 | -54.7 | |||
| 2025-12-13T12:03 | 13857 | 137 | -54.0 | |||
| 2025-12-13T12:03 | 13890 | 136 | 272 | 48 | ||
| 2025-12-13T12:03 | 14071 | 133 | -54.7 | |||
| 2025-12-13T12:03 | 14091 | 132 | 269 | 50 | ||
| 2025-12-13T12:04 | 14234 | 129 | 273 | 49 | ||
| 2025-12-13T12:04 | 14356 | 127 | -54.7 | |||
| 2025-12-13T12:04 | 14495 | 124 | -55.2 | |||
| 2025-12-13T12:04 | 14520 | 124 | 272 | 43 | ||
| 2025-12-13T12:05 | 14721 | 120 | 271 | 40 | ||
| 2025-12-13T12:05 | 14861 | 117 | -55.3 | |||
| 2025-12-13T12:05 | 14912 | 116 | 270 | 40 | ||
| 2025-12-13T12:06 | 15051 | 114 | -54.9 | |||
| 2025-12-13T12:06 | 15251 | 110 | 273 | 40 | ||
| 2025-12-13T12:06 | 15298 | 109 | -54.5 | |||
| 2025-12-13T12:07 | 15477 | 106 | 278 | 40 | ||
| 2025-12-13T12:07 | 15521 | 106 | -54.1 | |||
| 2025-12-13T12:07 | 15718 | 103 | 266 | 35 | ||
| 2025-12-13T12:08 | 16040 | 97 | -54.4 | |||
| 2025-12-13T12:08 | 16134 | 96 | 269 | 36 | ||
| 2025-12-13T12:09 | 16380 | 92 | -53.5 | |||
| 2025-12-13T12:09 | 16433 | 92 | 262 | 37 | ||
| 2025-12-13T12:09 | 16589 | 89 | 260 | 37 | ||
| 2025-12-13T12:10 | 16596 | 89 | -51.9 | |||
| 2025-12-13T12:10 | 16699 | 88 | 256 | 38 | ||
| 2025-12-13T12:10 | 16827 | 86 | -49.7 | |||
| 2025-12-13T12:10 | 16982 | 84 | 258 | 44 | ||
| 2025-12-13T12:11 | 17204 | 81 | -50.6 | |||
| 2025-12-13T12:11 | 17367 | 79 | -48.2 | |||
| 2025-12-13T12:11 | 17384 | 79 | 269 | 39 | ||
| 2025-12-13T12:12 | 17786 | 75 | 272 | 33 | ||
| 2025-12-13T12:13 | 17909 | 73 | -50.2 | |||
| 2025-12-13T12:13 | 18079 | 71 | 278 | 29 | ||
| 2025-12-13T12:14 | 18204 | 70 | -47.6 | |||
| 2025-12-13T12:14 | 18396 | 68 | -44.9 | |||
| 2025-12-13T12:14 | 18454 | 67 | 270 | 19 | ||
| 2025-12-13T12:15 | 18861 | 63 | 272 | 14 | ||
| 2025-12-13T12:16 | 19212 | 60 | -49.5 | |||
| 2025-12-13T12:16 | 19290 | 59 | 268 | 10 | ||
| 2025-12-13T12:17 | 19716 | 56 | -52.9 | 239 | 12 | |
| 2025-12-13T12:18 | 20112 | 52 | 241 | 18 | ||
| 2025-12-13T12:18 | 20184 | 52 | -54.6 | 243 | 17 | |
| 2025-12-13T23:30 | 18 | 1015 | -1.8 | -5.1 | 90 | 2 |
| 2025-12-13T23:30 | 22 | 1015 | -1.8 | -5.6 | 0 | 0 |
| 2025-12-13T23:30 | 75 | 1008 | 106 | 3 | ||
| 2025-12-13T23:30 | 90 | 1006 | -2.1 | -6.3 | ||
| 2025-12-13T23:30 | 164 | 997 | 148 | 6 | ||
| 2025-12-13T23:31 | 175 | 996 | -1.1 | -7.0 | ||
| 2025-12-13T23:31 | 362 | 972 | 164 | 6 | ||
| 2025-12-13T23:32 | 532 | 952 | -3.3 | -8.0 | ||
| 2025-12-13T23:32 | 683 | 934 | 141 | 11 | ||
| 2025-12-13T23:32 | 861 | 913 | -5.8 | -7.3 | ||
| 2025-12-13T23:33 | 1038 | 892 | 158 | 12 | ||
| 2025-12-13T23:33 | 1074 | 888 | -7.0 | -7.4 | ||
| 2025-12-13T23:34 | 1294 | 863 | 166 | 12 | ||
| 2025-12-13T23:34 | 1341 | 858 | -9.0 | -9.9 | ||
| 2025-12-13T23:34 | 1395 | 852 | -8.5 | -13.0 | ||
| 2025-12-13T23:34 | 1443 | 847 | 179 | 10 | ||
| 2025-12-13T23:34 | 1485 | 842 | -7.9 | -21.4 | ||
| 2025-12-13T23:34 | 1527 | 838 | -7.3 | -32.8 | ||
| 2025-12-13T23:34 | 1589 | 831 | 171 | 4 | ||
| 2025-12-13T23:35 | 1707 | 819 | -8.7 | -31.4 | ||
| 2025-12-13T23:35 | 1731 | 816 | 181 | 4 | ||
| 2025-12-13T23:35 | 1775 | 812 | -8.2 | -16.6 | ||
| 2025-12-13T23:35 | 1893 | 799 | -8.5 | -14.9 | ||
| 2025-12-13T23:35 | 1937 | 795 | -7.4 | -17.8 | ||
| 2025-12-13T23:35 | 1962 | 792 | 272 | 3 | ||
| 2025-12-13T23:36 | 2100 | 778 | -8.3 | -20.1 | ||
| 2025-12-13T23:36 | 2156 | 773 | 286 | 3 | ||
| 2025-12-13T23:37 | 2384 | 750 | 293 | 5 | ||
| 2025-12-13T23:37 | 2524 | 737 | 318 | 5 | ||
| 2025-12-13T23:37 | 2588 | 731 | -12.6 | -20.7 | ||
| 2025-12-13T23:38 | 2756 | 715 | 259 | 5 | ||
| 2025-12-13T23:38 | 3041 | 688 | 257 | 4 | ||
| 2025-12-13T23:39 | 3186 | 675 | 264 | 3 | ||
| 2025-12-13T23:39 | 3256 | 669 | -17.2 | -23.9 | ||
| 2025-12-13T23:39 | 3312 | 664 | 292 | 4 | ||
| 2025-12-13T23:39 | 3374 | 658 | -17.3 | -23.0 | ||
| 2025-12-13T23:40 | 3529 | 645 | -18.2 | -20.9 | ||
| 2025-12-13T23:40 | 3641 | 635 | 276 | 7 | ||
| 2025-12-13T23:40 | 3846 | 618 | 262 | 8 | ||
| 2025-12-13T23:41 | 4212 | 588 | -22.0 | -24.0 | ||
| 2025-12-13T23:41 | 4232 | 587 | 232 | 15 | ||
| 2025-12-13T23:42 | 4384 | 574 | -22.8 | -24.9 | ||
| 2025-12-13T23:42 | 4568 | 560 | 233 | 24 | ||
| 2025-12-13T23:42 | 4581 | 559 | -22.9 | -25.1 | ||
| 2025-12-13T23:43 | 4660 | 553 | -22.6 | -24.7 | ||
| 2025-12-13T23:43 | 4871 | 538 | 234 | 24 | ||
| 2025-12-13T23:44 | 5248 | 510 | 245 | 24 | ||
| 2025-12-13T23:44 | 5275 | 508 | -27.6 | -30.1 | ||
| 2025-12-13T23:45 | 5648 | 483 | 236 | 29 | ||
| 2025-12-13T23:46 | 5917 | 465 | -32.2 | -34.7 | ||
| 2025-12-13T23:46 | 5957 | 462 | 229 | 31 | ||
| 2025-12-13T23:46 | 6113 | 452 | 230 | 34 | ||
| 2025-12-13T23:47 | 6267 | 442 | -34.1 | -36.7 | ||
| 2025-12-13T23:47 | 6341 | 437 | 234 | 38 | ||
| 2025-12-13T23:48 | 6745 | 413 | 234 | 38 | ||
| 2025-12-13T23:48 | 6962 | 400 | -40.0 | -42.7 | ||
| 2025-12-13T23:48 | 7005 | 397 | 234 | 40 | ||
| 2025-12-13T23:49 | 7207 | 386 | 233 | 41 | ||
| 2025-12-13T23:50 | 7559 | 366 | 228 | 47 | ||
| 2025-12-13T23:50 | 7804 | 353 | -46.3 | |||
| 2025-12-13T23:51 | 7989 | 343 | 233 | 54 | ||
| 2025-12-13T23:52 | 8391 | 323 | -51.2 | |||
| 2025-12-13T23:52 | 8419 | 321 | 235 | 58 | ||
| 2025-12-13T23:53 | 8817 | 302 | 233 | 64 | ||
| 2025-12-13T23:53 | 8842 | 301 | -54.4 | |||
| 2025-12-13T23:54 | 9147 | 287 | 239 | 66 | ||
| 2025-12-13T23:54 | 9191 | 285 | -55.7 | |||
| 2025-12-13T23:54 | 9447 | 274 | -56.3 | |||
| 2025-12-13T23:55 | 9529 | 270 | 244 | 65 | ||
| 2025-12-13T23:55 | 9871 | 256 | -56.9 | |||
| 2025-12-13T23:55 | 9892 | 255 | 244 | 65 | ||
| 2025-12-13T23:56 | 10266 | 240 | 250 | 56 | ||
| 2025-12-13T23:56 | 10287 | 240 | -54.4 | |||
| 2025-12-13T23:57 | 10407 | 235 | 248 | 59 | ||
| 2025-12-13T23:57 | 10554 | 230 | 253 | 55 | ||
| 2025-12-13T23:58 | 10746 | 223 | 250 | 53 | ||
| 2025-12-13T23:58 | 10818 | 221 | -54.2 | |||
| 2025-12-13T23:58 | 10944 | 216 | 249 | 52 | ||
| 2025-12-13T23:58 | 11030 | 214 | -53.5 | |||
| 2025-12-13T23:58 | 11061 | 212 | 250 | 49 | ||
| 2025-12-13T23:59 | 11259 | 206 | -53.5 | |||
| 2025-12-13T23:59 | 11447 | 200 | 250 | 50 | ||
| 2025-12-14T00:00 | 11545 | 197 | -53.7 | |||
| 2025-12-14T00:00 | 11663 | 193 | -52.8 | |||
| 2025-12-14T00:00 | 11831 | 189 | 250 | 48 | ||
| 2025-12-14T00:01 | 12128 | 180 | -51.9 | |||
| 2025-12-14T00:01 | 12207 | 178 | 248 | 47 | ||
| 2025-12-14T00:02 | 12572 | 168 | -53.1 | |||
| 2025-12-14T00:02 | 12579 | 168 | 245 | 50 | ||
| 2025-12-14T00:03 | 12869 | 160 | -53.3 | |||
| 2025-12-14T00:03 | 12948 | 158 | 252 | 49 | ||
| 2025-12-14T00:04 | 13003 | 157 | -53.6 | |||
| 2025-12-14T00:04 | 13326 | 149 | 254 | 47 | ||
| 2025-12-14T00:05 | 13421 | 147 | -55.8 | |||
| 2025-12-14T00:05 | 13673 | 141 | 255 | 43 | ||
| 2025-12-14T00:06 | 13948 | 136 | -55.3 | |||
| 2025-12-14T00:06 | 14048 | 133 | 250 | 44 | ||
| 2025-12-14T00:07 | 14422 | 126 | 252 | 49 | ||
| 2025-12-14T00:07 | 14496 | 124 | -55.7 | |||
| 2025-12-14T00:08 | 14663 | 121 | -55.5 | |||
| 2025-12-14T00:08 | 14795 | 119 | 257 | 47 | ||
| 2025-12-14T00:09 | 15165 | 112 | 248 | 45 | ||
| 2025-12-14T00:09 | 15178 | 112 | -53.9 | |||
| 2025-12-14T00:10 | 15559 | 105 | 257 | 46 | ||
| 2025-12-14T00:10 | 15579 | 105 | -56.0 | |||
| 2025-12-14T00:11 | 15685 | 103 | -54.8 | |||
| 2025-12-14T00:11 | 15808 | 101 | 253 | 39 | ||
| 2025-12-14T00:11 | 15853 | 101 | -54.2 | |||
| 2025-12-14T00:12 | 16185 | 95 | 256 | 37 | ||
| 2025-12-14T00:13 | 16547 | 90 | 251 | 34 | ||
| 2025-12-14T00:13 | 16570 | 90 | -52.2 | |||
| 2025-12-14T00:13 | 16756 | 87 | -51.4 | |||
| 2025-12-14T00:14 | 16947 | 85 | 251 | 36 | ||
| 2025-12-14T00:14 | 16995 | 84 | -50.9 | |||
| 2025-12-14T00:14 | 17143 | 82 | 256 | 38 | ||
| 2025-12-14T00:15 | 17402 | 79 | 262 | 36 | ||
| 2025-12-14T00:15 | 17583 | 77 | -50.7 | |||
| 2025-12-14T00:16 | 17730 | 75 | 262 | 30 | ||
| 2025-12-14T00:16 | 17873 | 74 | -48.1 | |||
| 2025-12-14T00:17 | 18053 | 72 | 260 | 20 | ||
| 2025-12-14T00:17 | 18205 | 70 | 246 | 17 | ||
| 2025-12-14T00:17 | 18213 | 70 | -48.9 | |||
| 2025-12-14T00:17 | 18365 | 68 | 229 | 16 | ||
| 2025-12-14T00:18 | 18568 | 66 | 215 | 16 | ||
| 2025-12-14T00:19 | 18972 | 62 | 228 | 20 | ||
| 2025-12-14T00:19 | 19181 | 60 | -54.5 | |||
| 2025-12-14T00:19 | 19221 | 60 | 237 | 22 | ||
| 2025-12-14T00:20 | 19365 | 59 | 233 | 17 | ||
| 2025-12-14T00:20 | 19385 | 58 | -53.3 | |||
| 2025-12-14T00:20 | 19646 | 56 | 232 | 18 | ||
| 2025-12-14T00:21 | 20040 | 53 | 228 | 18 | ||
| 2025-12-14T00:22 | 20351 | 50 | 231 | 16 | ||
| 2025-12-14T00:23 | 20549 | 49 | 209 | 12 | ||
| 2025-12-14T00:23 | 20709 | 48 | -52.5 | |||
| 2025-12-14T00:24 | 20959 | 46 | 216 | 20 | ||
| 2025-12-14T00:24 | 21115 | 45 | -53.8 | |||
| 2025-12-14T00:24 | 21306 | 43 | 231 | 17 | ||
| 2025-12-14T00:25 | 21501 | 42 | 213 | 14 | ||
| 2025-12-14T00:25 | 21595 | 41 | -53.6 | |||
| 2025-12-14T00:26 | 21911 | 39 | 223 | 10 | ||
| 2025-12-14T00:26 | 22027 | 39 | -55.2 | |||
| 2025-12-14T00:26 | 22125 | 38 | 205 | 5 | ||
| 2025-12-14T00:27 | 22433 | 36 | 183 | 12 | ||
| 2025-12-14T00:27 | 22469 | 36 | -55.0 | |||
| 2025-12-14T00:28 | 22578 | 36 | -53.5 | |||
| 2025-12-14T00:28 | 22668 | 35 | 170 | 11 | ||
| 2025-12-14T00:29 | 23064 | 33 | 180 | 9 | ||
| 2025-12-14T00:29 | 23180 | 32 | -55.5 | |||
| 2025-12-14T00:29 | 23278 | 32 | 177 | 7 | ||
| 2025-12-14T00:30 | 23464 | 31 | 185 | 4 | ||
| 2025-12-14T00:30 | 23568 | 30 | 182 | 2 | ||
| 2025-12-14T00:30 | 23632 | 30 | 185 | 3 | ||
| 2025-12-14T00:31 | 23758 | 30 | 156 | 6 | ||
| 2025-12-14T00:31 | 23981 | 29 | -54.9 | |||
| 2025-12-14T00:31 | 24116 | 28 | 177 | 6 | ||
| 2025-12-14T00:32 | 24372 | 27 | 177 | 3 | ||
| 2025-12-14T00:32 | 24487 | 26 | -56.5 | |||
| 2025-12-14T00:33 | 24539 | 26 | 185 | 3 | ||
| 2025-12-14T00:33 | 24712 | 25 | 203 | 3 | ||
| 2025-12-14T00:33 | 24835 | 25 | 213 | 4 | ||
| 2025-12-14T00:34 | 24949 | 25 | -56.6 | 187 | 3 | |
| 2025-12-14T11:30 | 18 | 1000 | 0.0 | -0.3 | 320 | 5 |
| 2025-12-14T11:30 | 23 | 999 | 0.0 | -0.6 | 320 | 1 |
| 2025-12-14T11:30 | 130 | 986 | 333 | 5 | ||
| 2025-12-14T11:31 | 235 | 973 | 329 | 7 | ||
| 2025-12-14T11:31 | 349 | 959 | 344 | 7 | ||
| 2025-12-14T11:31 | 390 | 954 | -2.2 | -2.8 | ||
| 2025-12-14T11:31 | 458 | 946 | 356 | 6 | ||
| 2025-12-14T11:32 | 699 | 918 | 32 | 10 | ||
| 2025-12-14T11:32 | 781 | 908 | -3.8 | -4.6 | ||
| 2025-12-14T11:33 | 1027 | 880 | 68 | 13 | ||
| 2025-12-14T11:33 | 1079 | 874 | -4.5 | -5.3 | ||
| 2025-12-14T11:34 | 1233 | 857 | 76 | 15 | ||
| 2025-12-14T11:34 | 1444 | 835 | 80 | 11 | ||
| 2025-12-14T11:34 | 1467 | 832 | -5.6 | -6.7 | ||
| 2025-12-14T11:35 | 1763 | 801 | -6.5 | -7.6 | ||
| 2025-12-14T11:35 | 1800 | 797 | 90 | 21 | ||
| 2025-12-14T11:36 | 2058 | 772 | 98 | 17 | ||
| 2025-12-14T11:36 | 2154 | 762 | -6.8 | -8.0 | ||
| 2025-12-14T11:37 | 2408 | 738 | 92 | 8 | ||
| 2025-12-14T11:37 | 2617 | 718 | -9.7 | -11.2 | 88 | 6 |
| 2025-12-14T11:38 | 2757 | 705 | 132 | 5 | ||
| 2025-12-14T11:38 | 2768 | 704 | -10.3 | -11.8 | ||
| 2025-12-14T11:38 | 2850 | 697 | 145 | 7 | ||
| 2025-12-14T11:39 | 2985 | 685 | -11.1 | -12.7 | ||
| 2025-12-14T11:39 | 3190 | 667 | 153 | 8 | ||
| 2025-12-14T11:40 | 3538 | 637 | 156 | 10 | ||
| 2025-12-14T11:41 | 3762 | 618 | 184 | 10 | ||
| 2025-12-14T11:41 | 3824 | 613 | -16.1 | -17.9 | ||
| 2025-12-14T11:41 | 3939 | 604 | 184 | 10 | ||
| 2025-12-14T11:42 | 4096 | 591 | 214 | 10 | ||
| 2025-12-14T11:42 | 4423 | 566 | -20.7 | -22.6 | ||
| 2025-12-14T11:42 | 4449 | 564 | 192 | 7 | ||
| 2025-12-14T11:43 | 4666 | 548 | 183 | 5 | ||
| 2025-12-14T11:44 | 5043 | 520 | 175 | 7 | ||
| 2025-12-14T11:45 | 5284 | 503 | -26.8 | -28.9 | ||
| 2025-12-14T11:45 | 5444 | 492 | 162 | 6 | ||
| 2025-12-14T11:46 | 5871 | 463 | 153 | 6 | ||
| 2025-12-14T11:47 | 6263 | 438 | -34.0 | -36.4 | ||
| 2025-12-14T11:47 | 6306 | 435 | 145 | 12 | ||
| 2025-12-14T11:48 | 6546 | 421 | -36.1 | -38.4 | ||
| 2025-12-14T11:48 | 6753 | 408 | 140 | 18 | ||
| 2025-12-14T11:48 | 6808 | 405 | -38.0 | -40.7 | ||
| 2025-12-14T11:48 | 6942 | 397 | -38.4 | -41.0 | ||
| 2025-12-14T11:49 | 7019 | 393 | 147 | 27 | ||
| 2025-12-14T11:49 | 7131 | 386 | -40.0 | -42.6 | ||
| 2025-12-14T11:49 | 7353 | 374 | -41.5 | |||
| 2025-12-14T11:50 | 7448 | 369 | 153 | 26 | ||
| 2025-12-14T11:51 | 7852 | 347 | 159 | 29 | ||
| 2025-12-14T11:51 | 8062 | 336 | -47.2 | |||
| 2025-12-14T11:52 | 8231 | 328 | 159 | 29 | ||
| 2025-12-14T11:52 | 8475 | 316 | 159 | 31 | ||
| 2025-12-14T11:52 | 8591 | 310 | -50.8 | |||
| 2025-12-14T11:53 | 8739 | 303 | 166 | 31 | ||
| 2025-12-14T11:54 | 9050 | 289 | -52.4 | |||
| 2025-12-14T11:54 | 9116 | 286 | 173 | 32 | ||
| 2025-12-14T11:55 | 9493 | 270 | 189 | 28 | ||
| 2025-12-14T11:55 | 9521 | 269 | -51.5 | |||
| 2025-12-14T11:56 | 9755 | 259 | -50.8 | 196 | 30 | |
| 2025-12-14T11:57 | 10019 | 249 | 205 | 33 | ||
| 2025-12-14T11:57 | 10024 | 249 | -49.4 | |||
| 2025-12-14T11:57 | 10268 | 240 | -49.3 | |||
| 2025-12-14T11:58 | 10320 | 238 | 210 | 33 | ||
| 2025-12-14T11:59 | 10631 | 227 | 217 | 33 | ||
| 2025-12-14T11:59 | 10687 | 225 | -49.7 | |||
| 2025-12-14T12:00 | 10942 | 216 | 222 | 33 | ||
| 2025-12-14T12:00 | 11103 | 211 | -50.6 | |||
| 2025-12-14T12:00 | 11186 | 208 | 221 | 33 | ||
| 2025-12-14T12:01 | 11416 | 201 | 227 | 33 | ||
| 2025-12-14T12:02 | 11664 | 194 | -51.4 | |||
| 2025-12-14T12:02 | 11732 | 192 | 230 | 35 | ||
| 2025-12-14T12:03 | 12004 | 184 | -50.4 | |||
| 2025-12-14T12:03 | 12053 | 182 | 232 | 37 | ||
| 2025-12-14T12:04 | 12381 | 173 | 236 | 33 | ||
| 2025-12-14T12:04 | 12413 | 173 | -51.7 | |||
| 2025-12-14T12:05 | 12703 | 165 | 235 | 34 | ||
| 2025-12-14T12:05 | 12719 | 165 | -53.0 | |||
| 2025-12-14T12:06 | 12955 | 159 | -54.2 | |||
| 2025-12-14T12:06 | 13015 | 157 | 235 | 37 | ||
| 2025-12-14T12:07 | 13299 | 150 | -52.7 | |||
| 2025-12-14T12:07 | 13320 | 150 | 241 | 36 | ||
| 2025-12-14T12:08 | 13509 | 146 | 241 | 34 | ||
| 2025-12-14T12:08 | 13684 | 142 | -52.0 | |||
| 2025-12-14T12:08 | 13732 | 141 | 244 | 32 | ||
| 2025-12-14T12:09 | 14044 | 134 | 237 | 31 | ||
| 2025-12-14T12:10 | 14236 | 130 | -52.5 | |||
| 2025-12-14T12:10 | 14368 | 127 | 230 | 34 | ||
| 2025-12-14T12:11 | 14540 | 124 | -53.9 | |||
| 2025-12-14T12:11 | 14656 | 122 | -53.6 | |||
| 2025-12-14T12:11 | 14700 | 121 | 232 | 37 | ||
| 2025-12-14T12:12 | 14927 | 117 | 237 | 40 | ||
| 2025-12-14T12:13 | 15182 | 112 | -55.4 | |||
| 2025-12-14T12:13 | 15253 | 111 | 232 | 34 | ||
| 2025-12-14T12:13 | 15388 | 109 | -55.1 | |||
| 2025-12-14T12:14 | 15573 | 106 | -55.3 | |||
| 2025-12-14T12:14 | 15601 | 105 | 243 | 40 | ||
| 2025-12-14T12:15 | 15794 | 102 | -52.3 | |||
| 2025-12-14T12:15 | 15896 | 100 | 236 | 34 | ||
| 2025-12-14T12:15 | 16109 | 97 | 244 | 34 | ||
| 2025-12-14T12:16 | 16277 | 95 | -52.0 | |||
| 2025-12-14T12:16 | 16440 | 92 | -50.2 | |||
| 2025-12-14T12:16 | 16462 | 92 | 240 | 30 | ||
| 2025-12-14T12:17 | 16803 | 87 | 238 | 32 | ||
| 2025-12-14T12:18 | 17009 | 85 | -50.8 | |||
| 2025-12-14T12:18 | 17164 | 83 | 234 | 25 | ||
| 2025-12-14T12:19 | 17213 | 82 | -49.2 | |||
| 2025-12-14T12:19 | 17508 | 78 | 231 | 25 | ||
| 2025-12-14T12:20 | 17696 | 76 | -49.6 | |||
| 2025-12-14T12:20 | 17862 | 74 | 224 | 25 | ||
| 2025-12-14T12:21 | 18075 | 72 | 221 | 26 | ||
| 2025-12-14T12:21 | 18156 | 71 | -52.5 | |||
| 2025-12-14T12:22 | 18268 | 70 | 228 | 32 | ||
| 2025-12-14T12:22 | 18294 | 69 | -51.1 | |||
| 2025-12-14T12:22 | 18630 | 66 | 235 | 31 | ||
| 2025-12-14T12:24 | 19011 | 62 | 245 | 29 | ||
| 2025-12-14T12:24 | 19126 | 61 | -54.2 | |||
| 2025-12-14T12:24 | 19189 | 60 | 256 | 26 | ||
| 2025-12-14T12:24 | 19318 | 59 | -52.6 | |||
| 2025-12-14T12:25 | 19497 | 58 | 246 | 15 | ||
| 2025-12-14T12:25 | 19646 | 56 | -52.0 | |||
| 2025-12-14T12:26 | 19807 | 55 | 238 | 15 | ||
| 2025-12-14T12:26 | 19826 | 55 | -52.7 | 241 | 15 | |
| 2025-12-14T23:30 | 18 | 1001 | 3.2 | 0.1 | 330 | 10 |
| 2025-12-14T23:30 | 22 | 1000 | 3.1 | -0.4 | 309 | 2 |
| 2025-12-14T23:30 | 52 | 997 | 318 | 4 | ||
| 2025-12-14T23:31 | 173 | 982 | 326 | 20 | ||
| 2025-12-14T23:31 | 287 | 968 | 1.1 | -1.8 | ||
| 2025-12-14T23:31 | 414 | 953 | 328 | 23 | ||
| 2025-12-14T23:32 | 794 | 908 | 332 | 24 | ||
| 2025-12-14T23:33 | 960 | 889 | -5.0 | -5.3 | ||
| 2025-12-14T23:33 | 1111 | 872 | -5.8 | -6.6 | ||
| 2025-12-14T23:33 | 1160 | 867 | 339 | 26 | ||
| 2025-12-14T23:33 | 1184 | 864 | -6.6 | -8.4 | ||
| 2025-12-14T23:34 | 1457 | 834 | -8.9 | -10.1 | ||
| 2025-12-14T23:34 | 1514 | 828 | 340 | 27 | ||
| 2025-12-14T23:35 | 1651 | 814 | -9.7 | -11.2 | ||
| 2025-12-14T23:35 | 1773 | 801 | -10.2 | -11.2 | ||
| 2025-12-14T23:35 | 1863 | 792 | 336 | 25 | ||
| 2025-12-14T23:36 | 2220 | 756 | -13.4 | -15.2 | ||
| 2025-12-14T23:36 | 2232 | 754 | 340 | 26 | ||
| 2025-12-14T23:37 | 2483 | 730 | -15.0 | -16.5 | ||
| 2025-12-14T23:37 | 2597 | 719 | 340 | 28 | ||
| 2025-12-14T23:38 | 2720 | 707 | -16.0 | -17.5 | ||
| 2025-12-14T23:38 | 2901 | 691 | -16.6 | -18.4 | ||
| 2025-12-14T23:38 | 2939 | 687 | 343 | 27 | ||
| 2025-12-14T23:39 | 3254 | 659 | -19.0 | -20.5 | ||
| 2025-12-14T23:39 | 3265 | 658 | 355 | 26 | ||
| 2025-12-14T23:40 | 3595 | 629 | 347 | 26 | ||
| 2025-12-14T23:41 | 3926 | 601 | 339 | 29 | ||
| 2025-12-14T23:42 | 4079 | 589 | -24.2 | -26.9 | 341 | 30 |
| 2025-12-14T23:42 | 4173 | 581 | 339 | 28 | ||
| 2025-12-14T23:42 | 4194 | 580 | -24.2 | -27.4 | ||
| 2025-12-14T23:43 | 4391 | 564 | -24.5 | -28.7 | ||
| 2025-12-14T23:43 | 4484 | 557 | 339 | 21 | ||
| 2025-12-14T23:43 | 4597 | 548 | -25.8 | -31.3 | ||
| 2025-12-14T23:44 | 4818 | 532 | 338 | 21 | ||
| 2025-12-14T23:45 | 5015 | 517 | -29.2 | -35.0 | ||
| 2025-12-14T23:45 | 5078 | 513 | -29.2 | -36.4 | ||
| 2025-12-14T23:45 | 5090 | 512 | 338 | 20 | ||
| 2025-12-14T23:45 | 5101 | 511 | -28.8 | -36.6 | ||
| 2025-12-14T23:45 | 5182 | 506 | 334 | 18 | ||
| 2025-12-14T23:45 | 5212 | 503 | -29.5 | -37.2 | ||
| 2025-12-14T23:45 | 5279 | 499 | 329 | 18 | ||
| 2025-12-14T23:45 | 5310 | 497 | -30.2 | -37.7 | ||
| 2025-12-14T23:46 | 5396 | 491 | 323 | 15 | ||
| 2025-12-14T23:46 | 5427 | 488 | -30.8 | -38.2 | ||
| 2025-12-14T23:46 | 5485 | 485 | -31.2 | -38.4 | ||
| 2025-12-14T23:46 | 5537 | 481 | -30.9 | -38.5 | ||
| 2025-12-14T23:47 | 5793 | 464 | 305 | 17 | ||
| 2025-12-14T23:47 | 5979 | 452 | -34.9 | -40.4 | ||
| 2025-12-14T23:48 | 6189 | 438 | 301 | 16 | ||
| 2025-12-14T23:48 | 6334 | 429 | 303 | 18 | ||
| 2025-12-14T23:49 | 6533 | 417 | -40.0 | -43.6 | ||
| 2025-12-14T23:49 | 6540 | 416 | -40.0 | -43.6 | ||
| 2025-12-14T23:49 | 6763 | 403 | 301 | 17 | ||
| 2025-12-14T23:50 | 7027 | 388 | -43.8 | |||
| 2025-12-14T23:50 | 7041 | 387 | 296 | 16 | ||
| 2025-12-14T23:50 | 7295 | 372 | -45.8 | |||
| 2025-12-14T23:50 | 7322 | 371 | 282 | 13 | ||
| 2025-12-14T23:51 | 7427 | 365 | -46.7 | |||
| 2025-12-14T23:51 | 7474 | 363 | 296 | 13 | ||
| 2025-12-14T23:51 | 7493 | 361 | -46.3 | |||
| 2025-12-14T23:51 | 7664 | 352 | -46.3 | |||
| 2025-12-14T23:51 | 7722 | 349 | 315 | 8 | ||
| 2025-12-14T23:52 | 7904 | 340 | -47.0 | |||
| 2025-12-14T23:52 | 7969 | 337 | 333 | 4 | ||
| 2025-12-14T23:52 | 7989 | 336 | -47.2 | |||
| 2025-12-14T23:52 | 8028 | 334 | 285 | 1 | ||
| 2025-12-14T23:52 | 8048 | 333 | -47.3 | |||
| 2025-12-14T23:53 | 8449 | 313 | 91 | 1 | ||
| 2025-12-14T23:53 | 8503 | 310 | -51.6 | |||
| 2025-12-14T23:54 | 8616 | 305 | -51.7 | |||
| 2025-12-14T23:54 | 8665 | 303 | 275 | 4 | ||
| 2025-12-14T23:54 | 8709 | 301 | -49.9 | |||
| 2025-12-14T23:54 | 8805 | 296 | 267 | 11 | ||
| 2025-12-14T23:54 | 8901 | 292 | -50.9 | |||
| 2025-12-14T23:55 | 8953 | 289 | 264 | 13 | ||
| 2025-12-14T23:55 | 9032 | 286 | -48.4 | |||
| 2025-12-14T23:55 | 9264 | 276 | 263 | 11 | ||
| 2025-12-14T23:56 | 9319 | 274 | -48.3 | |||
| 2025-12-14T23:56 | 9426 | 269 | -47.7 | |||
| 2025-12-14T23:56 | 9451 | 268 | 244 | 16 | ||
| 2025-12-14T23:57 | 9829 | 253 | 250 | 16 | ||
| 2025-12-14T23:57 | 9865 | 252 | -49.8 | |||
| 2025-12-14T23:58 | 10162 | 241 | 255 | 18 | ||
| 2025-12-14T23:58 | 10185 | 240 | -48.2 | |||
| 2025-12-14T23:58 | 10339 | 234 | 258 | 20 | ||
| 2025-12-14T23:59 | 10452 | 230 | -47.7 | |||
| 2025-12-15T00:00 | 10736 | 221 | 255 | 18 | ||
| 2025-12-15T00:01 | 11147 | 207 | 253 | 22 | ||
| 2025-12-15T00:02 | 11482 | 197 | 258 | 22 | ||
| 2025-12-15T00:02 | 11757 | 189 | 256 | 23 | ||
| 2025-12-15T00:03 | 12113 | 179 | -48.4 | 243 | 22 | |
| 2025-12-15T00:04 | 12313 | 174 | 247 | 25 | ||
| 2025-12-15T00:04 | 12466 | 170 | -49.2 | |||
| 2025-12-15T00:05 | 12622 | 166 | 257 | 23 | ||
| 2025-12-15T00:06 | 12876 | 160 | -50.0 | |||
| 2025-12-15T00:06 | 12948 | 158 | 259 | 25 | ||
| 2025-12-15T00:06 | 13112 | 154 | -49.2 | |||
| 2025-12-15T00:07 | 13292 | 150 | 248 | 21 | ||
| 2025-12-15T00:08 | 13633 | 142 | 258 | 26 | ||
| 2025-12-15T00:08 | 13660 | 141 | -51.5 | |||
| 2025-12-15T00:09 | 13931 | 136 | 255 | 25 | ||
| 2025-12-15T00:09 | 14078 | 133 | 251 | 25 | ||
| 2025-12-15T00:09 | 14108 | 132 | -52.6 | |||
| 2025-12-15T00:10 | 14375 | 127 | 251 | 28 | ||
| 2025-12-15T00:11 | 14542 | 123 | -51.5 | |||
| 2025-12-15T00:11 | 14611 | 122 | 249 | 27 | ||
| 2025-12-15T00:11 | 14643 | 122 | -51.2 | |||
| 2025-12-15T00:12 | 14794 | 119 | 248 | 28 | ||
| 2025-12-15T00:12 | 14916 | 117 | -50.9 | |||
| 2025-12-15T00:12 | 15044 | 114 | 243 | 35 | ||
| 2025-12-15T00:13 | 15143 | 113 | -50.6 | |||
| 2025-12-15T00:13 | 15354 | 109 | -49.1 | |||
| 2025-12-15T00:13 | 15389 | 108 | 248 | 34 | ||
| 2025-12-15T00:14 | 15771 | 102 | 241 | 31 | ||
| 2025-12-15T00:15 | 16074 | 98 | 237 | 28 | ||
| 2025-12-15T00:16 | 16275 | 95 | -48.5 | |||
| 2025-12-15T00:16 | 16317 | 94 | 228 | 25 | ||
| 2025-12-15T00:16 | 16387 | 93 | -48.0 | |||
| 2025-12-15T00:17 | 16654 | 89 | 222 | 24 | ||
| 2025-12-15T00:17 | 16766 | 88 | -47.7 | |||
| 2025-12-15T00:18 | 16916 | 86 | 227 | 24 | ||
| 2025-12-15T00:18 | 17102 | 84 | -48.0 | |||
| 2025-12-15T00:19 | 17407 | 80 | 205 | 24 | ||
| 2025-12-15T00:19 | 17644 | 77 | 204 | 25 | ||
| 2025-12-15T00:19 | 17709 | 76 | -52.6 | |||
| 2025-12-15T00:20 | 17872 | 74 | 223 | 25 | ||
| 2025-12-15T00:21 | 18186 | 71 | 244 | 24 | ||
| 2025-12-15T00:21 | 18288 | 70 | -50.9 | |||
| 2025-12-15T00:21 | 18327 | 69 | 253 | 22 | ||
| 2025-12-15T00:21 | 18372 | 69 | -49.2 | |||
| 2025-12-15T00:22 | 18616 | 66 | 232 | 15 | ||
| 2025-12-15T00:23 | 18969 | 63 | 222 | 20 | ||
| 2025-12-15T00:24 | 19223 | 60 | -52.6 | |||
| 2025-12-15T00:24 | 19406 | 59 | -53.1 | |||
| 2025-12-15T00:24 | 19430 | 58 | 219 | 20 | ||
| 2025-12-15T00:25 | 19678 | 56 | -52.0 | |||
| 2025-12-15T00:25 | 19901 | 54 | 201 | 21 | ||
| 2025-12-15T00:26 | 20300 | 51 | 203 | 18 | ||
| 2025-12-15T00:26 | 20325 | 51 | -55.6 | |||
| 2025-12-15T00:27 | 20670 | 48 | 217 | 21 | ||
| 2025-12-15T00:27 | 20767 | 47 | -55.4 | |||
| 2025-12-15T00:28 | 21039 | 45 | 226 | 20 | ||
| 2025-12-15T00:28 | 21154 | 45 | -53.5 | |||
| 2025-12-15T00:29 | 21431 | 43 | 228 | 13 | ||
| 2025-12-15T00:30 | 21678 | 41 | 205 | 13 | ||
| 2025-12-15T00:30 | 21880 | 40 | 209 | 12 | ||
| 2025-12-15T00:30 | 21948 | 39 | -55.7 | |||
| 2025-12-15T00:31 | 22078 | 39 | 218 | 12 | ||
| 2025-12-15T00:31 | 22246 | 38 | 220 | 11 | ||
| 2025-12-15T00:32 | 22472 | 36 | 178 | 7 | ||
| 2025-12-15T00:32 | 22492 | 36 | -52.4 | |||
| 2025-12-15T00:32 | 22710 | 35 | 185 | 8 | ||
| 2025-12-15T00:33 | 22836 | 34 | -53.1 | |||
| 2025-12-15T00:33 | 23031 | 33 | 261 | 5 | ||
| 2025-12-15T00:33 | 23127 | 33 | 256 | 4 | ||
| 2025-12-15T00:34 | 23230 | 32 | 173 | 3 | ||
| 2025-12-15T00:34 | 23370 | 32 | -53.5 | |||
| 2025-12-15T00:34 | 23532 | 31 | 203 | 3 | ||
| 2025-12-15T00:35 | 23639 | 30 | 229 | 5 | ||
| 2025-12-15T00:35 | 23785 | 30 | -55.5 | |||
| 2025-12-15T00:35 | 23854 | 29 | 224 | 4 | ||
| 2025-12-15T00:35 | 23896 | 29 | -53.7 | |||
| 2025-12-15T00:36 | 24008 | 29 | 138 | 5 | ||
| 2025-12-15T00:36 | 24305 | 27 | 127 | 11 | ||
| 2025-12-15T00:37 | 24478 | 27 | -55.5 | 149 | 12 | |
| 2025-12-15T11:30 | 18 | 1012 | 0.2 | -6.2 | 290 | 5 |
| 2025-12-15T11:30 | 23 | 1011 | 0.3 | -7.2 | 290 | 1 |
| 2025-12-15T11:30 | 119 | 999 | 305 | 5 | ||
| 2025-12-15T11:31 | 289 | 978 | 289 | 5 | ||
| 2025-12-15T11:31 | 473 | 956 | 310 | 13 | ||
| 2025-12-15T11:32 | 672 | 932 | -5.6 | -9.3 | ||
| 2025-12-15T11:32 | 832 | 913 | 312 | 15 | ||
| 2025-12-15T11:33 | 1061 | 887 | -8.9 | -11.4 | ||
| 2025-12-15T11:33 | 1224 | 868 | 317 | 18 | ||
| 2025-12-15T11:34 | 1508 | 836 | -12.8 | -13.4 | ||
| 2025-12-15T11:34 | 1589 | 827 | 320 | 17 | ||
| 2025-12-15T11:35 | 1690 | 816 | -13.7 | -15.3 | ||
| 2025-12-15T11:35 | 1732 | 812 | -14.0 | -21.3 | ||
| 2025-12-15T11:35 | 1932 | 791 | -14.3 | -21.6 | ||
| 2025-12-15T11:35 | 1944 | 789 | 323 | 20 | ||
| 2025-12-15T11:36 | 2186 | 765 | -14.9 | -27.0 | ||
| 2025-12-15T11:36 | 2320 | 751 | 314 | 21 | ||
| 2025-12-15T11:37 | 2422 | 741 | -16.6 | -27.9 | ||
| 2025-12-15T11:37 | 2564 | 727 | -17.5 | -27.3 | ||
| 2025-12-15T11:37 | 2641 | 720 | -16.9 | -27.9 | ||
| 2025-12-15T11:37 | 2680 | 716 | 310 | 21 | ||
| 2025-12-15T11:37 | 2726 | 712 | -15.1 | -33.1 | ||
| 2025-12-15T11:37 | 2807 | 704 | -15.0 | -35.3 | ||
| 2025-12-15T11:38 | 2906 | 695 | -15.3 | -38.4 | ||
| 2025-12-15T11:38 | 3096 | 678 | -16.0 | -39.8 | ||
| 2025-12-15T11:38 | 3103 | 677 | 302 | 23 | ||
| 2025-12-15T11:39 | 3523 | 640 | -19.0 | -39.2 | ||
| 2025-12-15T11:39 | 3560 | 637 | 296 | 24 | ||
| 2025-12-15T11:40 | 3733 | 622 | -20.3 | -45.1 | ||
| 2025-12-15T11:40 | 3801 | 616 | -20.7 | -36.5 | ||
| 2025-12-15T11:40 | 3874 | 610 | -21.2 | -30.5 | ||
| 2025-12-15T11:40 | 3970 | 602 | 296 | 24 | ||
| 2025-12-15T11:40 | 4027 | 598 | -21.7 | -32.5 | ||
| 2025-12-15T11:41 | 4334 | 573 | 296 | 27 | ||
| 2025-12-15T11:41 | 4374 | 570 | -22.7 | -34.9 | ||
| 2025-12-15T11:42 | 4582 | 554 | 296 | 26 | ||
| 2025-12-15T11:43 | 4943 | 527 | 293 | 27 | ||
| 2025-12-15T11:44 | 5212 | 508 | -26.7 | -39.1 | ||
| 2025-12-15T11:44 | 5321 | 501 | 295 | 27 | ||
| 2025-12-15T11:45 | 5756 | 471 | 292 | 28 | ||
| 2025-12-15T11:45 | 5980 | 456 | -32.3 | -43.2 | ||
| 2025-12-15T11:46 | 6220 | 441 | 294 | 26 | ||
| 2025-12-15T11:47 | 6683 | 413 | 290 | 29 | ||
| 2025-12-15T11:48 | 6981 | 395 | -40.0 | -48.2 | 291 | 30 |
| 2025-12-15T11:49 | 7414 | 371 | 291 | 31 | ||
| 2025-12-15T11:49 | 7675 | 356 | 289 | 33 | ||
| 2025-12-15T11:50 | 7784 | 351 | 294 | 33 | ||
| 2025-12-15T11:50 | 8092 | 335 | 286 | 30 | ||
| 2025-12-15T11:51 | 8250 | 327 | 286 | 30 | ||
| 2025-12-15T11:51 | 8336 | 322 | -50.2 | |||
| 2025-12-15T11:52 | 8663 | 306 | 288 | 28 | ||
| 2025-12-15T11:52 | 8756 | 302 | -53.0 | |||
| 2025-12-15T11:52 | 8910 | 295 | 290 | 28 | ||
| 2025-12-15T11:53 | 9315 | 277 | 281 | 26 | ||
| 2025-12-15T11:54 | 9535 | 267 | -56.3 | |||
| 2025-12-15T11:54 | 9654 | 262 | 279 | 27 | ||
| 2025-12-15T11:54 | 9822 | 256 | 286 | 26 | ||
| 2025-12-15T11:54 | 9842 | 255 | -56.6 | |||
| 2025-12-15T11:55 | 9971 | 250 | -53.9 | |||
| 2025-12-15T11:55 | 10011 | 248 | 277 | 24 | ||
| 2025-12-15T11:55 | 10076 | 246 | -51.0 | |||
| 2025-12-15T11:56 | 10373 | 235 | -51.8 | |||
| 2025-12-15T11:56 | 10384 | 234 | 270 | 25 | ||
| 2025-12-15T11:56 | 10549 | 228 | -51.8 | |||
| 2025-12-15T11:57 | 10714 | 223 | 278 | 27 | ||
| 2025-12-15T11:57 | 10895 | 216 | -52.5 | |||
| 2025-12-15T11:58 | 11060 | 211 | 270 | 22 | ||
| 2025-12-15T11:58 | 11152 | 208 | -50.2 | |||
| 2025-12-15T11:59 | 11434 | 199 | 270 | 22 | ||
| 2025-12-15T12:00 | 11667 | 192 | 275 | 18 | ||
| 2025-12-15T12:00 | 11760 | 190 | 272 | 16 | ||
| 2025-12-15T12:00 | 11984 | 183 | 267 | 21 | ||
| 2025-12-15T12:01 | 12127 | 179 | -50.8 | |||
| 2025-12-15T12:01 | 12346 | 173 | 259 | 23 | ||
| 2025-12-15T12:02 | 12721 | 163 | 257 | 23 | ||
| 2025-12-15T12:03 | 13052 | 155 | -53.2 | |||
| 2025-12-15T12:03 | 13104 | 154 | 253 | 25 | ||
| 2025-12-15T12:04 | 13309 | 149 | -53.7 | |||
| 2025-12-15T12:04 | 13315 | 149 | 257 | 27 | ||
| 2025-12-15T12:04 | 13520 | 144 | -53.8 | |||
| 2025-12-15T12:05 | 13718 | 140 | 260 | 29 | ||
| 2025-12-15T12:06 | 14088 | 132 | -54.5 | |||
| 2025-12-15T12:06 | 14112 | 132 | 264 | 30 | ||
| 2025-12-15T12:07 | 14394 | 126 | -54.2 | |||
| 2025-12-15T12:07 | 14432 | 125 | 268 | 28 | ||
| 2025-12-15T12:07 | 14515 | 124 | -53.3 | |||
| 2025-12-15T12:08 | 14692 | 120 | 257 | 28 | ||
| 2025-12-15T12:08 | 14721 | 120 | -51.9 | |||
| 2025-12-15T12:08 | 14861 | 117 | 260 | 28 | ||
| 2025-12-15T12:09 | 14934 | 116 | -50.4 | |||
| 2025-12-15T12:09 | 15214 | 111 | 248 | 23 | ||
| 2025-12-15T12:10 | 15631 | 104 | 241 | 24 | ||
| 2025-12-15T12:11 | 15885 | 100 | -53.5 | |||
| 2025-12-15T12:11 | 15903 | 100 | -53.4 | |||
| 2025-12-15T12:11 | 16002 | 98 | 240 | 19 | ||
| 2025-12-15T12:12 | 16202 | 95 | -52.5 | |||
| 2025-12-15T12:12 | 16304 | 94 | 241 | 20 | ||
| 2025-12-15T12:13 | 16597 | 90 | 237 | 25 | ||
| 2025-12-15T12:14 | 16724 | 88 | -51.0 | |||
| 2025-12-15T12:14 | 17019 | 84 | 234 | 21 | ||
| 2025-12-15T12:15 | 17215 | 81 | -52.5 | |||
| 2025-12-15T12:15 | 17403 | 79 | 214 | 21 | ||
| 2025-12-15T12:15 | 17519 | 78 | -54.4 | |||
| 2025-12-15T12:16 | 17803 | 74 | 227 | 26 | ||
| 2025-12-15T12:16 | 17985 | 72 | -55.6 | |||
| 2025-12-15T12:17 | 18058 | 71 | 236 | 24 | ||
| 2025-12-15T12:17 | 18193 | 70 | 236 | 27 | ||
| 2025-12-15T12:17 | 18360 | 68 | 244 | 25 | ||
| 2025-12-15T12:18 | 18642 | 65 | -50.9 | |||
| 2025-12-15T12:18 | 18731 | 64 | 245 | 21 | ||
| 2025-12-15T12:19 | 18866 | 63 | -51.0 | |||
| 2025-12-15T12:19 | 19043 | 61 | -51.0 | |||
| 2025-12-15T12:19 | 19271 | 59 | 237 | 25 | ||
| 2025-12-15T12:20 | 19539 | 57 | 238 | 17 | ||
| 2025-12-15T12:20 | 19669 | 56 | -50.4 | |||
| 2025-12-15T12:20 | 19835 | 54 | 229 | 10 | ||
| 2025-12-15T12:21 | 20152 | 52 | 202 | 15 | ||
| 2025-12-15T12:22 | 20341 | 50 | -54.3 | |||
| 2025-12-15T12:22 | 20446 | 49 | -54.3 | 207 | 13 | |
| 2025-12-15T23:30 | 18 | 1011 | 1.0 | -6.1 | 310 | 2 |
| 2025-12-15T23:30 | 23 | 1011 | 1.5 | -5.6 | 0 | 0 |
| 2025-12-15T23:30 | 31 | 1010 | 2.5 | -5.2 | ||
| 2025-12-15T23:30 | 47 | 1008 | 0.8 | -7.5 | ||
| 2025-12-15T23:30 | 161 | 994 | 260 | 3 | ||
| 2025-12-15T23:31 | 256 | 982 | 278 | 3 | ||
| 2025-12-15T23:31 | 369 | 968 | 312 | 4 | ||
| 2025-12-15T23:31 | 609 | 939 | 287 | 3 | ||
| 2025-12-15T23:32 | 753 | 922 | 284 | 5 | ||
| 2025-12-15T23:32 | 1015 | 892 | 259 | 7 | ||
| 2025-12-15T23:32 | 1030 | 890 | -8.1 | -10.8 | ||
| 2025-12-15T23:33 | 1330 | 856 | -10.8 | -11.7 | ||
| 2025-12-15T23:33 | 1429 | 845 | 270 | 15 | ||
| 2025-12-15T23:34 | 1778 | 807 | -13.9 | -14.8 | ||
| 2025-12-15T23:34 | 1848 | 800 | 268 | 20 | ||
| 2025-12-15T23:35 | 2009 | 783 | -14.5 | -16.5 | ||
| 2025-12-15T23:35 | 2120 | 772 | -14.7 | -17.7 | ||
| 2025-12-15T23:35 | 2249 | 759 | 271 | 31 | ||
| 2025-12-15T23:36 | 2450 | 739 | -16.1 | -20.1 | ||
| 2025-12-15T23:36 | 2627 | 722 | 272 | 34 | ||
| 2025-12-15T23:36 | 2650 | 720 | -17.3 | -20.5 | ||
| 2025-12-15T23:37 | 2855 | 700 | -18.1 | -20.7 | ||
| 2025-12-15T23:37 | 2908 | 695 | 269 | 32 | ||
| 2025-12-15T23:38 | 3132 | 675 | -20.4 | -22.0 | ||
| 2025-12-15T23:38 | 3234 | 665 | 271 | 28 | ||
| 2025-12-15T23:39 | 3546 | 638 | -21.1 | -25.3 | ||
| 2025-12-15T23:39 | 3557 | 637 | 272 | 29 | ||
| 2025-12-15T23:40 | 3821 | 615 | -21.9 | -28.1 | ||
| 2025-12-15T23:40 | 3936 | 605 | 273 | 31 | ||
| 2025-12-15T23:40 | 3950 | 604 | -22.2 | -29.0 | ||
| 2025-12-15T23:41 | 4204 | 583 | -23.5 | -30.6 | ||
| 2025-12-15T23:41 | 4377 | 570 | 270 | 31 | ||
| 2025-12-15T23:42 | 4700 | 545 | -25.5 | -32.5 | ||
| 2025-12-15T23:42 | 4805 | 537 | 268 | 35 | ||
| 2025-12-15T23:42 | 4871 | 532 | -26.8 | -31.4 | ||
| 2025-12-15T23:43 | 5044 | 520 | -27.9 | -33.3 | ||
| 2025-12-15T23:43 | 5230 | 506 | 268 | 35 | ||
| 2025-12-15T23:43 | 5257 | 504 | -29.3 | -36.1 | ||
| 2025-12-15T23:43 | 5343 | 498 | -29.9 | -37.6 | ||
| 2025-12-15T23:44 | 5389 | 495 | -30.0 | -38.1 | ||
| 2025-12-15T23:44 | 5453 | 491 | -29.9 | -43.7 | ||
| 2025-12-15T23:44 | 5616 | 479 | 268 | 33 | ||
| 2025-12-15T23:44 | 5745 | 471 | -32.0 | -42.6 | ||
| 2025-12-15T23:45 | 5976 | 455 | 267 | 34 | ||
| 2025-12-15T23:45 | 6022 | 452 | -34.1 | -45.7 | ||
| 2025-12-15T23:46 | 6322 | 433 | 269 | 34 | ||
| 2025-12-15T23:47 | 6506 | 422 | 267 | 31 | ||
| 2025-12-15T23:47 | 6774 | 406 | -39.1 | -52.8 | ||
| 2025-12-15T23:48 | 6884 | 400 | -40.0 | -52.5 | 269 | 33 |
| 2025-12-15T23:48 | 7172 | 383 | 270 | 35 | ||
| 2025-12-15T23:49 | 7351 | 373 | -43.4 | |||
| 2025-12-15T23:49 | 7365 | 372 | 270 | 35 | ||
| 2025-12-15T23:49 | 7566 | 361 | -44.6 | |||
| 2025-12-15T23:50 | 7713 | 353 | -45.5 | |||
| 2025-12-15T23:50 | 7720 | 353 | 271 | 35 | ||
| 2025-12-15T23:51 | 8129 | 332 | 271 | 35 | ||
| 2025-12-15T23:51 | 8295 | 324 | -49.6 | |||
| 2025-12-15T23:52 | 8541 | 312 | 274 | 36 | ||
| 2025-12-15T23:53 | 8939 | 293 | 274 | 36 | ||
| 2025-12-15T23:53 | 9113 | 285 | -54.8 | |||
| 2025-12-15T23:54 | 9335 | 275 | 270 | 35 | ||
| 2025-12-15T23:54 | 9547 | 266 | 271 | 35 | ||
| 2025-12-15T23:54 | 9636 | 263 | -55.8 | |||
| 2025-12-15T23:54 | 9675 | 261 | 267 | 33 | ||
| 2025-12-15T23:55 | 9745 | 258 | -55.3 | |||
| 2025-12-15T23:55 | 9919 | 251 | -55.3 | |||
| 2025-12-15T23:55 | 9926 | 251 | 268 | 33 | ||
| 2025-12-15T23:55 | 10056 | 246 | -54.3 | |||
| 2025-12-15T23:55 | 10112 | 244 | 263 | 33 | ||
| 2025-12-15T23:56 | 10310 | 236 | -53.1 | |||
| 2025-12-15T23:56 | 10498 | 230 | 264 | 33 | ||
| 2025-12-15T23:57 | 10645 | 224 | -51.2 | |||
| 2025-12-15T23:57 | 10843 | 218 | 264 | 34 | ||
| 2025-12-15T23:58 | 11140 | 208 | -49.8 | |||
| 2025-12-15T23:58 | 11215 | 206 | 264 | 33 | ||
| 2025-12-15T23:59 | 11535 | 196 | 265 | 30 | ||
| 2025-12-16T00:00 | 11776 | 189 | -51.7 | |||
| 2025-12-16T00:00 | 11940 | 184 | -52.3 | |||
| 2025-12-16T00:00 | 11954 | 184 | 269 | 33 | ||
| 2025-12-16T00:01 | 12180 | 177 | -51.5 | |||
| 2025-12-16T00:01 | 12392 | 172 | 271 | 27 | ||
| 2025-12-16T00:02 | 12611 | 166 | 269 | 27 | ||
| 2025-12-16T00:02 | 12854 | 160 | -52.8 | |||
| 2025-12-16T00:03 | 12998 | 156 | 249 | 27 | ||
| 2025-12-16T00:03 | 13201 | 151 | 259 | 32 | ||
| 2025-12-16T00:04 | 13552 | 143 | 255 | 28 | ||
| 2025-12-16T00:05 | 13643 | 141 | -52.3 | |||
| 2025-12-16T00:05 | 13898 | 136 | 254 | 31 | ||
| 2025-12-16T00:06 | 14265 | 128 | 253 | 28 | ||
| 2025-12-16T00:07 | 14417 | 125 | -53.8 | |||
| 2025-12-16T00:07 | 14645 | 121 | 264 | 31 | ||
| 2025-12-16T00:08 | 14899 | 116 | -54.5 | |||
| 2025-12-16T00:08 | 15011 | 114 | 258 | 29 | ||
| 2025-12-16T00:09 | 15146 | 112 | -53.8 | |||
| 2025-12-16T00:09 | 15371 | 108 | 251 | 29 | ||
| 2025-12-16T00:09 | 15377 | 108 | -52.4 | |||
| 2025-12-16T00:10 | 15553 | 105 | -51.5 | |||
| 2025-12-16T00:10 | 15779 | 101 | 251 | 28 | ||
| 2025-12-16T00:11 | 16144 | 96 | -53.0 | 255 | 28 | |
| 2025-12-16T00:12 | 16384 | 92 | 253 | 29 | ||
| 2025-12-16T00:12 | 16523 | 90 | -52.1 | |||
| 2025-12-16T00:12 | 16585 | 90 | 264 | 29 | ||
| 2025-12-16T00:13 | 16931 | 85 | -51.3 | 265 | 23 | |
| 2025-12-16T00:14 | 17182 | 82 | -48.9 | |||
| 2025-12-16T00:14 | 17287 | 80 | 255 | 20 | ||
| 2025-12-16T00:15 | 17520 | 78 | -49.1 | |||
| 2025-12-16T00:15 | 17632 | 76 | 226 | 16 | ||
| 2025-12-16T00:16 | 17840 | 74 | -50.4 | |||
| 2025-12-16T00:16 | 17953 | 73 | 235 | 14 | ||
| 2025-12-16T00:17 | 18248 | 69 | 204 | 12 | ||
| 2025-12-16T00:17 | 18351 | 68 | -53.0 | |||
| 2025-12-16T00:18 | 18541 | 66 | -53.4 | |||
| 2025-12-16T00:18 | 18591 | 66 | 218 | 17 | ||
| 2025-12-16T00:19 | 18985 | 62 | -55.7 | |||
| 2025-12-16T00:19 | 19034 | 61 | 225 | 24 | ||
| 2025-12-16T00:19 | 19271 | 59 | -54.5 | |||
| 2025-12-16T00:19 | 19334 | 59 | 243 | 17 | ||
| 2025-12-16T00:20 | 19743 | 55 | 240 | 22 | ||
| 2025-12-16T00:21 | 19826 | 54 | -51.3 | |||
| 2025-12-16T00:21 | 20072 | 52 | 245 | 22 | ||
| 2025-12-16T00:21 | 20123 | 52 | -50.3 | |||
| 2025-12-16T00:22 | 20347 | 50 | -51.1 | |||
| 2025-12-16T00:22 | 20376 | 50 | 248 | 22 | ||
| 2025-12-16T00:23 | 20525 | 49 | 246 | 13 | ||
| 2025-12-16T00:23 | 20673 | 48 | -50.7 | |||
| 2025-12-16T00:24 | 20980 | 45 | 207 | 7 | ||
| 2025-12-16T00:24 | 21184 | 44 | 187 | 8 | ||
| 2025-12-16T00:24 | 21343 | 43 | 215 | 7 | ||
| 2025-12-16T00:25 | 21618 | 41 | 209 | 8 | ||
| 2025-12-16T00:25 | 21664 | 41 | -56.2 | |||
| 2025-12-16T00:26 | 21886 | 39 | -53.3 | |||
| 2025-12-16T00:26 | 22000 | 39 | -52.0 | |||
| 2025-12-16T00:26 | 22016 | 39 | 215 | 11 | ||
| 2025-12-16T00:27 | 22274 | 37 | 213 | 7 | ||
| 2025-12-16T00:27 | 22390 | 36 | -52.9 | 215 | 3 | |
| 2025-12-16T11:30 | 18 | 1013 | -3.3 | -10.2 | 320 | 3 |
| 2025-12-16T11:30 | 24 | 1012 | -3.3 | -10.8 | 0 | 0 |
| 2025-12-16T11:30 | 144 | 997 | -4.1 | -11.4 | ||
| 2025-12-16T11:31 | 398 | 965 | 307 | 5 | ||
| 2025-12-16T11:31 | 554 | 946 | 297 | 5 | ||
| 2025-12-16T11:32 | 904 | 904 | 280 | 6 | ||
| 2025-12-16T11:33 | 987 | 894 | -12.3 | -14.9 | ||
| 2025-12-16T11:33 | 1204 | 869 | 275 | 9 | ||
| 2025-12-16T11:34 | 1341 | 854 | 279 | 9 | ||
| 2025-12-16T11:34 | 1594 | 825 | 263 | 11 | ||
| 2025-12-16T11:35 | 1693 | 815 | -18.0 | -19.2 | ||
| 2025-12-16T11:35 | 1877 | 795 | 267 | 15 | ||
| 2025-12-16T11:36 | 2065 | 775 | -21.1 | -22.8 | ||
| 2025-12-16T11:36 | 2126 | 768 | -21.2 | -24.9 | ||
| 2025-12-16T11:36 | 2137 | 767 | 277 | 18 | ||
| 2025-12-16T11:36 | 2201 | 761 | -21.1 | -33.5 | ||
| 2025-12-16T11:37 | 2313 | 749 | -21.0 | -41.5 | ||
| 2025-12-16T11:37 | 2334 | 747 | 289 | 23 | ||
| 2025-12-16T11:37 | 2377 | 743 | -19.2 | -44.2 | ||
| 2025-12-16T11:37 | 2558 | 725 | -19.4 | -49.6 | ||
| 2025-12-16T11:38 | 2602 | 720 | -18.8 | -49.2 | ||
| 2025-12-16T11:38 | 2632 | 718 | 280 | 26 | ||
| 2025-12-16T11:38 | 2745 | 707 | -19.2 | -51.4 | ||
| 2025-12-16T11:38 | 2821 | 700 | -18.7 | -49.1 | ||
| 2025-12-16T11:39 | 2957 | 687 | 276 | 30 | ||
| 2025-12-16T11:39 | 3164 | 668 | -19.5 | -57.4 | ||
| 2025-12-16T11:40 | 3320 | 654 | 274 | 30 | ||
| 2025-12-16T11:40 | 3662 | 625 | -21.7 | -58.9 | ||
| 2025-12-16T11:41 | 3716 | 620 | 273 | 33 | ||
| 2025-12-16T11:41 | 3883 | 606 | -22.3 | -64.6 | ||
| 2025-12-16T11:42 | 4106 | 588 | 269 | 37 | ||
| 2025-12-16T11:42 | 4327 | 570 | -24.4 | -55.3 | ||
| 2025-12-16T11:43 | 4460 | 560 | 271 | 36 | ||
| 2025-12-16T11:43 | 4619 | 548 | -25.9 | -54.5 | ||
| 2025-12-16T11:44 | 4816 | 533 | 269 | 37 | ||
| 2025-12-16T11:44 | 4938 | 524 | -27.6 | -50.9 | ||
| 2025-12-16T11:44 | 5071 | 515 | -28.8 | -47.4 | ||
| 2025-12-16T11:45 | 5185 | 507 | 272 | 38 | ||
| 2025-12-16T11:45 | 5230 | 503 | -29.7 | -44.2 | ||
| 2025-12-16T11:46 | 5574 | 479 | 268 | 40 | ||
| 2025-12-16T11:46 | 5757 | 467 | -33.1 | -44.5 | ||
| 2025-12-16T11:47 | 5948 | 455 | 270 | 42 | ||
| 2025-12-16T11:47 | 6003 | 451 | -34.3 | -46.5 | ||
| 2025-12-16T11:48 | 6303 | 432 | 269 | 41 | ||
| 2025-12-16T11:48 | 6513 | 419 | -38.3 | -47.6 | ||
| 2025-12-16T11:49 | 6656 | 410 | 269 | 43 | ||
| 2025-12-16T11:49 | 6721 | 407 | -40.0 | -47.6 | ||
| 2025-12-16T11:50 | 7031 | 388 | 269 | 44 | ||
| 2025-12-16T11:50 | 7193 | 379 | -43.3 | |||
| 2025-12-16T11:50 | 7304 | 373 | 265 | 44 | ||
| 2025-12-16T11:51 | 7647 | 354 | 268 | 45 | ||
| 2025-12-16T11:52 | 7836 | 344 | 267 | 48 | ||
| 2025-12-16T11:52 | 7871 | 342 | -47.4 | |||
| 2025-12-16T11:53 | 8175 | 327 | 266 | 47 | ||
| 2025-12-16T11:53 | 8387 | 317 | -50.0 | |||
| 2025-12-16T11:54 | 8498 | 311 | 266 | 47 | ||
| 2025-12-16T11:54 | 8665 | 303 | -51.2 | |||
| 2025-12-16T11:55 | 8820 | 296 | 265 | 49 | ||
| 2025-12-16T11:55 | 8832 | 296 | -51.8 | |||
| 2025-12-16T11:55 | 9131 | 282 | 269 | 47 | ||
| 2025-12-16T11:56 | 9254 | 277 | -53.7 | |||
| 2025-12-16T11:56 | 9337 | 273 | 265 | 43 | ||
| 2025-12-16T11:56 | 9407 | 270 | -53.1 | |||
| 2025-12-16T11:56 | 9504 | 266 | -52.8 | |||
| 2025-12-16T11:57 | 9652 | 260 | 271 | 45 | ||
| 2025-12-16T11:58 | 9868 | 252 | -53.7 | |||
| 2025-12-16T11:58 | 9962 | 248 | 266 | 43 | ||
| 2025-12-16T11:58 | 10000 | 247 | -52.9 | |||
| 2025-12-16T11:59 | 10232 | 238 | 269 | 40 | ||
| 2025-12-16T12:00 | 10512 | 228 | 266 | 38 | ||
| 2025-12-16T12:00 | 10527 | 227 | -48.4 | |||
| 2025-12-16T12:01 | 10730 | 221 | -48.4 | |||
| 2025-12-16T12:01 | 10766 | 219 | 261 | 39 | ||
| 2025-12-16T12:01 | 10893 | 215 | 264 | 38 | ||
| 2025-12-16T12:02 | 11122 | 208 | -47.7 | |||
| 2025-12-16T12:02 | 11293 | 203 | 263 | 37 | ||
| 2025-12-16T12:03 | 11700 | 190 | 264 | 37 | ||
| 2025-12-16T12:03 | 11778 | 188 | -48.7 | |||
| 2025-12-16T12:03 | 11863 | 186 | 268 | 41 | ||
| 2025-12-16T12:04 | 12189 | 177 | 265 | 40 | ||
| 2025-12-16T12:05 | 12413 | 171 | -48.4 | |||
| 2025-12-16T12:05 | 12532 | 168 | 263 | 36 | ||
| 2025-12-16T12:06 | 12752 | 162 | 263 | 34 | ||
| 2025-12-16T12:07 | 13151 | 153 | 256 | 35 | ||
| 2025-12-16T12:08 | 13580 | 143 | 255 | 35 | ||
| 2025-12-16T12:08 | 13594 | 143 | -52.5 | |||
| 2025-12-16T12:08 | 13770 | 139 | -53.4 | |||
| 2025-12-16T12:09 | 14012 | 134 | 257 | 38 | ||
| 2025-12-16T12:09 | 14188 | 130 | -54.8 | |||
| 2025-12-16T12:10 | 14377 | 126 | 264 | 40 | ||
| 2025-12-16T12:11 | 14552 | 123 | -54.3 | |||
| 2025-12-16T12:11 | 14684 | 120 | 266 | 35 | ||
| 2025-12-16T12:12 | 14937 | 116 | 253 | 31 | ||
| 2025-12-16T12:12 | 15021 | 114 | -52.8 | |||
| 2025-12-16T12:12 | 15064 | 113 | 244 | 28 | ||
| 2025-12-16T12:13 | 15294 | 109 | -52.3 | |||
| 2025-12-16T12:13 | 15360 | 108 | 240 | 32 | ||
| 2025-12-16T12:13 | 15430 | 107 | -52.5 | |||
| 2025-12-16T12:14 | 15827 | 101 | 249 | 34 | ||
| 2025-12-16T12:14 | 16034 | 98 | -55.0 | |||
| 2025-12-16T12:14 | 16057 | 97 | 257 | 32 | ||
| 2025-12-16T12:15 | 16294 | 94 | 255 | 26 | ||
| 2025-12-16T12:15 | 16375 | 92 | -54.0 | |||
| 2025-12-16T12:16 | 16542 | 90 | 257 | 34 | ||
| 2025-12-16T12:16 | 16739 | 87 | -52.0 | |||
| 2025-12-16T12:16 | 16778 | 87 | 255 | 34 | ||
| 2025-12-16T12:17 | 17016 | 84 | 260 | 34 | ||
| 2025-12-16T12:17 | 17155 | 82 | -49.6 | |||
| 2025-12-16T12:18 | 17424 | 79 | 264 | 35 | ||
| 2025-12-16T12:19 | 17704 | 75 | -51.5 | |||
| 2025-12-16T12:19 | 17783 | 74 | 264 | 36 | ||
| 2025-12-16T12:20 | 17931 | 73 | -49.7 | |||
| 2025-12-16T12:20 | 18093 | 71 | 265 | 25 | ||
| 2025-12-16T12:20 | 18216 | 70 | -48.0 | |||
| 2025-12-16T12:20 | 18225 | 70 | 263 | 21 | ||
| 2025-12-16T12:21 | 18566 | 66 | -49.2 | |||
| 2025-12-16T12:21 | 18605 | 66 | 244 | 21 | ||
| 2025-12-16T12:22 | 18735 | 64 | 242 | 15 | ||
| 2025-12-16T12:22 | 18850 | 63 | -48.1 | |||
| 2025-12-16T12:22 | 18873 | 63 | 221 | 7 | ||
| 2025-12-16T12:22 | 19091 | 61 | 249 | 8 | ||
| 2025-12-16T12:23 | 19235 | 60 | 217 | 7 | ||
| 2025-12-16T12:23 | 19301 | 59 | 240 | 4 | ||
| 2025-12-16T12:23 | 19368 | 58 | 292 | 4 | ||
| 2025-12-16T12:23 | 19452 | 58 | 268 | 4 | ||
| 2025-12-16T12:23 | 19556 | 57 | 199 | 5 | ||
| 2025-12-16T12:23 | 19568 | 57 | -53.4 | |||
| 2025-12-16T12:24 | 19797 | 55 | 176 | 7 | ||
| 2025-12-16T12:24 | 20051 | 53 | 191 | 11 | ||
| 2025-12-16T12:25 | 20125 | 52 | -56.0 | |||
| 2025-12-16T12:25 | 20447 | 49 | 217 | 22 | ||
| 2025-12-16T12:26 | 20769 | 47 | -52.9 | |||
| 2025-12-16T12:26 | 20825 | 47 | 231 | 26 | ||
| 2025-12-16T12:27 | 21123 | 44 | -50.8 | |||
| 2025-12-16T12:27 | 21258 | 44 | 245 | 23 | ||
| 2025-12-16T12:28 | 21362 | 43 | -49.4 | |||
| 2025-12-16T12:28 | 21485 | 42 | 249 | 21 | ||
| 2025-12-16T12:28 | 21523 | 42 | -47.3 | |||
| 2025-12-16T12:28 | 21741 | 40 | 245 | 5 | ||
| 2025-12-16T12:29 | 22044 | 39 | 174 | 4 | ||
| 2025-12-16T12:30 | 22354 | 37 | 210 | 9 | ||
| 2025-12-16T12:30 | 22553 | 36 | 226 | 8 | ||
| 2025-12-16T12:31 | 22755 | 35 | -52.4 | |||
| 2025-12-16T12:31 | 22774 | 35 | 225 | 10 | ||
| 2025-12-16T12:31 | 22963 | 34 | -51.2 | |||
| 2025-12-16T12:31 | 22983 | 33 | 260 | 8 | ||
| 2025-12-16T12:32 | 23204 | 32 | 291 | 1 | ||
| 2025-12-16T12:32 | 23384 | 31 | -52.0 | |||
| 2025-12-16T12:33 | 23636 | 30 | 231 | 3 | ||
| 2025-12-16T12:34 | 24008 | 29 | 255 | 2 | ||
| 2025-12-16T12:34 | 24095 | 28 | 194 | 4 | ||
| 2025-12-16T12:34 | 24210 | 28 | 184 | 6 | ||
| 2025-12-16T12:34 | 24304 | 27 | -56.2 | |||
| 2025-12-16T12:34 | 24338 | 27 | -55.8 | 218 | 5 | |
| 2025-12-16T23:30 | 18 | 1014 | -3.5 | -8.2 | 60 | 1 |
| 2025-12-16T23:30 | 22 | 1013 | -3.4 | -8.8 | 0 | 0 |
| 2025-12-16T23:31 | 341 | 973 | -6.8 | -10.7 | ||
| 2025-12-16T23:31 | 410 | 964 | 175 | 2 | ||
| 2025-12-16T23:32 | 603 | 941 | -9.4 | -11.9 | ||
| 2025-12-16T23:32 | 717 | 927 | 278 | 2 | ||
| 2025-12-16T23:32 | 854 | 910 | -11.6 | -13.6 | ||
| 2025-12-16T23:32 | 907 | 904 | 273 | 5 | ||
| 2025-12-16T23:33 | 992 | 894 | -12.8 | -14.0 | ||
| 2025-12-16T23:33 | 1002 | 893 | 283 | 5 | ||
| 2025-12-16T23:33 | 1121 | 879 | 253 | 6 | ||
| 2025-12-16T23:33 | 1143 | 876 | -13.8 | -15.9 | ||
| 2025-12-16T23:33 | 1278 | 861 | 276 | 9 | ||
| 2025-12-16T23:34 | 1392 | 848 | -16.0 | -16.9 | ||
| 2025-12-16T23:34 | 1411 | 846 | 253 | 11 | ||
| 2025-12-16T23:34 | 1571 | 828 | 278 | 11 | ||
| 2025-12-16T23:35 | 1736 | 810 | -18.3 | -20.2 | ||
| 2025-12-16T23:35 | 1820 | 801 | 274 | 19 | ||
| 2025-12-16T23:35 | 1867 | 796 | -18.3 | -26.6 | ||
| 2025-12-16T23:35 | 1926 | 790 | -16.7 | -31.7 | ||
| 2025-12-16T23:35 | 1970 | 785 | 283 | 24 | ||
| 2025-12-16T23:35 | 2007 | 781 | -16.0 | -33.8 | ||
| 2025-12-16T23:36 | 2262 | 755 | -17.5 | -35.6 | ||
| 2025-12-16T23:36 | 2312 | 750 | 287 | 25 | ||
| 2025-12-16T23:37 | 2467 | 735 | -17.5 | -50.2 | ||
| 2025-12-16T23:37 | 2645 | 718 | 279 | 26 | ||
| 2025-12-16T23:37 | 2674 | 715 | -17.6 | -46.7 | ||
| 2025-12-16T23:38 | 2821 | 701 | -18.1 | -34.2 | ||
| 2025-12-16T23:38 | 3012 | 683 | 278 | 29 | ||
| 2025-12-16T23:38 | 3132 | 672 | -19.0 | -34.1 | ||
| 2025-12-16T23:39 | 3431 | 646 | 273 | 29 | ||
| 2025-12-16T23:40 | 3710 | 622 | -22.1 | -34.4 | ||
| 2025-12-16T23:40 | 3876 | 608 | 270 | 32 | ||
| 2025-12-16T23:41 | 4320 | 572 | 268 | 33 | ||
| 2025-12-16T23:42 | 4739 | 540 | 265 | 34 | ||
| 2025-12-16T23:42 | 4808 | 534 | -30.0 | -36.7 | ||
| 2025-12-16T23:43 | 5141 | 510 | 265 | 35 | ||
| 2025-12-16T23:43 | 5221 | 504 | -32.2 | -38.4 | ||
| 2025-12-16T23:44 | 5569 | 480 | 266 | 37 | ||
| 2025-12-16T23:44 | 5654 | 474 | -34.7 | -42.3 | ||
| 2025-12-16T23:45 | 6034 | 449 | 262 | 38 | ||
| 2025-12-16T23:45 | 6177 | 440 | -39.0 | -46.1 | ||
| 2025-12-16T23:46 | 6297 | 432 | -40.0 | -46.6 | ||
| 2025-12-16T23:46 | 6416 | 424 | -40.7 | |||
| 2025-12-16T23:46 | 6507 | 419 | 263 | 40 | ||
| 2025-12-16T23:46 | 6611 | 412 | -41.0 | |||
| 2025-12-16T23:47 | 6865 | 397 | -41.7 | |||
| 2025-12-16T23:47 | 6923 | 394 | 261 | 41 | ||
| 2025-12-16T23:48 | 7062 | 386 | -41.7 | |||
| 2025-12-16T23:48 | 7093 | 384 | 265 | 40 | ||
| 2025-12-16T23:48 | 7276 | 374 | 265 | 40 | ||
| 2025-12-16T23:48 | 7306 | 372 | -43.1 | |||
| 2025-12-16T23:49 | 7654 | 353 | 265 | 41 | ||
| 2025-12-16T23:49 | 7674 | 352 | -44.6 | |||
| 2025-12-16T23:50 | 8088 | 331 | 265 | 43 | ||
| 2025-12-16T23:51 | 8388 | 317 | -47.3 | |||
| 2025-12-16T23:51 | 8600 | 306 | 265 | 40 | ||
| 2025-12-16T23:52 | 8933 | 291 | -49.7 | |||
| 2025-12-16T23:52 | 9149 | 282 | 260 | 42 | ||
| 2025-12-16T23:52 | 9187 | 280 | -50.9 | |||
| 2025-12-16T23:53 | 9533 | 266 | -53.5 | |||
| 2025-12-16T23:53 | 9654 | 261 | 268 | 44 | ||
| 2025-12-16T23:53 | 9756 | 257 | -50.6 | |||
| 2025-12-16T23:54 | 9886 | 252 | -50.4 | |||
| 2025-12-16T23:54 | 10010 | 247 | -50.2 | |||
| 2025-12-16T23:54 | 10045 | 245 | 256 | 47 | ||
| 2025-12-16T23:54 | 10109 | 243 | -47.8 | |||
| 2025-12-16T23:54 | 10153 | 241 | 261 | 48 | ||
| 2025-12-16T23:55 | 10232 | 239 | -46.0 | |||
| 2025-12-16T23:55 | 10411 | 232 | -45.7 | |||
| 2025-12-16T23:55 | 10480 | 230 | 261 | 48 | ||
| 2025-12-16T23:56 | 10598 | 226 | -44.4 | |||
| 2025-12-16T23:56 | 10858 | 217 | 265 | 48 | ||
| 2025-12-16T23:57 | 11090 | 210 | -45.5 | |||
| 2025-12-16T23:57 | 11365 | 201 | 264 | 48 | ||
| 2025-12-16T23:58 | 11670 | 192 | 266 | 47 | ||
| 2025-12-16T23:58 | 11766 | 189 | -49.0 | |||
| 2025-12-16T23:59 | 12014 | 182 | 269 | 44 | ||
| 2025-12-16T23:59 | 12034 | 182 | -49.5 | |||
| 2025-12-17T00:00 | 12228 | 177 | 266 | 44 | ||
| 2025-12-17T00:00 | 12274 | 175 | -49.9 | |||
| 2025-12-17T00:00 | 12399 | 172 | 264 | 43 | ||
| 2025-12-17T00:00 | 12488 | 170 | -49.7 | |||
| 2025-12-17T00:01 | 12648 | 166 | 259 | 39 | ||
| 2025-12-17T00:01 | 12697 | 164 | -49.1 | |||
| 2025-12-17T00:02 | 13048 | 156 | 258 | 38 | ||
| 2025-12-17T00:03 | 13460 | 146 | -52.8 | |||
| 2025-12-17T00:03 | 13482 | 146 | 259 | 38 | ||
| 2025-12-17T00:04 | 13891 | 137 | 261 | 39 | ||
| 2025-12-17T00:04 | 13995 | 134 | -55.7 | |||
| 2025-12-17T00:04 | 14097 | 132 | 267 | 37 | ||
| 2025-12-17T00:05 | 14293 | 128 | 258 | 34 | ||
| 2025-12-17T00:05 | 14354 | 127 | -55.8 | |||
| 2025-12-17T00:06 | 14575 | 123 | -56.2 | |||
| 2025-12-17T00:06 | 14582 | 123 | 257 | 40 | ||
| 2025-12-17T00:06 | 14894 | 117 | -57.5 | |||
| 2025-12-17T00:07 | 14983 | 115 | 264 | 32 | ||
| 2025-12-17T00:07 | 15066 | 114 | -57.2 | |||
| 2025-12-17T00:07 | 15136 | 112 | 258 | 29 | ||
| 2025-12-17T00:07 | 15324 | 109 | -57.8 | |||
| 2025-12-17T00:08 | 15561 | 105 | -59.3 | |||
| 2025-12-17T00:08 | 15583 | 105 | 260 | 31 | ||
| 2025-12-17T00:09 | 15851 | 100 | -59.8 | |||
| 2025-12-17T00:09 | 16009 | 98 | 257 | 32 | ||
| 2025-12-17T00:09 | 16063 | 97 | -58.5 | |||
| 2025-12-17T00:10 | 16349 | 93 | 259 | 35 | ||
| 2025-12-17T00:10 | 16523 | 90 | -57.6 | |||
| 2025-12-17T00:11 | 16664 | 88 | 269 | 30 | ||
| 2025-12-17T00:11 | 16676 | 88 | -55.7 | |||
| 2025-12-17T00:12 | 17058 | 83 | 269 | 27 | ||
| 2025-12-17T00:12 | 17341 | 79 | 280 | 21 | ||
| 2025-12-17T00:13 | 17623 | 76 | -54.9 | 257 | 13 | |
| 2025-12-17T00:14 | 17846 | 73 | -54.8 | |||
| 2025-12-17T00:14 | 17932 | 72 | 262 | 17 | ||
| 2025-12-17T00:14 | 18094 | 70 | 270 | 19 | ||
| 2025-12-17T00:15 | 18269 | 69 | 268 | 12 | ||
| 2025-12-17T00:15 | 18374 | 67 | -51.0 | |||
| 2025-12-17T00:15 | 18407 | 67 | 222 | 6 | ||
| 2025-12-17T00:16 | 18574 | 65 | 229 | 7 | ||
| 2025-12-17T00:16 | 18733 | 64 | -52.7 | 221 | 6 | |
| 2025-12-17T00:16 | 18875 | 62 | 197 | 10 | ||
| 2025-12-17T00:17 | 19215 | 59 | -54.5 | |||
| 2025-12-17T00:17 | 19300 | 58 | 227 | 15 | ||
| 2025-12-17T00:18 | 19659 | 55 | 223 | 24 | ||
| 2025-12-17T00:19 | 19894 | 53 | -56.2 | |||
| 2025-12-17T00:19 | 19943 | 53 | 235 | 26 | ||
| 2025-12-17T00:20 | 20116 | 51 | -53.2 | |||
| 2025-12-17T00:20 | 20142 | 51 | 254 | 19 | ||
| 2025-12-17T00:20 | 20438 | 49 | 253 | 16 | ||
| 2025-12-17T00:21 | 20758 | 47 | -55.7 | 251 | 23 | |
| 2025-12-17T00:22 | 20939 | 45 | 256 | 16 | ||
| 2025-12-17T00:22 | 21095 | 44 | -53.8 | |||
| 2025-12-17T00:22 | 21154 | 44 | 258 | 21 | ||
| 2025-12-17T00:22 | 21199 | 43 | -51.0 | |||
| 2025-12-17T00:23 | 21459 | 42 | 244 | 15 | ||
| 2025-12-17T00:23 | 21504 | 41 | -50.1 | 240 | 14 | |
| 2025-12-17T11:30 | 18 | 1013 | -2.4 | -9.5 | 190 | 3 |
| 2025-12-17T11:30 | 22 | 1012 | -2.5 | -10.3 | 0 | 0 |
| 2025-12-17T11:30 | 57 | 1008 | 206 | 3 | ||
| 2025-12-17T11:31 | 406 | 964 | 228 | 3 | ||
| 2025-12-17T11:31 | 480 | 955 | -7.0 | -12.5 | ||
| 2025-12-17T11:32 | 565 | 945 | 235 | 1 | ||
| 2025-12-17T11:33 | 854 | 910 | 287 | 2 | ||
| 2025-12-17T11:33 | 998 | 893 | 265 | 3 | ||
| 2025-12-17T11:34 | 1209 | 869 | 296 | 6 | ||
| 2025-12-17T11:34 | 1323 | 856 | 275 | 6 | ||
| 2025-12-17T11:34 | 1439 | 843 | 287 | 9 | ||
| 2025-12-17T11:35 | 1576 | 828 | -16.3 | -18.9 | ||
| 2025-12-17T11:35 | 1655 | 819 | -16.6 | -21.5 | ||
| 2025-12-17T11:35 | 1703 | 814 | -17.1 | -21.9 | ||
| 2025-12-17T11:35 | 1745 | 809 | 266 | 13 | ||
| 2025-12-17T11:36 | 1831 | 800 | -17.4 | -25.1 | ||
| 2025-12-17T11:36 | 1865 | 796 | -16.2 | -35.1 | ||
| 2025-12-17T11:36 | 1922 | 790 | -16.0 | -44.0 | ||
| 2025-12-17T11:36 | 1973 | 785 | -15.5 | -45.1 | ||
| 2025-12-17T11:36 | 2045 | 778 | 277 | 19 | ||
| 2025-12-17T11:36 | 2051 | 777 | -16.1 | -47.2 | ||
| 2025-12-17T11:37 | 2138 | 768 | -16.4 | -49.4 | ||
| 2025-12-17T11:37 | 2318 | 750 | 278 | 22 | ||
| 2025-12-17T11:37 | 2507 | 731 | -18.7 | -51.1 | ||
| 2025-12-17T11:38 | 2644 | 718 | 278 | 23 | ||
| 2025-12-17T11:38 | 2669 | 715 | -19.3 | -40.8 | ||
| 2025-12-17T11:38 | 2909 | 693 | -20.4 | -37.6 | ||
| 2025-12-17T11:39 | 3100 | 675 | -21.7 | -38.7 | ||
| 2025-12-17T11:39 | 3131 | 672 | 269 | 26 | ||
| 2025-12-17T11:40 | 3471 | 642 | -23.3 | -44.9 | ||
| 2025-12-17T11:40 | 3556 | 634 | 267 | 28 | ||
| 2025-12-17T11:40 | 3718 | 620 | -24.8 | -46.1 | ||
| 2025-12-17T11:41 | 3899 | 605 | -25.5 | -49.2 | ||
| 2025-12-17T11:41 | 3916 | 604 | 263 | 29 | ||
| 2025-12-17T11:41 | 4119 | 587 | 263 | 31 | ||
| 2025-12-17T11:42 | 4255 | 576 | -27.3 | -54.1 | ||
| 2025-12-17T11:42 | 4483 | 558 | 261 | 31 | ||
| 2025-12-17T11:43 | 4778 | 535 | 262 | 31 | ||
| 2025-12-17T11:43 | 4900 | 526 | 263 | 33 | ||
| 2025-12-17T11:44 | 5037 | 516 | -32.7 | -61.4 | ||
| 2025-12-17T11:44 | 5084 | 513 | 261 | 33 | ||
| 2025-12-17T11:44 | 5276 | 499 | -33.4 | -61.9 | ||
| 2025-12-17T11:44 | 5340 | 494 | 262 | 37 | ||
| 2025-12-17T11:45 | 5469 | 485 | -33.0 | -63.8 | ||
| 2025-12-17T11:45 | 5636 | 474 | -32.1 | -63.2 | ||
| 2025-12-17T11:45 | 5760 | 465 | 266 | 43 | ||
| 2025-12-17T11:46 | 5900 | 456 | 262 | 44 | ||
| 2025-12-17T11:46 | 6028 | 448 | 260 | 46 | ||
| 2025-12-17T11:46 | 6066 | 446 | -35.4 | -58.1 | ||
| 2025-12-17T11:46 | 6214 | 436 | 259 | 42 | ||
| 2025-12-17T11:47 | 6504 | 418 | 260 | 44 | ||
| 2025-12-17T11:47 | 6555 | 415 | -40.0 | -57.3 | ||
| 2025-12-17T11:48 | 6950 | 391 | 256 | 43 | ||
| 2025-12-17T11:49 | 7372 | 368 | -46.0 | |||
| 2025-12-17T11:49 | 7387 | 367 | 254 | 44 | ||
| 2025-12-17T11:50 | 7719 | 349 | -48.9 | |||
| 2025-12-17T11:50 | 7854 | 342 | 259 | 42 | ||
| 2025-12-17T11:51 | 8264 | 321 | -52.6 | |||
| 2025-12-17T11:51 | 8327 | 318 | 257 | 41 | ||
| 2025-12-17T11:51 | 8500 | 309 | -53.8 | |||
| 2025-12-17T11:52 | 8623 | 303 | -53.4 | |||
| 2025-12-17T11:52 | 8683 | 301 | -53.0 | |||
| 2025-12-17T11:52 | 8774 | 296 | -52.7 | |||
| 2025-12-17T11:52 | 8789 | 296 | 263 | 44 | ||
| 2025-12-17T11:53 | 9032 | 285 | 260 | 41 | ||
| 2025-12-17T11:53 | 9063 | 283 | -53.1 | |||
| 2025-12-17T11:53 | 9251 | 275 | -50.3 | |||
| 2025-12-17T11:54 | 9439 | 267 | 263 | 40 | ||
| 2025-12-17T11:54 | 9546 | 263 | -51.2 | |||
| 2025-12-17T11:54 | 9632 | 260 | 262 | 41 | ||
| 2025-12-17T11:54 | 9729 | 256 | -49.8 | |||
| 2025-12-17T11:55 | 9853 | 251 | 264 | 40 | ||
| 2025-12-17T11:55 | 9889 | 250 | -48.2 | |||
| 2025-12-17T11:55 | 10133 | 241 | -47.1 | |||
| 2025-12-17T11:56 | 10202 | 238 | 260 | 37 | ||
| 2025-12-17T11:56 | 10437 | 230 | 260 | 42 | ||
| 2025-12-17T11:56 | 10574 | 225 | -45.5 | |||
| 2025-12-17T11:57 | 10635 | 223 | 258 | 38 | ||
| 2025-12-17T11:58 | 11025 | 210 | 259 | 38 | ||
| 2025-12-17T11:58 | 11112 | 208 | -45.4 | |||
| 2025-12-17T11:59 | 11415 | 198 | 256 | 40 | ||
| 2025-12-17T11:59 | 11650 | 192 | -44.5 | |||
| 2025-12-17T11:59 | 11721 | 190 | 259 | 41 | ||
| 2025-12-17T12:00 | 11897 | 185 | 252 | 43 | ||
| 2025-12-17T12:00 | 11985 | 182 | -45.6 | |||
| 2025-12-17T12:00 | 12115 | 179 | -44.9 | |||
| 2025-12-17T12:01 | 12312 | 173 | 255 | 44 | ||
| 2025-12-17T12:02 | 12598 | 166 | 260 | 41 | ||
| 2025-12-17T12:02 | 12833 | 160 | -48.8 | |||
| 2025-12-17T12:02 | 12905 | 158 | 261 | 34 | ||
| 2025-12-17T12:03 | 13096 | 154 | 260 | 32 | ||
| 2025-12-17T12:03 | 13408 | 147 | -50.7 | |||
| 2025-12-17T12:04 | 13526 | 144 | 254 | 31 | ||
| 2025-12-17T12:04 | 13843 | 137 | -53.5 | |||
| 2025-12-17T12:05 | 13910 | 136 | 266 | 33 | ||
| 2025-12-17T12:05 | 14236 | 129 | 256 | 26 | ||
| 2025-12-17T12:06 | 14359 | 127 | -54.6 | |||
| 2025-12-17T12:06 | 14604 | 122 | 250 | 36 | ||
| 2025-12-17T12:07 | 14800 | 118 | -54.1 | |||
| 2025-12-17T12:07 | 14832 | 118 | 251 | 39 | ||
| 2025-12-17T12:07 | 14950 | 115 | -54.2 | |||
| 2025-12-17T12:07 | 15173 | 111 | -54.8 | |||
| 2025-12-17T12:08 | 15243 | 110 | 263 | 39 | ||
| 2025-12-17T12:08 | 15456 | 107 | 266 | 37 | ||
| 2025-12-17T12:08 | 15530 | 105 | -54.1 | |||
| 2025-12-17T12:09 | 15719 | 102 | -54.0 | |||
| 2025-12-17T12:09 | 15885 | 100 | 274 | 31 | ||
| 2025-12-17T12:09 | 16075 | 97 | -54.4 | |||
| 2025-12-17T12:10 | 16277 | 94 | 258 | 31 | ||
| 2025-12-17T12:10 | 16356 | 93 | -55.8 | |||
| 2025-12-17T12:11 | 16461 | 91 | -54.6 | |||
| 2025-12-17T12:11 | 16627 | 89 | 256 | 31 | ||
| 2025-12-17T12:12 | 16916 | 85 | 269 | 27 | ||
| 2025-12-17T12:12 | 17016 | 84 | -51.7 | |||
| 2025-12-17T12:12 | 17055 | 83 | 266 | 26 | ||
| 2025-12-17T12:13 | 17277 | 80 | 244 | 17 | ||
| 2025-12-17T12:14 | 17456 | 78 | -50.6 | |||
| 2025-12-17T12:14 | 17524 | 77 | 230 | 18 | ||
| 2025-12-17T12:14 | 17720 | 75 | -51.5 | |||
| 2025-12-17T12:15 | 17880 | 73 | 244 | 23 | ||
| 2025-12-17T12:15 | 18160 | 70 | -51.0 | |||
| 2025-12-17T12:16 | 18282 | 69 | 249 | 19 | ||
| 2025-12-17T12:17 | 18618 | 65 | 246 | 21 | ||
| 2025-12-17T12:17 | 18741 | 64 | -52.0 | |||
| 2025-12-17T12:18 | 18997 | 62 | 242 | 22 | ||
| 2025-12-17T12:18 | 19201 | 60 | -50.4 | |||
| 2025-12-17T12:19 | 19291 | 59 | 256 | 19 | ||
| 2025-12-17T12:19 | 19404 | 58 | 259 | 18 | ||
| 2025-12-17T12:20 | 19670 | 56 | 271 | 5 | ||
| 2025-12-17T12:20 | 19681 | 56 | -47.9 | |||
| 2025-12-17T12:20 | 19817 | 54 | -49.1 | 267 | 3 | |
| 2025-12-17T23:30 | 18 | 1019 | -3.6 | -10.0 | 240 | 4 |
| 2025-12-17T23:30 | 23 | 1018 | -3.1 | -10.4 | 0 | 0 |
| 2025-12-17T23:30 | 72 | 1012 | -4.0 | -11.3 | ||
| 2025-12-17T23:30 | 83 | 1010 | 224 | 3 | ||
| 2025-12-17T23:31 | 228 | 992 | 278 | 7 | ||
| 2025-12-17T23:31 | 388 | 972 | -6.5 | -14.1 | ||
| 2025-12-17T23:31 | 400 | 970 | 280 | 9 | ||
| 2025-12-17T23:32 | 685 | 935 | 289 | 13 | ||
| 2025-12-17T23:32 | 874 | 913 | -10.9 | -17.3 | ||
| 2025-12-17T23:33 | 1031 | 894 | 294 | 13 | ||
| 2025-12-17T23:33 | 1109 | 885 | -12.9 | -19.0 | ||
| 2025-12-17T23:34 | 1317 | 861 | 295 | 12 | ||
| 2025-12-17T23:34 | 1442 | 847 | -15.6 | -20.2 | ||
| 2025-12-17T23:35 | 1637 | 825 | 303 | 12 | ||
| 2025-12-17T23:35 | 1673 | 821 | -17.9 | -20.7 | ||
| 2025-12-17T23:36 | 1949 | 791 | -20.4 | -22.0 | ||
| 2025-12-17T23:36 | 2005 | 785 | -20.7 | -23.1 | ||
| 2025-12-17T23:36 | 2026 | 783 | 300 | 12 | ||
| 2025-12-17T23:36 | 2068 | 779 | -20.4 | -27.7 | ||
| 2025-12-17T23:36 | 2103 | 775 | -19.1 | -33.1 | ||
| 2025-12-17T23:36 | 2260 | 759 | -18.9 | -37.3 | ||
| 2025-12-17T23:37 | 2327 | 752 | -18.3 | -41.6 | ||
| 2025-12-17T23:37 | 2373 | 747 | 297 | 21 | ||
| 2025-12-17T23:37 | 2562 | 729 | -19.8 | -42.8 | ||
| 2025-12-17T23:38 | 2741 | 711 | 300 | 20 | ||
| 2025-12-17T23:38 | 2833 | 703 | -19.8 | -44.7 | ||
| 2025-12-17T23:39 | 3086 | 679 | 288 | 16 | ||
| 2025-12-17T23:40 | 3389 | 652 | -23.4 | -45.7 | ||
| 2025-12-17T23:40 | 3443 | 647 | 290 | 15 | ||
| 2025-12-17T23:40 | 3548 | 637 | -24.4 | -46.5 | ||
| 2025-12-17T23:41 | 3816 | 614 | 289 | 16 | ||
| 2025-12-17T23:41 | 3836 | 613 | -26.8 | -49.3 | ||
| 2025-12-17T23:41 | 4053 | 594 | -27.7 | -47.1 | ||
| 2025-12-17T23:42 | 4217 | 581 | 284 | 18 | ||
| 2025-12-17T23:42 | 4319 | 573 | -29.0 | -55.4 | ||
| 2025-12-17T23:43 | 4637 | 548 | 292 | 29 | ||
| 2025-12-17T23:43 | 4702 | 543 | -30.5 | -56.5 | ||
| 2025-12-17T23:44 | 5063 | 516 | 293 | 30 | ||
| 2025-12-17T23:44 | 5200 | 506 | -33.6 | -60.4 | ||
| 2025-12-17T23:44 | 5333 | 496 | 290 | 32 | ||
| 2025-12-17T23:45 | 5543 | 481 | -35.6 | -53.1 | ||
| 2025-12-17T23:45 | 5729 | 469 | 289 | 31 | ||
| 2025-12-17T23:46 | 6072 | 446 | -39.3 | -54.7 | ||
| 2025-12-17T23:46 | 6133 | 442 | 291 | 32 | ||
| 2025-12-17T23:47 | 6187 | 438 | -40.0 | -55.3 | ||
| 2025-12-17T23:47 | 6545 | 416 | 286 | 30 | ||
| 2025-12-17T23:47 | 6559 | 415 | -42.8 | |||
| 2025-12-17T23:48 | 6905 | 394 | -44.4 | |||
| 2025-12-17T23:48 | 6930 | 393 | 286 | 35 | ||
| 2025-12-17T23:49 | 7301 | 371 | 284 | 35 | ||
| 2025-12-17T23:50 | 7596 | 355 | -48.8 | |||
| 2025-12-17T23:50 | 7662 | 352 | 285 | 34 | ||
| 2025-12-17T23:51 | 7875 | 340 | -49.9 | |||
| 2025-12-17T23:51 | 8022 | 333 | 287 | 37 | ||
| 2025-12-17T23:51 | 8040 | 332 | -50.7 | |||
| 2025-12-17T23:52 | 8157 | 326 | -50.5 | |||
| 2025-12-17T23:52 | 8301 | 319 | -50.9 | |||
| 2025-12-17T23:52 | 8340 | 317 | 285 | 35 | ||
| 2025-12-17T23:52 | 8403 | 314 | -51.2 | |||
| 2025-12-17T23:53 | 8534 | 308 | -51.4 | |||
| 2025-12-17T23:53 | 8690 | 300 | -51.2 | |||
| 2025-12-17T23:53 | 8711 | 299 | 273 | 33 | ||
| 2025-12-17T23:54 | 9048 | 284 | -51.0 | |||
| 2025-12-17T23:54 | 9075 | 283 | 272 | 33 | ||
| 2025-12-17T23:55 | 9265 | 275 | 273 | 33 | ||
| 2025-12-17T23:55 | 9368 | 271 | -50.8 | |||
| 2025-12-17T23:55 | 9419 | 268 | 270 | 33 | ||
| 2025-12-17T23:55 | 9568 | 262 | 271 | 35 | ||
| 2025-12-17T23:55 | 9582 | 262 | -49.3 | |||
| 2025-12-17T23:56 | 9753 | 255 | -47.9 | |||
| 2025-12-17T23:56 | 9934 | 248 | -48.4 | |||
| 2025-12-17T23:56 | 9952 | 248 | 280 | 35 | ||
| 2025-12-17T23:57 | 10120 | 241 | -47.7 | |||
| 2025-12-17T23:57 | 10163 | 240 | 277 | 32 | ||
| 2025-12-17T23:57 | 10337 | 233 | 275 | 27 | ||
| 2025-12-17T23:58 | 10617 | 224 | 273 | 27 | ||
| 2025-12-17T23:58 | 10641 | 223 | -48.6 | |||
| 2025-12-17T23:59 | 10960 | 212 | 265 | 29 | ||
| 2025-12-18T00:00 | 11288 | 202 | 258 | 33 | ||
| 2025-12-18T00:01 | 11553 | 194 | -50.4 | |||
| 2025-12-18T00:01 | 11615 | 192 | 262 | 33 | ||
| 2025-12-18T00:02 | 11964 | 182 | 264 | 40 | ||
| 2025-12-18T00:02 | 12017 | 181 | -49.2 | |||
| 2025-12-18T00:03 | 12264 | 174 | 267 | 35 | ||
| 2025-12-18T00:03 | 12431 | 170 | 272 | 35 | ||
| 2025-12-18T00:03 | 12437 | 170 | -48.3 | |||
| 2025-12-18T00:04 | 12566 | 166 | -48.0 | |||
| 2025-12-18T00:04 | 12588 | 166 | 269 | 37 | ||
| 2025-12-18T00:04 | 12777 | 161 | -48.4 | 266 | 43 | |
| 2025-12-18T00:05 | 12915 | 158 | -47.5 | |||
| 2025-12-18T00:05 | 13023 | 155 | 265 | 32 | ||
| 2025-12-18T00:05 | 13146 | 152 | -48.1 | |||
| 2025-12-18T00:05 | 13250 | 150 | 263 | 33 | ||
| 2025-12-18T00:06 | 13421 | 146 | 259 | 33 | ||
| 2025-12-18T00:06 | 13600 | 142 | 261 | 34 | ||
| 2025-12-18T00:06 | 13664 | 141 | -48.6 | |||
| 2025-12-18T00:07 | 13841 | 137 | 257 | 37 | ||
| 2025-12-18T00:08 | 14170 | 130 | -49.8 | |||
| 2025-12-18T00:08 | 14176 | 130 | 255 | 38 | ||
| 2025-12-18T00:09 | 14406 | 126 | 255 | 38 | ||
| 2025-12-18T00:09 | 14431 | 125 | -49.5 | |||
| 2025-12-18T00:10 | 14727 | 120 | 265 | 37 | ||
| 2025-12-18T00:10 | 14910 | 116 | -48.5 | |||
| 2025-12-18T00:11 | 15140 | 112 | 265 | 37 | ||
| 2025-12-18T00:11 | 15251 | 110 | -50.1 | |||
| 2025-12-18T00:11 | 15383 | 108 | -50.2 | |||
| 2025-12-18T00:12 | 15563 | 105 | -51.1 | |||
| 2025-12-18T00:12 | 15577 | 105 | 261 | 36 | ||
| 2025-12-18T00:12 | 15814 | 101 | -50.8 | |||
| 2025-12-18T00:13 | 15963 | 99 | 265 | 33 | ||
| 2025-12-18T00:13 | 16161 | 96 | 263 | 29 | ||
| 2025-12-18T00:14 | 16292 | 94 | -51.2 | |||
| 2025-12-18T00:14 | 16462 | 92 | 257 | 31 | ||
| 2025-12-18T00:14 | 16503 | 91 | -50.4 | |||
| 2025-12-18T00:15 | 16743 | 88 | 253 | 24 | ||
| 2025-12-18T00:15 | 16918 | 86 | 258 | 26 | ||
| 2025-12-18T00:16 | 17072 | 84 | -50.9 | |||
| 2025-12-18T00:16 | 17316 | 80 | 243 | 20 | ||
| 2025-12-18T00:17 | 17578 | 77 | -52.8 | |||
| 2025-12-18T00:17 | 17696 | 76 | 214 | 18 | ||
| 2025-12-18T00:18 | 17807 | 75 | -53.9 | |||
| 2025-12-18T00:18 | 17893 | 74 | -51.3 | 242 | 17 | |
| 2025-12-18T00:18 | 18073 | 72 | 228 | 10 | ||
| 2025-12-18T00:20 | 18443 | 68 | 223 | 15 | ||
| 2025-12-18T00:20 | 18597 | 66 | 219 | 19 | ||
| 2025-12-18T00:20 | 18725 | 65 | -54.7 | |||
| 2025-12-18T00:21 | 18975 | 62 | 242 | 19 | ||
| 2025-12-18T00:21 | 19183 | 60 | 257 | 23 | ||
| 2025-12-18T00:22 | 19235 | 60 | -56.5 | |||
| 2025-12-18T00:22 | 19431 | 58 | 250 | 18 | ||
| 2025-12-18T00:22 | 19474 | 57 | -55.5 | |||
| 2025-12-18T00:23 | 19620 | 56 | 244 | 24 | ||
| 2025-12-18T00:23 | 19668 | 56 | -55.0 | |||
| 2025-12-18T00:23 | 19852 | 54 | 250 | 24 | ||
| 2025-12-18T00:23 | 19986 | 53 | -53.5 | |||
| 2025-12-18T00:24 | 20058 | 52 | 253 | 24 | ||
| 2025-12-18T00:25 | 20414 | 50 | -53.7 | |||
| 2025-12-18T00:25 | 20478 | 49 | 271 | 13 | ||
| 2025-12-18T00:25 | 20663 | 48 | 249 | 13 | ||
| 2025-12-18T00:25 | 20730 | 47 | -52.8 | |||
| 2025-12-18T00:26 | 20998 | 45 | -53.8 | |||
| 2025-12-18T00:26 | 21054 | 45 | 253 | 19 | ||
| 2025-12-18T00:27 | 21288 | 43 | 232 | 11 | ||
| 2025-12-18T00:27 | 21391 | 43 | -50.0 | |||
| 2025-12-18T00:27 | 21456 | 42 | 216 | 9 | ||
| 2025-12-18T00:28 | 21675 | 41 | -50.7 | |||
| 2025-12-18T00:28 | 21804 | 40 | 236 | 16 | ||
| 2025-12-18T00:28 | 21948 | 39 | -51.6 | |||
| 2025-12-18T00:29 | 22152 | 38 | -51.9 | 260 | 18 | |
| 2025-12-18T00:29 | 22258 | 37 | -49.5 | |||
| 2025-12-18T00:29 | 22346 | 37 | 257 | 10 | ||
| 2025-12-18T00:30 | 22562 | 36 | 238 | 5 | ||
| 2025-12-18T00:30 | 22582 | 36 | -49.3 | |||
| 2025-12-18T00:30 | 22713 | 35 | 204 | 7 | ||
| 2025-12-18T00:31 | 22900 | 34 | 202 | 6 | ||
| 2025-12-18T00:31 | 23076 | 33 | 143 | 4 | ||
| 2025-12-18T00:31 | 23152 | 33 | 122 | 4 | ||
| 2025-12-18T00:32 | 23393 | 31 | -55.2 | |||
| 2025-12-18T00:32 | 23434 | 31 | 186 | 6 | ||
| 2025-12-18T00:32 | 23515 | 31 | 215 | 2 | ||
| 2025-12-18T00:33 | 23642 | 30 | 262 | 3 | ||
| 2025-12-18T00:33 | 23795 | 29 | 282 | 5 | ||
| 2025-12-18T00:33 | 23836 | 29 | -55.1 | |||
| 2025-12-18T00:33 | 23969 | 29 | 296 | 7 | ||
| 2025-12-18T00:34 | 24104 | 28 | -55.2 | |||
| 2025-12-18T00:34 | 24219 | 28 | 303 | 2 | ||
| 2025-12-18T00:35 | 24382 | 27 | 74 | 3 | ||
| 2025-12-18T00:35 | 24601 | 26 | -54.7 | |||
| 2025-12-18T00:35 | 24625 | 26 | 122 | 5 | ||
| 2025-12-18T00:36 | 24805 | 25 | 180 | 3 | ||
| 2025-12-18T00:36 | 24905 | 25 | 230 | 5 | ||
| 2025-12-18T00:36 | 25198 | 24 | 224 | 3 | ||
| 2025-12-18T00:37 | 25310 | 23 | 202 | 3 | ||
| 2025-12-18T00:37 | 25511 | 23 | -54.7 | 227 | 4 | |
| 2025-12-18T11:30 | 18 | 1022 | -2.6 | -6.9 | 170 | 1 |
| 2025-12-18T11:30 | 23 | 1021 | -2.8 | -7.9 | 0 | 0 |
| 2025-12-18T11:30 | 54 | 1017 | -2.0 | -7.9 | ||
| 2025-12-18T11:31 | 350 | 980 | 0 | 0 | ||
| 2025-12-18T11:31 | 396 | 974 | -4.8 | -9.8 | ||
| 2025-12-18T11:32 | 708 | 936 | 287 | 2 | ||
| 2025-12-18T11:32 | 871 | 917 | 264 | 3 | ||
| 2025-12-18T11:33 | 1008 | 901 | 307 | 3 | ||
| 2025-12-18T11:33 | 1129 | 886 | -11.0 | -13.2 | ||
| 2025-12-18T11:33 | 1135 | 886 | 280 | 5 | ||
| 2025-12-18T11:33 | 1246 | 873 | -11.8 | -14.2 | ||
| 2025-12-18T11:34 | 1309 | 866 | -12.3 | -15.0 | ||
| 2025-12-18T11:34 | 1364 | 860 | -11.9 | -18.7 | ||
| 2025-12-18T11:34 | 1381 | 858 | 285 | 12 | ||
| 2025-12-18T11:34 | 1532 | 841 | -13.4 | -20.5 | ||
| 2025-12-18T11:34 | 1584 | 835 | -13.3 | -24.9 | ||
| 2025-12-18T11:35 | 1612 | 832 | -12.3 | -29.7 | ||
| 2025-12-18T11:35 | 1717 | 821 | 298 | 15 | ||
| 2025-12-18T11:35 | 1835 | 808 | -12.1 | -34.2 | ||
| 2025-12-18T11:35 | 1858 | 806 | 297 | 13 | ||
| 2025-12-18T11:35 | 1932 | 798 | -12.1 | -34.2 | ||
| 2025-12-18T11:36 | 2060 | 785 | -11.5 | -31.7 | ||
| 2025-12-18T11:36 | 2129 | 778 | 300 | 16 | ||
| 2025-12-18T11:37 | 2323 | 758 | -12.2 | -30.6 | ||
| 2025-12-18T11:37 | 2491 | 742 | 291 | 16 | ||
| 2025-12-18T11:37 | 2625 | 729 | -13.6 | -34.8 | ||
| 2025-12-18T11:38 | 2706 | 721 | 288 | 15 | ||
| 2025-12-18T11:38 | 2969 | 696 | -15.9 | -31.9 | ||
| 2025-12-18T11:39 | 3049 | 689 | 287 | 15 | ||
| 2025-12-18T11:39 | 3315 | 665 | 280 | 17 | ||
| 2025-12-18T11:39 | 3321 | 664 | -19.0 | -33.4 | ||
| 2025-12-18T11:40 | 3467 | 651 | -19.8 | -36.1 | ||
| 2025-12-18T11:40 | 3574 | 642 | -20.5 | -29.4 | ||
| 2025-12-18T11:40 | 3625 | 637 | -20.8 | -28.9 | ||
| 2025-12-18T11:40 | 3654 | 635 | 283 | 22 | ||
| 2025-12-18T11:41 | 3683 | 632 | -21.2 | -26.7 | ||
| 2025-12-18T11:41 | 3826 | 620 | -22.3 | -27.8 | ||
| 2025-12-18T11:41 | 3909 | 613 | 287 | 24 | ||
| 2025-12-18T11:41 | 3959 | 609 | -23.1 | -26.6 | ||
| 2025-12-18T11:42 | 4074 | 600 | 280 | 21 | ||
| 2025-12-18T11:42 | 4256 | 585 | 281 | 23 | ||
| 2025-12-18T11:42 | 4284 | 583 | -25.1 | -29.3 | ||
| 2025-12-18T11:43 | 4397 | 573 | -25.4 | -31.1 | ||
| 2025-12-18T11:43 | 4587 | 559 | -26.8 | -31.9 | ||
| 2025-12-18T11:43 | 4598 | 558 | 288 | 27 | ||
| 2025-12-18T11:44 | 4721 | 548 | -28.0 | -32.1 | ||
| 2025-12-18T11:44 | 4853 | 538 | -28.7 | -36.5 | ||
| 2025-12-18T11:44 | 4939 | 532 | -29.3 | -37.1 | ||
| 2025-12-18T11:44 | 4945 | 531 | 283 | 28 | ||
| 2025-12-18T11:44 | 4991 | 528 | -28.4 | -47.0 | ||
| 2025-12-18T11:45 | 5082 | 521 | -28.4 | -52.5 | ||
| 2025-12-18T11:45 | 5205 | 512 | -28.9 | -42.8 | ||
| 2025-12-18T11:45 | 5291 | 506 | 291 | 33 | ||
| 2025-12-18T11:45 | 5344 | 503 | -29.4 | -44.8 | ||
| 2025-12-18T11:46 | 5589 | 486 | -30.1 | -47.9 | ||
| 2025-12-18T11:46 | 5610 | 484 | 294 | 35 | ||
| 2025-12-18T11:47 | 5929 | 463 | 292 | 35 | ||
| 2025-12-18T11:48 | 6108 | 451 | -34.3 | -52.6 | ||
| 2025-12-18T11:48 | 6258 | 442 | 294 | 37 | ||
| 2025-12-18T11:49 | 6491 | 427 | -37.1 | -51.1 | ||
| 2025-12-18T11:49 | 6576 | 422 | 295 | 39 | ||
| 2025-12-18T11:50 | 6747 | 411 | -38.7 | -53.3 | ||
| 2025-12-18T11:50 | 6842 | 406 | -38.8 | -52.2 | ||
| 2025-12-18T11:50 | 6892 | 403 | 295 | 45 | ||
| 2025-12-18T11:50 | 6975 | 398 | -40.0 | -52.2 | ||
| 2025-12-18T11:51 | 7216 | 384 | 294 | 45 | ||
| 2025-12-18T11:52 | 7520 | 367 | 296 | 46 | ||
| 2025-12-18T11:53 | 7748 | 355 | -46.8 | |||
| 2025-12-18T11:53 | 7828 | 350 | 293 | 46 | ||
| 2025-12-18T11:54 | 8039 | 339 | -48.0 | |||
| 2025-12-18T11:54 | 8147 | 334 | 295 | 48 | ||
| 2025-12-18T11:55 | 8490 | 317 | 294 | 50 | ||
| 2025-12-18T11:56 | 8723 | 306 | -52.3 | |||
| 2025-12-18T11:56 | 8794 | 302 | 295 | 52 | ||
| 2025-12-18T11:56 | 8852 | 300 | -52.3 | |||
| 2025-12-18T11:57 | 9092 | 289 | 292 | 51 | ||
| 2025-12-18T11:58 | 9373 | 276 | 290 | 46 | ||
| 2025-12-18T11:59 | 9551 | 269 | -54.5 | |||
| 2025-12-18T11:59 | 9633 | 265 | 289 | 45 | ||
| 2025-12-18T11:59 | 9702 | 263 | -54.7 | |||
| 2025-12-18T12:00 | 9825 | 258 | -54.7 | |||
| 2025-12-18T12:00 | 9843 | 257 | 287 | 47 | ||
| 2025-12-18T12:01 | 10014 | 250 | 293 | 49 | ||
| 2025-12-18T12:01 | 10023 | 250 | -54.4 | |||
| 2025-12-18T12:01 | 10130 | 246 | -52.5 | |||
| 2025-12-18T12:01 | 10148 | 245 | 297 | 42 | ||
| 2025-12-18T12:02 | 10411 | 235 | 288 | 39 | ||
| 2025-12-18T12:02 | 10445 | 234 | -52.1 | |||
| 2025-12-18T12:03 | 10610 | 228 | 292 | 36 | ||
| 2025-12-18T12:04 | 10822 | 221 | 283 | 34 | ||
| 2025-12-18T12:04 | 11022 | 214 | 279 | 34 | ||
| 2025-12-18T12:05 | 11194 | 208 | -54.0 | |||
| 2025-12-18T12:05 | 11290 | 205 | 277 | 40 | ||
| 2025-12-18T12:06 | 11435 | 201 | -53.7 | |||
| 2025-12-18T12:06 | 11529 | 198 | -52.4 | |||
| 2025-12-18T12:06 | 11603 | 195 | 276 | 45 | ||
| 2025-12-18T12:07 | 11740 | 191 | -52.2 | |||
| 2025-12-18T12:07 | 11905 | 186 | -51.6 | 279 | 45 | |
| 2025-12-18T12:08 | 12163 | 179 | 279 | 44 | ||
| 2025-12-18T12:08 | 12167 | 179 | -50.2 | |||
| 2025-12-18T12:09 | 12403 | 173 | 281 | 45 | ||
| 2025-12-18T12:10 | 12501 | 170 | -51.3 | |||
| 2025-12-18T12:10 | 12702 | 165 | 286 | 47 | ||
| 2025-12-18T12:11 | 13034 | 157 | 288 | 43 | ||
| 2025-12-18T12:12 | 13269 | 151 | -54.5 | |||
| 2025-12-18T12:12 | 13368 | 149 | 286 | 37 | ||
| 2025-12-18T12:13 | 13669 | 142 | 286 | 38 | ||
| 2025-12-18T12:14 | 13743 | 140 | -56.9 | |||
| 2025-12-18T12:14 | 13931 | 136 | 275 | 37 | ||
| 2025-12-18T12:14 | 13986 | 135 | -55.6 | |||
| 2025-12-18T12:15 | 14152 | 131 | 271 | 42 | ||
| 2025-12-18T12:15 | 14193 | 131 | -55.0 | |||
| 2025-12-18T12:16 | 14307 | 128 | -53.3 | |||
| 2025-12-18T12:16 | 14310 | 128 | 272 | 45 | ||
| 2025-12-18T12:17 | 14527 | 124 | -51.5 | |||
| 2025-12-18T12:17 | 14541 | 124 | 275 | 40 | ||
| 2025-12-18T12:18 | 14733 | 120 | -51.9 | |||
| 2025-12-18T12:18 | 14765 | 120 | 278 | 44 | ||
| 2025-12-18T12:18 | 14997 | 115 | -51.5 | |||
| 2025-12-18T12:19 | 15095 | 114 | 278 | 38 | ||
| 2025-12-18T12:19 | 15331 | 110 | -53.4 | |||
| 2025-12-18T12:20 | 15401 | 108 | 273 | 36 | ||
| 2025-12-18T12:20 | 15599 | 105 | -52.4 | |||
| 2025-12-18T12:21 | 15680 | 104 | 275 | 37 | ||
| 2025-12-18T12:21 | 15825 | 101 | -52.0 | |||
| 2025-12-18T12:22 | 15960 | 99 | 286 | 29 | ||
| 2025-12-18T12:23 | 16245 | 95 | 272 | 27 | ||
| 2025-12-18T12:23 | 16348 | 94 | -53.5 | |||
| 2025-12-18T12:24 | 16473 | 92 | -54.0 | |||
| 2025-12-18T12:24 | 16524 | 91 | 259 | 30 | ||
| 2025-12-18T12:24 | 16638 | 89 | -53.3 | |||
| 2025-12-18T12:25 | 16806 | 87 | 256 | 25 | ||
| 2025-12-18T12:25 | 16827 | 87 | -53.7 | |||
| 2025-12-18T12:26 | 17091 | 83 | 266 | 30 | ||
| 2025-12-18T12:27 | 17357 | 80 | 267 | 29 | ||
| 2025-12-18T12:27 | 17464 | 79 | -53.0 | |||
| 2025-12-18T12:27 | 17530 | 78 | 270 | 31 | ||
| 2025-12-18T12:28 | 17671 | 76 | 269 | 25 | ||
| 2025-12-18T12:28 | 17778 | 75 | -51.4 | |||
| 2025-12-18T12:29 | 17961 | 73 | 273 | 21 | ||
| 2025-12-18T12:30 | 18298 | 69 | 277 | 25 | ||
| 2025-12-18T12:31 | 18575 | 66 | 276 | 20 | ||
| 2025-12-18T12:31 | 18711 | 65 | -54.1 | |||
| 2025-12-18T12:31 | 18832 | 64 | 258 | 14 | ||
| 2025-12-18T12:32 | 19025 | 62 | 230 | 11 | ||
| 2025-12-18T12:32 | 19224 | 60 | 219 | 17 | ||
| 2025-12-18T12:33 | 19243 | 60 | -56.4 | 220 | 17 | |
| 2025-12-18T23:30 | 18 | 1025 | -3.5 | -6.9 | 160 | 1 |
| 2025-12-18T23:30 | 23 | 1024 | -3.5 | -7.6 | 0 | 0 |
| 2025-12-18T23:30 | 95 | 1015 | -3.2 | -7.9 | ||
| 2025-12-18T23:30 | 107 | 1014 | 152 | 3 | ||
| 2025-12-18T23:30 | 118 | 1012 | -2.3 | -8.2 | ||
| 2025-12-18T23:30 | 142 | 1009 | -0.8 | -8.0 | ||
| 2025-12-18T23:31 | 278 | 992 | 150 | 6 | ||
| 2025-12-18T23:31 | 387 | 979 | -2.3 | -8.8 | ||
| 2025-12-18T23:31 | 541 | 960 | 180 | 2 | ||
| 2025-12-18T23:32 | 876 | 920 | 308 | 2 | ||
| 2025-12-18T23:33 | 977 | 908 | -6.8 | -13.3 | ||
| 2025-12-18T23:33 | 1097 | 894 | 289 | 7 | ||
| 2025-12-18T23:34 | 1339 | 867 | -9.5 | -17.8 | ||
| 2025-12-18T23:34 | 1432 | 857 | -8.9 | -21.6 | ||
| 2025-12-18T23:34 | 1490 | 850 | 290 | 13 | ||
| 2025-12-18T23:34 | 1557 | 843 | -8.7 | -20.8 | ||
| 2025-12-18T23:35 | 1807 | 816 | -8.3 | -18.9 | ||
| 2025-12-18T23:35 | 1885 | 808 | 295 | 14 | ||
| 2025-12-18T23:35 | 2095 | 786 | -9.5 | -17.8 | ||
| 2025-12-18T23:36 | 2198 | 776 | -9.1 | -20.0 | ||
| 2025-12-18T23:36 | 2276 | 768 | -9.2 | -19.8 | 297 | 15 |
| 2025-12-18T23:37 | 2595 | 737 | 288 | 20 | ||
| 2025-12-18T23:37 | 2601 | 736 | -11.6 | -21.2 | ||
| 2025-12-18T23:37 | 2687 | 728 | -11.8 | -27.9 | ||
| 2025-12-18T23:37 | 2785 | 719 | -10.9 | -38.8 | ||
| 2025-12-18T23:37 | 2854 | 712 | -9.9 | -44.6 | 292 | 17 |
| 2025-12-18T23:38 | 3142 | 686 | 288 | 17 | ||
| 2025-12-18T23:39 | 3262 | 675 | -12.4 | -52.5 | ||
| 2025-12-18T23:39 | 3431 | 660 | 300 | 15 | ||
| 2025-12-18T23:39 | 3437 | 660 | -12.7 | -52.7 | ||
| 2025-12-18T23:39 | 3571 | 648 | -12.5 | -52.6 | ||
| 2025-12-18T23:40 | 3813 | 628 | 286 | 19 | ||
| 2025-12-18T23:41 | 4021 | 611 | -16.1 | -47.2 | ||
| 2025-12-18T23:41 | 4206 | 596 | 286 | 18 | ||
| 2025-12-18T23:42 | 4504 | 573 | -20.1 | -46.0 | ||
| 2025-12-18T23:42 | 4594 | 566 | 289 | 24 | ||
| 2025-12-18T23:42 | 4671 | 560 | -21.2 | -30.0 | ||
| 2025-12-18T23:43 | 4976 | 537 | 294 | 27 | ||
| 2025-12-18T23:43 | 4982 | 537 | -23.2 | -30.1 | ||
| 2025-12-18T23:44 | 5218 | 520 | -24.6 | -32.7 | ||
| 2025-12-18T23:44 | 5363 | 509 | 293 | 27 | ||
| 2025-12-18T23:44 | 5542 | 497 | -26.5 | -35.1 | ||
| 2025-12-18T23:45 | 5764 | 482 | 294 | 29 | ||
| 2025-12-18T23:46 | 6092 | 460 | -30.7 | -38.4 | ||
| 2025-12-18T23:46 | 6167 | 455 | 297 | 32 | ||
| 2025-12-18T23:47 | 6543 | 432 | -34.0 | -41.0 | ||
| 2025-12-18T23:47 | 6593 | 429 | 301 | 34 | ||
| 2025-12-18T23:47 | 6672 | 424 | -35.1 | -43.1 | ||
| 2025-12-18T23:48 | 6832 | 414 | -36.3 | -47.4 | ||
| 2025-12-18T23:48 | 6889 | 411 | 299 | 33 | ||
| 2025-12-18T23:48 | 7207 | 392 | -40.0 | -49.6 | ||
| 2025-12-18T23:49 | 7310 | 386 | 305 | 31 | ||
| 2025-12-18T23:50 | 7752 | 362 | 309 | 31 | ||
| 2025-12-18T23:50 | 7985 | 349 | -47.1 | |||
| 2025-12-18T23:51 | 8214 | 337 | 321 | 33 | ||
| 2025-12-18T23:51 | 8511 | 322 | 313 | 35 | ||
| 2025-12-18T23:52 | 8922 | 303 | 303 | 38 | ||
| 2025-12-18T23:53 | 9303 | 285 | -56.8 | |||
| 2025-12-18T23:53 | 9337 | 284 | 297 | 38 | ||
| 2025-12-18T23:54 | 9743 | 266 | 298 | 44 | ||
| 2025-12-18T23:55 | 10048 | 253 | -61.3 | |||
| 2025-12-18T23:55 | 10150 | 249 | 295 | 44 | ||
| 2025-12-18T23:56 | 10271 | 244 | -60.8 | |||
| 2025-12-18T23:56 | 10347 | 241 | 299 | 41 | ||
| 2025-12-18T23:56 | 10426 | 238 | -59.2 | |||
| 2025-12-18T23:57 | 10656 | 230 | 294 | 44 | ||
| 2025-12-18T23:57 | 10724 | 227 | -58.6 | |||
| 2025-12-18T23:57 | 10814 | 224 | 299 | 37 | ||
| 2025-12-18T23:57 | 10974 | 218 | -59.1 | |||
| 2025-12-18T23:58 | 11133 | 213 | 284 | 33 | ||
| 2025-12-18T23:58 | 11271 | 208 | -58.5 | |||
| 2025-12-18T23:58 | 11420 | 203 | 273 | 36 | ||
| 2025-12-18T23:59 | 11539 | 200 | -56.5 | |||
| 2025-12-18T23:59 | 11584 | 198 | 267 | 43 | ||
| 2025-12-18T23:59 | 11760 | 193 | 271 | 48 | ||
| 2025-12-18T23:59 | 11890 | 189 | 275 | 51 | ||
| 2025-12-19T00:00 | 12006 | 185 | -56.7 | |||
| 2025-12-19T00:00 | 12289 | 177 | 291 | 46 | ||
| 2025-12-19T00:01 | 12407 | 174 | -53.0 | |||
| 2025-12-19T00:01 | 12678 | 167 | 286 | 42 | ||
| 2025-12-19T00:02 | 12735 | 165 | -52.2 | |||
| 2025-12-19T00:02 | 12939 | 160 | -51.8 | |||
| 2025-12-19T00:02 | 13049 | 158 | 279 | 41 | ||
| 2025-12-19T00:03 | 13433 | 148 | 285 | 40 | ||
| 2025-12-19T00:04 | 13716 | 142 | -56.8 | |||
| 2025-12-19T00:04 | 13825 | 139 | 291 | 40 | ||
| 2025-12-19T00:05 | 13838 | 139 | -56.4 | |||
| 2025-12-19T00:05 | 14205 | 131 | 286 | 33 | ||
| 2025-12-19T00:06 | 14362 | 128 | -56.4 | |||
| 2025-12-19T00:06 | 14574 | 124 | 280 | 35 | ||
| 2025-12-19T00:07 | 14875 | 118 | -57.7 | |||
| 2025-12-19T00:07 | 14916 | 117 | 267 | 32 | ||
| 2025-12-19T00:08 | 15193 | 112 | 270 | 36 | ||
| 2025-12-19T00:09 | 15375 | 109 | -56.6 | |||
| 2025-12-19T00:09 | 15559 | 106 | 257 | 35 | ||
| 2025-12-19T00:09 | 15565 | 106 | -55.5 | |||
| 2025-12-19T00:10 | 15856 | 101 | 259 | 39 | ||
| 2025-12-19T00:10 | 15862 | 101 | -55.4 | |||
| 2025-12-19T00:11 | 16118 | 97 | -54.8 | |||
| 2025-12-19T00:11 | 16230 | 96 | 260 | 37 | ||
| 2025-12-19T00:12 | 16412 | 93 | -53.9 | |||
| 2025-12-19T00:12 | 16492 | 92 | 260 | 30 | ||
| 2025-12-19T00:12 | 16768 | 88 | 265 | 30 | ||
| 2025-12-19T00:13 | 17026 | 84 | 263 | 24 | ||
| 2025-12-19T00:13 | 17162 | 83 | -53.7 | |||
| 2025-12-19T00:14 | 17392 | 80 | -53.8 | |||
| 2025-12-19T00:14 | 17419 | 79 | 283 | 17 | ||
| 2025-12-19T00:15 | 17759 | 75 | 268 | 14 | ||
| 2025-12-19T00:15 | 17873 | 74 | -54.9 | |||
| 2025-12-19T00:16 | 18105 | 71 | 257 | 20 | ||
| 2025-12-19T00:16 | 18332 | 69 | 266 | 22 | ||
| 2025-12-19T00:17 | 18623 | 66 | -58.8 | |||
| 2025-12-19T00:17 | 18765 | 64 | 268 | 18 | ||
| 2025-12-19T00:18 | 18988 | 62 | 266 | 19 | ||
| 2025-12-19T00:19 | 19383 | 58 | -58.7 | |||
| 2025-12-19T00:19 | 19413 | 58 | 263 | 20 | ||
| 2025-12-19T00:19 | 19492 | 57 | -56.7 | |||
| 2025-12-19T00:19 | 19627 | 56 | -56.8 | |||
| 2025-12-19T00:20 | 19718 | 55 | 252 | 21 | ||
| 2025-12-19T00:20 | 20046 | 52 | -56.2 | |||
| 2025-12-19T00:20 | 20085 | 52 | 241 | 28 | ||
| 2025-12-19T00:21 | 20143 | 52 | -54.8 | |||
| 2025-12-19T00:21 | 20268 | 51 | -54.4 | |||
| 2025-12-19T00:21 | 20424 | 49 | 266 | 23 | ||
| 2025-12-19T00:21 | 20488 | 49 | -52.0 | |||
| 2025-12-19T00:22 | 20666 | 48 | 255 | 28 | ||
| 2025-12-19T00:23 | 21115 | 44 | 282 | 9 | ||
| 2025-12-19T00:24 | 21367 | 43 | 223 | 9 | ||
| 2025-12-19T00:24 | 21554 | 42 | -50.2 | |||
| 2025-12-19T00:24 | 21618 | 41 | 222 | 14 | ||
| 2025-12-19T00:25 | 21893 | 39 | 217 | 13 | ||
| 2025-12-19T00:25 | 22091 | 38 | 233 | 8 | ||
| 2025-12-19T00:26 | 22227 | 37 | 237 | 3 | ||
| 2025-12-19T00:26 | 22385 | 37 | -53.4 | |||
| 2025-12-19T00:26 | 22528 | 36 | 129 | 3 | ||
| 2025-12-19T00:26 | 22544 | 36 | -51.8 | |||
| 2025-12-19T00:27 | 22940 | 34 | 179 | 5 | ||
| 2025-12-19T00:27 | 22997 | 33 | -52.3 | |||
| 2025-12-19T00:28 | 23136 | 33 | 210 | 6 | ||
| 2025-12-19T00:28 | 23396 | 31 | 158 | 6 | ||
| 2025-12-19T00:29 | 23627 | 30 | 183 | 7 | ||
| 2025-12-19T00:30 | 24002 | 28 | -54.8 | |||
| 2025-12-19T00:30 | 24048 | 28 | 161 | 6 | ||
| 2025-12-19T00:30 | 24208 | 28 | 135 | 7 | ||
| 2025-12-19T00:31 | 24399 | 27 | 160 | 4 | ||
| 2025-12-19T00:31 | 24448 | 27 | -51.9 | |||
| 2025-12-19T00:31 | 24594 | 26 | 181 | 3 | ||
| 2025-12-19T00:32 | 24799 | 25 | 53 | 1 | ||
| 2025-12-19T00:32 | 24953 | 25 | 97 | 2 | ||
| 2025-12-19T00:32 | 25088 | 24 | 123 | 3 | ||
| 2025-12-19T00:33 | 25195 | 24 | 116 | 3 | ||
| 2025-12-19T00:33 | 25390 | 23 | 128 | 1 | ||
| 2025-12-19T00:33 | 25494 | 23 | -52.9 | 100 | 1 | |
| 2025-12-19T11:30 | 18 | 1020 | 3.8 | -0.2 | 170 | 7 |
| 2025-12-19T11:30 | 24 | 1019 | 3.7 | -0.7 | 135 | 2 |
| 2025-12-19T11:30 | 36 | 1018 | 114 | 3 | ||
| 2025-12-19T11:30 | 85 | 1012 | 168 | 5 | ||
| 2025-12-19T11:31 | 256 | 991 | 170 | 16 | ||
| 2025-12-19T11:31 | 554 | 955 | 1.2 | -1.0 | ||
| 2025-12-19T11:31 | 625 | 946 | 187 | 16 | ||
| 2025-12-19T11:32 | 709 | 936 | 1.3 | -1.8 | ||
| 2025-12-19T11:32 | 737 | 933 | 2.0 | -1.4 | ||
| 2025-12-19T11:32 | 778 | 928 | 206 | 10 | ||
| 2025-12-19T11:33 | 1155 | 886 | 224 | 16 | ||
| 2025-12-19T11:33 | 1173 | 884 | -0.3 | -2.4 | ||
| 2025-12-19T11:33 | 1244 | 876 | 0.6 | -3.5 | ||
| 2025-12-19T11:34 | 1415 | 858 | -0.2 | -3.9 | ||
| 2025-12-19T11:34 | 1492 | 849 | -0.6 | -4.3 | ||
| 2025-12-19T11:34 | 1509 | 848 | 241 | 19 | ||
| 2025-12-19T11:34 | 1594 | 839 | -0.7 | -3.7 | ||
| 2025-12-19T11:35 | 1872 | 810 | -2.9 | -4.5 | 247 | 17 |
| 2025-12-19T11:35 | 1957 | 801 | -2.8 | -5.8 | ||
| 2025-12-19T11:36 | 2199 | 777 | -4.6 | -6.9 | ||
| 2025-12-19T11:36 | 2252 | 772 | 265 | 16 | ||
| 2025-12-19T11:37 | 2643 | 734 | 266 | 19 | ||
| 2025-12-19T11:38 | 2928 | 707 | 266 | 21 | ||
| 2025-12-19T11:38 | 2956 | 705 | -10.4 | -11.0 | ||
| 2025-12-19T11:38 | 3082 | 694 | -11.0 | -12.2 | ||
| 2025-12-19T11:38 | 3109 | 691 | 264 | 24 | ||
| 2025-12-19T11:38 | 3143 | 688 | -11.2 | -13.8 | ||
| 2025-12-19T11:39 | 3268 | 677 | -10.9 | -20.0 | ||
| 2025-12-19T11:39 | 3314 | 673 | -10.5 | -21.8 | ||
| 2025-12-19T11:39 | 3437 | 662 | -8.2 | -33.5 | ||
| 2025-12-19T11:39 | 3455 | 661 | 274 | 34 | ||
| 2025-12-19T11:40 | 3690 | 641 | -9.6 | -32.9 | ||
| 2025-12-19T11:40 | 3829 | 630 | 270 | 33 | ||
| 2025-12-19T11:41 | 4077 | 610 | -12.4 | -41.3 | ||
| 2025-12-19T11:41 | 4230 | 597 | 267 | 31 | ||
| 2025-12-19T11:41 | 4329 | 590 | -14.8 | -27.2 | ||
| 2025-12-19T11:42 | 4433 | 582 | -15.7 | -24.9 | ||
| 2025-12-19T11:42 | 4645 | 565 | 265 | 30 | ||
| 2025-12-19T11:42 | 4712 | 560 | -17.5 | -24.4 | ||
| 2025-12-19T11:43 | 5055 | 535 | 266 | 31 | ||
| 2025-12-19T11:43 | 5075 | 534 | -19.8 | -25.4 | ||
| 2025-12-19T11:44 | 5243 | 522 | -20.8 | -28.7 | ||
| 2025-12-19T11:44 | 5403 | 511 | -22.0 | -29.6 | ||
| 2025-12-19T11:44 | 5448 | 507 | 270 | 30 | ||
| 2025-12-19T11:45 | 5759 | 486 | -24.5 | -37.5 | ||
| 2025-12-19T11:45 | 5783 | 485 | 272 | 28 | ||
| 2025-12-19T11:46 | 5945 | 474 | -26.1 | -36.5 | ||
| 2025-12-19T11:46 | 6147 | 461 | 268 | 29 | ||
| 2025-12-19T11:46 | 6184 | 459 | -28.2 | -38.7 | ||
| 2025-12-19T11:47 | 6387 | 446 | -29.9 | -38.7 | ||
| 2025-12-19T11:47 | 6473 | 440 | 270 | 29 | ||
| 2025-12-19T11:48 | 6672 | 428 | -32.0 | -38.2 | ||
| 2025-12-19T11:48 | 6841 | 418 | 271 | 29 | ||
| 2025-12-19T11:48 | 6855 | 417 | -33.1 | -36.7 | ||
| 2025-12-19T11:49 | 7071 | 405 | -34.3 | -38.0 | ||
| 2025-12-19T11:49 | 7098 | 403 | 272 | 29 | ||
| 2025-12-19T11:49 | 7131 | 401 | -34.4 | -39.1 | ||
| 2025-12-19T11:50 | 7488 | 381 | 270 | 34 | ||
| 2025-12-19T11:50 | 7629 | 373 | -38.2 | -42.0 | ||
| 2025-12-19T11:50 | 7841 | 362 | -40.0 | -43.6 | ||
| 2025-12-19T11:51 | 7886 | 360 | 268 | 36 | ||
| 2025-12-19T11:51 | 8118 | 347 | 270 | 38 | ||
| 2025-12-19T11:52 | 8502 | 328 | 271 | 35 | ||
| 2025-12-19T11:53 | 8847 | 311 | -48.9 | |||
| 2025-12-19T11:53 | 8917 | 308 | 268 | 34 | ||
| 2025-12-19T11:54 | 9274 | 292 | 273 | 38 | ||
| 2025-12-19T11:55 | 9554 | 279 | 274 | 38 | ||
| 2025-12-19T11:55 | 9882 | 265 | 275 | 39 | ||
| 2025-12-19T11:56 | 10307 | 248 | 278 | 44 | ||
| 2025-12-19T11:57 | 10535 | 239 | -63.3 | |||
| 2025-12-19T11:58 | 10764 | 230 | 281 | 45 | ||
| 2025-12-19T11:58 | 10858 | 226 | -65.5 | |||
| 2025-12-19T11:58 | 11020 | 220 | -64.6 | |||
| 2025-12-19T11:58 | 11056 | 219 | 279 | 34 | ||
| 2025-12-19T11:59 | 11267 | 212 | -65.0 | |||
| 2025-12-19T11:59 | 11368 | 208 | -63.9 | |||
| 2025-12-19T11:59 | 11431 | 206 | 275 | 34 | ||
| 2025-12-19T12:00 | 11659 | 199 | 284 | 33 | ||
| 2025-12-19T12:00 | 11679 | 198 | -62.5 | |||
| 2025-12-19T12:00 | 11832 | 193 | -61.7 | |||
| 2025-12-19T12:00 | 11903 | 191 | 285 | 35 | ||
| 2025-12-19T12:00 | 11924 | 190 | -60.2 | |||
| 2025-12-19T12:01 | 12122 | 184 | 281 | 36 | ||
| 2025-12-19T12:01 | 12220 | 181 | -60.9 | |||
| 2025-12-19T12:01 | 12287 | 179 | 276 | 38 | ||
| 2025-12-19T12:02 | 12447 | 175 | -59.5 | |||
| 2025-12-19T12:02 | 12660 | 169 | -59.8 | |||
| 2025-12-19T12:02 | 12717 | 168 | 283 | 38 | ||
| 2025-12-19T12:02 | 12807 | 165 | -59.8 | |||
| 2025-12-19T12:03 | 12978 | 161 | 278 | 34 | ||
| 2025-12-19T12:03 | 13200 | 155 | 271 | 30 | ||
| 2025-12-19T12:04 | 13280 | 153 | -59.1 | |||
| 2025-12-19T12:04 | 13392 | 150 | 267 | 31 | ||
| 2025-12-19T12:04 | 13547 | 147 | -60.4 | |||
| 2025-12-19T12:04 | 13553 | 147 | 261 | 34 | ||
| 2025-12-19T12:05 | 13739 | 142 | -60.1 | |||
| 2025-12-19T12:05 | 13942 | 138 | 265 | 34 | ||
| 2025-12-19T12:06 | 14076 | 135 | -60.3 | |||
| 2025-12-19T12:06 | 14241 | 131 | 272 | 40 | ||
| 2025-12-19T12:07 | 14495 | 126 | 272 | 37 | ||
| 2025-12-19T12:07 | 14575 | 124 | -59.2 | |||
| 2025-12-19T12:07 | 14720 | 122 | 272 | 37 | ||
| 2025-12-19T12:08 | 14823 | 120 | -57.0 | |||
| 2025-12-19T12:08 | 15054 | 115 | 278 | 31 | ||
| 2025-12-19T12:09 | 15338 | 110 | -57.2 | |||
| 2025-12-19T12:09 | 15344 | 110 | 271 | 31 | ||
| 2025-12-19T12:10 | 15735 | 104 | 271 | 40 | ||
| 2025-12-19T12:10 | 15813 | 102 | -57.6 | |||
| 2025-12-19T12:11 | 16100 | 98 | 268 | 33 | ||
| 2025-12-19T12:12 | 16418 | 93 | 277 | 36 | ||
| 2025-12-19T12:12 | 16445 | 93 | -58.0 | |||
| 2025-12-19T12:13 | 16787 | 88 | -55.5 | |||
| 2025-12-19T12:13 | 16814 | 87 | 279 | 29 | ||
| 2025-12-19T12:13 | 17057 | 84 | 285 | 22 | ||
| 2025-12-19T12:13 | 17074 | 84 | -55.9 | |||
| 2025-12-19T12:14 | 17351 | 80 | 254 | 18 | ||
| 2025-12-19T12:14 | 17594 | 77 | -57.3 | |||
| 2025-12-19T12:15 | 17769 | 75 | 255 | 26 | ||
| 2025-12-19T12:15 | 17880 | 74 | -56.3 | |||
| 2025-12-19T12:16 | 18050 | 72 | -56.5 | |||
| 2025-12-19T12:16 | 18188 | 70 | 249 | 25 | ||
| 2025-12-19T12:17 | 18605 | 66 | 239 | 26 | ||
| 2025-12-19T12:17 | 18633 | 66 | -56.9 | |||
| 2025-12-19T12:18 | 19034 | 62 | 259 | 26 | ||
| 2025-12-19T12:18 | 19201 | 60 | -57.1 | |||
| 2025-12-19T12:18 | 19307 | 59 | 274 | 23 | ||
| 2025-12-19T12:19 | 19343 | 59 | -55.6 | |||
| 2025-12-19T12:19 | 19562 | 57 | 266 | 18 | ||
| 2025-12-19T12:19 | 19618 | 56 | -55.7 | |||
| 2025-12-19T12:20 | 19864 | 54 | -54.0 | |||
| 2025-12-19T12:20 | 19874 | 54 | 263 | 26 | ||
| 2025-12-19T12:20 | 20131 | 52 | 254 | 14 | ||
| 2025-12-19T12:21 | 20156 | 52 | -50.3 | |||
| 2025-12-19T12:21 | 20546 | 49 | 265 | 15 | ||
| 2025-12-19T12:22 | 20748 | 47 | 265 | 12 | ||
| 2025-12-19T12:22 | 20946 | 46 | 223 | 9 | ||
| 2025-12-19T12:23 | 21132 | 44 | -52.9 | |||
| 2025-12-19T12:23 | 21292 | 43 | 216 | 13 | ||
| 2025-12-19T12:24 | 21404 | 43 | -54.1 | 225 | 14 | |
| 2025-12-19T23:30 | 18 | 1016 | 3.9 | 3.0 | 160 | 2 |
| 2025-12-19T23:30 | 25 | 1015 | 4.3 | 3.0 | 0 | 0 |
| 2025-12-19T23:30 | 50 | 1012 | 5.4 | 3.7 | ||
| 2025-12-19T23:30 | 105 | 1005 | 146 | 3 | ||
| 2025-12-19T23:30 | 151 | 1000 | 5.8 | 3.3 | ||
| 2025-12-19T23:30 | 196 | 994 | 7.3 | 2.8 | ||
| 2025-12-19T23:31 | 227 | 990 | 149 | 3 | ||
| 2025-12-19T23:31 | 348 | 976 | 6.6 | 2.5 | ||
| 2025-12-19T23:31 | 367 | 974 | 41 | 1 | ||
| 2025-12-19T23:31 | 468 | 962 | 5.9 | 1.6 | ||
| 2025-12-19T23:32 | 753 | 929 | 98 | 1 | ||
| 2025-12-19T23:33 | 1071 | 893 | 0.6 | -1.5 | ||
| 2025-12-19T23:33 | 1098 | 890 | 244 | 3 | ||
| 2025-12-19T23:33 | 1111 | 888 | 0.6 | -2.0 | ||
| 2025-12-19T23:33 | 1237 | 875 | 254 | 9 | ||
| 2025-12-19T23:33 | 1286 | 869 | 0.9 | -3.4 | ||
| 2025-12-19T23:33 | 1329 | 865 | 1.9 | -3.4 | ||
| 2025-12-19T23:34 | 1407 | 856 | 274 | 13 | ||
| 2025-12-19T23:34 | 1491 | 847 | 0.5 | -4.1 | ||
| 2025-12-19T23:34 | 1531 | 843 | 1.2 | -4.2 | ||
| 2025-12-19T23:34 | 1614 | 834 | 0.7 | -4.7 | ||
| 2025-12-19T23:34 | 1666 | 829 | 1.0 | -4.8 | ||
| 2025-12-19T23:34 | 1698 | 826 | 1.0 | -5.0 | ||
| 2025-12-19T23:34 | 1737 | 822 | 1.0 | -5.3 | ||
| 2025-12-19T23:35 | 1806 | 815 | 266 | 25 | ||
| 2025-12-19T23:35 | 1870 | 808 | 0.6 | -6.5 | ||
| 2025-12-19T23:35 | 2036 | 792 | -0.9 | -4.8 | ||
| 2025-12-19T23:35 | 2056 | 790 | 264 | 26 | ||
| 2025-12-19T23:36 | 2300 | 766 | -2.2 | -7.3 | ||
| 2025-12-19T23:36 | 2371 | 759 | 263 | 28 | ||
| 2025-12-19T23:37 | 2636 | 734 | 260 | 28 | ||
| 2025-12-19T23:37 | 2667 | 731 | -5.3 | -11.8 | ||
| 2025-12-19T23:37 | 2753 | 723 | -5.7 | -12.2 | ||
| 2025-12-19T23:37 | 2808 | 718 | -6.1 | -12.2 | ||
| 2025-12-19T23:37 | 2870 | 712 | -6.7 | -11.8 | ||
| 2025-12-19T23:38 | 2968 | 703 | 253 | 30 | ||
| 2025-12-19T23:38 | 2998 | 701 | -7.6 | -12.5 | ||
| 2025-12-19T23:38 | 3284 | 675 | -9.5 | -16.2 | ||
| 2025-12-19T23:39 | 3334 | 671 | -9.6 | -17.6 | 249 | 31 |
| 2025-12-19T23:39 | 3494 | 657 | -10.5 | -14.9 | ||
| 2025-12-19T23:39 | 3587 | 649 | 254 | 27 | ||
| 2025-12-19T23:39 | 3631 | 645 | -11.2 | -15.8 | ||
| 2025-12-19T23:40 | 3745 | 636 | -10.9 | -21.6 | ||
| 2025-12-19T23:40 | 3937 | 620 | -12.4 | -31.9 | 256 | 34 |
| 2025-12-19T23:40 | 4022 | 613 | -12.6 | -39.0 | ||
| 2025-12-19T23:41 | 4121 | 605 | -12.1 | -46.2 | ||
| 2025-12-19T23:41 | 4334 | 589 | 258 | 35 | ||
| 2025-12-19T23:41 | 4470 | 578 | -14.8 | -43.1 | ||
| 2025-12-19T23:42 | 4561 | 571 | 261 | 40 | ||
| 2025-12-19T23:42 | 4665 | 564 | -15.7 | -35.8 | ||
| 2025-12-19T23:42 | 4839 | 551 | -17.1 | -28.9 | ||
| 2025-12-19T23:43 | 4961 | 542 | 257 | 40 | ||
| 2025-12-19T23:43 | 5031 | 537 | -18.4 | -26.5 | ||
| 2025-12-19T23:44 | 5292 | 518 | 258 | 40 | ||
| 2025-12-19T23:45 | 5625 | 495 | -23.8 | -27.6 | ||
| 2025-12-19T23:45 | 5642 | 494 | 258 | 37 | ||
| 2025-12-19T23:45 | 5738 | 488 | -23.5 | -26.3 | ||
| 2025-12-19T23:46 | 5986 | 471 | 259 | 42 | ||
| 2025-12-19T23:46 | 6167 | 460 | -26.3 | -30.0 | ||
| 2025-12-19T23:47 | 6326 | 450 | 261 | 42 | ||
| 2025-12-19T23:47 | 6366 | 447 | -28.0 | -32.1 | ||
| 2025-12-19T23:47 | 6577 | 434 | -29.7 | -34.3 | ||
| 2025-12-19T23:48 | 6670 | 428 | 261 | 41 | ||
| 2025-12-19T23:48 | 6813 | 420 | -31.7 | -36.3 | ||
| 2025-12-19T23:49 | 7041 | 407 | 258 | 41 | ||
| 2025-12-19T23:49 | 7093 | 404 | -34.1 | -38.7 | ||
| 2025-12-19T23:49 | 7220 | 396 | 259 | 39 | ||
| 2025-12-19T23:49 | 7281 | 393 | -35.6 | -39.7 | ||
| 2025-12-19T23:50 | 7481 | 382 | 262 | 39 | ||
| 2025-12-19T23:50 | 7578 | 376 | -38.0 | -41.7 | ||
| 2025-12-19T23:50 | 7746 | 367 | -39.3 | -43.8 | ||
| 2025-12-19T23:51 | 7811 | 364 | -40.0 | -44.4 | ||
| 2025-12-19T23:51 | 7878 | 360 | 265 | 39 | ||
| 2025-12-19T23:51 | 8154 | 346 | 271 | 42 | ||
| 2025-12-19T23:52 | 8442 | 331 | 268 | 42 | ||
| 2025-12-19T23:53 | 8601 | 323 | -47.1 | |||
| 2025-12-19T23:53 | 8819 | 313 | 271 | 46 | ||
| 2025-12-19T23:54 | 8978 | 305 | 270 | 44 | ||
| 2025-12-19T23:54 | 9149 | 297 | 272 | 49 | ||
| 2025-12-19T23:55 | 9557 | 279 | 275 | 50 | ||
| 2025-12-19T23:56 | 9791 | 269 | 277 | 50 | ||
| 2025-12-19T23:56 | 9945 | 262 | -58.6 | |||
| 2025-12-19T23:56 | 10100 | 256 | 282 | 51 | ||
| 2025-12-19T23:57 | 10399 | 244 | 286 | 51 | ||
| 2025-12-19T23:57 | 10555 | 238 | 283 | 45 | ||
| 2025-12-19T23:58 | 10865 | 226 | 272 | 41 | ||
| 2025-12-19T23:58 | 10977 | 222 | -63.7 | |||
| 2025-12-19T23:59 | 11004 | 221 | 264 | 42 | ||
| 2025-12-19T23:59 | 11208 | 214 | -61.5 | |||
| 2025-12-19T23:59 | 11251 | 213 | 269 | 51 | ||
| 2025-12-19T23:59 | 11364 | 209 | -61.4 | |||
| 2025-12-20T00:00 | 11473 | 205 | 278 | 53 | ||
| 2025-12-20T00:00 | 11512 | 204 | -60.8 | |||
| 2025-12-20T00:00 | 11688 | 198 | -58.8 | 279 | 42 | |
| 2025-12-20T00:01 | 11942 | 190 | 270 | 43 | ||
| 2025-12-20T00:01 | 12049 | 187 | -58.0 | |||
| 2025-12-20T00:02 | 12230 | 182 | -57.7 | |||
| 2025-12-20T00:02 | 12289 | 180 | 275 | 48 | ||
| 2025-12-20T00:03 | 12547 | 173 | -57.2 | |||
| 2025-12-20T00:03 | 12589 | 172 | 283 | 42 | ||
| 2025-12-20T00:04 | 12916 | 163 | -58.2 | |||
| 2025-12-20T00:04 | 12944 | 162 | 287 | 30 | ||
| 2025-12-20T00:04 | 13146 | 157 | 283 | 24 | ||
| 2025-12-20T00:04 | 13152 | 157 | -58.9 | |||
| 2025-12-20T00:05 | 13500 | 149 | 266 | 24 | ||
| 2025-12-20T00:06 | 13718 | 143 | -62.3 | |||
| 2025-12-20T00:06 | 13834 | 141 | 268 | 29 | ||
| 2025-12-20T00:07 | 14158 | 134 | 267 | 28 | ||
| 2025-12-20T00:08 | 14300 | 131 | -62.0 | |||
| 2025-12-20T00:08 | 14490 | 127 | 259 | 28 | ||
| 2025-12-20T00:09 | 14518 | 126 | -62.2 | |||
| 2025-12-20T00:09 | 14818 | 120 | -61.3 | 260 | 37 | |
| 2025-12-20T00:10 | 15149 | 114 | -59.9 | |||
| 2025-12-20T00:10 | 15161 | 114 | 274 | 38 | ||
| 2025-12-20T00:11 | 15321 | 111 | -58.6 | |||
| 2025-12-20T00:11 | 15530 | 107 | 280 | 30 | ||
| 2025-12-20T00:12 | 15727 | 104 | -60.7 | |||
| 2025-12-20T00:12 | 15753 | 103 | 274 | 27 | ||
| 2025-12-20T00:13 | 15987 | 100 | 272 | 32 | ||
| 2025-12-20T00:13 | 16069 | 98 | -60.5 | |||
| 2025-12-20T00:13 | 16161 | 97 | 267 | 29 | ||
| 2025-12-20T00:14 | 16387 | 93 | -60.0 | |||
| 2025-12-20T00:14 | 16538 | 91 | 265 | 38 | ||
| 2025-12-20T00:15 | 16801 | 87 | -57.6 | |||
| 2025-12-20T00:15 | 16925 | 86 | 279 | 37 | ||
| 2025-12-20T00:16 | 17218 | 82 | -54.7 | |||
| 2025-12-20T00:16 | 17384 | 80 | 275 | 26 | ||
| 2025-12-20T00:17 | 17792 | 75 | 266 | 21 | ||
| 2025-12-20T00:17 | 17820 | 74 | -56.8 | |||
| 2025-12-20T00:18 | 18035 | 72 | -57.3 | |||
| 2025-12-20T00:18 | 18216 | 70 | 274 | 29 | ||
| 2025-12-20T00:18 | 18261 | 69 | -58.5 | |||
| 2025-12-20T00:19 | 18538 | 66 | -58.4 | |||
| 2025-12-20T00:19 | 18634 | 65 | 263 | 29 | ||
| 2025-12-20T00:19 | 18762 | 64 | -57.8 | |||
| 2025-12-20T00:20 | 18850 | 63 | 263 | 28 | ||
| 2025-12-20T00:20 | 18891 | 63 | -56.8 | |||
| 2025-12-20T00:20 | 19044 | 61 | -56.0 | |||
| 2025-12-20T00:20 | 19159 | 60 | -53.3 | |||
| 2025-12-20T00:20 | 19180 | 60 | 250 | 27 | ||
| 2025-12-20T00:21 | 19568 | 57 | -54.0 | |||
| 2025-12-20T00:21 | 19623 | 56 | 247 | 26 | ||
| 2025-12-20T00:22 | 19673 | 56 | -50.0 | |||
| 2025-12-20T00:22 | 19923 | 54 | -48.0 | |||
| 2025-12-20T00:22 | 19937 | 53 | 259 | 15 | ||
| 2025-12-20T00:23 | 20096 | 52 | 229 | 9 | ||
| 2025-12-20T00:23 | 20174 | 52 | -48.3 | |||
| 2025-12-20T00:23 | 20288 | 51 | 215 | 9 | ||
| 2025-12-20T00:24 | 20485 | 49 | 189 | 10 | ||
| 2025-12-20T00:24 | 20888 | 46 | 198 | 10 | ||
| 2025-12-20T00:25 | 21171 | 44 | -56.5 | |||
| 2025-12-20T00:25 | 21304 | 43 | 222 | 13 | ||
| 2025-12-20T00:26 | 21570 | 41 | 237 | 15 | ||
| 2025-12-20T00:26 | 21604 | 41 | -55.3 | |||
| 2025-12-20T00:27 | 21775 | 40 | -54.5 | |||
| 2025-12-20T00:27 | 21788 | 40 | 235 | 15 | ||
| 2025-12-20T00:27 | 21923 | 39 | 218 | 8 | ||
| 2025-12-20T00:27 | 21972 | 39 | -51.0 | |||
| 2025-12-20T00:27 | 22072 | 38 | 180 | 8 | ||
| 2025-12-20T00:28 | 22513 | 36 | 194 | 13 | ||
| 2025-12-20T00:29 | 22691 | 35 | -54.2 | |||
| 2025-12-20T00:29 | 22896 | 34 | 216 | 9 | ||
| 2025-12-20T00:30 | 23310 | 32 | 230 | 12 | ||
| 2025-12-20T00:31 | 23451 | 31 | -53.9 | |||
| 2025-12-20T00:31 | 23514 | 31 | 265 | 9 | ||
| 2025-12-20T00:31 | 23752 | 30 | 318 | 3 | ||
| 2025-12-20T00:32 | 23907 | 29 | -52.2 | |||
| 2025-12-20T00:32 | 23927 | 29 | 167 | 3 | ||
| 2025-12-20T00:32 | 24044 | 28 | 203 | 4 | ||
| 2025-12-20T00:33 | 24275 | 27 | 130 | 4 | ||
| 2025-12-20T00:33 | 24443 | 27 | 91 | 6 | ||
| 2025-12-20T00:34 | 24667 | 26 | 122 | 7 | ||
| 2025-12-20T00:34 | 24818 | 25 | -54.1 | |||
| 2025-12-20T00:34 | 24869 | 25 | 125 | 9 | ||
| 2025-12-20T00:34 | 25056 | 24 | 132 | 7 | ||
| 2025-12-20T00:35 | 25217 | 24 | 100 | 6 | ||
| 2025-12-20T00:35 | 25384 | 23 | 138 | 4 | ||
| 2025-12-20T00:36 | 25641 | 22 | 121 | 2 | ||
| 2025-12-20T00:36 | 25731 | 22 | 61 | 3 | ||
| 2025-12-20T00:36 | 25821 | 21 | 71 | 3 | ||
| 2025-12-20T00:37 | 26036 | 21 | 155 | 4 | ||
| 2025-12-20T00:37 | 26196 | 20 | 139 | 9 | ||
| 2025-12-20T00:38 | 26394 | 20 | -50.5 | |||
| 2025-12-20T00:38 | 26427 | 20 | 92 | 8 | ||
| 2025-12-20T00:38 | 26566 | 19 | -51.0 | 87 | 10 | |
| 2025-12-20T11:30 | 18 | 1012 | 7.5 | 6.9 | 160 | 5 |
| 2025-12-20T11:30 | 24 | 1011 | 7.6 | 7.0 | 162 | 1 |
| 2025-12-20T11:30 | 79 | 1005 | 7.6 | 6.9 | ||
| 2025-12-20T11:30 | 109 | 1001 | 8.8 | 7.4 | ||
| 2025-12-20T11:30 | 132 | 998 | 154 | 6 | ||
| 2025-12-20T11:31 | 271 | 982 | 158 | 9 | ||
| 2025-12-20T11:31 | 295 | 979 | 7.3 | 6.9 | ||
| 2025-12-20T11:31 | 357 | 972 | 7.1 | 6.0 | ||
| 2025-12-20T11:31 | 388 | 968 | 8.5 | 5.8 | ||
| 2025-12-20T11:31 | 469 | 958 | 164 | 8 | ||
| 2025-12-20T11:31 | 525 | 952 | 7.7 | 4.6 | ||
| 2025-12-20T11:32 | 614 | 942 | 179 | 6 | ||
| 2025-12-20T11:32 | 761 | 925 | 206 | 6 | ||
| 2025-12-20T11:32 | 788 | 922 | 5.6 | 3.8 | ||
| 2025-12-20T11:33 | 940 | 905 | 224 | 9 | ||
| 2025-12-20T11:33 | 964 | 903 | 4.6 | 3.1 | ||
| 2025-12-20T11:33 | 1194 | 877 | 3.4 | 1.8 | ||
| 2025-12-20T11:34 | 1294 | 866 | 237 | 16 | ||
| 2025-12-20T11:34 | 1360 | 859 | 3.3 | 0.0 | ||
| 2025-12-20T11:35 | 1651 | 829 | 242 | 19 | ||
| 2025-12-20T11:35 | 1913 | 802 | -0.6 | -2.7 | ||
| 2025-12-20T11:36 | 1979 | 796 | 238 | 24 | ||
| 2025-12-20T11:37 | 2283 | 766 | 239 | 23 | ||
| 2025-12-20T11:37 | 2305 | 764 | -2.2 | -3.6 | ||
| 2025-12-20T11:38 | 2630 | 733 | 250 | 23 | ||
| 2025-12-20T11:38 | 2764 | 721 | -5.1 | -5.5 | ||
| 2025-12-20T11:38 | 2832 | 715 | -5.2 | -5.9 | ||
| 2025-12-20T11:39 | 2994 | 700 | 247 | 28 | ||
| 2025-12-20T11:39 | 3203 | 682 | -6.7 | -7.6 | ||
| 2025-12-20T11:39 | 3260 | 677 | 247 | 31 | ||
| 2025-12-20T11:40 | 3382 | 666 | 248 | 29 | ||
| 2025-12-20T11:41 | 3755 | 635 | 255 | 31 | ||
| 2025-12-20T11:41 | 3982 | 616 | 250 | 33 | ||
| 2025-12-20T11:42 | 4224 | 597 | -13.3 | -15.0 | ||
| 2025-12-20T11:42 | 4371 | 586 | 248 | 37 | ||
| 2025-12-20T11:43 | 4681 | 562 | -16.6 | -18.1 | ||
| 2025-12-20T11:43 | 4741 | 558 | -16.8 | -20.5 | ||
| 2025-12-20T11:43 | 4748 | 557 | 248 | 39 | ||
| 2025-12-20T11:43 | 4793 | 554 | -16.4 | -19.6 | ||
| 2025-12-20T11:44 | 5119 | 530 | -17.6 | -20.5 | ||
| 2025-12-20T11:44 | 5138 | 529 | 253 | 38 | ||
| 2025-12-20T11:45 | 5544 | 501 | 250 | 37 | ||
| 2025-12-20T11:45 | 5670 | 492 | -20.9 | -24.0 | ||
| 2025-12-20T11:46 | 5963 | 473 | 251 | 37 | ||
| 2025-12-20T11:47 | 6258 | 454 | -25.3 | -28.3 | ||
| 2025-12-20T11:47 | 6374 | 447 | 248 | 38 | ||
| 2025-12-20T11:48 | 6804 | 421 | 252 | 41 | ||
| 2025-12-20T11:49 | 7037 | 408 | -31.3 | -34.1 | ||
| 2025-12-20T11:49 | 7256 | 395 | 250 | 44 | ||
| 2025-12-20T11:50 | 7433 | 385 | -34.6 | -37.7 | ||
| 2025-12-20T11:50 | 7459 | 384 | 254 | 44 | ||
| 2025-12-20T11:51 | 7835 | 363 | 253 | 45 | ||
| 2025-12-20T11:51 | 7842 | 363 | -37.9 | -41.2 | ||
| 2025-12-20T11:51 | 8123 | 349 | -40.0 | -43.4 | ||
| 2025-12-20T11:52 | 8226 | 343 | 252 | 46 | ||
| 2025-12-20T11:52 | 8486 | 330 | 253 | 46 | ||
| 2025-12-20T11:53 | 8653 | 322 | 257 | 46 | ||
| 2025-12-20T11:53 | 8782 | 316 | -45.3 | |||
| 2025-12-20T11:54 | 9045 | 304 | 256 | 46 | ||
| 2025-12-20T11:55 | 9404 | 288 | 259 | 44 | ||
| 2025-12-20T11:55 | 9667 | 276 | 262 | 49 | ||
| 2025-12-20T11:56 | 10033 | 261 | 262 | 50 | ||
| 2025-12-20T11:57 | 10410 | 246 | 266 | 51 | ||
| 2025-12-20T11:57 | 10471 | 243 | -58.8 | |||
| 2025-12-20T11:58 | 10717 | 234 | -59.4 | |||
| 2025-12-20T11:58 | 10768 | 232 | 268 | 50 | ||
| 2025-12-20T11:59 | 11087 | 221 | 267 | 50 | ||
| 2025-12-20T12:00 | 11281 | 214 | -63.0 | |||
| 2025-12-20T12:00 | 11455 | 208 | 264 | 51 | ||
| 2025-12-20T12:01 | 11562 | 204 | -64.5 | |||
| 2025-12-20T12:01 | 11781 | 197 | 263 | 52 | ||
| 2025-12-20T12:02 | 11910 | 193 | -65.2 | |||
| 2025-12-20T12:02 | 11921 | 192 | 267 | 52 | ||
| 2025-12-20T12:02 | 12110 | 187 | 269 | 50 | ||
| 2025-12-20T12:02 | 12178 | 184 | -64.1 | |||
| 2025-12-20T12:03 | 12263 | 182 | -63.0 | |||
| 2025-12-20T12:03 | 12375 | 179 | -62.9 | |||
| 2025-12-20T12:03 | 12447 | 177 | 263 | 45 | ||
| 2025-12-20T12:03 | 12464 | 176 | -61.3 | |||
| 2025-12-20T12:03 | 12523 | 174 | -59.8 | |||
| 2025-12-20T12:04 | 12552 | 174 | 264 | 50 | ||
| 2025-12-20T12:04 | 12724 | 169 | 270 | 48 | ||
| 2025-12-20T12:04 | 12846 | 166 | -58.6 | |||
| 2025-12-20T12:05 | 12935 | 163 | 271 | 48 | ||
| 2025-12-20T12:05 | 13066 | 160 | -58.3 | |||
| 2025-12-20T12:05 | 13133 | 158 | 272 | 48 | ||
| 2025-12-20T12:06 | 13290 | 154 | 272 | 39 | ||
| 2025-12-20T12:06 | 13339 | 153 | -57.3 | |||
| 2025-12-20T12:06 | 13555 | 148 | 265 | 36 | ||
| 2025-12-20T12:07 | 13695 | 145 | -58.4 | |||
| 2025-12-20T12:07 | 13751 | 143 | 258 | 36 | ||
| 2025-12-20T12:07 | 13863 | 141 | -58.4 | |||
| 2025-12-20T12:07 | 14053 | 137 | 248 | 38 | ||
| 2025-12-20T12:07 | 14068 | 136 | -59.5 | |||
| 2025-12-20T12:08 | 14246 | 133 | 259 | 41 | ||
| 2025-12-20T12:09 | 14587 | 125 | 270 | 38 | ||
| 2025-12-20T12:09 | 14778 | 122 | -60.6 | |||
| 2025-12-20T12:10 | 14962 | 118 | 260 | 29 | ||
| 2025-12-20T12:10 | 14988 | 118 | -60.3 | |||
| 2025-12-20T12:10 | 15182 | 114 | -60.6 | |||
| 2025-12-20T12:10 | 15189 | 114 | 251 | 30 | ||
| 2025-12-20T12:10 | 15318 | 112 | -59.4 | |||
| 2025-12-20T12:11 | 15468 | 109 | 266 | 34 | ||
| 2025-12-20T12:11 | 15546 | 108 | -60.2 | |||
| 2025-12-20T12:11 | 15595 | 107 | 271 | 39 | ||
| 2025-12-20T12:12 | 15823 | 103 | 268 | 32 | ||
| 2025-12-20T12:12 | 15935 | 101 | -60.8 | |||
| 2025-12-20T12:12 | 16142 | 98 | 262 | 28 | ||
| 2025-12-20T12:13 | 16398 | 94 | 266 | 31 | ||
| 2025-12-20T12:14 | 16678 | 90 | 266 | 28 | ||
| 2025-12-20T12:15 | 17026 | 85 | -60.0 | |||
| 2025-12-20T12:15 | 17049 | 85 | 267 | 31 | ||
| 2025-12-20T12:15 | 17258 | 82 | 279 | 26 | ||
| 2025-12-20T12:16 | 17626 | 77 | 279 | 22 | ||
| 2025-12-20T12:17 | 17818 | 75 | -59.6 | |||
| 2025-12-20T12:17 | 17936 | 73 | 274 | 27 | ||
| 2025-12-20T12:18 | 18100 | 71 | -59.7 | |||
| 2025-12-20T12:18 | 18234 | 70 | 273 | 23 | ||
| 2025-12-20T12:18 | 18422 | 68 | 271 | 25 | ||
| 2025-12-20T12:19 | 18706 | 65 | -59.8 | |||
| 2025-12-20T12:19 | 18753 | 64 | 258 | 23 | ||
| 2025-12-20T12:19 | 18882 | 63 | -57.4 | |||
| 2025-12-20T12:20 | 19024 | 62 | -56.6 | |||
| 2025-12-20T12:20 | 19090 | 61 | 248 | 25 | ||
| 2025-12-20T12:20 | 19143 | 61 | -55.0 | |||
| 2025-12-20T12:21 | 19346 | 59 | 232 | 26 | ||
| 2025-12-20T12:22 | 19601 | 56 | 242 | 30 | ||
| 2025-12-20T12:22 | 19668 | 56 | -55.2 | |||
| 2025-12-20T12:23 | 19963 | 53 | 259 | 22 | ||
| 2025-12-20T12:23 | 19976 | 53 | -53.4 | |||
| 2025-12-20T12:23 | 20295 | 51 | 274 | 18 | ||
| 2025-12-20T12:24 | 20592 | 48 | 280 | 14 | ||
| 2025-12-20T12:25 | 21014 | 45 | 291 | 8 | ||
| 2025-12-20T12:25 | 21067 | 45 | -57.9 | |||
| 2025-12-20T12:26 | 21211 | 44 | -56.0 | |||
| 2025-12-20T12:26 | 21299 | 43 | 268 | 9 | ||
| 2025-12-20T12:27 | 21556 | 41 | 234 | 9 | ||
| 2025-12-20T12:27 | 21667 | 41 | -55.1 | 217 | 15 | |
| 2025-12-20T23:30 | 18 | 1009 | 2.9 | 2.0 | 330 | 5 |
| 2025-12-20T23:30 | 22 | 1009 | 2.9 | 1.6 | 172 | 1 |
| 2025-12-20T23:30 | 53 | 1005 | 343 | 3 | ||
| 2025-12-20T23:30 | 131 | 995 | 323 | 7 | ||
| 2025-12-20T23:31 | 250 | 981 | 327 | 9 | ||
| 2025-12-20T23:31 | 261 | 980 | 0.9 | 0.3 | ||
| 2025-12-20T23:32 | 587 | 941 | 330 | 10 | ||
| 2025-12-20T23:32 | 715 | 925 | -1.7 | -2.0 | ||
| 2025-12-20T23:33 | 911 | 903 | 320 | 4 | ||
| 2025-12-20T23:33 | 928 | 901 | -1.7 | -2.3 | ||
| 2025-12-20T23:33 | 945 | 899 | 288 | 1 | ||
| 2025-12-20T23:33 | 986 | 895 | 202 | 3 | ||
| 2025-12-20T23:33 | 997 | 893 | 0.3 | -1.1 | ||
| 2025-12-20T23:33 | 1071 | 885 | 2.8 | 1.3 | ||
| 2025-12-20T23:34 | 1177 | 874 | 215 | 13 | ||
| 2025-12-20T23:34 | 1193 | 872 | 3.8 | 3.4 | ||
| 2025-12-20T23:35 | 1507 | 839 | 224 | 16 | ||
| 2025-12-20T23:35 | 1708 | 818 | 234 | 20 | ||
| 2025-12-20T23:36 | 1943 | 795 | -0.1 | -0.4 | ||
| 2025-12-20T23:36 | 2025 | 787 | 236 | 25 | ||
| 2025-12-20T23:36 | 2129 | 776 | -0.5 | -1.2 | ||
| 2025-12-20T23:37 | 2348 | 755 | 237 | 28 | ||
| 2025-12-20T23:37 | 2358 | 754 | -2.0 | -2.6 | ||
| 2025-12-20T23:38 | 2695 | 723 | 237 | 32 | ||
| 2025-12-20T23:39 | 2871 | 707 | 237 | 35 | ||
| 2025-12-20T23:39 | 2887 | 706 | -5.3 | -6.1 | ||
| 2025-12-20T23:39 | 2991 | 696 | 238 | 38 | ||
| 2025-12-20T23:40 | 3313 | 668 | 231 | 38 | ||
| 2025-12-20T23:41 | 3565 | 647 | -9.3 | -10.9 | ||
| 2025-12-20T23:41 | 3660 | 639 | 236 | 39 | ||
| 2025-12-20T23:42 | 3886 | 620 | -11.2 | -13.1 | ||
| 2025-12-20T23:42 | 4016 | 610 | 234 | 44 | ||
| 2025-12-20T23:42 | 4129 | 601 | -11.7 | -13.0 | ||
| 2025-12-20T23:43 | 4379 | 582 | 224 | 43 | ||
| 2025-12-20T23:43 | 4392 | 581 | -13.0 | -14.4 | ||
| 2025-12-20T23:44 | 4694 | 558 | 217 | 40 | ||
| 2025-12-20T23:44 | 4752 | 554 | -15.2 | -17.0 | ||
| 2025-12-20T23:45 | 5069 | 531 | 224 | 46 | ||
| 2025-12-20T23:45 | 5092 | 529 | -17.7 | -19.1 | ||
| 2025-12-20T23:45 | 5239 | 519 | -19.1 | -21.0 | ||
| 2025-12-20T23:46 | 5394 | 508 | -20.5 | -22.8 | ||
| 2025-12-20T23:46 | 5399 | 508 | 226 | 50 | ||
| 2025-12-20T23:46 | 5495 | 501 | -21.5 | -26.8 | ||
| 2025-12-20T23:47 | 5678 | 489 | 228 | 49 | ||
| 2025-12-20T23:47 | 5874 | 476 | -24.9 | -33.4 | ||
| 2025-12-20T23:48 | 6029 | 466 | 232 | 47 | ||
| 2025-12-20T23:48 | 6059 | 464 | -25.8 | -38.0 | ||
| 2025-12-20T23:49 | 6322 | 448 | -27.0 | -38.7 | ||
| 2025-12-20T23:49 | 6380 | 444 | 234 | 50 | ||
| 2025-12-20T23:49 | 6414 | 442 | -27.5 | -36.5 | ||
| 2025-12-20T23:49 | 6477 | 438 | -27.8 | -34.1 | ||
| 2025-12-20T23:49 | 6518 | 436 | -28.0 | -32.7 | ||
| 2025-12-20T23:50 | 6720 | 424 | -29.8 | -34.1 | ||
| 2025-12-20T23:50 | 6726 | 423 | 234 | 50 | ||
| 2025-12-20T23:51 | 7041 | 405 | -32.6 | -35.4 | ||
| 2025-12-20T23:51 | 7077 | 403 | 234 | 50 | ||
| 2025-12-20T23:52 | 7429 | 383 | 237 | 52 | ||
| 2025-12-20T23:52 | 7499 | 379 | -35.5 | -38.1 | ||
| 2025-12-20T23:53 | 7784 | 364 | 238 | 52 | ||
| 2025-12-20T23:53 | 7978 | 354 | 244 | 50 | ||
| 2025-12-20T23:53 | 8029 | 351 | -39.3 | -41.6 | ||
| 2025-12-20T23:54 | 8114 | 347 | -40.0 | -42.2 | ||
| 2025-12-20T23:54 | 8318 | 337 | 241 | 50 | ||
| 2025-12-20T23:55 | 8647 | 320 | 241 | 50 | ||
| 2025-12-20T23:56 | 8870 | 310 | 238 | 52 | ||
| 2025-12-20T23:57 | 9180 | 296 | 239 | 53 | ||
| 2025-12-20T23:58 | 9423 | 285 | -51.7 | |||
| 2025-12-20T23:58 | 9511 | 281 | 241 | 56 | ||
| 2025-12-20T23:59 | 9841 | 267 | 245 | 57 | ||
| 2025-12-21T00:00 | 10120 | 255 | -57.1 | |||
| 2025-12-21T00:00 | 10178 | 253 | 247 | 59 | ||
| 2025-12-21T00:00 | 10265 | 250 | -57.0 | |||
| 2025-12-21T00:01 | 10411 | 244 | 249 | 59 | ||
| 2025-12-21T00:01 | 10571 | 238 | -57.5 | |||
| 2025-12-21T00:01 | 10681 | 234 | 248 | 62 | ||
| 2025-12-21T00:02 | 10715 | 232 | -57.4 | |||
| 2025-12-21T00:02 | 10772 | 230 | 246 | 51 | ||
| 2025-12-21T00:02 | 10789 | 230 | -53.7 | |||
| 2025-12-21T00:02 | 10920 | 225 | 242 | 55 | ||
| 2025-12-21T00:03 | 11038 | 221 | -54.4 | |||
| 2025-12-21T00:03 | 11261 | 213 | 239 | 56 | ||
| 2025-12-21T00:04 | 11509 | 205 | -56.6 | |||
| 2025-12-21T00:04 | 11619 | 202 | 239 | 57 | ||
| 2025-12-21T00:05 | 11802 | 196 | -58.0 | |||
| 2025-12-21T00:05 | 11955 | 191 | 241 | 58 | ||
| 2025-12-21T00:06 | 12257 | 182 | 251 | 61 | ||
| 2025-12-21T00:06 | 12371 | 179 | -59.8 | |||
| 2025-12-21T00:07 | 12610 | 172 | 256 | 58 | ||
| 2025-12-21T00:08 | 12880 | 165 | 260 | 53 | ||
| 2025-12-21T00:08 | 13001 | 162 | -60.8 | |||
| 2025-12-21T00:09 | 13218 | 156 | 258 | 45 | ||
| 2025-12-21T00:09 | 13247 | 155 | -60.0 | |||
| 2025-12-21T00:09 | 13502 | 149 | 257 | 38 | ||
| 2025-12-21T00:10 | 13589 | 147 | -59.9 | |||
| 2025-12-21T00:10 | 13717 | 144 | 253 | 35 | ||
| 2025-12-21T00:10 | 13737 | 144 | -60.0 | |||
| 2025-12-21T00:11 | 14081 | 136 | -60.5 | |||
| 2025-12-21T00:11 | 14106 | 135 | 242 | 39 | ||
| 2025-12-21T00:11 | 14237 | 133 | -58.5 | |||
| 2025-12-21T00:11 | 14268 | 132 | 242 | 40 | ||
| 2025-12-21T00:12 | 14447 | 128 | -59.2 | |||
| 2025-12-21T00:12 | 14454 | 128 | 244 | 46 | ||
| 2025-12-21T00:12 | 14653 | 124 | -58.7 | |||
| 2025-12-21T00:12 | 14672 | 124 | 251 | 42 | ||
| 2025-12-21T00:13 | 14742 | 122 | -58.4 | |||
| 2025-12-21T00:13 | 14958 | 118 | -57.5 | |||
| 2025-12-21T00:13 | 14978 | 118 | 252 | 45 | ||
| 2025-12-21T00:14 | 15222 | 113 | -57.0 | |||
| 2025-12-21T00:14 | 15255 | 113 | 252 | 45 | ||
| 2025-12-21T00:14 | 15333 | 111 | -56.3 | |||
| 2025-12-21T00:14 | 15440 | 110 | 252 | 44 | ||
| 2025-12-21T00:15 | 15581 | 107 | 250 | 38 | ||
| 2025-12-21T00:15 | 15719 | 105 | 241 | 32 | ||
| 2025-12-21T00:15 | 15746 | 104 | -56.0 | |||
| 2025-12-21T00:16 | 15977 | 101 | 245 | 30 | ||
| 2025-12-21T00:16 | 15983 | 101 | -56.9 | |||
| 2025-12-21T00:16 | 16093 | 99 | 244 | 25 | ||
| 2025-12-21T00:16 | 16112 | 99 | -56.2 | |||
| 2025-12-21T00:17 | 16347 | 95 | 238 | 31 | ||
| 2025-12-21T00:17 | 16459 | 93 | 240 | 35 | ||
| 2025-12-21T00:17 | 16668 | 90 | 254 | 32 | ||
| 2025-12-21T00:18 | 16831 | 88 | 260 | 34 | ||
| 2025-12-21T00:18 | 17023 | 85 | 269 | 21 | ||
| 2025-12-21T00:19 | 17137 | 84 | -55.9 | |||
| 2025-12-21T00:19 | 17281 | 82 | 272 | 21 | ||
| 2025-12-21T00:20 | 17679 | 77 | 263 | 31 | ||
| 2025-12-21T00:20 | 17685 | 77 | -58.7 | |||
| 2025-12-21T00:21 | 17935 | 74 | 270 | 31 | ||
| 2025-12-21T00:21 | 18169 | 71 | 271 | 27 | ||
| 2025-12-21T00:22 | 18271 | 70 | -59.0 | |||
| 2025-12-21T00:22 | 18303 | 70 | 272 | 23 | ||
| 2025-12-21T00:22 | 18559 | 67 | 279 | 18 | ||
| 2025-12-21T00:23 | 18910 | 63 | 265 | 12 | ||
| 2025-12-21T00:24 | 19100 | 61 | -64.1 | |||
| 2025-12-21T00:24 | 19117 | 61 | 255 | 13 | ||
| 2025-12-21T00:25 | 19363 | 59 | -63.0 | |||
| 2025-12-21T00:25 | 19469 | 58 | 234 | 19 | ||
| 2025-12-21T00:25 | 19609 | 56 | -62.5 | |||
| 2025-12-21T00:26 | 19709 | 56 | 228 | 29 | ||
| 2025-12-21T00:26 | 19779 | 55 | -60.6 | |||
| 2025-12-21T00:26 | 19847 | 54 | -58.6 | |||
| 2025-12-21T00:26 | 19966 | 53 | -57.3 | 249 | 26 | |
| 2025-12-21T00:27 | 20096 | 52 | -54.2 | |||
| 2025-12-21T00:27 | 20159 | 52 | 244 | 16 | ||
| 2025-12-21T00:28 | 20389 | 50 | 243 | 20 | ||
| 2025-12-21T00:28 | 20717 | 47 | 214 | 13 | ||
| 2025-12-21T00:29 | 20852 | 46 | -53.1 | |||
| 2025-12-21T00:29 | 21095 | 45 | 242 | 17 | ||
| 2025-12-21T00:30 | 21420 | 43 | 254 | 9 | ||
| 2025-12-21T00:31 | 21497 | 42 | -52.5 | |||
| 2025-12-21T00:31 | 21702 | 41 | 249 | 12 | ||
| 2025-12-21T00:31 | 21893 | 40 | 248 | 7 | ||
| 2025-12-21T00:32 | 22231 | 38 | -53.6 | |||
| 2025-12-21T00:32 | 22281 | 37 | 188 | 7 | ||
| 2025-12-21T00:33 | 22703 | 35 | 200 | 8 | ||
| 2025-12-21T00:34 | 22811 | 34 | -56.9 | |||
| 2025-12-21T00:34 | 22945 | 34 | 202 | 12 | ||
| 2025-12-21T00:34 | 22995 | 33 | -55.5 | 209 | 11 | |
| 2025-12-21T12:49 | 18 | 1015 | 1.0 | -5.9 | 310 | 7 |
| 2025-12-21T12:49 | 19 | 1015 | 1.1 | -6.9 | 87 | 4 |
| 2025-12-21T12:49 | 25 | 1015 | 95 | 1 | ||
| 2025-12-21T12:49 | 61 | 1010 | 292 | 3 | ||
| 2025-12-21T12:50 | 212 | 991 | 314 | 12 | ||
| 2025-12-21T12:51 | 582 | 946 | 289 | 11 | ||
| 2025-12-21T12:51 | 653 | 937 | -4.7 | -9.9 | ||
| 2025-12-21T12:52 | 947 | 903 | 278 | 9 | ||
| 2025-12-21T12:52 | 998 | 897 | -7.5 | -10.5 | ||
| 2025-12-21T12:53 | 1287 | 864 | -9.7 | -10.9 | ||
| 2025-12-21T12:53 | 1329 | 860 | 273 | 5 | ||
| 2025-12-21T12:53 | 1555 | 835 | -11.8 | -12.3 | ||
| 2025-12-21T12:54 | 1674 | 822 | -12.3 | -14.4 | ||
| 2025-12-21T12:54 | 1717 | 817 | 262 | 5 | ||
| 2025-12-21T12:54 | 1784 | 810 | -12.9 | -16.1 | ||
| 2025-12-21T12:54 | 1843 | 804 | -13.0 | -17.8 | ||
| 2025-12-21T12:54 | 2002 | 787 | -12.8 | -24.2 | ||
| 2025-12-21T12:55 | 2064 | 781 | 264 | 13 | ||
| 2025-12-21T12:55 | 2103 | 777 | -12.5 | -32.6 | ||
| 2025-12-21T12:55 | 2164 | 771 | -12.0 | -35.7 | ||
| 2025-12-21T12:55 | 2224 | 764 | -11.6 | -34.6 | ||
| 2025-12-21T12:55 | 2312 | 756 | -11.7 | -33.9 | ||
| 2025-12-21T12:56 | 2395 | 748 | 239 | 18 | ||
| 2025-12-21T12:56 | 2642 | 724 | -14.3 | -34.7 | ||
| 2025-12-21T12:57 | 2706 | 718 | -14.4 | -40.4 | ||
| 2025-12-21T12:57 | 2741 | 714 | -13.9 | -47.6 | 244 | 21 |
| 2025-12-21T12:57 | 2870 | 702 | -14.5 | -50.5 | ||
| 2025-12-21T12:57 | 2964 | 694 | 248 | 23 | ||
| 2025-12-21T12:57 | 3026 | 688 | -13.8 | -59.1 | ||
| 2025-12-21T12:58 | 3221 | 671 | -13.6 | -59.0 | ||
| 2025-12-21T12:58 | 3259 | 667 | 234 | 28 | ||
| 2025-12-21T12:58 | 3292 | 664 | -13.6 | -59.0 | ||
| 2025-12-21T12:58 | 3365 | 658 | -13.2 | -53.1 | ||
| 2025-12-21T12:59 | 3650 | 634 | 232 | 32 | ||
| 2025-12-21T13:00 | 3955 | 608 | 231 | 34 | ||
| 2025-12-21T13:00 | 3961 | 608 | -17.7 | -46.7 | ||
| 2025-12-21T13:01 | 4329 | 579 | 228 | 37 | ||
| 2025-12-21T13:01 | 4469 | 568 | -20.4 | -48.8 | ||
| 2025-12-21T13:02 | 4695 | 550 | 230 | 40 | ||
| 2025-12-21T13:03 | 4979 | 530 | 228 | 43 | ||
| 2025-12-21T13:03 | 5059 | 524 | -23.1 | -54.3 | ||
| 2025-12-21T13:04 | 5241 | 511 | -23.7 | -65.6 | ||
| 2025-12-21T13:04 | 5301 | 507 | 229 | 46 | ||
| 2025-12-21T13:04 | 5339 | 504 | -23.9 | -54.9 | ||
| 2025-12-21T13:04 | 5384 | 501 | -24.2 | -35.6 | ||
| 2025-12-21T13:04 | 5430 | 498 | -24.6 | -33.4 | ||
| 2025-12-21T13:04 | 5471 | 495 | -24.7 | -29.4 | ||
| 2025-12-21T13:04 | 5554 | 489 | -24.1 | -27.7 | ||
| 2025-12-21T13:05 | 5653 | 483 | 225 | 51 | ||
| 2025-12-21T13:05 | 5835 | 471 | -25.8 | -28.4 | ||
| 2025-12-21T13:06 | 6034 | 458 | 219 | 50 | ||
| 2025-12-21T13:06 | 6292 | 442 | -29.2 | -32.6 | ||
| 2025-12-21T13:06 | 6332 | 440 | 220 | 56 | ||
| 2025-12-21T13:07 | 6452 | 432 | 219 | 59 | ||
| 2025-12-21T13:07 | 6555 | 426 | -30.5 | -33.9 | ||
| 2025-12-21T13:08 | 6758 | 414 | 218 | 61 | ||
| 2025-12-21T13:09 | 7179 | 390 | 220 | 61 | ||
| 2025-12-21T13:09 | 7234 | 387 | -36.2 | -39.3 | ||
| 2025-12-21T13:09 | 7490 | 372 | 217 | 61 | ||
| 2025-12-21T13:10 | 7677 | 362 | -40.0 | -43.5 | ||
| 2025-12-21T13:10 | 7853 | 353 | -41.0 | |||
| 2025-12-21T13:10 | 7879 | 352 | 215 | 63 | ||
| 2025-12-21T13:11 | 8280 | 332 | 215 | 63 | ||
| 2025-12-21T13:12 | 8563 | 318 | -47.4 | |||
| 2025-12-21T13:12 | 8692 | 312 | 220 | 65 | ||
| 2025-12-21T13:12 | 8705 | 311 | -48.1 | |||
| 2025-12-21T13:13 | 8948 | 300 | -49.9 | |||
| 2025-12-21T13:13 | 9077 | 294 | 223 | 65 | ||
| 2025-12-21T13:13 | 9152 | 291 | -49.3 | |||
| 2025-12-21T13:14 | 9461 | 277 | 225 | 64 | ||
| 2025-12-21T13:14 | 9501 | 276 | -50.3 | |||
| 2025-12-21T13:15 | 9680 | 268 | 225 | 64 | ||
| 2025-12-21T13:16 | 10053 | 253 | -52.1 | |||
| 2025-12-21T13:16 | 10066 | 253 | 227 | 59 | ||
| 2025-12-21T13:16 | 10298 | 244 | 226 | 56 | ||
| 2025-12-21T13:16 | 10312 | 243 | -52.8 | |||
| 2025-12-21T13:17 | 10650 | 231 | 228 | 60 | ||
| 2025-12-21T13:18 | 10944 | 220 | 224 | 53 | ||
| 2025-12-21T13:18 | 11093 | 215 | -53.3 | |||
| 2025-12-21T13:19 | 11326 | 208 | 230 | 63 | ||
| 2025-12-21T13:19 | 11401 | 205 | -54.0 | |||
| 2025-12-21T13:20 | 11612 | 199 | -53.2 | |||
| 2025-12-21T13:20 | 11699 | 196 | 233 | 58 | ||
| 2025-12-21T13:21 | 12039 | 186 | 235 | 54 | ||
| 2025-12-21T13:21 | 12137 | 183 | -53.7 | |||
| 2025-12-21T13:22 | 12366 | 177 | 233 | 55 | ||
| 2025-12-21T13:22 | 12400 | 176 | -54.6 | |||
| 2025-12-21T13:22 | 12668 | 168 | -56.1 | |||
| 2025-12-21T13:23 | 12778 | 166 | 232 | 56 | ||
| 2025-12-21T13:23 | 12956 | 161 | -56.1 | |||
| 2025-12-21T13:24 | 13146 | 156 | 238 | 53 | ||
| 2025-12-21T13:24 | 13299 | 153 | -55.4 | |||
| 2025-12-21T13:25 | 13472 | 148 | 239 | 48 | ||
| 2025-12-21T13:26 | 13816 | 141 | 237 | 47 | ||
| 2025-12-21T13:26 | 13881 | 139 | -53.0 | |||
| 2025-12-21T13:26 | 14079 | 135 | 234 | 48 | ||
| 2025-12-21T13:27 | 14242 | 132 | 234 | 52 | ||
| 2025-12-21T13:28 | 14567 | 125 | -55.5 | |||
| 2025-12-21T13:28 | 14642 | 124 | 239 | 43 | ||
| 2025-12-21T13:28 | 14874 | 119 | -55.9 | |||
| 2025-12-21T13:29 | 14971 | 118 | -55.8 | |||
| 2025-12-21T13:29 | 15040 | 116 | 248 | 44 | ||
| 2025-12-21T13:29 | 15077 | 116 | -54.5 | |||
| 2025-12-21T13:29 | 15276 | 112 | 250 | 41 | ||
| 2025-12-21T13:30 | 15388 | 110 | -54.8 | |||
| 2025-12-21T13:30 | 15450 | 109 | 257 | 41 | ||
| 2025-12-21T13:31 | 15665 | 105 | 260 | 35 | ||
| 2025-12-21T13:31 | 15764 | 104 | -53.9 | |||
| 2025-12-21T13:31 | 15938 | 101 | 246 | 35 | ||
| 2025-12-21T13:31 | 15986 | 100 | -55.1 | |||
| 2025-12-21T13:32 | 16057 | 99 | 243 | 35 | ||
| 2025-12-21T13:32 | 16176 | 97 | 246 | 29 | ||
| 2025-12-21T13:32 | 16194 | 97 | -54.4 | |||
| 2025-12-21T13:33 | 16551 | 92 | 231 | 31 | ||
| 2025-12-21T13:34 | 16882 | 87 | -57.3 | |||
| 2025-12-21T13:34 | 16928 | 87 | 236 | 30 | ||
| 2025-12-21T13:35 | 17144 | 84 | 230 | 26 | ||
| 2025-12-21T13:35 | 17238 | 82 | -58.1 | |||
| 2025-12-21T13:36 | 17530 | 79 | 224 | 30 | ||
| 2025-12-21T13:36 | 17809 | 75 | -56.7 | |||
| 2025-12-21T13:37 | 17929 | 74 | 243 | 33 | ||
| 2025-12-21T13:38 | 18344 | 69 | -57.6 | |||
| 2025-12-21T13:38 | 18355 | 69 | 244 | 24 | ||
| 2025-12-21T13:38 | 18531 | 67 | -56.6 | |||
| 2025-12-21T13:38 | 18685 | 66 | -57.2 | |||
| 2025-12-21T13:39 | 18725 | 65 | 232 | 29 | ||
| 2025-12-21T13:39 | 18790 | 64 | -55.8 | |||
| 2025-12-21T13:39 | 18981 | 63 | -54.3 | 246 | 29 | |
| 2025-12-21T13:40 | 19138 | 61 | -53.7 | |||
| 2025-12-21T13:40 | 19222 | 60 | 249 | 24 | ||
| 2025-12-21T13:40 | 19330 | 59 | -51.7 | |||
| 2025-12-21T13:41 | 19473 | 58 | -51.7 | |||
| 2025-12-21T13:41 | 19597 | 57 | 252 | 21 | ||
| 2025-12-21T13:42 | 19868 | 55 | 226 | 10 | ||
| 2025-12-21T13:42 | 19925 | 54 | -51.4 | |||
| 2025-12-21T13:42 | 20158 | 52 | 168 | 11 | ||
| 2025-12-21T13:43 | 20614 | 49 | 179 | 16 | ||
| 2025-12-21T13:43 | 20693 | 48 | -57.0 | |||
| 2025-12-21T13:44 | 20868 | 47 | 193 | 15 | ||
| 2025-12-21T13:44 | 20908 | 46 | -56.4 | |||
| 2025-12-21T13:45 | 21247 | 44 | 209 | 14 | ||
| 2025-12-21T13:46 | 21604 | 42 | 212 | 21 | ||
| 2025-12-21T13:46 | 21694 | 41 | -56.9 | |||
| 2025-12-21T13:46 | 21758 | 41 | 212 | 23 | ||
| 2025-12-21T13:47 | 21999 | 39 | 216 | 20 | ||
| 2025-12-21T13:48 | 22272 | 37 | -49.4 | 230 | 19 | |
| 2025-12-21T13:48 | 22449 | 36 | 263 | 12 | ||
| 2025-12-21T13:48 | 22594 | 36 | -49.5 | |||
| 2025-12-21T13:49 | 22817 | 34 | 241 | 10 | ||
| 2025-12-21T13:50 | 23167 | 33 | 222 | 11 | ||
| 2025-12-21T13:50 | 23513 | 31 | -52.6 | |||
| 2025-12-21T13:51 | 23597 | 31 | 242 | 9 | ||
| 2025-12-21T13:51 | 23813 | 30 | 261 | 10 | ||
| 2025-12-21T13:51 | 23856 | 29 | -50.6 | 259 | 7 | |
| 2025-12-21T23:30 | 18 | 1022 | -0.3 | -5.1 | 330 | 7 |
| 2025-12-21T23:30 | 24 | 1021 | -0.3 | -5.5 | 324 | 1 |
| 2025-12-21T23:30 | 66 | 1016 | 296 | 3 | ||
| 2025-12-21T23:30 | 89 | 1013 | 332 | 6 | ||
| 2025-12-21T23:31 | 180 | 1002 | 327 | 13 | ||
| 2025-12-21T23:31 | 202 | 999 | -2.4 | -7.5 | ||
| 2025-12-21T23:31 | 522 | 959 | 330 | 14 | ||
| 2025-12-21T23:33 | 879 | 916 | 328 | 15 | ||
| 2025-12-21T23:33 | 1019 | 900 | -9.7 | -10.2 | ||
| 2025-12-21T23:34 | 1235 | 875 | 329 | 13 | ||
| 2025-12-21T23:34 | 1296 | 868 | -11.8 | -13.0 | ||
| 2025-12-21T23:35 | 1594 | 835 | 341 | 12 | ||
| 2025-12-21T23:35 | 1749 | 818 | -15.2 | -17.3 | ||
| 2025-12-21T23:36 | 1970 | 794 | 319 | 10 | ||
| 2025-12-21T23:36 | 2041 | 787 | -17.6 | -19.2 | ||
| 2025-12-21T23:37 | 2312 | 759 | 314 | 9 | ||
| 2025-12-21T23:37 | 2390 | 751 | -20.6 | -21.7 | ||
| 2025-12-21T23:37 | 2441 | 746 | -20.4 | -23.7 | ||
| 2025-12-21T23:37 | 2508 | 739 | 310 | 12 | ||
| 2025-12-21T23:37 | 2594 | 730 | -20.5 | -26.4 | ||
| 2025-12-21T23:38 | 2868 | 704 | 309 | 14 | ||
| 2025-12-21T23:38 | 2881 | 702 | -21.3 | -29.0 | ||
| 2025-12-21T23:39 | 3102 | 682 | -22.5 | -31.7 | ||
| 2025-12-21T23:39 | 3236 | 669 | 311 | 14 | ||
| 2025-12-21T23:40 | 3435 | 651 | -24.8 | -34.0 | ||
| 2025-12-21T23:40 | 3515 | 644 | -24.9 | -36.9 | ||
| 2025-12-21T23:40 | 3602 | 636 | 301 | 16 | ||
| 2025-12-21T23:41 | 3851 | 615 | -25.5 | -48.3 | ||
| 2025-12-21T23:41 | 3969 | 605 | 289 | 16 | ||
| 2025-12-21T23:41 | 4080 | 596 | -26.9 | -51.3 | ||
| 2025-12-21T23:42 | 4235 | 583 | 285 | 16 | ||
| 2025-12-21T23:43 | 4599 | 554 | 292 | 18 | ||
| 2025-12-21T23:43 | 4806 | 538 | -32.9 | -54.2 | ||
| 2025-12-21T23:44 | 4962 | 526 | 295 | 19 | ||
| 2025-12-21T23:44 | 4968 | 526 | -34.0 | -58.0 | ||
| 2025-12-21T23:44 | 5133 | 514 | -34.3 | -60.9 | ||
| 2025-12-21T23:45 | 5335 | 499 | 284 | 20 | ||
| 2025-12-21T23:45 | 5567 | 482 | -36.8 | -64.5 | ||
| 2025-12-21T23:46 | 5624 | 478 | 271 | 21 | ||
| 2025-12-21T23:46 | 5713 | 472 | -37.0 | -64.6 | ||
| 2025-12-21T23:46 | 5757 | 469 | 270 | 25 | ||
| 2025-12-21T23:46 | 5933 | 458 | -37.8 | -67.3 | ||
| 2025-12-21T23:47 | 5982 | 454 | 275 | 26 | ||
| 2025-12-21T23:47 | 6184 | 441 | -38.4 | -67.8 | ||
| 2025-12-21T23:47 | 6322 | 432 | -39.2 | -68.4 | ||
| 2025-12-21T23:48 | 6355 | 430 | 270 | 28 | ||
| 2025-12-21T23:48 | 6533 | 419 | -40.0 | -68.9 | ||
| 2025-12-21T23:49 | 6730 | 407 | 270 | 32 | ||
| 2025-12-21T23:49 | 6791 | 404 | -40.8 | |||
| 2025-12-21T23:49 | 6972 | 393 | -40.4 | |||
| 2025-12-21T23:49 | 7031 | 390 | 271 | 34 | ||
| 2025-12-21T23:50 | 7313 | 374 | 266 | 39 | ||
| 2025-12-21T23:50 | 7363 | 371 | -41.4 | |||
| 2025-12-21T23:50 | 7463 | 366 | 270 | 38 | ||
| 2025-12-21T23:51 | 7602 | 358 | -42.4 | |||
| 2025-12-21T23:51 | 7702 | 353 | 265 | 38 | ||
| 2025-12-21T23:51 | 7852 | 345 | -43.0 | |||
| 2025-12-21T23:51 | 7930 | 341 | 267 | 40 | ||
| 2025-12-21T23:52 | 8013 | 337 | -43.0 | |||
| 2025-12-21T23:52 | 8356 | 320 | -43.7 | 258 | 34 | |
| 2025-12-21T23:53 | 8719 | 304 | -45.8 | |||
| 2025-12-21T23:53 | 8789 | 300 | 256 | 35 | ||
| 2025-12-21T23:54 | 9112 | 286 | -46.1 | |||
| 2025-12-21T23:54 | 9169 | 284 | 251 | 35 | ||
| 2025-12-21T23:55 | 9325 | 277 | 247 | 36 | ||
| 2025-12-21T23:55 | 9409 | 274 | -47.2 | |||
| 2025-12-21T23:55 | 9476 | 271 | 244 | 38 | ||
| 2025-12-21T23:55 | 9567 | 267 | -47.2 | |||
| 2025-12-21T23:56 | 9843 | 256 | 251 | 35 | ||
| 2025-12-21T23:56 | 9862 | 256 | -47.7 | |||
| 2025-12-21T23:57 | 9997 | 250 | 242 | 33 | ||
| 2025-12-21T23:57 | 10131 | 245 | -47.7 | |||
| 2025-12-21T23:57 | 10353 | 237 | 237 | 39 | ||
| 2025-12-21T23:58 | 10678 | 226 | 230 | 41 | ||
| 2025-12-21T23:58 | 10783 | 222 | -48.4 | |||
| 2025-12-21T23:59 | 11124 | 211 | 237 | 46 | ||
| 2025-12-22T00:00 | 11401 | 202 | -50.5 | |||
| 2025-12-22T00:00 | 11558 | 197 | 248 | 44 | ||
| 2025-12-22T00:01 | 11952 | 186 | 252 | 43 | ||
| 2025-12-22T00:02 | 12298 | 176 | 244 | 41 | ||
| 2025-12-22T00:03 | 12598 | 168 | -51.5 | |||
| 2025-12-22T00:03 | 12604 | 168 | 236 | 43 | ||
| 2025-12-22T00:04 | 12861 | 162 | -52.5 | |||
| 2025-12-22T00:04 | 12939 | 160 | 239 | 44 | ||
| 2025-12-22T00:05 | 13140 | 155 | -53.0 | |||
| 2025-12-22T00:05 | 13170 | 154 | 235 | 42 | ||
| 2025-12-22T00:05 | 13438 | 148 | 239 | 47 | ||
| 2025-12-22T00:06 | 13497 | 146 | -53.2 | |||
| 2025-12-22T00:06 | 13810 | 139 | 243 | 47 | ||
| 2025-12-22T00:07 | 13837 | 139 | -51.7 | |||
| 2025-12-22T00:07 | 14223 | 131 | -51.3 | |||
| 2025-12-22T00:07 | 14231 | 131 | 249 | 42 | ||
| 2025-12-22T00:08 | 14574 | 124 | -52.4 | |||
| 2025-12-22T00:08 | 14691 | 122 | 243 | 44 | ||
| 2025-12-22T00:09 | 15007 | 116 | 245 | 45 | ||
| 2025-12-22T00:09 | 15095 | 114 | -54.6 | |||
| 2025-12-22T00:10 | 15436 | 108 | -56.8 | |||
| 2025-12-22T00:10 | 15473 | 108 | 251 | 47 | ||
| 2025-12-22T00:10 | 15531 | 107 | -56.2 | |||
| 2025-12-22T00:11 | 15650 | 105 | -55.4 | |||
| 2025-12-22T00:11 | 15734 | 103 | 253 | 40 | ||
| 2025-12-22T00:11 | 15820 | 102 | -54.0 | |||
| 2025-12-22T00:11 | 15904 | 101 | -51.1 | |||
| 2025-12-22T00:11 | 15959 | 100 | 252 | 30 | ||
| 2025-12-22T00:11 | 16019 | 99 | -49.7 | |||
| 2025-12-22T00:12 | 16164 | 97 | 239 | 28 | ||
| 2025-12-22T00:12 | 16213 | 96 | -48.8 | |||
| 2025-12-22T00:12 | 16374 | 94 | -47.9 | |||
| 2025-12-22T00:13 | 16492 | 92 | 226 | 27 | ||
| 2025-12-22T00:14 | 16909 | 86 | 224 | 27 | ||
| 2025-12-22T00:14 | 16931 | 86 | -51.9 | |||
| 2025-12-22T00:14 | 17097 | 84 | -51.6 | |||
| 2025-12-22T00:15 | 17213 | 82 | 236 | 22 | ||
| 2025-12-22T00:15 | 17444 | 79 | -52.1 | |||
| 2025-12-22T00:15 | 17535 | 78 | 244 | 28 | ||
| 2025-12-22T00:16 | 17754 | 76 | -51.7 | |||
| 2025-12-22T00:16 | 17917 | 74 | 247 | 20 | ||
| 2025-12-22T00:17 | 18372 | 69 | 236 | 16 | ||
| 2025-12-22T00:17 | 18391 | 69 | -54.8 | |||
| 2025-12-22T00:18 | 18791 | 64 | 230 | 20 | ||
| 2025-12-22T00:19 | 19183 | 61 | 232 | 18 | ||
| 2025-12-22T00:19 | 19288 | 60 | -59.6 | |||
| 2025-12-22T00:20 | 19579 | 57 | 232 | 20 | ||
| 2025-12-22T00:20 | 19691 | 56 | -58.9 | |||
| 2025-12-22T00:21 | 19942 | 54 | -57.5 | |||
| 2025-12-22T00:21 | 19953 | 54 | 228 | 33 | ||
| 2025-12-22T00:22 | 20150 | 52 | -54.6 | |||
| 2025-12-22T00:22 | 20308 | 51 | -53.1 | 252 | 31 | |
| 2025-12-22T00:22 | 20548 | 49 | -51.6 | |||
| 2025-12-22T00:23 | 20568 | 49 | 266 | 24 | ||
| 2025-12-22T00:23 | 20722 | 48 | 250 | 20 | ||
| 2025-12-22T00:23 | 20901 | 46 | 244 | 19 | ||
| 2025-12-22T00:24 | 21033 | 45 | -47.6 | |||
| 2025-12-22T00:24 | 21199 | 44 | 217 | 11 | ||
| 2025-12-22T00:25 | 21558 | 42 | 200 | 10 | ||
| 2025-12-22T00:25 | 21846 | 40 | 209 | 14 | ||
| 2025-12-22T00:26 | 21876 | 40 | -52.7 | |||
| 2025-12-22T00:26 | 22193 | 38 | 215 | 7 | ||
| 2025-12-22T00:27 | 22469 | 36 | -52.7 | |||
| 2025-12-22T00:27 | 22522 | 36 | 154 | 6 | ||
| 2025-12-22T00:28 | 22795 | 35 | 144 | 6 | ||
| 2025-12-22T00:28 | 22942 | 34 | 148 | 6 | ||
| 2025-12-22T00:28 | 22964 | 34 | -56.2 | |||
| 2025-12-22T00:29 | 23274 | 32 | 187 | 11 | ||
| 2025-12-22T00:29 | 23643 | 30 | -54.7 | |||
| 2025-12-22T00:30 | 23727 | 30 | 221 | 10 | ||
| 2025-12-22T00:30 | 24013 | 29 | -53.6 | 226 | 10 | |
| 2025-12-22T00:30 | 24050 | 28 | -52.7 | 234 | 9 | |
| 2025-12-22T11:30 | 18 | 1029 | -2.0 | -8.5 | 270 | 3 |
| 2025-12-22T11:30 | 23 | 1028 | -1.9 | -9.5 | 0 | 0 |
| 2025-12-22T11:30 | 100 | 1018 | 259 | 3 | ||
| 2025-12-22T11:30 | 138 | 1013 | -2.6 | -10.2 | ||
| 2025-12-22T11:31 | 186 | 1007 | 249 | 5 | ||
| 2025-12-22T11:31 | 210 | 1004 | -3.1 | -10.4 | ||
| 2025-12-22T11:31 | 338 | 988 | 305 | 6 | ||
| 2025-12-22T11:31 | 495 | 968 | 293 | 7 | ||
| 2025-12-22T11:32 | 851 | 925 | 328 | 7 | ||
| 2025-12-22T11:32 | 857 | 924 | -8.5 | -11.8 | ||
| 2025-12-22T11:33 | 1201 | 884 | -11.7 | -13.1 | 341 | 4 |
| 2025-12-22T11:34 | 1355 | 866 | -12.2 | -14.2 | ||
| 2025-12-22T11:34 | 1440 | 857 | 68 | 1 | ||
| 2025-12-22T11:34 | 1452 | 855 | -12.5 | -15.1 | ||
| 2025-12-22T11:34 | 1508 | 849 | -12.2 | -18.6 | ||
| 2025-12-22T11:35 | 1654 | 833 | 287 | 3 | ||
| 2025-12-22T11:35 | 1667 | 832 | -12.6 | -36.2 | ||
| 2025-12-22T11:35 | 1915 | 805 | -13.7 | -39.9 | ||
| 2025-12-22T11:35 | 1952 | 801 | 269 | 7 | ||
| 2025-12-22T11:36 | 2192 | 776 | 284 | 8 | ||
| 2025-12-22T11:36 | 2283 | 767 | -15.9 | -40.6 | ||
| 2025-12-22T11:37 | 2454 | 750 | 277 | 9 | ||
| 2025-12-22T11:37 | 2560 | 739 | -17.4 | -39.3 | ||
| 2025-12-22T11:37 | 2637 | 731 | -17.3 | -37.8 | 283 | 12 |
| 2025-12-22T11:38 | 2773 | 718 | -16.9 | -49.7 | ||
| 2025-12-22T11:38 | 3021 | 695 | 286 | 14 | ||
| 2025-12-22T11:38 | 3034 | 694 | -16.5 | -36.5 | ||
| 2025-12-22T11:39 | 3235 | 676 | -17.1 | -32.1 | ||
| 2025-12-22T11:39 | 3398 | 661 | 285 | 15 | ||
| 2025-12-22T11:39 | 3428 | 658 | -18.2 | -31.2 | ||
| 2025-12-22T11:40 | 3768 | 629 | 285 | 18 | ||
| 2025-12-22T11:41 | 4108 | 601 | -21.6 | -31.1 | ||
| 2025-12-22T11:41 | 4140 | 598 | 283 | 19 | ||
| 2025-12-22T11:42 | 4521 | 568 | 282 | 18 | ||
| 2025-12-22T11:43 | 4713 | 553 | -25.8 | -34.7 | ||
| 2025-12-22T11:43 | 4906 | 539 | 287 | 20 | ||
| 2025-12-22T11:43 | 4971 | 534 | -27.8 | -37.5 | ||
| 2025-12-22T11:44 | 5290 | 511 | 285 | 22 | ||
| 2025-12-22T11:45 | 5515 | 495 | -31.8 | -43.0 | ||
| 2025-12-22T11:45 | 5676 | 483 | 283 | 22 | ||
| 2025-12-22T11:46 | 5779 | 476 | -33.8 | -45.7 | ||
| 2025-12-22T11:46 | 5852 | 471 | -34.3 | -44.2 | ||
| 2025-12-22T11:46 | 6073 | 457 | 277 | 24 | ||
| 2025-12-22T11:47 | 6363 | 438 | -37.6 | -48.0 | ||
| 2025-12-22T11:47 | 6471 | 431 | 278 | 19 | ||
| 2025-12-22T11:48 | 6700 | 417 | -40.0 | -49.6 | ||
| 2025-12-22T11:48 | 6890 | 406 | 270 | 21 | ||
| 2025-12-22T11:49 | 7296 | 382 | 273 | 22 | ||
| 2025-12-22T11:50 | 7714 | 358 | 268 | 25 | ||
| 2025-12-22T11:51 | 7982 | 344 | -50.1 | |||
| 2025-12-22T11:51 | 8088 | 339 | 271 | 25 | ||
| 2025-12-22T11:52 | 8501 | 318 | 275 | 23 | ||
| 2025-12-22T11:53 | 8678 | 309 | 272 | 21 | ||
| 2025-12-22T11:53 | 8782 | 304 | -55.1 | |||
| 2025-12-22T11:53 | 8972 | 295 | 263 | 23 | ||
| 2025-12-22T11:53 | 9048 | 291 | -56.0 | |||
| 2025-12-22T11:54 | 9358 | 278 | -56.0 | |||
| 2025-12-22T11:54 | 9386 | 276 | 272 | 25 | ||
| 2025-12-22T11:55 | 9598 | 267 | -55.8 | |||
| 2025-12-22T11:55 | 9807 | 259 | 269 | 26 | ||
| 2025-12-22T11:56 | 9994 | 251 | 271 | 28 | ||
| 2025-12-22T11:56 | 10092 | 247 | -54.9 | |||
| 2025-12-22T11:56 | 10116 | 246 | 268 | 26 | ||
| 2025-12-22T11:57 | 10369 | 237 | -53.1 | |||
| 2025-12-22T11:57 | 10418 | 235 | 267 | 27 | ||
| 2025-12-22T11:57 | 10516 | 232 | -52.0 | |||
| 2025-12-22T11:57 | 10545 | 231 | 265 | 30 | ||
| 2025-12-22T11:58 | 10885 | 219 | 268 | 30 | ||
| 2025-12-22T11:59 | 11072 | 213 | 258 | 30 | ||
| 2025-12-22T11:59 | 11175 | 209 | -51.5 | |||
| 2025-12-22T11:59 | 11321 | 205 | 258 | 33 | ||
| 2025-12-22T12:00 | 11518 | 198 | 261 | 33 | ||
| 2025-12-22T12:00 | 11734 | 192 | -52.8 | |||
| 2025-12-22T12:01 | 11778 | 191 | 262 | 36 | ||
| 2025-12-22T12:02 | 12146 | 180 | 262 | 33 | ||
| 2025-12-22T12:02 | 12224 | 178 | -51.7 | |||
| 2025-12-22T12:02 | 12404 | 173 | 265 | 33 | ||
| 2025-12-22T12:03 | 12770 | 164 | 271 | 35 | ||
| 2025-12-22T12:04 | 12852 | 161 | -52.2 | |||
| 2025-12-22T12:04 | 13131 | 155 | 263 | 29 | ||
| 2025-12-22T12:05 | 13499 | 146 | 252 | 26 | ||
| 2025-12-22T12:05 | 13554 | 145 | -52.8 | |||
| 2025-12-22T12:06 | 13903 | 137 | 249 | 31 | ||
| 2025-12-22T12:07 | 14274 | 129 | 253 | 36 | ||
| 2025-12-22T12:07 | 14293 | 129 | -54.3 | |||
| 2025-12-22T12:08 | 14650 | 122 | 252 | 33 | ||
| 2025-12-22T12:09 | 14897 | 117 | -54.5 | |||
| 2025-12-22T12:09 | 14957 | 116 | 258 | 37 | ||
| 2025-12-22T12:10 | 15127 | 113 | -52.4 | |||
| 2025-12-22T12:10 | 15239 | 111 | 260 | 31 | ||
| 2025-12-22T12:10 | 15408 | 109 | 258 | 33 | ||
| 2025-12-22T12:11 | 15770 | 103 | 258 | 26 | ||
| 2025-12-22T12:12 | 15935 | 100 | -51.6 | |||
| 2025-12-22T12:12 | 15948 | 100 | -51.6 | 255 | 25 | |
| 2025-12-22T12:12 | 16089 | 98 | 247 | 23 | ||
| 2025-12-22T12:13 | 16469 | 92 | 242 | 30 | ||
| 2025-12-22T12:13 | 16495 | 92 | -53.2 | |||
| 2025-12-22T12:14 | 16696 | 89 | -54.2 | |||
| 2025-12-22T12:14 | 16736 | 88 | 241 | 33 | ||
| 2025-12-22T12:15 | 17042 | 84 | -53.9 | |||
| 2025-12-22T12:15 | 17070 | 84 | 248 | 28 | ||
| 2025-12-22T12:15 | 17307 | 81 | 256 | 30 | ||
| 2025-12-22T12:16 | 17575 | 78 | 249 | 23 | ||
| 2025-12-22T12:17 | 17939 | 73 | 248 | 21 | ||
| 2025-12-22T12:17 | 18053 | 72 | -53.1 | |||
| 2025-12-22T12:18 | 18272 | 70 | 245 | 22 | ||
| 2025-12-22T12:18 | 18309 | 69 | -52.7 | |||
| 2025-12-22T12:18 | 18421 | 68 | -51.6 | |||
| 2025-12-22T12:19 | 18587 | 66 | 246 | 22 | ||
| 2025-12-22T12:19 | 18717 | 65 | -50.7 | |||
| 2025-12-22T12:19 | 18767 | 64 | 235 | 19 | ||
| 2025-12-22T12:20 | 19042 | 62 | -52.8 | |||
| 2025-12-22T12:20 | 19180 | 60 | 233 | 25 | ||
| 2025-12-22T12:21 | 19552 | 57 | 249 | 21 | ||
| 2025-12-22T12:21 | 19714 | 56 | 244 | 25 | ||
| 2025-12-22T12:22 | 19751 | 55 | -51.3 | |||
| 2025-12-22T12:22 | 20123 | 52 | 253 | 21 | ||
| 2025-12-22T12:23 | 20301 | 51 | 255 | 18 | ||
| 2025-12-22T12:23 | 20388 | 50 | -51.5 | |||
| 2025-12-22T12:24 | 20625 | 48 | 219 | 11 | ||
| 2025-12-22T12:24 | 20927 | 46 | 232 | 19 | ||
| 2025-12-22T12:25 | 21125 | 45 | 235 | 23 | ||
| 2025-12-22T12:25 | 21255 | 44 | -53.0 | |||
| 2025-12-22T12:26 | 21466 | 42 | 218 | 14 | ||
| 2025-12-22T12:26 | 21605 | 42 | -51.3 | |||
| 2025-12-22T12:26 | 21699 | 41 | 224 | 15 | ||
| 2025-12-22T12:27 | 21862 | 40 | -50.9 | |||
| 2025-12-22T12:27 | 22059 | 39 | 262 | 16 | ||
| 2025-12-22T12:27 | 22197 | 38 | -50.2 | |||
| 2025-12-22T12:28 | 22456 | 36 | 242 | 9 | ||
| 2025-12-22T12:29 | 22673 | 35 | -51.6 | |||
| 2025-12-22T12:29 | 22804 | 35 | 226 | 8 | ||
| 2025-12-22T12:30 | 23015 | 33 | 238 | 8 | ||
| 2025-12-22T12:30 | 23034 | 33 | -52.7 | 240 | 7 | |
| 2025-12-22T23:30 | 18 | 1031 | -5.0 | -10.0 | 140 | 1 |
| 2025-12-22T23:30 | 23 | 1031 | -4.8 | -10.6 | 0 | 0 |
| 2025-12-22T23:30 | 95 | 1021 | -5.1 | -11.3 | ||
| 2025-12-22T23:30 | 140 | 1015 | -2.1 | -11.9 | ||
| 2025-12-22T23:31 | 190 | 1009 | 239 | 3 | ||
| 2025-12-22T23:31 | 506 | 969 | -4.9 | -13.5 | ||
| 2025-12-22T23:32 | 536 | 966 | 194 | 3 | ||
| 2025-12-22T23:32 | 710 | 944 | 194 | 2 | ||
| 2025-12-22T23:33 | 1065 | 902 | 228 | 2 | ||
| 2025-12-22T23:33 | 1136 | 894 | -10.6 | -15.0 | ||
| 2025-12-22T23:34 | 1331 | 871 | -12.1 | -18.1 | ||
| 2025-12-22T23:34 | 1367 | 867 | 265 | 3 | ||
| 2025-12-22T23:34 | 1373 | 867 | -11.1 | -20.0 | ||
| 2025-12-22T23:34 | 1462 | 857 | 281 | 3 | ||
| 2025-12-22T23:34 | 1497 | 853 | -11.7 | -22.3 | ||
| 2025-12-22T23:34 | 1571 | 845 | 275 | 4 | ||
| 2025-12-22T23:34 | 1576 | 844 | -9.5 | -32.9 | ||
| 2025-12-22T23:35 | 1643 | 837 | -9.3 | -37.6 | ||
| 2025-12-22T23:35 | 1714 | 829 | 265 | 6 | ||
| 2025-12-22T23:36 | 1956 | 803 | -10.7 | -24.6 | ||
| 2025-12-22T23:36 | 2051 | 794 | 275 | 8 | ||
| 2025-12-22T23:36 | 2182 | 780 | -11.8 | -28.3 | ||
| 2025-12-22T23:37 | 2279 | 771 | -12.0 | -27.2 | ||
| 2025-12-22T23:37 | 2353 | 763 | -12.4 | -26.4 | ||
| 2025-12-22T23:37 | 2393 | 759 | 269 | 8 | ||
| 2025-12-22T23:37 | 2449 | 754 | -12.4 | -28.4 | ||
| 2025-12-22T23:38 | 2646 | 735 | 269 | 12 | ||
| 2025-12-22T23:38 | 2698 | 730 | -12.9 | -29.7 | ||
| 2025-12-22T23:38 | 2828 | 717 | -12.9 | -36.4 | ||
| 2025-12-22T23:38 | 2895 | 711 | 274 | 15 | ||
| 2025-12-22T23:39 | 2940 | 707 | -13.3 | -43.4 | ||
| 2025-12-22T23:39 | 3172 | 686 | -14.6 | -39.6 | ||
| 2025-12-22T23:39 | 3223 | 681 | -15.0 | -28.4 | ||
| 2025-12-22T23:39 | 3235 | 680 | 277 | 16 | ||
| 2025-12-22T23:40 | 3370 | 668 | -16.3 | -25.0 | ||
| 2025-12-22T23:40 | 3490 | 657 | -16.7 | -31.3 | ||
| 2025-12-22T23:40 | 3596 | 648 | 278 | 16 | ||
| 2025-12-22T23:40 | 3615 | 647 | -17.8 | -30.5 | ||
| 2025-12-22T23:41 | 3739 | 636 | -18.8 | -28.3 | ||
| 2025-12-22T23:41 | 3948 | 618 | 273 | 17 | ||
| 2025-12-22T23:42 | 4097 | 606 | -21.2 | -28.3 | ||
| 2025-12-22T23:42 | 4191 | 598 | -21.1 | -32.5 | ||
| 2025-12-22T23:42 | 4240 | 594 | -20.7 | -36.0 | ||
| 2025-12-22T23:42 | 4321 | 588 | 278 | 19 | ||
| 2025-12-22T23:42 | 4364 | 585 | -21.8 | -35.1 | ||
| 2025-12-22T23:43 | 4492 | 574 | -22.5 | -35.4 | ||
| 2025-12-22T23:43 | 4703 | 558 | 272 | 18 | ||
| 2025-12-22T23:44 | 4857 | 546 | -24.6 | -38.3 | ||
| 2025-12-22T23:44 | 4953 | 539 | -25.1 | -40.3 | ||
| 2025-12-22T23:44 | 5086 | 529 | 283 | 19 | ||
| 2025-12-22T23:44 | 5123 | 527 | -25.3 | -48.1 | ||
| 2025-12-22T23:45 | 5451 | 503 | 290 | 19 | ||
| 2025-12-22T23:46 | 5591 | 494 | -29.5 | -40.7 | ||
| 2025-12-22T23:46 | 5724 | 484 | -30.6 | -38.9 | ||
| 2025-12-22T23:46 | 5827 | 477 | 290 | 19 | ||
| 2025-12-22T23:47 | 6047 | 463 | -33.0 | -41.1 | ||
| 2025-12-22T23:47 | 6128 | 457 | 287 | 24 | ||
| 2025-12-22T23:48 | 6327 | 445 | -35.2 | -44.3 | ||
| 2025-12-22T23:48 | 6516 | 433 | 279 | 24 | ||
| 2025-12-22T23:48 | 6523 | 432 | -36.8 | -45.1 | ||
| 2025-12-22T23:49 | 6739 | 419 | -38.6 | -43.9 | ||
| 2025-12-22T23:49 | 6900 | 409 | 283 | 25 | ||
| 2025-12-22T23:49 | 6926 | 408 | -40.0 | -41.7 | ||
| 2025-12-22T23:50 | 7067 | 399 | 282 | 24 | ||
| 2025-12-22T23:50 | 7273 | 387 | 287 | 26 | ||
| 2025-12-22T23:50 | 7438 | 378 | -43.7 | |||
| 2025-12-22T23:51 | 7654 | 366 | 284 | 29 | ||
| 2025-12-22T23:52 | 8053 | 345 | 285 | 30 | ||
| 2025-12-22T23:52 | 8229 | 335 | -49.5 | |||
| 2025-12-22T23:53 | 8375 | 328 | 287 | 33 | ||
| 2025-12-22T23:53 | 8603 | 317 | -51.9 | |||
| 2025-12-22T23:54 | 8749 | 310 | 292 | 33 | ||
| 2025-12-22T23:54 | 8917 | 302 | -53.6 | |||
| 2025-12-22T23:55 | 9130 | 292 | 298 | 32 | ||
| 2025-12-22T23:56 | 9368 | 281 | -55.7 | |||
| 2025-12-22T23:56 | 9506 | 275 | 301 | 36 | ||
| 2025-12-22T23:56 | 9601 | 271 | -55.9 | |||
| 2025-12-22T23:57 | 9767 | 264 | 303 | 36 | ||
| 2025-12-22T23:57 | 9828 | 261 | -57.1 | |||
| 2025-12-22T23:57 | 9908 | 258 | 302 | 39 | ||
| 2025-12-22T23:57 | 10082 | 251 | 298 | 36 | ||
| 2025-12-22T23:57 | 10119 | 250 | -57.8 | |||
| 2025-12-22T23:58 | 10240 | 245 | 299 | 38 | ||
| 2025-12-22T23:58 | 10390 | 239 | -57.5 | |||
| 2025-12-22T23:58 | 10445 | 237 | 290 | 36 | ||
| 2025-12-22T23:59 | 10731 | 227 | 287 | 31 | ||
| 2025-12-23T00:00 | 10845 | 222 | -56.5 | |||
| 2025-12-23T00:00 | 10856 | 222 | 288 | 37 | ||
| 2025-12-23T00:00 | 11036 | 216 | 284 | 33 | ||
| 2025-12-23T00:01 | 11194 | 211 | -56.1 | |||
| 2025-12-23T00:01 | 11355 | 205 | 283 | 35 | ||
| 2025-12-23T00:01 | 11512 | 200 | -54.3 | |||
| 2025-12-23T00:02 | 11714 | 194 | 284 | 34 | ||
| 2025-12-23T00:02 | 11779 | 192 | -52.9 | |||
| 2025-12-23T00:03 | 12038 | 185 | 283 | 30 | ||
| 2025-12-23T00:03 | 12096 | 183 | -52.1 | |||
| 2025-12-23T00:04 | 12300 | 177 | -52.5 | |||
| 2025-12-23T00:04 | 12380 | 175 | 283 | 29 | ||
| 2025-12-23T00:04 | 12507 | 172 | -52.5 | |||
| 2025-12-23T00:04 | 12562 | 170 | 280 | 26 | ||
| 2025-12-23T00:05 | 12897 | 162 | -53.7 | |||
| 2025-12-23T00:05 | 12935 | 161 | 272 | 27 | ||
| 2025-12-23T00:06 | 13233 | 153 | 267 | 25 | ||
| 2025-12-23T00:07 | 13403 | 149 | -53.6 | |||
| 2025-12-23T00:07 | 13601 | 145 | 264 | 31 | ||
| 2025-12-23T00:07 | 13725 | 142 | 267 | 29 | ||
| 2025-12-23T00:08 | 13756 | 141 | -53.6 | |||
| 2025-12-23T00:08 | 13892 | 138 | 268 | 29 | ||
| 2025-12-23T00:09 | 14264 | 131 | 269 | 28 | ||
| 2025-12-23T00:09 | 14380 | 128 | -54.6 | |||
| 2025-12-23T00:09 | 14470 | 126 | 278 | 29 | ||
| 2025-12-23T00:10 | 14639 | 123 | -54.6 | |||
| 2025-12-23T00:10 | 14745 | 121 | 274 | 24 | ||
| 2025-12-23T00:10 | 14814 | 120 | -54.4 | |||
| 2025-12-23T00:11 | 14879 | 119 | 280 | 20 | ||
| 2025-12-23T00:12 | 15260 | 112 | 271 | 19 | ||
| 2025-12-23T00:12 | 15348 | 110 | -55.2 | |||
| 2025-12-23T00:13 | 15644 | 105 | 273 | 19 | ||
| 2025-12-23T00:13 | 15971 | 100 | -56.6 | |||
| 2025-12-23T00:13 | 15998 | 100 | -56.9 | |||
| 2025-12-23T00:14 | 16047 | 99 | 263 | 14 | ||
| 2025-12-23T00:15 | 16454 | 93 | 243 | 14 | ||
| 2025-12-23T00:16 | 16853 | 87 | 260 | 18 | ||
| 2025-12-23T00:16 | 16954 | 85 | -60.7 | |||
| 2025-12-23T00:16 | 17122 | 83 | 252 | 21 | ||
| 2025-12-23T00:16 | 17160 | 83 | -59.9 | |||
| 2025-12-23T00:17 | 17332 | 80 | -58.3 | |||
| 2025-12-23T00:17 | 17497 | 78 | 264 | 24 | ||
| 2025-12-23T00:18 | 17614 | 77 | -56.0 | |||
| 2025-12-23T00:18 | 17886 | 74 | 262 | 21 | ||
| 2025-12-23T00:18 | 17892 | 74 | -54.9 | |||
| 2025-12-23T00:19 | 18044 | 72 | 272 | 20 | ||
| 2025-12-23T00:19 | 18200 | 70 | 251 | 17 | ||
| 2025-12-23T00:19 | 18206 | 70 | -53.3 | |||
| 2025-12-23T00:20 | 18587 | 66 | 243 | 24 | ||
| 2025-12-23T00:20 | 18633 | 66 | -53.8 | |||
| 2025-12-23T00:21 | 18815 | 64 | 253 | 20 | ||
| 2025-12-23T00:21 | 18998 | 62 | -52.8 | |||
| 2025-12-23T00:21 | 19041 | 62 | 262 | 22 | ||
| 2025-12-23T00:21 | 19177 | 60 | 261 | 17 | ||
| 2025-12-23T00:22 | 19210 | 60 | -50.9 | |||
| 2025-12-23T00:22 | 19386 | 58 | 256 | 16 | ||
| 2025-12-23T00:23 | 19670 | 56 | 254 | 11 | ||
| 2025-12-23T00:23 | 19891 | 54 | -52.3 | |||
| 2025-12-23T00:23 | 19931 | 54 | 255 | 14 | ||
| 2025-12-23T00:24 | 20127 | 52 | 228 | 8 | ||
| 2025-12-23T00:24 | 20249 | 51 | -50.8 | |||
| 2025-12-23T00:24 | 20378 | 50 | -50.7 | |||
| 2025-12-23T00:25 | 20433 | 50 | 219 | 12 | ||
| 2025-12-23T00:25 | 20712 | 48 | 189 | 12 | ||
| 2025-12-23T00:25 | 20726 | 48 | -50.8 | |||
| 2025-12-23T00:26 | 21124 | 45 | 210 | 16 | ||
| 2025-12-23T00:27 | 21556 | 42 | 227 | 19 | ||
| 2025-12-23T00:28 | 21708 | 41 | -55.1 | |||
| 2025-12-23T00:28 | 21850 | 40 | 245 | 18 | ||
| 2025-12-23T00:28 | 21906 | 40 | -54.5 | 244 | 16 | |
| 2025-12-23T11:39 | 18 | 1023 | 0.6 | -4.1 | 110 | 5 |
| 2025-12-23T11:39 | 23 | 1022 | 0.5 | -4.9 | 0 | 0 |
| 2025-12-23T11:39 | 47 | 1019 | 122 | 3 | ||
| 2025-12-23T11:39 | 107 | 1011 | 137 | 4 | ||
| 2025-12-23T11:40 | 213 | 998 | 128 | 9 | ||
| 2025-12-23T11:40 | 225 | 997 | -1.3 | -5.9 | ||
| 2025-12-23T11:40 | 303 | 987 | -1.3 | -5.7 | ||
| 2025-12-23T11:40 | 351 | 981 | -0.6 | -5.2 | ||
| 2025-12-23T11:40 | 373 | 978 | 162 | 10 | ||
| 2025-12-23T11:41 | 680 | 942 | 178 | 13 | ||
| 2025-12-23T11:42 | 901 | 916 | 186 | 16 | ||
| 2025-12-23T11:42 | 906 | 915 | -4.5 | -7.9 | ||
| 2025-12-23T11:43 | 1255 | 875 | 210 | 13 | ||
| 2025-12-23T11:43 | 1345 | 865 | -7.2 | -11.9 | ||
| 2025-12-23T11:43 | 1496 | 849 | -7.6 | -13.0 | ||
| 2025-12-23T11:44 | 1541 | 844 | -5.3 | -16.2 | ||
| 2025-12-23T11:44 | 1587 | 839 | -5.0 | -17.5 | ||
| 2025-12-23T11:44 | 1600 | 838 | 232 | 13 | ||
| 2025-12-23T11:44 | 1680 | 829 | -5.2 | -17.6 | ||
| 2025-12-23T11:44 | 1772 | 819 | -5.2 | -15.6 | ||
| 2025-12-23T11:45 | 1993 | 796 | 253 | 9 | ||
| 2025-12-23T11:46 | 2394 | 756 | 251 | 9 | ||
| 2025-12-23T11:46 | 2420 | 754 | -10.4 | -14.8 | ||
| 2025-12-23T11:46 | 2651 | 732 | -11.7 | -13.4 | ||
| 2025-12-23T11:47 | 2744 | 723 | 249 | 13 | ||
| 2025-12-23T11:47 | 2815 | 716 | -11.8 | -15.0 | ||
| 2025-12-23T11:47 | 2981 | 701 | 259 | 18 | ||
| 2025-12-23T11:47 | 2989 | 700 | -12.5 | -17.2 | ||
| 2025-12-23T11:47 | 3093 | 691 | -11.8 | -18.4 | ||
| 2025-12-23T11:48 | 3214 | 680 | 235 | 19 | ||
| 2025-12-23T11:48 | 3234 | 678 | -12.2 | -19.4 | ||
| 2025-12-23T11:49 | 3610 | 645 | 230 | 23 | ||
| 2025-12-23T11:49 | 3635 | 643 | -15.5 | -19.7 | ||
| 2025-12-23T11:49 | 3724 | 635 | -15.6 | -18.7 | ||
| 2025-12-23T11:50 | 3889 | 622 | -16.2 | -19.4 | ||
| 2025-12-23T11:50 | 3968 | 615 | 244 | 23 | ||
| 2025-12-23T11:50 | 4160 | 600 | -17.9 | -21.3 | ||
| 2025-12-23T11:50 | 4226 | 594 | 245 | 26 | ||
| 2025-12-23T11:51 | 4232 | 594 | -17.4 | -20.6 | ||
| 2025-12-23T11:51 | 4496 | 573 | -17.2 | -20.4 | ||
| 2025-12-23T11:51 | 4597 | 566 | 251 | 31 | ||
| 2025-12-23T11:52 | 4916 | 542 | -19.2 | -22.5 | ||
| 2025-12-23T11:52 | 4981 | 537 | 253 | 29 | ||
| 2025-12-23T11:53 | 5244 | 518 | -21.1 | -24.5 | ||
| 2025-12-23T11:53 | 5386 | 509 | 252 | 25 | ||
| 2025-12-23T11:54 | 5773 | 482 | 247 | 26 | ||
| 2025-12-23T11:55 | 5899 | 474 | -24.4 | -28.0 | ||
| 2025-12-23T11:55 | 6178 | 456 | 252 | 29 | ||
| 2025-12-23T11:56 | 6324 | 447 | -27.3 | -30.5 | ||
| 2025-12-23T11:56 | 6391 | 443 | 259 | 34 | ||
| 2025-12-23T11:57 | 6815 | 418 | 267 | 38 | ||
| 2025-12-23T11:57 | 7037 | 405 | -31.1 | -33.8 | ||
| 2025-12-23T11:58 | 7215 | 395 | 266 | 42 | ||
| 2025-12-23T11:59 | 7612 | 373 | 262 | 42 | ||
| 2025-12-23T11:59 | 7694 | 368 | -35.9 | -38.9 | ||
| 2025-12-23T12:00 | 7989 | 353 | 262 | 45 | ||
| 2025-12-23T12:00 | 8200 | 342 | -40.0 | -43.2 | ||
| 2025-12-23T12:01 | 8366 | 334 | 267 | 43 | ||
| 2025-12-23T12:02 | 8757 | 315 | 266 | 47 | ||
| 2025-12-23T12:03 | 9169 | 296 | 264 | 47 | ||
| 2025-12-23T12:03 | 9343 | 288 | -49.7 | |||
| 2025-12-23T12:04 | 9555 | 279 | 263 | 48 | ||
| 2025-12-23T12:04 | 9727 | 272 | 262 | 50 | ||
| 2025-12-23T12:05 | 9869 | 266 | 263 | 50 | ||
| 2025-12-23T12:05 | 9990 | 261 | 264 | 53 | ||
| 2025-12-23T12:06 | 10348 | 247 | 261 | 51 | ||
| 2025-12-23T12:07 | 10772 | 230 | 262 | 54 | ||
| 2025-12-23T12:07 | 10969 | 223 | 263 | 55 | ||
| 2025-12-23T12:08 | 11130 | 217 | -65.6 | 264 | 55 | |
| 2025-12-23T12:09 | 11526 | 203 | 269 | 51 | ||
| 2025-12-23T12:09 | 11547 | 203 | -67.7 | |||
| 2025-12-23T12:09 | 11678 | 198 | 271 | 47 | ||
| 2025-12-23T12:09 | 11747 | 196 | -66.1 | |||
| 2025-12-23T12:10 | 12040 | 187 | 274 | 39 | ||
| 2025-12-23T12:10 | 12059 | 186 | -62.9 | |||
| 2025-12-23T12:11 | 12319 | 179 | 277 | 38 | ||
| 2025-12-23T12:11 | 12499 | 173 | 271 | 35 | ||
| 2025-12-23T12:11 | 12527 | 173 | -62.3 | |||
| 2025-12-23T12:11 | 12683 | 168 | 271 | 33 | ||
| 2025-12-23T12:11 | 12690 | 168 | -59.8 | |||
| 2025-12-23T12:12 | 12841 | 164 | -59.0 | |||
| 2025-12-23T12:12 | 13063 | 158 | 262 | 25 | ||
| 2025-12-23T12:13 | 13147 | 156 | -59.0 | |||
| 2025-12-23T12:13 | 13286 | 153 | -58.3 | |||
| 2025-12-23T12:13 | 13448 | 149 | 253 | 32 | ||
| 2025-12-23T12:14 | 13600 | 145 | -58.0 | |||
| 2025-12-23T12:14 | 13662 | 144 | 258 | 32 | ||
| 2025-12-23T12:15 | 13866 | 139 | -58.0 | |||
| 2025-12-23T12:15 | 13988 | 137 | -57.7 | |||
| 2025-12-23T12:15 | 14020 | 136 | 271 | 32 | ||
| 2025-12-23T12:15 | 14102 | 134 | -57.4 | |||
| 2025-12-23T12:16 | 14299 | 130 | 276 | 31 | ||
| 2025-12-23T12:16 | 14470 | 127 | -58.4 | |||
| 2025-12-23T12:17 | 14675 | 123 | 268 | 27 | ||
| 2025-12-23T12:17 | 14821 | 120 | -58.6 | |||
| 2025-12-23T12:18 | 15065 | 115 | 253 | 21 | ||
| 2025-12-23T12:18 | 15104 | 115 | -57.5 | |||
| 2025-12-23T12:18 | 15324 | 111 | -56.9 | |||
| 2025-12-23T12:18 | 15355 | 110 | 251 | 23 | ||
| 2025-12-23T12:19 | 15702 | 104 | 247 | 20 | ||
| 2025-12-23T12:20 | 15766 | 103 | -57.6 | |||
| 2025-12-23T12:20 | 15896 | 101 | -57.9 | |||
| 2025-12-23T12:20 | 15992 | 100 | 248 | 27 | ||
| 2025-12-23T12:20 | 16096 | 98 | -57.1 | |||
| 2025-12-23T12:21 | 16321 | 94 | -57.5 | |||
| 2025-12-23T12:21 | 16387 | 93 | 257 | 26 | ||
| 2025-12-23T12:21 | 16541 | 91 | -56.0 | |||
| 2025-12-23T12:22 | 16588 | 91 | 267 | 23 | ||
| 2025-12-23T12:22 | 16762 | 88 | 259 | 19 | ||
| 2025-12-23T12:22 | 16784 | 88 | -55.6 | |||
| 2025-12-23T12:22 | 16886 | 86 | -53.8 | |||
| 2025-12-23T12:23 | 17082 | 84 | 277 | 10 | ||
| 2025-12-23T12:23 | 17330 | 81 | -55.1 | |||
| 2025-12-23T12:24 | 17426 | 79 | 226 | 10 | ||
| 2025-12-23T12:24 | 17573 | 78 | -55.3 | |||
| 2025-12-23T12:24 | 17665 | 77 | 216 | 17 | ||
| 2025-12-23T12:25 | 17842 | 74 | 224 | 19 | ||
| 2025-12-23T12:25 | 18113 | 71 | 236 | 18 | ||
| 2025-12-23T12:26 | 18415 | 68 | -54.7 | |||
| 2025-12-23T12:26 | 18521 | 67 | 246 | 18 | ||
| 2025-12-23T12:27 | 18936 | 63 | 254 | 10 | ||
| 2025-12-23T12:28 | 19018 | 62 | -53.9 | |||
| 2025-12-23T12:28 | 19069 | 61 | 256 | 7 | ||
| 2025-12-23T12:28 | 19143 | 61 | -52.4 | |||
| 2025-12-23T12:28 | 19217 | 60 | 213 | 10 | ||
| 2025-12-23T12:29 | 19438 | 58 | 214 | 18 | ||
| 2025-12-23T12:29 | 19629 | 56 | 221 | 18 | ||
| 2025-12-23T12:29 | 19685 | 56 | -51.5 | |||
| 2025-12-23T12:30 | 19875 | 54 | -51.4 | |||
| 2025-12-23T12:30 | 20009 | 53 | 238 | 19 | ||
| 2025-12-23T12:31 | 20108 | 52 | -51.1 | |||
| 2025-12-23T12:31 | 20309 | 51 | -50.0 | |||
| 2025-12-23T12:31 | 20417 | 50 | 254 | 12 | ||
| 2025-12-23T12:32 | 20831 | 47 | 241 | 11 | ||
| 2025-12-23T12:33 | 21265 | 44 | 222 | 9 | ||
| 2025-12-23T12:34 | 21539 | 42 | 211 | 10 | ||
| 2025-12-23T12:34 | 21634 | 41 | -52.1 | |||
| 2025-12-23T12:35 | 21951 | 39 | 222 | 13 | ||
| 2025-12-23T12:36 | 22149 | 38 | -53.5 | |||
| 2025-12-23T12:36 | 22217 | 38 | 235 | 10 | ||
| 2025-12-23T12:36 | 22392 | 37 | 217 | 3 | ||
| 2025-12-23T12:36 | 22497 | 36 | 182 | 5 | ||
| 2025-12-23T12:36 | 22516 | 36 | -53.0 | |||
| 2025-12-23T12:37 | 22698 | 35 | 168 | 6 | ||
| 2025-12-23T12:37 | 22717 | 35 | -53.4 | |||
| 2025-12-23T12:37 | 22808 | 35 | 142 | 7 | ||
| 2025-12-23T12:38 | 23033 | 33 | 163 | 8 | ||
| 2025-12-23T12:38 | 23249 | 32 | 166 | 10 | ||
| 2025-12-23T12:39 | 23496 | 31 | 193 | 6 | ||
| 2025-12-23T12:39 | 23516 | 31 | -53.4 | |||
| 2025-12-23T12:40 | 23814 | 30 | 218 | 6 | ||
| 2025-12-23T12:40 | 23901 | 29 | -53.4 | |||
| 2025-12-23T12:40 | 23949 | 29 | 257 | 4 | ||
| 2025-12-23T12:40 | 24060 | 28 | 195 | 4 | ||
| 2025-12-23T12:41 | 24291 | 27 | 196 | 3 | ||
| 2025-12-23T12:42 | 24553 | 26 | -50.9 | |||
| 2025-12-23T12:42 | 24680 | 26 | 109 | 3 | ||
| 2025-12-23T12:42 | 24809 | 25 | 110 | 5 | ||
| 2025-12-23T12:42 | 24861 | 25 | -50.5 | |||
| 2025-12-23T12:43 | 24992 | 25 | 149 | 4 | ||
| 2025-12-23T12:43 | 25124 | 24 | 154 | 2 | ||
| 2025-12-23T12:43 | 25319 | 23 | 77 | 3 | ||
| 2025-12-23T12:44 | 25572 | 23 | 113 | 5 | ||
| 2025-12-23T12:44 | 25693 | 22 | 167 | 6 | ||
| 2025-12-23T12:45 | 25901 | 21 | 186 | 1 | ||
| 2025-12-23T12:45 | 26119 | 21 | -48.7 | |||
| 2025-12-23T12:46 | 26185 | 21 | 198 | 3 | ||
| 2025-12-23T12:46 | 26240 | 20 | -49.2 | 204 | 3 | |
| 2025-12-23T23:30 | 18 | 1014 | 3.7 | 2.2 | 130 | 2 |
| 2025-12-23T23:30 | 23 | 1013 | 3.9 | 1.9 | 0 | 0 |
| 2025-12-23T23:30 | 132 | 1000 | 146 | 3 | ||
| 2025-12-23T23:31 | 225 | 988 | 143 | 5 | ||
| 2025-12-23T23:31 | 298 | 979 | 2.8 | -0.1 | ||
| 2025-12-23T23:31 | 335 | 975 | 3.1 | -0.5 | ||
| 2025-12-23T23:31 | 347 | 973 | 188 | 9 | ||
| 2025-12-23T23:31 | 471 | 958 | 2.9 | -2.4 | ||
| 2025-12-23T23:31 | 495 | 956 | 186 | 14 | ||
| 2025-12-23T23:32 | 606 | 943 | 2.3 | -4.4 | ||
| 2025-12-23T23:32 | 808 | 919 | 1.2 | -4.1 | ||
| 2025-12-23T23:32 | 834 | 916 | 201 | 11 | ||
| 2025-12-23T23:33 | 930 | 906 | 0.6 | -3.9 | ||
| 2025-12-23T23:33 | 1132 | 883 | -0.4 | -3.4 | ||
| 2025-12-23T23:33 | 1153 | 880 | 220 | 11 | ||
| 2025-12-23T23:34 | 1476 | 846 | 235 | 12 | ||
| 2025-12-23T23:35 | 1534 | 839 | -2.4 | -5.1 | ||
| 2025-12-23T23:35 | 1658 | 826 | -2.4 | -6.6 | ||
| 2025-12-23T23:35 | 1800 | 812 | 242 | 13 | ||
| 2025-12-23T23:36 | 2150 | 776 | 246 | 14 | ||
| 2025-12-23T23:37 | 2334 | 758 | -7.4 | -9.3 | ||
| 2025-12-23T23:37 | 2524 | 740 | 247 | 17 | ||
| 2025-12-23T23:38 | 2635 | 730 | -9.2 | -10.4 | ||
| 2025-12-23T23:38 | 2862 | 708 | -10.4 | -12.0 | ||
| 2025-12-23T23:38 | 2901 | 705 | 253 | 19 | ||
| 2025-12-23T23:39 | 3139 | 683 | -12.6 | -12.9 | ||
| 2025-12-23T23:39 | 3272 | 671 | 251 | 20 | ||
| 2025-12-23T23:40 | 3553 | 647 | -15.6 | -16.5 | ||
| 2025-12-23T23:40 | 3589 | 644 | 252 | 20 | ||
| 2025-12-23T23:41 | 3913 | 617 | -18.4 | -19.4 | ||
| 2025-12-23T23:41 | 3932 | 615 | -18.0 | -19.5 | ||
| 2025-12-23T23:41 | 3957 | 613 | 252 | 20 | ||
| 2025-12-23T23:42 | 4336 | 583 | 253 | 21 | ||
| 2025-12-23T23:42 | 4372 | 580 | -21.4 | -22.9 | ||
| 2025-12-23T23:42 | 4419 | 576 | -21.8 | -31.5 | ||
| 2025-12-23T23:42 | 4441 | 575 | 249 | 25 | ||
| 2025-12-23T23:43 | 4453 | 574 | -21.9 | -33.9 | ||
| 2025-12-23T23:43 | 4532 | 568 | -21.0 | -34.7 | ||
| 2025-12-23T23:43 | 4780 | 549 | 248 | 26 | ||
| 2025-12-23T23:44 | 4868 | 542 | -22.6 | -37.3 | ||
| 2025-12-23T23:44 | 5044 | 529 | -22.5 | -34.7 | ||
| 2025-12-23T23:44 | 5144 | 522 | 257 | 28 | ||
| 2025-12-23T23:45 | 5231 | 516 | -23.6 | -35.7 | ||
| 2025-12-23T23:45 | 5520 | 496 | 258 | 31 | ||
| 2025-12-23T23:46 | 5581 | 492 | -25.1 | -37.4 | ||
| 2025-12-23T23:46 | 5718 | 482 | 262 | 32 | ||
| 2025-12-23T23:47 | 6008 | 463 | -28.6 | -40.8 | ||
| 2025-12-23T23:47 | 6064 | 460 | 262 | 30 | ||
| 2025-12-23T23:48 | 6294 | 445 | -31.1 | -43.7 | ||
| 2025-12-23T23:48 | 6400 | 438 | 253 | 31 | ||
| 2025-12-23T23:49 | 6628 | 424 | -33.8 | -47.8 | ||
| 2025-12-23T23:49 | 6742 | 418 | 259 | 32 | ||
| 2025-12-23T23:50 | 7034 | 400 | 256 | 33 | ||
| 2025-12-23T23:51 | 7268 | 387 | -38.6 | -53.6 | ||
| 2025-12-23T23:51 | 7384 | 381 | 253 | 36 | ||
| 2025-12-23T23:51 | 7435 | 378 | -40.0 | -54.0 | ||
| 2025-12-23T23:52 | 7717 | 362 | 257 | 39 | ||
| 2025-12-23T23:52 | 7741 | 361 | -42.1 | |||
| 2025-12-23T23:53 | 8058 | 345 | 250 | 44 | ||
| 2025-12-23T23:53 | 8208 | 337 | -44.3 | 251 | 46 | |
| 2025-12-23T23:54 | 8354 | 330 | 254 | 49 | ||
| 2025-12-23T23:54 | 8490 | 323 | 252 | 52 | ||
| 2025-12-23T23:54 | 8528 | 321 | -45.7 | |||
| 2025-12-23T23:55 | 8703 | 313 | 254 | 56 | ||
| 2025-12-23T23:55 | 8889 | 304 | -47.8 | |||
| 2025-12-23T23:56 | 9042 | 297 | 249 | 59 | ||
| 2025-12-23T23:57 | 9394 | 282 | 249 | 59 | ||
| 2025-12-23T23:58 | 9745 | 267 | 249 | 58 | ||
| 2025-12-23T23:59 | 10037 | 255 | -58.4 | |||
| 2025-12-23T23:59 | 10080 | 253 | 251 | 58 | ||
| 2025-12-24T00:00 | 10372 | 241 | 253 | 55 | ||
| 2025-12-24T00:00 | 10531 | 235 | 254 | 53 | ||
| 2025-12-24T00:00 | 10562 | 234 | -61.0 | |||
| 2025-12-24T00:01 | 10836 | 224 | 257 | 53 | ||
| 2025-12-24T00:02 | 11036 | 217 | -62.5 | |||
| 2025-12-24T00:02 | 11152 | 213 | 259 | 46 | ||
| 2025-12-24T00:03 | 11331 | 207 | -60.7 | |||
| 2025-12-24T00:03 | 11389 | 205 | 260 | 42 | ||
| 2025-12-24T00:04 | 11570 | 199 | -60.4 | |||
| 2025-12-24T00:04 | 11684 | 195 | 255 | 36 | ||
| 2025-12-24T00:04 | 11761 | 193 | -59.8 | |||
| 2025-12-24T00:05 | 11926 | 188 | -57.9 | |||
| 2025-12-24T00:05 | 11982 | 186 | 249 | 35 | ||
| 2025-12-24T00:06 | 12293 | 177 | 250 | 37 | ||
| 2025-12-24T00:06 | 12392 | 175 | -58.8 | |||
| 2025-12-24T00:06 | 12459 | 173 | 251 | 35 | ||
| 2025-12-24T00:07 | 12580 | 169 | -56.9 | |||
| 2025-12-24T00:07 | 12769 | 164 | 256 | 31 | ||
| 2025-12-24T00:08 | 12871 | 162 | -58.1 | |||
| 2025-12-24T00:08 | 13065 | 157 | 253 | 31 | ||
| 2025-12-24T00:09 | 13378 | 149 | 245 | 29 | ||
| 2025-12-24T00:10 | 13685 | 142 | 245 | 30 | ||
| 2025-12-24T00:11 | 13907 | 137 | 250 | 34 | ||
| 2025-12-24T00:11 | 13912 | 137 | -57.6 | |||
| 2025-12-24T00:12 | 14065 | 134 | -57.3 | |||
| 2025-12-24T00:12 | 14131 | 133 | 254 | 34 | ||
| 2025-12-24T00:13 | 14329 | 129 | 258 | 31 | ||
| 2025-12-24T00:13 | 14359 | 128 | -56.9 | |||
| 2025-12-24T00:14 | 14642 | 122 | 265 | 25 | ||
| 2025-12-24T00:14 | 14696 | 121 | -56.6 | |||
| 2025-12-24T00:14 | 14792 | 120 | -56.0 | |||
| 2025-12-24T00:14 | 14893 | 118 | 252 | 26 | ||
| 2025-12-24T00:15 | 15211 | 112 | -58.1 | 252 | 31 | |
| 2025-12-24T00:16 | 15535 | 106 | -57.3 | |||
| 2025-12-24T00:16 | 15541 | 106 | 253 | 27 | ||
| 2025-12-24T00:17 | 15887 | 101 | 257 | 25 | ||
| 2025-12-24T00:17 | 15911 | 100 | -55.6 | |||
| 2025-12-24T00:18 | 16134 | 97 | 262 | 22 | ||
| 2025-12-24T00:19 | 16342 | 94 | 264 | 24 | ||
| 2025-12-24T00:19 | 16510 | 91 | -55.7 | |||
| 2025-12-24T00:19 | 16562 | 90 | 254 | 18 | ||
| 2025-12-24T00:20 | 16899 | 86 | 232 | 20 | ||
| 2025-12-24T00:20 | 16923 | 85 | -57.8 | |||
| 2025-12-24T00:21 | 17057 | 84 | 238 | 22 | ||
| 2025-12-24T00:22 | 17423 | 79 | 244 | 22 | ||
| 2025-12-24T00:22 | 17570 | 77 | -55.6 | |||
| 2025-12-24T00:23 | 17714 | 75 | 238 | 23 | ||
| 2025-12-24T00:23 | 17870 | 74 | 240 | 22 | ||
| 2025-12-24T00:23 | 17940 | 73 | -55.3 | |||
| 2025-12-24T00:24 | 18106 | 71 | 242 | 22 | ||
| 2025-12-24T00:24 | 18198 | 70 | -54.3 | |||
| 2025-12-24T00:25 | 18327 | 69 | 248 | 19 | ||
| 2025-12-24T00:25 | 18401 | 68 | -52.0 | |||
| 2025-12-24T00:25 | 18498 | 67 | 234 | 14 | ||
| 2025-12-24T00:26 | 18706 | 65 | 216 | 10 | ||
| 2025-12-24T00:26 | 18870 | 63 | -52.3 | |||
| 2025-12-24T00:26 | 19004 | 62 | 192 | 13 | ||
| 2025-12-24T00:27 | 19367 | 58 | 220 | 18 | ||
| 2025-12-24T00:28 | 19468 | 57 | -54.1 | |||
| 2025-12-24T00:28 | 19571 | 57 | 244 | 20 | ||
| 2025-12-24T00:29 | 19768 | 55 | 238 | 12 | ||
| 2025-12-24T00:29 | 19838 | 54 | -50.1 | |||
| 2025-12-24T00:29 | 20008 | 53 | 256 | 11 | ||
| 2025-12-24T00:30 | 20210 | 51 | 245 | 6 | ||
| 2025-12-24T00:31 | 20457 | 49 | 204 | 11 | ||
| 2025-12-24T00:31 | 20726 | 47 | -53.7 | |||
| 2025-12-24T00:32 | 20806 | 47 | 217 | 17 | ||
| 2025-12-24T00:32 | 20919 | 46 | -52.3 | |||
| 2025-12-24T00:32 | 20989 | 45 | 226 | 12 | ||
| 2025-12-24T00:32 | 21149 | 44 | -50.7 | 226 | 16 | |
| 2025-12-24T00:33 | 21416 | 43 | 228 | 16 | ||
| 2025-12-24T00:34 | 21684 | 41 | 206 | 5 | ||
| 2025-12-24T00:34 | 21876 | 40 | 173 | 6 | ||
| 2025-12-24T00:34 | 21892 | 40 | -53.4 | |||
| 2025-12-24T00:35 | 22207 | 38 | 190 | 9 | ||
| 2025-12-24T00:36 | 22418 | 36 | -54.4 | |||
| 2025-12-24T00:36 | 22506 | 36 | 238 | 8 | ||
| 2025-12-24T00:37 | 22668 | 35 | 178 | 5 | ||
| 2025-12-24T00:37 | 22705 | 35 | -53.4 | |||
| 2025-12-24T00:37 | 22800 | 34 | 180 | 6 | ||
| 2025-12-24T00:37 | 23010 | 33 | 211 | 8 | ||
| 2025-12-24T00:38 | 23209 | 32 | 200 | 9 | ||
| 2025-12-24T00:38 | 23393 | 31 | -51.1 | 181 | 9 | |
| 2025-12-24T00:39 | 23645 | 30 | 180 | 7 | ||
| 2025-12-24T00:39 | 23824 | 29 | 155 | 10 | ||
| 2025-12-24T00:41 | 24257 | 27 | 190 | 11 | ||
| 2025-12-24T00:41 | 24473 | 27 | 197 | 5 | ||
| 2025-12-24T00:41 | 24621 | 26 | 168 | 5 | ||
| 2025-12-24T00:42 | 24772 | 25 | -51.8 | |||
| 2025-12-24T00:42 | 25008 | 24 | 219 | 7 | ||
| 2025-12-24T00:43 | 25088 | 24 | 201 | 5 | ||
| 2025-12-24T00:43 | 25115 | 24 | -50.9 | |||
| 2025-12-24T00:43 | 25197 | 24 | 161 | 5 | ||
| 2025-12-24T00:43 | 25335 | 23 | 164 | 4 | ||
| 2025-12-24T00:44 | 25535 | 23 | 151 | 5 | ||
| 2025-12-24T00:44 | 25653 | 22 | 150 | 5 | ||
| 2025-12-24T00:44 | 25683 | 22 | -50.4 | |||
| 2025-12-24T00:45 | 25802 | 22 | 131 | 9 | ||
| 2025-12-24T00:46 | 26242 | 20 | 142 | 7 | ||
| 2025-12-24T00:46 | 26473 | 20 | -49.6 | 163 | 7 | |
| 2025-12-24T00:47 | 26852 | 18 | 95 | 9 | ||
| 2025-12-24T00:48 | 27144 | 18 | 108 | 15 | ||
| 2025-12-24T00:48 | 27216 | 17 | -48.8 | |||
| 2025-12-24T00:49 | 27410 | 17 | 126 | 10 | ||
| 2025-12-24T00:49 | 27564 | 17 | -47.5 | 134 | 13 | |
| 2025-12-24T11:30 | 18 | 1011 | 4.2 | 1.7 | 320 | 3 |
| 2025-12-24T11:30 | 23 | 1011 | 4.3 | 1.2 | 285 | 1 |
| 2025-12-24T11:30 | 86 | 1003 | 332 | 3 | ||
| 2025-12-24T11:31 | 248 | 983 | 303 | 7 | ||
| 2025-12-24T11:31 | 427 | 962 | 332 | 8 | ||
| 2025-12-24T11:31 | 568 | 945 | 0.0 | -0.7 | ||
| 2025-12-24T11:32 | 625 | 938 | 311 | 6 | ||
| 2025-12-24T11:32 | 664 | 934 | 0.0 | -0.4 | ||
| 2025-12-24T11:32 | 740 | 925 | 284 | 1 | ||
| 2025-12-24T11:32 | 940 | 902 | 220 | 3 | ||
| 2025-12-24T11:33 | 1010 | 894 | -0.2 | -0.8 | ||
| 2025-12-24T11:33 | 1048 | 890 | 189 | 7 | ||
| 2025-12-24T11:33 | 1241 | 869 | -1.5 | -2.3 | ||
| 2025-12-24T11:34 | 1344 | 858 | 214 | 9 | ||
| 2025-12-24T11:35 | 1720 | 818 | 206 | 12 | ||
| 2025-12-24T11:35 | 1830 | 806 | -5.1 | -5.8 | ||
| 2025-12-24T11:35 | 1854 | 804 | 223 | 13 | ||
| 2025-12-24T11:36 | 2115 | 778 | -6.1 | -7.5 | ||
| 2025-12-24T11:36 | 2220 | 767 | 229 | 20 | ||
| 2025-12-24T11:36 | 2411 | 749 | -8.0 | -8.5 | ||
| 2025-12-24T11:37 | 2562 | 734 | -9.4 | -11.0 | ||
| 2025-12-24T11:37 | 2599 | 731 | 228 | 20 | ||
| 2025-12-24T11:37 | 2655 | 725 | -10.3 | -21.3 | ||
| 2025-12-24T11:37 | 2692 | 722 | -10.7 | -28.3 | ||
| 2025-12-24T11:37 | 2757 | 716 | -10.8 | -30.0 | ||
| 2025-12-24T11:38 | 2870 | 705 | -9.5 | -29.5 | ||
| 2025-12-24T11:38 | 2957 | 698 | 228 | 17 | ||
| 2025-12-24T11:38 | 2985 | 695 | -9.3 | -30.5 | ||
| 2025-12-24T11:38 | 3148 | 680 | -10.3 | -27.5 | ||
| 2025-12-24T11:39 | 3232 | 673 | 240 | 22 | ||
| 2025-12-24T11:39 | 3317 | 665 | -10.8 | -31.1 | ||
| 2025-12-24T11:39 | 3482 | 651 | 242 | 22 | ||
| 2025-12-24T11:39 | 3488 | 651 | -12.0 | -28.5 | ||
| 2025-12-24T11:40 | 3788 | 626 | 244 | 20 | ||
| 2025-12-24T11:40 | 3843 | 621 | -14.7 | -29.6 | ||
| 2025-12-24T11:41 | 3968 | 611 | 241 | 24 | ||
| 2025-12-24T11:41 | 4104 | 600 | 243 | 24 | ||
| 2025-12-24T11:42 | 4468 | 571 | 241 | 24 | ||
| 2025-12-24T11:42 | 4493 | 569 | -19.3 | -32.9 | ||
| 2025-12-24T11:43 | 4778 | 548 | -20.7 | -40.6 | ||
| 2025-12-24T11:43 | 4819 | 545 | 243 | 26 | ||
| 2025-12-24T11:43 | 4929 | 537 | -21.6 | -43.5 | ||
| 2025-12-24T11:44 | 5163 | 520 | 242 | 26 | ||
| 2025-12-24T11:44 | 5187 | 518 | -23.1 | -46.3 | ||
| 2025-12-24T11:45 | 5512 | 495 | 245 | 30 | ||
| 2025-12-24T11:46 | 5866 | 472 | 246 | 27 | ||
| 2025-12-24T11:46 | 6007 | 462 | -29.6 | -54.6 | ||
| 2025-12-24T11:47 | 6223 | 449 | 242 | 28 | ||
| 2025-12-24T11:48 | 6577 | 427 | 245 | 30 | ||
| 2025-12-24T11:49 | 6802 | 413 | -35.5 | -56.3 | ||
| 2025-12-24T11:49 | 6948 | 405 | 248 | 32 | ||
| 2025-12-24T11:49 | 7039 | 399 | -37.5 | -51.8 | ||
| 2025-12-24T11:50 | 7187 | 391 | -36.8 | -58.2 | ||
| 2025-12-24T11:50 | 7289 | 385 | -36.8 | -66.6 | ||
| 2025-12-24T11:50 | 7332 | 383 | 248 | 33 | ||
| 2025-12-24T11:51 | 7599 | 368 | -39.1 | -66.2 | ||
| 2025-12-24T11:51 | 7698 | 363 | 252 | 33 | ||
| 2025-12-24T11:51 | 7723 | 361 | -40.0 | -65.3 | ||
| 2025-12-24T11:52 | 8046 | 345 | 249 | 37 | ||
| 2025-12-24T11:52 | 8110 | 341 | -42.6 | |||
| 2025-12-24T11:53 | 8301 | 332 | 246 | 37 | ||
| 2025-12-24T11:53 | 8570 | 319 | -46.2 | |||
| 2025-12-24T11:54 | 8673 | 314 | 247 | 40 | ||
| 2025-12-24T11:54 | 8889 | 304 | -48.7 | |||
| 2025-12-24T11:55 | 9066 | 296 | 247 | 39 | ||
| 2025-12-24T11:56 | 9393 | 281 | -51.3 | |||
| 2025-12-24T11:56 | 9453 | 279 | 245 | 40 | ||
| 2025-12-24T11:56 | 9692 | 269 | 245 | 42 | ||
| 2025-12-24T11:57 | 10066 | 253 | 243 | 42 | ||
| 2025-12-24T11:58 | 10448 | 238 | 246 | 42 | ||
| 2025-12-24T11:59 | 10617 | 232 | -59.2 | |||
| 2025-12-24T11:59 | 10807 | 225 | 252 | 46 | ||
| 2025-12-24T11:59 | 10819 | 225 | -59.5 | |||
| 2025-12-24T12:00 | 10960 | 220 | -59.5 | |||
| 2025-12-24T12:00 | 11146 | 213 | 247 | 42 | ||
| 2025-12-24T12:01 | 11322 | 207 | -61.2 | |||
| 2025-12-24T12:01 | 11470 | 202 | 246 | 41 | ||
| 2025-12-24T12:02 | 11556 | 200 | -60.2 | |||
| 2025-12-24T12:02 | 11795 | 192 | 255 | 41 | ||
| 2025-12-24T12:02 | 11805 | 192 | -60.9 | |||
| 2025-12-24T12:03 | 11943 | 188 | -59.1 | |||
| 2025-12-24T12:03 | 12087 | 183 | 253 | 33 | ||
| 2025-12-24T12:04 | 12423 | 174 | 252 | 33 | ||
| 2025-12-24T12:05 | 12734 | 165 | 255 | 32 | ||
| 2025-12-24T12:06 | 12871 | 162 | 252 | 30 | ||
| 2025-12-24T12:06 | 12998 | 159 | -56.8 | |||
| 2025-12-24T12:07 | 13177 | 154 | 249 | 30 | ||
| 2025-12-24T12:07 | 13441 | 148 | -56.6 | |||
| 2025-12-24T12:08 | 13514 | 146 | 246 | 30 | ||
| 2025-12-24T12:09 | 13854 | 139 | 246 | 31 | ||
| 2025-12-24T12:10 | 14196 | 131 | 251 | 29 | ||
| 2025-12-24T12:10 | 14316 | 129 | -59.2 | |||
| 2025-12-24T12:11 | 14538 | 124 | 250 | 28 | ||
| 2025-12-24T12:12 | 14879 | 118 | 254 | 31 | ||
| 2025-12-24T12:12 | 15004 | 115 | -58.4 | |||
| 2025-12-24T12:13 | 15217 | 112 | 251 | 32 | ||
| 2025-12-24T12:13 | 15417 | 108 | -58.2 | |||
| 2025-12-24T12:14 | 15565 | 106 | 258 | 30 | ||
| 2025-12-24T12:14 | 15885 | 100 | -56.8 | |||
| 2025-12-24T12:15 | 15921 | 100 | 263 | 26 | ||
| 2025-12-24T12:15 | 16021 | 98 | -55.6 | |||
| 2025-12-24T12:15 | 16226 | 95 | -55.3 | 265 | 26 | |
| 2025-12-24T12:16 | 16475 | 91 | 264 | 24 | ||
| 2025-12-24T12:17 | 16815 | 87 | 260 | 23 | ||
| 2025-12-24T12:18 | 17146 | 82 | 258 | 22 | ||
| 2025-12-24T12:18 | 17223 | 81 | -55.9 | |||
| 2025-12-24T12:19 | 17489 | 78 | 253 | 18 | ||
| 2025-12-24T12:19 | 17530 | 78 | -55.1 | |||
| 2025-12-24T12:20 | 17860 | 74 | 239 | 13 | ||
| 2025-12-24T12:21 | 18037 | 72 | -53.8 | |||
| 2025-12-24T12:21 | 18082 | 71 | 195 | 13 | ||
| 2025-12-24T12:22 | 18463 | 67 | 222 | 23 | ||
| 2025-12-24T12:23 | 18827 | 63 | 228 | 30 | ||
| 2025-12-24T12:23 | 18846 | 63 | -54.4 | |||
| 2025-12-24T12:23 | 19023 | 61 | 246 | 25 | ||
| 2025-12-24T12:23 | 19054 | 61 | -52.7 | |||
| 2025-12-24T12:24 | 19324 | 59 | 243 | 20 | ||
| 2025-12-24T12:24 | 19391 | 58 | -53.7 | |||
| 2025-12-24T12:25 | 19651 | 56 | -51.2 | 260 | 24 | |
| 2025-12-24T12:25 | 19853 | 54 | -50.1 | |||
| 2025-12-24T12:26 | 19900 | 54 | 275 | 13 | ||
| 2025-12-24T12:26 | 20264 | 51 | 242 | 8 | ||
| 2025-12-24T12:27 | 20497 | 49 | 199 | 12 | ||
| 2025-12-24T12:27 | 20598 | 48 | -53.8 | |||
| 2025-12-24T12:28 | 20847 | 46 | 245 | 12 | ||
| 2025-12-24T12:28 | 21076 | 45 | 217 | 15 | ||
| 2025-12-24T12:28 | 21092 | 45 | -52.8 | |||
| 2025-12-24T12:29 | 21387 | 43 | 231 | 15 | ||
| 2025-12-24T12:29 | 21512 | 42 | -50.5 | |||
| 2025-12-24T12:30 | 21557 | 42 | 204 | 12 | ||
| 2025-12-24T12:30 | 21878 | 40 | 185 | 15 | ||
| 2025-12-24T12:31 | 22211 | 38 | 207 | 18 | ||
| 2025-12-24T12:31 | 22300 | 37 | -53.3 | |||
| 2025-12-24T12:32 | 22531 | 36 | 205 | 13 | ||
| 2025-12-24T12:33 | 22786 | 34 | 211 | 14 | ||
| 2025-12-24T12:33 | 22942 | 34 | -51.2 | |||
| 2025-12-24T12:33 | 23021 | 33 | 210 | 8 | ||
| 2025-12-24T12:34 | 23258 | 32 | 148 | 4 | ||
| 2025-12-24T12:34 | 23383 | 31 | 166 | 5 | ||
| 2025-12-24T12:34 | 23510 | 31 | -50.5 | |||
| 2025-12-24T12:35 | 23618 | 30 | 189 | 3 | ||
| 2025-12-24T12:35 | 23705 | 30 | 128 | 5 | ||
| 2025-12-24T12:35 | 23725 | 30 | -48.9 | |||
| 2025-12-24T12:36 | 24019 | 28 | 142 | 8 | ||
| 2025-12-24T12:36 | 24349 | 27 | 187 | 9 | ||
| 2025-12-24T12:37 | 24495 | 26 | 196 | 10 | ||
| 2025-12-24T12:37 | 24666 | 26 | -51.6 | |||
| 2025-12-24T12:38 | 24772 | 25 | 200 | 7 | ||
| 2025-12-24T12:38 | 24874 | 25 | 215 | 8 | ||
| 2025-12-24T12:38 | 25057 | 24 | 206 | 7 | ||
| 2025-12-24T12:39 | 25194 | 24 | 189 | 5 | ||
| 2025-12-24T12:39 | 25275 | 23 | 182 | 5 | ||
| 2025-12-24T12:39 | 25390 | 23 | 203 | 7 | ||
| 2025-12-24T12:40 | 25592 | 22 | -50.5 | |||
| 2025-12-24T12:40 | 25681 | 22 | 167 | 7 | ||
| 2025-12-24T12:40 | 25952 | 21 | 111 | 6 | ||
| 2025-12-24T12:41 | 26110 | 21 | 130 | 6 | ||
| 2025-12-24T12:41 | 26236 | 20 | 150 | 7 | ||
| 2025-12-24T12:41 | 26401 | 20 | 143 | 10 | ||
| 2025-12-24T12:42 | 26743 | 19 | 169 | 7 | ||
| 2025-12-24T12:42 | 26778 | 19 | -49.3 | |||
| 2025-12-24T12:43 | 26919 | 18 | 224 | 3 | ||
| 2025-12-24T12:43 | 26972 | 18 | -48.5 | 254 | 3 | |
| 2025-12-24T23:30 | 18 | 1008 | 3.2 | -0.4 | 320 | 4 |
| 2025-12-24T23:30 | 23 | 1007 | 3.6 | -0.6 | 0 | 0 |
| 2025-12-24T23:30 | 103 | 997 | 2.2 | -1.4 | ||
| 2025-12-24T23:31 | 227 | 982 | 315 | 5 | ||
| 2025-12-24T23:32 | 591 | 938 | 341 | 9 | ||
| 2025-12-24T23:32 | 774 | 917 | -3.9 | -4.3 | ||
| 2025-12-24T23:33 | 979 | 893 | 347 | 8 | ||
| 2025-12-24T23:33 | 1230 | 865 | -6.7 | -7.0 | ||
| 2025-12-24T23:33 | 1275 | 860 | 330 | 7 | ||
| 2025-12-24T23:34 | 1365 | 850 | 282 | 4 | ||
| 2025-12-24T23:34 | 1463 | 839 | 230 | 5 | ||
| 2025-12-24T23:34 | 1638 | 821 | -5.6 | -6.4 | ||
| 2025-12-24T23:34 | 1670 | 817 | -5.8 | -8.5 | ||
| 2025-12-24T23:35 | 1715 | 813 | -6.2 | -6.9 | ||
| 2025-12-24T23:35 | 1735 | 811 | -6.3 | -8.9 | ||
| 2025-12-24T23:35 | 1773 | 807 | -6.6 | -18.9 | ||
| 2025-12-24T23:35 | 1817 | 802 | 221 | 9 | ||
| 2025-12-24T23:35 | 1874 | 796 | -7.5 | -21.7 | ||
| 2025-12-24T23:35 | 2059 | 777 | -8.3 | -23.6 | ||
| 2025-12-24T23:36 | 2188 | 764 | 231 | 10 | ||
| 2025-12-24T23:36 | 2244 | 759 | -7.4 | -22.4 | ||
| 2025-12-24T23:37 | 2451 | 739 | 231 | 16 | ||
| 2025-12-24T23:37 | 2534 | 731 | -7.3 | -22.7 | ||
| 2025-12-24T23:37 | 2664 | 719 | 234 | 18 | ||
| 2025-12-24T23:37 | 2808 | 706 | 232 | 21 | ||
| 2025-12-24T23:38 | 2879 | 700 | -8.7 | -25.7 | ||
| 2025-12-24T23:38 | 3138 | 677 | 227 | 21 | ||
| 2025-12-24T23:39 | 3256 | 666 | -11.1 | -28.7 | ||
| 2025-12-24T23:39 | 3401 | 654 | -12.3 | -33.0 | ||
| 2025-12-24T23:39 | 3534 | 643 | 230 | 23 | ||
| 2025-12-24T23:40 | 3635 | 634 | -12.7 | -43.0 | ||
| 2025-12-24T23:40 | 3946 | 609 | 227 | 25 | ||
| 2025-12-24T23:41 | 4349 | 577 | 228 | 26 | ||
| 2025-12-24T23:41 | 4418 | 572 | -17.6 | -45.3 | ||
| 2025-12-24T23:42 | 4704 | 550 | 227 | 29 | ||
| 2025-12-24T23:43 | 5103 | 521 | 236 | 30 | ||
| 2025-12-24T23:43 | 5156 | 517 | -23.1 | -59.9 | ||
| 2025-12-24T23:43 | 5196 | 514 | -23.3 | -45.6 | ||
| 2025-12-24T23:44 | 5248 | 511 | -23.4 | -31.6 | ||
| 2025-12-24T23:44 | 5312 | 506 | -23.9 | -31.6 | ||
| 2025-12-24T23:44 | 5433 | 498 | -24.8 | -30.7 | ||
| 2025-12-24T23:44 | 5492 | 494 | 232 | 33 | ||
| 2025-12-24T23:44 | 5524 | 492 | -25.1 | -33.2 | ||
| 2025-12-24T23:44 | 5591 | 487 | -25.3 | -31.2 | ||
| 2025-12-24T23:45 | 5658 | 483 | -25.4 | -29.6 | ||
| 2025-12-24T23:45 | 5794 | 474 | -26.0 | -34.4 | ||
| 2025-12-24T23:45 | 5877 | 468 | -26.8 | -33.3 | ||
| 2025-12-24T23:45 | 5898 | 467 | 224 | 40 | ||
| 2025-12-24T23:46 | 6049 | 457 | -28.4 | -32.9 | ||
| 2025-12-24T23:46 | 6112 | 453 | -28.6 | -34.8 | ||
| 2025-12-24T23:46 | 6175 | 449 | 227 | 41 | ||
| 2025-12-24T23:46 | 6182 | 449 | -29.1 | -34.9 | ||
| 2025-12-24T23:46 | 6229 | 446 | -29.3 | -40.5 | ||
| 2025-12-24T23:46 | 6263 | 444 | -29.6 | -46.9 | ||
| 2025-12-24T23:46 | 6399 | 436 | 224 | 41 | ||
| 2025-12-24T23:46 | 6446 | 433 | -30.9 | -47.5 | ||
| 2025-12-24T23:47 | 6652 | 420 | -32.6 | -46.4 | ||
| 2025-12-24T23:47 | 6806 | 411 | -33.8 | -51.0 | ||
| 2025-12-24T23:47 | 6813 | 411 | 225 | 43 | ||
| 2025-12-24T23:48 | 6918 | 405 | -34.2 | -50.3 | ||
| 2025-12-24T23:48 | 6993 | 400 | -34.4 | -40.3 | ||
| 2025-12-24T23:48 | 7102 | 394 | -35.1 | -38.9 | ||
| 2025-12-24T23:48 | 7221 | 387 | 227 | 47 | ||
| 2025-12-24T23:48 | 7227 | 387 | -36.1 | -40.9 | ||
| 2025-12-24T23:49 | 7360 | 380 | -37.2 | -42.5 | ||
| 2025-12-24T23:49 | 7621 | 365 | -39.5 | -43.3 | ||
| 2025-12-24T23:49 | 7628 | 365 | 229 | 47 | ||
| 2025-12-24T23:50 | 7704 | 361 | -40.0 | -43.4 | ||
| 2025-12-24T23:50 | 8048 | 343 | 227 | 48 | ||
| 2025-12-24T23:51 | 8415 | 325 | -45.9 | |||
| 2025-12-24T23:51 | 8470 | 322 | 231 | 52 | ||
| 2025-12-24T23:52 | 8698 | 311 | 231 | 54 | ||
| 2025-12-24T23:53 | 9103 | 293 | 229 | 58 | ||
| 2025-12-24T23:53 | 9203 | 288 | -52.4 | |||
| 2025-12-24T23:54 | 9539 | 273 | 233 | 57 | ||
| 2025-12-24T23:54 | 9682 | 267 | -55.3 | |||
| 2025-12-24T23:55 | 9816 | 262 | 235 | 49 | ||
| 2025-12-24T23:55 | 9833 | 261 | -55.3 | |||
| 2025-12-24T23:56 | 10190 | 247 | 238 | 51 | ||
| 2025-12-24T23:57 | 10587 | 232 | 239 | 50 | ||
| 2025-12-24T23:58 | 10954 | 219 | 232 | 48 | ||
| 2025-12-24T23:58 | 11015 | 217 | -60.0 | |||
| 2025-12-24T23:59 | 11317 | 206 | 235 | 48 | ||
| 2025-12-24T23:59 | 11465 | 201 | -60.6 | |||
| 2025-12-24T23:59 | 11585 | 198 | 242 | 47 | ||
| 2025-12-25T00:00 | 11683 | 195 | -59.2 | |||
| 2025-12-25T00:00 | 11745 | 193 | 236 | 43 | ||
| 2025-12-25T00:01 | 12030 | 184 | -58.6 | |||
| 2025-12-25T00:01 | 12069 | 183 | 232 | 46 | ||
| 2025-12-25T00:01 | 12239 | 178 | -57.6 | |||
| 2025-12-25T00:02 | 12402 | 174 | 238 | 44 | ||
| 2025-12-25T00:02 | 12440 | 172 | -56.6 | |||
| 2025-12-25T00:03 | 12621 | 168 | -55.0 | |||
| 2025-12-25T00:03 | 12651 | 167 | 238 | 42 | ||
| 2025-12-25T00:04 | 13020 | 157 | 238 | 38 | ||
| 2025-12-25T00:04 | 13093 | 156 | -55.9 | |||
| 2025-12-25T00:05 | 13395 | 148 | 239 | 36 | ||
| 2025-12-25T00:05 | 13532 | 145 | -56.9 | |||
| 2025-12-25T00:06 | 13711 | 141 | 243 | 36 | ||
| 2025-12-25T00:06 | 13947 | 136 | -57.1 | |||
| 2025-12-25T00:07 | 14045 | 134 | 243 | 36 | ||
| 2025-12-25T00:07 | 14197 | 131 | -56.9 | |||
| 2025-12-25T00:07 | 14215 | 130 | 253 | 36 | ||
| 2025-12-25T00:08 | 14570 | 123 | 252 | 27 | ||
| 2025-12-25T00:08 | 14600 | 123 | -58.1 | |||
| 2025-12-25T00:09 | 14814 | 119 | -58.1 | |||
| 2025-12-25T00:09 | 14945 | 116 | 243 | 24 | ||
| 2025-12-25T00:10 | 15202 | 111 | -57.0 | |||
| 2025-12-25T00:10 | 15233 | 111 | 239 | 26 | ||
| 2025-12-25T00:11 | 15597 | 105 | 241 | 26 | ||
| 2025-12-25T00:11 | 15611 | 105 | -54.4 | |||
| 2025-12-25T00:11 | 15893 | 100 | 231 | 18 | ||
| 2025-12-25T00:12 | 15946 | 99 | -55.6 | |||
| 2025-12-25T00:12 | 16283 | 94 | 246 | 26 | ||
| 2025-12-25T00:13 | 16446 | 92 | -57.5 | |||
| 2025-12-25T00:13 | 16461 | 91 | 245 | 25 | ||
| 2025-12-25T00:14 | 16723 | 88 | -57.1 | |||
| 2025-12-25T00:14 | 16750 | 87 | 237 | 25 | ||
| 2025-12-25T00:15 | 17110 | 83 | 258 | 25 | ||
| 2025-12-25T00:16 | 17407 | 79 | -57.3 | |||
| 2025-12-25T00:16 | 17456 | 78 | 247 | 22 | ||
| 2025-12-25T00:16 | 17685 | 75 | 240 | 14 | ||
| 2025-12-25T00:17 | 17891 | 73 | 235 | 18 | ||
| 2025-12-25T00:18 | 18096 | 71 | 240 | 19 | ||
| 2025-12-25T00:18 | 18146 | 70 | -56.0 | |||
| 2025-12-25T00:18 | 18334 | 68 | -55.6 | |||
| 2025-12-25T00:18 | 18352 | 68 | 241 | 26 | ||
| 2025-12-25T00:19 | 18506 | 66 | 249 | 21 | ||
| 2025-12-25T00:19 | 18715 | 64 | -53.9 | |||
| 2025-12-25T00:20 | 18888 | 62 | 264 | 14 | ||
| 2025-12-25T00:21 | 19203 | 59 | 230 | 14 | ||
| 2025-12-25T00:21 | 19375 | 58 | -55.7 | |||
| 2025-12-25T00:21 | 19444 | 57 | 239 | 16 | ||
| 2025-12-25T00:22 | 19622 | 56 | -54.8 | |||
| 2025-12-25T00:22 | 19661 | 55 | 235 | 12 | ||
| 2025-12-25T00:22 | 19847 | 54 | 238 | 15 | ||
| 2025-12-25T00:23 | 20086 | 52 | -55.5 | |||
| 2025-12-25T00:23 | 20222 | 51 | 238 | 19 | ||
| 2025-12-25T00:24 | 20536 | 48 | 242 | 17 | ||
| 2025-12-25T00:25 | 20827 | 46 | -50.8 | |||
| 2025-12-25T00:25 | 20897 | 46 | 248 | 7 | ||
| 2025-12-25T00:26 | 21143 | 44 | 219 | 9 | ||
| 2025-12-25T00:26 | 21396 | 42 | 229 | 15 | ||
| 2025-12-25T00:27 | 21412 | 42 | -53.2 | |||
| 2025-12-25T00:27 | 21616 | 41 | 223 | 8 | ||
| 2025-12-25T00:27 | 21759 | 40 | 233 | 8 | ||
| 2025-12-25T00:28 | 22023 | 38 | 210 | 8 | ||
| 2025-12-25T00:28 | 22071 | 38 | -52.6 | 207 | 9 | |
| 2025-12-25T11:30 | 18 | 1002 | 2.6 | -1.4 | 340 | 5 |
| 2025-12-25T11:30 | 23 | 1001 | 2.9 | -1.1 | 340 | 1 |
| 2025-12-25T11:30 | 62 | 996 | 323 | 3 | ||
| 2025-12-25T11:30 | 172 | 983 | 351 | 8 | ||
| 2025-12-25T11:31 | 472 | 947 | -1.4 | -4.2 | ||
| 2025-12-25T11:31 | 558 | 936 | 348 | 11 | ||
| 2025-12-25T11:32 | 952 | 891 | 338 | 11 | ||
| 2025-12-25T11:33 | 1339 | 848 | 325 | 13 | ||
| 2025-12-25T11:34 | 1687 | 811 | -10.9 | -11.4 | ||
| 2025-12-25T11:34 | 1726 | 807 | 328 | 11 | ||
| 2025-12-25T11:35 | 1746 | 804 | -11.4 | -12.0 | ||
| 2025-12-25T11:35 | 1798 | 799 | -10.9 | -18.4 | ||
| 2025-12-25T11:35 | 1878 | 791 | 328 | 8 | ||
| 2025-12-25T11:35 | 1966 | 782 | -9.1 | -21.8 | ||
| 2025-12-25T11:35 | 2020 | 776 | -7.9 | -22.5 | ||
| 2025-12-25T11:35 | 2062 | 772 | 279 | 4 | ||
| 2025-12-25T11:35 | 2110 | 767 | -7.7 | -21.6 | ||
| 2025-12-25T11:36 | 2235 | 755 | 279 | 4 | ||
| 2025-12-25T11:36 | 2392 | 740 | -9.6 | -22.9 | ||
| 2025-12-25T11:36 | 2433 | 736 | 283 | 3 | ||
| 2025-12-25T11:37 | 2585 | 722 | 259 | 4 | ||
| 2025-12-25T11:37 | 2742 | 707 | -12.0 | -20.6 | ||
| 2025-12-25T11:37 | 2897 | 693 | 206 | 5 | ||
| 2025-12-25T11:38 | 3083 | 676 | -14.5 | -20.4 | ||
| 2025-12-25T11:38 | 3089 | 675 | 217 | 7 | ||
| 2025-12-25T11:38 | 3262 | 660 | -15.7 | -20.8 | ||
| 2025-12-25T11:39 | 3392 | 649 | 235 | 12 | ||
| 2025-12-25T11:39 | 3464 | 643 | -16.8 | -24.1 | ||
| 2025-12-25T11:39 | 3634 | 628 | -18.0 | -24.3 | ||
| 2025-12-25T11:39 | 3694 | 623 | -18.1 | -28.2 | ||
| 2025-12-25T11:40 | 3727 | 620 | 229 | 17 | ||
| 2025-12-25T11:40 | 3826 | 612 | -18.7 | -27.5 | ||
| 2025-12-25T11:40 | 3898 | 606 | -18.9 | -33.7 | ||
| 2025-12-25T11:40 | 3938 | 603 | -18.7 | -37.2 | ||
| 2025-12-25T11:40 | 3992 | 599 | 226 | 24 | ||
| 2025-12-25T11:40 | 4038 | 595 | -19.1 | -33.1 | ||
| 2025-12-25T11:41 | 4163 | 585 | -19.1 | -40.0 | ||
| 2025-12-25T11:41 | 4223 | 580 | -19.2 | -29.2 | ||
| 2025-12-25T11:41 | 4249 | 578 | -19.2 | -29.7 | ||
| 2025-12-25T11:41 | 4295 | 575 | -18.0 | -39.8 | ||
| 2025-12-25T11:41 | 4385 | 568 | 219 | 34 | ||
| 2025-12-25T11:41 | 4417 | 565 | -18.5 | -33.3 | ||
| 2025-12-25T11:42 | 4558 | 555 | -19.5 | -25.7 | ||
| 2025-12-25T11:42 | 4614 | 551 | -19.3 | -22.6 | 213 | 39 |
| 2025-12-25T11:42 | 4779 | 539 | -19.2 | -21.6 | ||
| 2025-12-25T11:42 | 4875 | 532 | -19.3 | -21.5 | ||
| 2025-12-25T11:43 | 4999 | 523 | 197 | 41 | ||
| 2025-12-25T11:44 | 5364 | 498 | 192 | 39 | ||
| 2025-12-25T11:44 | 5496 | 489 | -23.5 | -25.7 | ||
| 2025-12-25T11:45 | 5762 | 471 | 197 | 41 | ||
| 2025-12-25T11:46 | 6169 | 445 | 199 | 41 | ||
| 2025-12-25T11:46 | 6447 | 428 | -30.6 | -33.6 | ||
| 2025-12-25T11:47 | 6528 | 423 | 207 | 47 | ||
| 2025-12-25T11:48 | 6958 | 398 | 207 | 47 | ||
| 2025-12-25T11:49 | 7388 | 374 | 204 | 48 | ||
| 2025-12-25T11:49 | 7732 | 356 | -40.0 | -43.0 | ||
| 2025-12-25T11:50 | 7819 | 351 | 209 | 53 | ||
| 2025-12-25T11:50 | 7892 | 348 | -40.6 | |||
| 2025-12-25T11:51 | 8264 | 329 | 206 | 54 | ||
| 2025-12-25T11:51 | 8557 | 315 | -46.4 | |||
| 2025-12-25T11:52 | 8656 | 310 | 202 | 57 | ||
| 2025-12-25T11:52 | 9045 | 292 | -50.3 | |||
| 2025-12-25T11:53 | 9088 | 290 | 206 | 61 | ||
| 2025-12-25T11:54 | 9527 | 271 | 207 | 63 | ||
| 2025-12-25T11:54 | 9775 | 261 | 204 | 64 | ||
| 2025-12-25T11:55 | 10020 | 251 | -57.8 | |||
| 2025-12-25T11:55 | 10042 | 250 | 209 | 66 | ||
| 2025-12-25T11:55 | 10171 | 245 | 208 | 62 | ||
| 2025-12-25T11:55 | 10322 | 239 | 209 | 62 | ||
| 2025-12-25T11:56 | 10387 | 237 | -59.1 | |||
| 2025-12-25T11:56 | 10562 | 230 | 214 | 54 | ||
| 2025-12-25T11:56 | 10584 | 230 | -58.7 | |||
| 2025-12-25T11:56 | 10711 | 225 | -58.9 | |||
| 2025-12-25T11:57 | 10873 | 219 | -58.3 | |||
| 2025-12-25T11:57 | 10922 | 217 | 214 | 53 | ||
| 2025-12-25T11:57 | 11057 | 213 | 214 | 51 | ||
| 2025-12-25T11:57 | 11085 | 212 | -56.6 | |||
| 2025-12-25T11:57 | 11187 | 209 | 215 | 54 | ||
| 2025-12-25T11:58 | 11389 | 202 | -55.7 | |||
| 2025-12-25T11:58 | 11582 | 196 | 221 | 49 | ||
| 2025-12-25T11:59 | 11755 | 191 | 219 | 47 | ||
| 2025-12-25T11:59 | 11913 | 186 | 218 | 49 | ||
| 2025-12-25T12:00 | 12076 | 181 | 217 | 47 | ||
| 2025-12-25T12:00 | 12155 | 179 | -54.7 | |||
| 2025-12-25T12:01 | 12397 | 173 | -53.7 | |||
| 2025-12-25T12:01 | 12439 | 171 | 224 | 49 | ||
| 2025-12-25T12:02 | 12801 | 162 | 232 | 48 | ||
| 2025-12-25T12:02 | 13064 | 156 | -52.6 | |||
| 2025-12-25T12:03 | 13182 | 153 | 226 | 38 | ||
| 2025-12-25T12:03 | 13332 | 149 | -52.1 | |||
| 2025-12-25T12:04 | 13569 | 144 | 232 | 36 | ||
| 2025-12-25T12:04 | 13645 | 142 | -52.4 | |||
| 2025-12-25T12:05 | 13959 | 136 | 231 | 35 | ||
| 2025-12-25T12:06 | 14347 | 128 | 233 | 34 | ||
| 2025-12-25T12:06 | 14541 | 124 | 226 | 31 | ||
| 2025-12-25T12:07 | 14650 | 122 | -54.0 | |||
| 2025-12-25T12:07 | 14866 | 118 | 225 | 31 | ||
| 2025-12-25T12:08 | 15096 | 113 | -55.4 | |||
| 2025-12-25T12:08 | 15262 | 111 | 226 | 31 | ||
| 2025-12-25T12:09 | 15489 | 107 | -56.3 | |||
| 2025-12-25T12:09 | 15621 | 104 | -56.7 | |||
| 2025-12-25T12:09 | 15660 | 104 | 221 | 34 | ||
| 2025-12-25T12:10 | 16050 | 98 | 224 | 32 | ||
| 2025-12-25T12:11 | 16416 | 92 | -54.8 | |||
| 2025-12-25T12:11 | 16438 | 92 | 236 | 31 | ||
| 2025-12-25T12:12 | 16688 | 88 | 239 | 28 | ||
| 2025-12-25T12:12 | 16783 | 87 | -52.2 | |||
| 2025-12-25T12:12 | 16871 | 86 | -51.0 | |||
| 2025-12-25T12:12 | 16963 | 85 | 233 | 28 | ||
| 2025-12-25T12:13 | 17217 | 81 | -53.6 | |||
| 2025-12-25T12:13 | 17355 | 80 | 233 | 26 | ||
| 2025-12-25T12:14 | 17581 | 77 | 228 | 28 | ||
| 2025-12-25T12:14 | 17609 | 77 | -54.3 | |||
| 2025-12-25T12:15 | 17927 | 73 | 222 | 23 | ||
| 2025-12-25T12:15 | 18115 | 71 | 229 | 23 | ||
| 2025-12-25T12:15 | 18148 | 70 | -54.4 | |||
| 2025-12-25T12:16 | 18351 | 68 | -54.0 | |||
| 2025-12-25T12:16 | 18370 | 68 | 237 | 25 | ||
| 2025-12-25T12:17 | 18721 | 64 | 245 | 25 | ||
| 2025-12-25T12:17 | 18751 | 64 | -53.7 | |||
| 2025-12-25T12:17 | 18895 | 63 | -52.6 | |||
| 2025-12-25T12:18 | 19050 | 61 | -52.8 | |||
| 2025-12-25T12:18 | 19060 | 61 | 232 | 19 | ||
| 2025-12-25T12:18 | 19157 | 60 | -51.3 | |||
| 2025-12-25T12:18 | 19420 | 58 | 244 | 16 | ||
| 2025-12-25T12:19 | 19809 | 54 | -54.0 | |||
| 2025-12-25T12:19 | 19846 | 54 | 263 | 10 | ||
| 2025-12-25T12:20 | 20075 | 52 | 207 | 9 | ||
| 2025-12-25T12:21 | 20345 | 50 | -53.6 | |||
| 2025-12-25T12:21 | 20454 | 49 | 193 | 9 | ||
| 2025-12-25T12:21 | 20598 | 48 | -54.3 | |||
| 2025-12-25T12:22 | 20772 | 47 | 201 | 9 | ||
| 2025-12-25T12:22 | 21007 | 45 | 192 | 15 | ||
| 2025-12-25T12:23 | 21080 | 45 | -54.2 | |||
| 2025-12-25T12:23 | 21153 | 44 | 199 | 19 | ||
| 2025-12-25T12:23 | 21409 | 42 | -51.8 | |||
| 2025-12-25T12:24 | 21565 | 41 | 214 | 19 | ||
| 2025-12-25T12:24 | 21868 | 40 | 232 | 13 | ||
| 2025-12-25T12:25 | 22088 | 38 | 196 | 10 | ||
| 2025-12-25T12:25 | 22139 | 38 | -50.7 | |||
| 2025-12-25T12:26 | 22419 | 36 | 227 | 14 | ||
| 2025-12-25T12:26 | 22748 | 35 | -51.8 | |||
| 2025-12-25T12:27 | 22805 | 34 | 219 | 10 | ||
| 2025-12-25T12:27 | 23155 | 32 | 234 | 10 | ||
| 2025-12-25T12:28 | 23253 | 32 | 231 | 8 | ||
| 2025-12-25T12:28 | 23296 | 32 | -51.7 | |||
| 2025-12-25T12:28 | 23379 | 31 | 192 | 6 | ||
| 2025-12-25T12:28 | 23504 | 31 | 225 | 3 | ||
| 2025-12-25T12:28 | 23545 | 31 | -50.2 | |||
| 2025-12-25T12:29 | 23700 | 30 | 196 | 5 | ||
| 2025-12-25T12:29 | 23988 | 29 | 191 | 10 | ||
| 2025-12-25T12:30 | 24385 | 27 | 194 | 9 | ||
| 2025-12-25T12:31 | 24631 | 26 | 212 | 11 | ||
| 2025-12-25T12:32 | 24886 | 25 | -52.9 | 224 | 11 | |
| 2025-12-25T12:32 | 25020 | 24 | 227 | 9 | ||
| 2025-12-25T12:32 | 25239 | 24 | 157 | 8 | ||
| 2025-12-25T12:33 | 25351 | 23 | -49.7 | |||
| 2025-12-25T12:33 | 25592 | 22 | -50.4 | 154 | 6 | |
| 2025-12-25T23:30 | 18 | 998 | -1.6 | -3.0 | 360 | 3 |
| 2025-12-25T23:30 | 24 | 998 | -1.6 | -3.2 | 0 | 0 |
| 2025-12-25T23:31 | 251 | 969 | -4.0 | -5.5 | ||
| 2025-12-25T23:31 | 317 | 961 | 11 | 8 | ||
| 2025-12-25T23:31 | 366 | 955 | -4.8 | -6.3 | ||
| 2025-12-25T23:32 | 577 | 930 | 342 | 5 | ||
| 2025-12-25T23:32 | 602 | 927 | -6.4 | -6.8 | ||
| 2025-12-25T23:32 | 822 | 901 | 329 | 8 | ||
| 2025-12-25T23:33 | 1108 | 869 | 337 | 8 | ||
| 2025-12-25T23:34 | 1422 | 834 | -12.1 | -13.8 | ||
| 2025-12-25T23:34 | 1428 | 833 | 341 | 12 | ||
| 2025-12-25T23:35 | 1722 | 802 | -13.7 | -16.1 | ||
| 2025-12-25T23:35 | 1766 | 797 | -13.4 | -16.9 | ||
| 2025-12-25T23:35 | 1798 | 794 | -12.8 | -16.5 | ||
| 2025-12-25T23:35 | 1804 | 793 | 313 | 13 | ||
| 2025-12-25T23:35 | 1963 | 777 | -13.6 | -17.2 | ||
| 2025-12-25T23:36 | 2183 | 755 | 323 | 11 | ||
| 2025-12-25T23:36 | 2297 | 744 | -16.0 | -19.6 | ||
| 2025-12-25T23:36 | 2379 | 736 | 325 | 10 | ||
| 2025-12-25T23:37 | 2529 | 721 | -17.8 | -21.6 | ||
| 2025-12-25T23:37 | 2642 | 710 | 318 | 8 | ||
| 2025-12-25T23:38 | 2849 | 691 | -19.9 | -21.5 | ||
| 2025-12-25T23:38 | 2895 | 687 | 267 | 4 | ||
| 2025-12-25T23:38 | 3073 | 670 | 258 | 6 | ||
| 2025-12-25T23:39 | 3189 | 660 | -22.0 | -22.7 | ||
| 2025-12-25T23:39 | 3215 | 657 | 254 | 5 | ||
| 2025-12-25T23:39 | 3429 | 638 | -22.8 | -24.0 | ||
| 2025-12-25T23:39 | 3487 | 633 | 212 | 9 | ||
| 2025-12-25T23:40 | 3874 | 601 | 216 | 17 | ||
| 2025-12-25T23:40 | 3900 | 598 | -25.6 | -27.1 | ||
| 2025-12-25T23:41 | 4283 | 568 | 197 | 24 | ||
| 2025-12-25T23:41 | 4358 | 562 | -26.8 | -28.3 | ||
| 2025-12-25T23:42 | 4568 | 545 | -28.2 | -29.6 | ||
| 2025-12-25T23:42 | 4674 | 537 | 200 | 23 | ||
| 2025-12-25T23:43 | 5084 | 507 | 200 | 21 | ||
| 2025-12-25T23:43 | 5099 | 506 | -32.9 | -34.1 | ||
| 2025-12-25T23:44 | 5213 | 498 | -33.9 | -35.1 | ||
| 2025-12-25T23:44 | 5495 | 478 | 198 | 21 | ||
| 2025-12-25T23:45 | 5867 | 453 | -40.0 | -42.5 | ||
| 2025-12-25T23:45 | 5873 | 453 | 202 | 23 | ||
| 2025-12-25T23:46 | 6252 | 428 | 191 | 24 | ||
| 2025-12-25T23:47 | 6407 | 418 | -44.6 | |||
| 2025-12-25T23:47 | 6428 | 417 | 190 | 30 | ||
| 2025-12-25T23:47 | 6478 | 414 | -42.9 | |||
| 2025-12-25T23:47 | 6587 | 407 | 185 | 37 | ||
| 2025-12-25T23:47 | 6670 | 402 | -42.9 | |||
| 2025-12-25T23:48 | 6833 | 393 | -42.2 | 186 | 45 | |
| 2025-12-25T23:49 | 7168 | 374 | -43.6 | |||
| 2025-12-25T23:49 | 7198 | 372 | 193 | 46 | ||
| 2025-12-25T23:49 | 7273 | 368 | -43.8 | |||
| 2025-12-25T23:49 | 7438 | 359 | 194 | 48 | ||
| 2025-12-25T23:49 | 7502 | 356 | -44.4 | |||
| 2025-12-25T23:50 | 7701 | 345 | 193 | 44 | ||
| 2025-12-25T23:50 | 7709 | 345 | -45.2 | |||
| 2025-12-25T23:51 | 8064 | 327 | -45.2 | |||
| 2025-12-25T23:51 | 8145 | 323 | 192 | 42 | ||
| 2025-12-25T23:51 | 8211 | 320 | -45.5 | |||
| 2025-12-25T23:52 | 8439 | 309 | -46.3 | |||
| 2025-12-25T23:52 | 8480 | 307 | 187 | 43 | ||
| 2025-12-25T23:52 | 8621 | 301 | -46.4 | |||
| 2025-12-25T23:52 | 8662 | 299 | 189 | 43 | ||
| 2025-12-25T23:53 | 8839 | 291 | 188 | 39 | ||
| 2025-12-25T23:53 | 9059 | 281 | 192 | 41 | ||
| 2025-12-25T23:54 | 9393 | 267 | -48.0 | |||
| 2025-12-25T23:54 | 9450 | 265 | 192 | 43 | ||
| 2025-12-25T23:54 | 9564 | 261 | -47.3 | |||
| 2025-12-25T23:55 | 9768 | 253 | 196 | 41 | ||
| 2025-12-25T23:55 | 9861 | 249 | -47.0 | |||
| 2025-12-25T23:56 | 10182 | 237 | 201 | 40 | ||
| 2025-12-25T23:56 | 10189 | 237 | -47.9 | |||
| 2025-12-25T23:57 | 10560 | 224 | -48.8 | 199 | 42 | |
| 2025-12-25T23:57 | 10750 | 218 | -48.4 | |||
| 2025-12-25T23:58 | 10884 | 213 | -47.6 | |||
| 2025-12-25T23:58 | 10965 | 211 | 206 | 42 | ||
| 2025-12-25T23:58 | 11256 | 202 | -45.8 | |||
| 2025-12-25T23:59 | 11348 | 199 | 213 | 42 | ||
| 2025-12-25T23:59 | 11410 | 197 | -44.7 | |||
| 2025-12-25T23:59 | 11547 | 193 | -43.8 | |||
| 2025-12-26T00:00 | 11724 | 188 | 222 | 41 | ||
| 2025-12-26T00:00 | 11737 | 188 | -44.6 | |||
| 2025-12-26T00:01 | 12097 | 178 | 222 | 36 | ||
| 2025-12-26T00:02 | 12430 | 169 | -48.4 | |||
| 2025-12-26T00:02 | 12474 | 168 | 225 | 35 | ||
| 2025-12-26T00:02 | 12750 | 161 | -46.1 | |||
| 2025-12-26T00:03 | 12869 | 158 | 222 | 33 | ||
| 2025-12-26T00:03 | 12956 | 156 | -47.2 | |||
| 2025-12-26T00:03 | 13122 | 152 | -48.0 | |||
| 2025-12-26T00:04 | 13222 | 150 | 235 | 35 | ||
| 2025-12-26T00:04 | 13332 | 148 | -47.3 | |||
| 2025-12-26T00:04 | 13359 | 147 | 231 | 33 | ||
| 2025-12-26T00:04 | 13576 | 142 | -48.6 | |||
| 2025-12-26T00:05 | 13755 | 138 | 224 | 34 | ||
| 2025-12-26T00:05 | 13809 | 137 | -50.6 | |||
| 2025-12-26T00:05 | 13904 | 135 | -48.8 | 225 | 36 | |
| 2025-12-26T00:06 | 14243 | 128 | 211 | 26 | ||
| 2025-12-26T00:07 | 14493 | 124 | -50.5 | |||
| 2025-12-26T00:07 | 14612 | 121 | 215 | 23 | ||
| 2025-12-26T00:08 | 14971 | 115 | -52.9 | 206 | 26 | |
| 2025-12-26T00:09 | 15360 | 108 | 212 | 33 | ||
| 2025-12-26T00:09 | 15415 | 107 | -54.6 | |||
| 2025-12-26T00:10 | 15735 | 102 | 224 | 38 | ||
| 2025-12-26T00:10 | 15748 | 102 | -55.8 | |||
| 2025-12-26T00:11 | 15904 | 99 | 230 | 36 | ||
| 2025-12-26T00:11 | 15981 | 98 | -54.3 | |||
| 2025-12-26T00:11 | 16054 | 97 | 225 | 32 | ||
| 2025-12-26T00:11 | 16236 | 94 | -54.4 | |||
| 2025-12-26T00:12 | 16471 | 91 | -55.6 | |||
| 2025-12-26T00:12 | 16478 | 91 | 237 | 30 | ||
| 2025-12-26T00:12 | 16687 | 88 | -55.4 | |||
| 2025-12-26T00:13 | 16897 | 85 | 239 | 36 | ||
| 2025-12-26T00:13 | 16918 | 85 | -56.2 | |||
| 2025-12-26T00:14 | 17173 | 81 | -53.7 | |||
| 2025-12-26T00:14 | 17276 | 80 | -51.3 | |||
| 2025-12-26T00:14 | 17284 | 80 | 223 | 35 | ||
| 2025-12-26T00:15 | 17489 | 77 | -51.9 | |||
| 2025-12-26T00:15 | 17498 | 77 | 219 | 40 | ||
| 2025-12-26T00:15 | 17626 | 76 | -48.7 | |||
| 2025-12-26T00:15 | 17733 | 75 | 226 | 38 | ||
| 2025-12-26T00:16 | 17839 | 73 | -47.0 | |||
| 2025-12-26T00:16 | 18005 | 72 | -45.5 | |||
| 2025-12-26T00:16 | 18150 | 70 | 232 | 29 | ||
| 2025-12-26T00:17 | 18475 | 67 | 234 | 22 | ||
| 2025-12-26T00:17 | 18492 | 67 | -46.0 | |||
| 2025-12-26T00:17 | 18647 | 65 | 240 | 18 | ||
| 2025-12-26T00:17 | 18707 | 64 | -47.0 | |||
| 2025-12-26T00:18 | 18948 | 62 | 221 | 12 | ||
| 2025-12-26T00:19 | 19274 | 59 | 204 | 10 | ||
| 2025-12-26T00:20 | 19690 | 55 | 210 | 15 | ||
| 2025-12-26T00:20 | 19796 | 55 | -54.0 | |||
| 2025-12-26T00:21 | 20084 | 52 | 200 | 17 | ||
| 2025-12-26T00:21 | 20447 | 49 | -57.7 | |||
| 2025-12-26T00:22 | 20486 | 49 | 228 | 18 | ||
| 2025-12-26T00:22 | 20724 | 47 | 240 | 16 | ||
| 2025-12-26T00:22 | 20790 | 47 | -56.4 | |||
| 2025-12-26T00:23 | 20943 | 46 | 226 | 8 | ||
| 2025-12-26T00:23 | 20986 | 45 | -54.0 | |||
| 2025-12-26T00:23 | 21111 | 44 | 214 | 5 | ||
| 2025-12-26T00:23 | 21304 | 43 | 180 | 10 | ||
| 2025-12-26T00:24 | 21491 | 42 | -53.0 | |||
| 2025-12-26T00:24 | 21723 | 40 | 205 | 14 | ||
| 2025-12-26T00:25 | 21805 | 40 | -54.5 | |||
| 2025-12-26T00:25 | 22037 | 38 | 220 | 14 | ||
| 2025-12-26T00:26 | 22221 | 37 | -52.0 | |||
| 2025-12-26T00:26 | 22240 | 37 | 176 | 9 | ||
| 2025-12-26T00:26 | 22435 | 36 | 156 | 11 | ||
| 2025-12-26T00:26 | 22489 | 36 | -54.3 | 157 | 11 | |
| 2025-12-26T11:32 | 18 | 1001 | -5.5 | -13.8 | 320 | 3 |
| 2025-12-26T11:32 | 23 | 1000 | -5.5 | -13.8 | 164 | 1 |
| 2025-12-26T11:32 | 65 | 995 | 2 | 3 | ||
| 2025-12-26T11:32 | 173 | 982 | 333 | 4 | ||
| 2025-12-26T11:33 | 242 | 973 | -7.4 | -16.5 | ||
| 2025-12-26T11:33 | 414 | 952 | 285 | 2 | ||
| 2025-12-26T11:33 | 599 | 929 | 258 | 4 | ||
| 2025-12-26T11:34 | 742 | 912 | 250 | 6 | ||
| 2025-12-26T11:34 | 857 | 898 | -13.3 | -18.1 | ||
| 2025-12-26T11:35 | 1106 | 869 | 272 | 8 | ||
| 2025-12-26T11:35 | 1164 | 863 | -16.0 | -19.6 | ||
| 2025-12-26T11:36 | 1390 | 837 | 282 | 9 | ||
| 2025-12-26T11:36 | 1434 | 832 | -17.6 | -22.9 | ||
| 2025-12-26T11:36 | 1620 | 812 | 279 | 5 | ||
| 2025-12-26T11:36 | 1717 | 801 | 266 | 3 | ||
| 2025-12-26T11:37 | 2046 | 766 | 301 | 4 | ||
| 2025-12-26T11:37 | 2152 | 755 | -23.3 | -27.9 | ||
| 2025-12-26T11:38 | 2330 | 737 | 300 | 4 | ||
| 2025-12-26T11:38 | 2378 | 732 | -24.7 | -27.9 | ||
| 2025-12-26T11:38 | 2399 | 730 | 331 | 2 | ||
| 2025-12-26T11:38 | 2495 | 721 | 53 | 3 | ||
| 2025-12-26T11:39 | 2590 | 711 | -26.1 | -28.1 | ||
| 2025-12-26T11:39 | 2670 | 703 | 80 | 4 | ||
| 2025-12-26T11:40 | 3026 | 669 | 83 | 3 | ||
| 2025-12-26T11:40 | 3103 | 662 | -30.3 | -31.8 | ||
| 2025-12-26T11:41 | 3327 | 641 | 87 | 2 | ||
| 2025-12-26T11:41 | 3415 | 634 | -33.0 | -36.5 | ||
| 2025-12-26T11:41 | 3603 | 617 | -34.7 | -38.3 | ||
| 2025-12-26T11:42 | 3713 | 607 | 261 | 2 | ||
| 2025-12-26T11:42 | 3808 | 599 | -35.6 | -44.9 | ||
| 2025-12-26T11:42 | 3850 | 595 | 240 | 3 | ||
| 2025-12-26T11:42 | 3999 | 583 | 254 | 6 | ||
| 2025-12-26T11:42 | 4020 | 581 | -36.6 | -48.2 | ||
| 2025-12-26T11:43 | 4145 | 571 | 264 | 8 | ||
| 2025-12-26T11:43 | 4305 | 557 | 262 | 14 | ||
| 2025-12-26T11:43 | 4342 | 554 | -37.8 | -53.4 | ||
| 2025-12-26T11:43 | 4452 | 546 | -38.1 | -55.2 | ||
| 2025-12-26T11:44 | 4563 | 537 | 225 | 15 | ||
| 2025-12-26T11:44 | 4581 | 535 | -38.3 | -57.1 | ||
| 2025-12-26T11:44 | 4720 | 525 | 234 | 18 | ||
| 2025-12-26T11:44 | 4733 | 524 | -39.0 | -59.2 | ||
| 2025-12-26T11:45 | 4843 | 515 | -40.0 | -60.0 | ||
| 2025-12-26T11:45 | 5026 | 502 | -41.5 | |||
| 2025-12-26T11:45 | 5086 | 497 | 243 | 18 | ||
| 2025-12-26T11:46 | 5304 | 482 | -42.2 | |||
| 2025-12-26T11:46 | 5407 | 474 | -42.2 | |||
| 2025-12-26T11:46 | 5460 | 471 | 227 | 22 | ||
| 2025-12-26T11:47 | 5712 | 453 | -41.9 | |||
| 2025-12-26T11:47 | 5807 | 447 | -42.3 | |||
| 2025-12-26T11:47 | 5862 | 443 | 232 | 24 | ||
| 2025-12-26T11:48 | 6052 | 431 | -43.1 | |||
| 2025-12-26T11:48 | 6248 | 419 | -42.1 | |||
| 2025-12-26T11:48 | 6261 | 418 | 227 | 24 | ||
| 2025-12-26T11:48 | 6380 | 411 | -42.4 | |||
| 2025-12-26T11:49 | 6440 | 407 | -42.1 | |||
| 2025-12-26T11:49 | 6578 | 399 | -41.5 | |||
| 2025-12-26T11:49 | 6613 | 397 | 254 | 21 | ||
| 2025-12-26T11:49 | 6739 | 390 | -41.9 | |||
| 2025-12-26T11:50 | 6891 | 381 | 243 | 24 | ||
| 2025-12-26T11:50 | 7002 | 375 | -39.9 | |||
| 2025-12-26T11:50 | 7065 | 371 | -39.8 | |||
| 2025-12-26T11:51 | 7138 | 367 | -38.6 | |||
| 2025-12-26T11:51 | 7277 | 360 | -38.0 | |||
| 2025-12-26T11:51 | 7283 | 360 | 237 | 24 | ||
| 2025-12-26T11:51 | 7479 | 350 | -37.3 | |||
| 2025-12-26T11:51 | 7486 | 349 | 230 | 20 | ||
| 2025-12-26T11:52 | 7620 | 343 | 235 | 22 | ||
| 2025-12-26T11:52 | 7717 | 338 | -37.6 | |||
| 2025-12-26T11:52 | 7812 | 333 | 245 | 18 | ||
| 2025-12-26T11:52 | 7894 | 329 | -37.6 | |||
| 2025-12-26T11:53 | 8017 | 323 | 240 | 21 | ||
| 2025-12-26T11:53 | 8128 | 318 | -39.2 | |||
| 2025-12-26T11:53 | 8217 | 314 | 242 | 19 | ||
| 2025-12-26T11:53 | 8260 | 312 | -39.4 | |||
| 2025-12-26T11:54 | 8587 | 298 | 241 | 20 | ||
| 2025-12-26T11:55 | 8759 | 290 | -41.0 | |||
| 2025-12-26T11:55 | 8935 | 283 | 232 | 18 | ||
| 2025-12-26T11:56 | 9106 | 276 | -40.3 | |||
| 2025-12-26T11:56 | 9273 | 269 | 229 | 21 | ||
| 2025-12-26T11:57 | 9580 | 257 | 229 | 22 | ||
| 2025-12-26T11:58 | 9881 | 246 | -41.8 | |||
| 2025-12-26T11:58 | 10001 | 242 | 237 | 28 | ||
| 2025-12-26T11:58 | 10091 | 239 | -41.5 | |||
| 2025-12-26T11:59 | 10354 | 229 | -41.4 | |||
| 2025-12-26T11:59 | 10417 | 227 | 232 | 31 | ||
| 2025-12-26T11:59 | 10627 | 220 | -39.3 | |||
| 2025-12-26T12:00 | 10693 | 218 | 230 | 31 | ||
| 2025-12-26T12:00 | 10763 | 216 | -39.5 | |||
| 2025-12-26T12:00 | 10861 | 213 | 230 | 31 | ||
| 2025-12-26T12:00 | 10873 | 213 | -39.5 | |||
| 2025-12-26T12:01 | 11046 | 207 | -38.3 | |||
| 2025-12-26T12:01 | 11099 | 206 | 231 | 29 | ||
| 2025-12-26T12:02 | 11321 | 199 | 234 | 27 | ||
| 2025-12-26T12:02 | 11362 | 198 | -38.0 | |||
| 2025-12-26T12:03 | 11630 | 190 | -38.9 | |||
| 2025-12-26T12:03 | 11705 | 188 | 234 | 28 | ||
| 2025-12-26T12:04 | 12058 | 179 | 232 | 27 | ||
| 2025-12-26T12:05 | 12389 | 170 | -44.3 | |||
| 2025-12-26T12:05 | 12437 | 169 | 232 | 25 | ||
| 2025-12-26T12:06 | 12702 | 162 | -45.5 | |||
| 2025-12-26T12:06 | 12772 | 161 | 232 | 32 | ||
| 2025-12-26T12:06 | 12824 | 160 | -43.9 | |||
| 2025-12-26T12:07 | 13056 | 154 | 241 | 32 | ||
| 2025-12-26T12:08 | 13395 | 147 | 247 | 31 | ||
| 2025-12-26T12:08 | 13489 | 144 | -44.2 | |||
| 2025-12-26T12:08 | 13611 | 142 | 253 | 26 | ||
| 2025-12-26T12:09 | 13759 | 139 | -44.6 | |||
| 2025-12-26T12:09 | 13786 | 138 | 244 | 22 | ||
| 2025-12-26T12:09 | 13925 | 135 | 244 | 21 | ||
| 2025-12-26T12:10 | 14179 | 130 | 239 | 17 | ||
| 2025-12-26T12:11 | 14482 | 124 | -48.8 | |||
| 2025-12-26T12:11 | 14528 | 123 | 230 | 20 | ||
| 2025-12-26T12:11 | 14705 | 120 | -48.8 | |||
| 2025-12-26T12:12 | 14927 | 116 | 225 | 25 | ||
| 2025-12-26T12:12 | 14975 | 115 | -50.7 | |||
| 2025-12-26T12:12 | 15179 | 112 | 211 | 26 | ||
| 2025-12-26T12:13 | 15209 | 111 | -51.5 | |||
| 2025-12-26T12:13 | 15307 | 110 | -50.7 | |||
| 2025-12-26T12:13 | 15477 | 107 | 241 | 23 | ||
| 2025-12-26T12:14 | 15773 | 102 | -54.3 | |||
| 2025-12-26T12:14 | 15779 | 102 | 252 | 17 | ||
| 2025-12-26T12:14 | 15907 | 100 | -52.7 | |||
| 2025-12-26T12:14 | 16048 | 98 | 243 | 26 | ||
| 2025-12-26T12:15 | 16240 | 95 | -52.4 | |||
| 2025-12-26T12:15 | 16454 | 92 | 232 | 35 | ||
| 2025-12-26T12:16 | 16600 | 90 | -51.9 | |||
| 2025-12-26T12:17 | 16838 | 86 | 236 | 36 | ||
| 2025-12-26T12:17 | 16998 | 84 | -52.8 | |||
| 2025-12-26T12:17 | 17108 | 83 | 247 | 35 | ||
| 2025-12-26T12:18 | 17243 | 81 | 244 | 31 | ||
| 2025-12-26T12:18 | 17307 | 80 | -49.6 | |||
| 2025-12-26T12:18 | 17373 | 80 | 242 | 27 | ||
| 2025-12-26T12:18 | 17413 | 79 | -46.8 | |||
| 2025-12-26T12:18 | 17507 | 78 | 243 | 22 | ||
| 2025-12-26T12:19 | 17948 | 73 | 217 | 14 | ||
| 2025-12-26T12:19 | 18002 | 72 | -49.3 | |||
| 2025-12-26T12:20 | 18441 | 68 | 193 | 16 | ||
| 2025-12-26T12:21 | 18744 | 65 | 191 | 18 | ||
| 2025-12-26T12:22 | 19003 | 62 | 184 | 19 | ||
| 2025-12-26T12:22 | 19114 | 61 | -58.2 | |||
| 2025-12-26T12:23 | 19425 | 58 | 208 | 24 | ||
| 2025-12-26T12:23 | 19437 | 58 | -56.2 | |||
| 2025-12-26T12:23 | 19573 | 57 | 210 | 26 | ||
| 2025-12-26T12:23 | 19584 | 57 | -53.0 | |||
| 2025-12-26T12:24 | 19735 | 55 | 207 | 26 | ||
| 2025-12-26T12:24 | 19790 | 55 | -52.8 | |||
| 2025-12-26T12:25 | 20103 | 52 | 199 | 26 | ||
| 2025-12-26T12:25 | 20192 | 51 | -54.8 | |||
| 2025-12-26T12:25 | 20391 | 50 | -54.0 | |||
| 2025-12-26T12:25 | 20486 | 49 | 218 | 19 | ||
| 2025-12-26T12:26 | 20534 | 49 | -52.8 | |||
| 2025-12-26T12:27 | 20888 | 46 | 240 | 18 | ||
| 2025-12-26T12:27 | 21072 | 45 | -53.8 | |||
| 2025-12-26T12:27 | 21230 | 44 | -51.3 | 246 | 15 | |
| 2025-12-26T12:28 | 21367 | 43 | 252 | 14 | ||
| 2025-12-26T12:29 | 21691 | 41 | 242 | 8 | ||
| 2025-12-26T12:29 | 21933 | 39 | 186 | 10 | ||
| 2025-12-26T12:30 | 22186 | 38 | -52.7 | |||
| 2025-12-26T12:30 | 22237 | 37 | 191 | 16 | ||
| 2025-12-26T12:30 | 22390 | 37 | -50.7 | 212 | 14 | |
| 2025-12-26T23:30 | 18 | 1010 | -7.4 | -13.6 | 70 | 2 |
| 2025-12-26T23:30 | 22 | 1010 | -7.4 | -13.8 | 0 | 0 |
| 2025-12-26T23:30 | 109 | 999 | 65 | 4 | ||
| 2025-12-26T23:31 | 191 | 988 | 62 | 2 | ||
| 2025-12-26T23:31 | 202 | 987 | -9.7 | -14.9 | ||
| 2025-12-26T23:32 | 527 | 946 | 263 | 1 | ||
| 2025-12-26T23:33 | 838 | 908 | 226 | 3 | ||
| 2025-12-26T23:33 | 945 | 895 | 269 | 5 | ||
| 2025-12-26T23:33 | 956 | 894 | -16.2 | -17.9 | ||
| 2025-12-26T23:34 | 1212 | 864 | 264 | 6 | ||
| 2025-12-26T23:34 | 1366 | 846 | -19.4 | -21.6 | ||
| 2025-12-26T23:34 | 1408 | 841 | 282 | 9 | ||
| 2025-12-26T23:35 | 1521 | 829 | 269 | 11 | ||
| 2025-12-26T23:35 | 1769 | 801 | 272 | 13 | ||
| 2025-12-26T23:35 | 1804 | 797 | -23.0 | -24.1 | ||
| 2025-12-26T23:36 | 1897 | 787 | -23.7 | -26.0 | ||
| 2025-12-26T23:36 | 2035 | 772 | -24.2 | -28.3 | ||
| 2025-12-26T23:36 | 2103 | 765 | 281 | 22 | ||
| 2025-12-26T23:36 | 2129 | 763 | -23.4 | -31.6 | ||
| 2025-12-26T23:37 | 2260 | 749 | -23.4 | -33.3 | ||
| 2025-12-26T23:37 | 2431 | 732 | 285 | 22 | ||
| 2025-12-26T23:37 | 2484 | 726 | -24.9 | -33.9 | ||
| 2025-12-26T23:38 | 2725 | 703 | 288 | 19 | ||
| 2025-12-26T23:38 | 2789 | 697 | -25.9 | -38.7 | ||
| 2025-12-26T23:39 | 3125 | 665 | 283 | 19 | ||
| 2025-12-26T23:39 | 3255 | 653 | -29.4 | -44.4 | ||
| 2025-12-26T23:40 | 3371 | 642 | -30.0 | -45.8 | ||
| 2025-12-26T23:40 | 3533 | 628 | 281 | 21 | ||
| 2025-12-26T23:41 | 3870 | 599 | -33.1 | -51.0 | ||
| 2025-12-26T23:41 | 3938 | 593 | 282 | 19 | ||
| 2025-12-26T23:41 | 4012 | 587 | -33.7 | -52.1 | ||
| 2025-12-26T23:42 | 4255 | 567 | -35.3 | -53.4 | ||
| 2025-12-26T23:42 | 4342 | 560 | 278 | 24 | ||
| 2025-12-26T23:42 | 4474 | 549 | -36.6 | -56.5 | ||
| 2025-12-26T23:43 | 4576 | 541 | 274 | 26 | ||
| 2025-12-26T23:43 | 4689 | 532 | -37.8 | -58.2 | ||
| 2025-12-26T23:44 | 4941 | 513 | 277 | 31 | ||
| 2025-12-26T23:44 | 5032 | 506 | -38.1 | -57.0 | ||
| 2025-12-26T23:45 | 5239 | 491 | 273 | 33 | ||
| 2025-12-26T23:45 | 5375 | 482 | -39.4 | -58.7 | ||
| 2025-12-26T23:45 | 5504 | 472 | -40.0 | -57.9 | ||
| 2025-12-26T23:46 | 5622 | 464 | 273 | 31 | ||
| 2025-12-26T23:46 | 5957 | 442 | 276 | 33 | ||
| 2025-12-26T23:47 | 6155 | 429 | -43.5 | |||
| 2025-12-26T23:47 | 6325 | 419 | 273 | 31 | ||
| 2025-12-26T23:48 | 6734 | 394 | -46.8 | 267 | 34 | |
| 2025-12-26T23:49 | 7128 | 371 | -48.6 | |||
| 2025-12-26T23:49 | 7143 | 370 | 270 | 32 | ||
| 2025-12-26T23:50 | 7350 | 359 | -48.7 | |||
| 2025-12-26T23:50 | 7498 | 351 | -48.1 | |||
| 2025-12-26T23:50 | 7566 | 347 | 271 | 36 | ||
| 2025-12-26T23:50 | 7593 | 346 | -47.0 | |||
| 2025-12-26T23:51 | 7798 | 335 | -46.5 | 271 | 38 | |
| 2025-12-26T23:51 | 7998 | 325 | 272 | 36 | ||
| 2025-12-26T23:51 | 8005 | 325 | -45.2 | |||
| 2025-12-26T23:52 | 8143 | 318 | -44.5 | |||
| 2025-12-26T23:52 | 8244 | 313 | -43.2 | |||
| 2025-12-26T23:52 | 8348 | 309 | 272 | 32 | ||
| 2025-12-26T23:52 | 8391 | 307 | -42.7 | |||
| 2025-12-26T23:53 | 8750 | 291 | 272 | 32 | ||
| 2025-12-26T23:53 | 8770 | 290 | -41.3 | |||
| 2025-12-26T23:54 | 9184 | 273 | 264 | 32 | ||
| 2025-12-26T23:55 | 9405 | 264 | -42.0 | |||
| 2025-12-26T23:55 | 9671 | 254 | 265 | 26 | ||
| 2025-12-26T23:56 | 9864 | 247 | 256 | 27 | ||
| 2025-12-26T23:57 | 10148 | 236 | 259 | 27 | ||
| 2025-12-26T23:57 | 10172 | 236 | -43.3 | |||
| 2025-12-26T23:58 | 10456 | 226 | 253 | 30 | ||
| 2025-12-26T23:58 | 10588 | 221 | -42.3 | |||
| 2025-12-26T23:58 | 10692 | 218 | 259 | 33 | ||
| 2025-12-26T23:59 | 10759 | 216 | -40.7 | |||
| 2025-12-26T23:59 | 10894 | 212 | 262 | 27 | ||
| 2025-12-26T23:59 | 10933 | 211 | -39.7 | |||
| 2025-12-27T00:00 | 11056 | 207 | 265 | 24 | ||
| 2025-12-27T00:00 | 11183 | 203 | -39.0 | |||
| 2025-12-27T00:00 | 11220 | 202 | 261 | 24 | ||
| 2025-12-27T00:01 | 11529 | 193 | -40.3 | |||
| 2025-12-27T00:01 | 11569 | 192 | 261 | 31 | ||
| 2025-12-27T00:02 | 12013 | 180 | 268 | 29 | ||
| 2025-12-27T00:02 | 12159 | 176 | -41.1 | |||
| 2025-12-27T00:02 | 12283 | 173 | 247 | 22 | ||
| 2025-12-27T00:03 | 12375 | 170 | -41.5 | |||
| 2025-12-27T00:03 | 12659 | 163 | 237 | 23 | ||
| 2025-12-27T00:04 | 12776 | 161 | -43.3 | |||
| 2025-12-27T00:04 | 13001 | 155 | -44.8 | |||
| 2025-12-27T00:04 | 13024 | 155 | 233 | 25 | ||
| 2025-12-27T00:04 | 13134 | 152 | 237 | 21 | ||
| 2025-12-27T00:05 | 13273 | 149 | 240 | 24 | ||
| 2025-12-27T00:05 | 13414 | 146 | 249 | 19 | ||
| 2025-12-27T00:06 | 13588 | 142 | 243 | 23 | ||
| 2025-12-27T00:06 | 13594 | 142 | -47.5 | |||
| 2025-12-27T00:06 | 13847 | 137 | 237 | 29 | ||
| 2025-12-27T00:07 | 13979 | 134 | -49.2 | |||
| 2025-12-27T00:07 | 14182 | 130 | 251 | 29 | ||
| 2025-12-27T00:08 | 14495 | 124 | 254 | 25 | ||
| 2025-12-27T00:09 | 14704 | 120 | -48.8 | |||
| 2025-12-27T00:09 | 14787 | 118 | 249 | 23 | ||
| 2025-12-27T00:10 | 15049 | 114 | -50.2 | |||
| 2025-12-27T00:10 | 15130 | 112 | 250 | 24 | ||
| 2025-12-27T00:11 | 15475 | 107 | -49.8 | 249 | 19 | |
| 2025-12-27T00:12 | 15710 | 103 | 236 | 16 | ||
| 2025-12-27T00:12 | 16016 | 98 | 243 | 20 | ||
| 2025-12-27T00:14 | 16432 | 92 | 249 | 21 | ||
| 2025-12-27T00:14 | 16575 | 90 | -54.5 | |||
| 2025-12-27T00:14 | 16702 | 88 | 242 | 21 | ||
| 2025-12-27T00:15 | 16968 | 85 | 253 | 26 | ||
| 2025-12-27T00:15 | 17120 | 83 | -55.0 | |||
| 2025-12-27T00:16 | 17340 | 80 | 251 | 19 | ||
| 2025-12-27T00:16 | 17373 | 79 | -54.2 | |||
| 2025-12-27T00:16 | 17528 | 78 | 240 | 14 | ||
| 2025-12-27T00:17 | 17725 | 75 | -55.6 | |||
| 2025-12-27T00:17 | 17836 | 74 | 222 | 15 | ||
| 2025-12-27T00:17 | 17847 | 74 | -55.3 | |||
| 2025-12-27T00:17 | 17986 | 72 | -54.8 | |||
| 2025-12-27T00:18 | 18093 | 71 | 221 | 23 | ||
| 2025-12-27T00:18 | 18133 | 71 | -54.2 | |||
| 2025-12-27T00:18 | 18308 | 69 | -52.7 | |||
| 2025-12-27T00:18 | 18348 | 68 | 229 | 16 | ||
| 2025-12-27T00:19 | 18615 | 65 | 209 | 10 | ||
| 2025-12-27T00:20 | 18959 | 62 | 218 | 15 | ||
| 2025-12-27T00:20 | 19053 | 61 | -54.3 | |||
| 2025-12-27T00:20 | 19224 | 60 | 225 | 19 | ||
| 2025-12-27T00:21 | 19596 | 56 | 240 | 20 | ||
| 2025-12-27T00:22 | 19664 | 56 | -56.9 | |||
| 2025-12-27T00:22 | 19936 | 53 | -56.3 | |||
| 2025-12-27T00:22 | 19958 | 53 | 232 | 23 | ||
| 2025-12-27T00:23 | 20094 | 52 | -55.4 | |||
| 2025-12-27T00:23 | 20241 | 51 | -51.0 | |||
| 2025-12-27T00:23 | 20309 | 50 | 239 | 21 | ||
| 2025-12-27T00:24 | 20530 | 49 | 226 | 13 | ||
| 2025-12-27T00:24 | 20627 | 48 | -51.3 | |||
| 2025-12-27T00:25 | 20956 | 45 | 195 | 10 | ||
| 2025-12-27T00:25 | 21222 | 44 | -54.5 | |||
| 2025-12-27T00:25 | 21245 | 43 | 196 | 18 | ||
| 2025-12-27T00:26 | 21492 | 42 | 197 | 11 | ||
| 2025-12-27T00:26 | 21661 | 41 | 187 | 7 | ||
| 2025-12-27T00:26 | 21695 | 41 | -51.4 | |||
| 2025-12-27T00:26 | 21790 | 40 | 166 | 6 | ||
| 2025-12-27T00:27 | 21873 | 39 | -50.0 | |||
| 2025-12-27T00:27 | 22181 | 38 | 250 | 4 | ||
| 2025-12-27T00:27 | 22246 | 37 | 226 | 2 | ||
| 2025-12-27T00:28 | 22318 | 37 | 156 | 3 | ||
| 2025-12-27T00:28 | 22444 | 36 | 143 | 6 | ||
| 2025-12-27T00:29 | 22852 | 34 | 171 | 8 | ||
| 2025-12-27T00:30 | 23179 | 32 | 186 | 10 | ||
| 2025-12-27T00:30 | 23221 | 32 | -52.8 | |||
| 2025-12-27T00:30 | 23427 | 31 | 226 | 5 | ||
| 2025-12-27T00:31 | 23616 | 30 | 227 | 9 | ||
| 2025-12-27T00:32 | 24012 | 28 | 224 | 10 | ||
| 2025-12-27T00:32 | 24292 | 27 | 256 | 4 | ||
| 2025-12-27T00:33 | 24363 | 27 | -53.0 | |||
| 2025-12-27T00:33 | 24413 | 27 | 237 | 2 | ||
| 2025-12-27T00:33 | 24511 | 26 | -53.3 | |||
| 2025-12-27T00:33 | 24585 | 26 | 112 | 3 | ||
| 2025-12-27T00:33 | 24634 | 26 | -51.8 | |||
| 2025-12-27T00:34 | 24811 | 25 | 159 | 3 | ||
| 2025-12-27T00:34 | 24992 | 24 | -53.7 | 139 | 8 | |
| 2025-12-27T11:30 | 18 | 1010 | -5.3 | -11.0 | 170 | 2 |
| 2025-12-27T11:30 | 23 | 1009 | -5.3 | -11.6 | 0 | 0 |
| 2025-12-27T11:31 | 384 | 964 | 125 | 1 | ||
| 2025-12-27T11:32 | 564 | 942 | -10.3 | -13.7 | ||
| 2025-12-27T11:32 | 598 | 938 | 309 | 3 | ||
| 2025-12-27T11:32 | 716 | 923 | 274 | 4 | ||
| 2025-12-27T11:32 | 812 | 912 | 295 | 6 | ||
| 2025-12-27T11:32 | 846 | 908 | -12.3 | -15.0 | ||
| 2025-12-27T11:33 | 965 | 894 | 257 | 7 | ||
| 2025-12-27T11:33 | 1248 | 861 | 262 | 11 | ||
| 2025-12-27T11:34 | 1434 | 840 | -17.0 | -18.8 | ||
| 2025-12-27T11:34 | 1570 | 825 | -17.8 | -20.7 | ||
| 2025-12-27T11:34 | 1666 | 814 | 266 | 20 | ||
| 2025-12-27T11:35 | 1681 | 812 | -18.3 | -22.9 | ||
| 2025-12-27T11:35 | 1824 | 797 | -19.0 | -23.8 | ||
| 2025-12-27T11:35 | 1905 | 788 | -18.0 | -26.4 | ||
| 2025-12-27T11:35 | 1964 | 782 | -17.8 | -25.7 | ||
| 2025-12-27T11:35 | 2029 | 775 | -17.6 | -28.2 | ||
| 2025-12-27T11:35 | 2108 | 767 | 281 | 18 | ||
| 2025-12-27T11:36 | 2535 | 724 | 274 | 21 | ||
| 2025-12-27T11:37 | 2653 | 713 | -22.2 | -30.0 | ||
| 2025-12-27T11:38 | 2950 | 684 | 271 | 21 | ||
| 2025-12-27T11:38 | 3185 | 662 | -26.4 | -32.2 | ||
| 2025-12-27T11:38 | 3293 | 653 | 264 | 22 | ||
| 2025-12-27T11:39 | 3361 | 647 | -27.5 | -34.4 | ||
| 2025-12-27T11:39 | 3660 | 620 | 266 | 25 | ||
| 2025-12-27T11:39 | 3672 | 619 | -29.5 | -35.3 | ||
| 2025-12-27T11:40 | 3872 | 602 | -30.9 | -36.8 | ||
| 2025-12-27T11:40 | 4041 | 588 | 267 | 24 | ||
| 2025-12-27T11:41 | 4106 | 582 | -32.9 | -37.7 | ||
| 2025-12-27T11:41 | 4233 | 572 | -33.6 | -40.3 | ||
| 2025-12-27T11:41 | 4442 | 555 | 266 | 24 | ||
| 2025-12-27T11:42 | 4583 | 544 | -36.2 | -45.2 | ||
| 2025-12-27T11:42 | 4720 | 533 | -37.0 | -46.7 | ||
| 2025-12-27T11:42 | 4871 | 522 | 265 | 24 | ||
| 2025-12-27T11:43 | 5042 | 509 | -39.3 | -46.0 | ||
| 2025-12-27T11:43 | 5105 | 504 | -39.8 | -46.5 | ||
| 2025-12-27T11:43 | 5197 | 497 | -40.0 | -51.3 | ||
| 2025-12-27T11:43 | 5280 | 491 | 266 | 26 | ||
| 2025-12-27T11:44 | 5651 | 465 | -41.5 | |||
| 2025-12-27T11:44 | 5691 | 462 | 263 | 27 | ||
| 2025-12-27T11:45 | 5950 | 445 | -42.5 | |||
| 2025-12-27T11:45 | 6057 | 438 | 260 | 30 | ||
| 2025-12-27T11:46 | 6464 | 412 | 262 | 31 | ||
| 2025-12-27T11:47 | 6667 | 400 | -45.8 | |||
| 2025-12-27T11:47 | 6817 | 391 | -46.8 | |||
| 2025-12-27T11:47 | 6888 | 387 | 261 | 32 | ||
| 2025-12-27T11:47 | 6959 | 383 | -47.1 | |||
| 2025-12-27T11:48 | 7246 | 367 | 258 | 35 | ||
| 2025-12-27T11:48 | 7367 | 360 | -48.5 | |||
| 2025-12-27T11:49 | 7601 | 347 | 260 | 36 | ||
| 2025-12-27T11:50 | 8005 | 326 | 260 | 39 | ||
| 2025-12-27T11:50 | 8051 | 324 | -49.8 | |||
| 2025-12-27T11:50 | 8146 | 319 | -49.3 | |||
| 2025-12-27T11:50 | 8328 | 311 | -48.3 | |||
| 2025-12-27T11:51 | 8429 | 306 | 264 | 37 | ||
| 2025-12-27T11:51 | 8442 | 305 | -47.7 | |||
| 2025-12-27T11:51 | 8569 | 300 | -46.9 | |||
| 2025-12-27T11:52 | 8792 | 290 | -44.7 | 259 | 40 | |
| 2025-12-27T11:53 | 9040 | 279 | 258 | 35 | ||
| 2025-12-27T11:53 | 9162 | 274 | -42.3 | |||
| 2025-12-27T11:53 | 9347 | 267 | 251 | 35 | ||
| 2025-12-27T11:54 | 9576 | 258 | -42.5 | |||
| 2025-12-27T11:55 | 9725 | 252 | 257 | 34 | ||
| 2025-12-27T11:56 | 10102 | 239 | 256 | 31 | ||
| 2025-12-27T11:56 | 10121 | 238 | -42.1 | |||
| 2025-12-27T11:56 | 10384 | 229 | -43.1 | |||
| 2025-12-27T11:57 | 10475 | 226 | 258 | 35 | ||
| 2025-12-27T11:58 | 10843 | 214 | 260 | 31 | ||
| 2025-12-27T11:58 | 11022 | 208 | -43.2 | |||
| 2025-12-27T11:58 | 11159 | 204 | -43.4 | |||
| 2025-12-27T11:58 | 11184 | 203 | 253 | 36 | ||
| 2025-12-27T11:59 | 11283 | 200 | -42.5 | |||
| 2025-12-27T11:59 | 11397 | 197 | 254 | 33 | ||
| 2025-12-27T12:00 | 11598 | 191 | -41.7 | |||
| 2025-12-27T12:00 | 11647 | 190 | 253 | 33 | ||
| 2025-12-27T12:00 | 11842 | 184 | -41.9 | |||
| 2025-12-27T12:00 | 11889 | 183 | 260 | 33 | ||
| 2025-12-27T12:01 | 12111 | 177 | -42.3 | |||
| 2025-12-27T12:01 | 12214 | 175 | 248 | 28 | ||
| 2025-12-27T12:02 | 12441 | 169 | -43.7 | |||
| 2025-12-27T12:02 | 12613 | 165 | 245 | 31 | ||
| 2025-12-27T12:02 | 12727 | 162 | -44.6 | |||
| 2025-12-27T12:03 | 12789 | 160 | 243 | 35 | ||
| 2025-12-27T12:03 | 12900 | 158 | -44.3 | |||
| 2025-12-27T12:04 | 13132 | 152 | 257 | 28 | ||
| 2025-12-27T12:04 | 13301 | 148 | -44.6 | |||
| 2025-12-27T12:04 | 13394 | 146 | 251 | 33 | ||
| 2025-12-27T12:05 | 13629 | 141 | 248 | 27 | ||
| 2025-12-27T12:05 | 13649 | 141 | -45.3 | |||
| 2025-12-27T12:06 | 13772 | 138 | -45.7 | |||
| 2025-12-27T12:06 | 13897 | 136 | 245 | 26 | ||
| 2025-12-27T12:07 | 14200 | 130 | 247 | 27 | ||
| 2025-12-27T12:07 | 14261 | 129 | -46.5 | |||
| 2025-12-27T12:08 | 14370 | 126 | -46.2 | |||
| 2025-12-27T12:08 | 14578 | 123 | 254 | 30 | ||
| 2025-12-27T12:09 | 14807 | 118 | 253 | 26 | ||
| 2025-12-27T12:10 | 15149 | 112 | -49.6 | |||
| 2025-12-27T12:10 | 15220 | 111 | 260 | 28 | ||
| 2025-12-27T12:11 | 15570 | 105 | -51.2 | 255 | 24 | |
| 2025-12-27T12:11 | 15756 | 102 | -51.4 | |||
| 2025-12-27T12:12 | 15854 | 101 | -49.5 | |||
| 2025-12-27T12:12 | 15873 | 101 | 259 | 24 | ||
| 2025-12-27T12:12 | 16085 | 97 | -48.2 | |||
| 2025-12-27T12:13 | 16183 | 96 | 262 | 20 | ||
| 2025-12-27T12:13 | 16295 | 94 | -46.9 | |||
| 2025-12-27T12:13 | 16363 | 93 | 243 | 14 | ||
| 2025-12-27T12:14 | 16551 | 91 | 223 | 15 | ||
| 2025-12-27T12:14 | 16564 | 91 | -46.8 | |||
| 2025-12-27T12:15 | 16932 | 86 | 208 | 17 | ||
| 2025-12-27T12:15 | 17066 | 84 | -50.0 | |||
| 2025-12-27T12:15 | 17132 | 83 | 216 | 22 | ||
| 2025-12-27T12:16 | 17531 | 78 | 219 | 26 | ||
| 2025-12-27T12:17 | 17968 | 73 | -52.3 | |||
| 2025-12-27T12:17 | 18013 | 73 | 236 | 26 | ||
| 2025-12-27T12:18 | 18416 | 68 | 255 | 24 | ||
| 2025-12-27T12:19 | 18589 | 66 | 257 | 23 | ||
| 2025-12-27T12:19 | 18608 | 66 | -52.7 | |||
| 2025-12-27T12:19 | 18699 | 65 | -51.5 | |||
| 2025-12-27T12:20 | 18939 | 63 | 239 | 18 | ||
| 2025-12-27T12:20 | 19022 | 62 | -52.7 | |||
| 2025-12-27T12:20 | 19203 | 60 | -52.1 | |||
| 2025-12-27T12:20 | 19268 | 60 | 242 | 13 | ||
| 2025-12-27T12:21 | 19339 | 59 | -52.7 | 238 | 14 | |
| 2025-12-27T23:30 | 18 | 1014 | -4.1 | -6.2 | 150 | 2 |
| 2025-12-27T23:30 | 23 | 1013 | -4.2 | -7.0 | 0 | 0 |
| 2025-12-27T23:30 | 126 | 1000 | 121 | 3 | ||
| 2025-12-27T23:31 | 181 | 993 | -5.4 | -8.5 | ||
| 2025-12-27T23:31 | 235 | 986 | 113 | 1 | ||
| 2025-12-27T23:31 | 382 | 968 | 337 | 2 | ||
| 2025-12-27T23:31 | 453 | 959 | 312 | 3 | ||
| 2025-12-27T23:31 | 516 | 951 | -7.9 | -10.6 | ||
| 2025-12-27T23:31 | 521 | 950 | 286 | 6 | ||
| 2025-12-27T23:32 | 697 | 929 | 290 | 7 | ||
| 2025-12-27T23:32 | 842 | 912 | -10.3 | -12.8 | ||
| 2025-12-27T23:33 | 955 | 898 | 272 | 10 | ||
| 2025-12-27T23:33 | 1031 | 890 | -11.8 | -14.1 | ||
| 2025-12-27T23:33 | 1148 | 876 | 276 | 12 | ||
| 2025-12-27T23:34 | 1238 | 866 | -13.3 | -16.3 | ||
| 2025-12-27T23:34 | 1450 | 842 | 287 | 15 | ||
| 2025-12-27T23:35 | 1614 | 824 | 287 | 18 | ||
| 2025-12-27T23:35 | 1658 | 819 | -16.8 | -19.1 | ||
| 2025-12-27T23:36 | 1936 | 789 | 282 | 18 | ||
| 2025-12-27T23:36 | 2082 | 773 | -20.5 | -21.3 | ||
| 2025-12-27T23:37 | 2141 | 767 | 282 | 18 | ||
| 2025-12-27T23:37 | 2182 | 763 | -20.6 | -26.3 | ||
| 2025-12-27T23:37 | 2235 | 758 | -20.3 | -30.4 | ||
| 2025-12-27T23:37 | 2393 | 741 | 282 | 26 | ||
| 2025-12-27T23:38 | 2500 | 731 | -21.7 | -32.2 | ||
| 2025-12-27T23:38 | 2603 | 721 | -22.1 | -33.4 | ||
| 2025-12-27T23:38 | 2752 | 706 | 298 | 27 | ||
| 2025-12-27T23:38 | 2805 | 701 | -22.5 | -38.0 | ||
| 2025-12-27T23:39 | 2975 | 685 | -23.4 | -38.8 | ||
| 2025-12-27T23:39 | 3100 | 673 | 300 | 29 | ||
| 2025-12-27T23:40 | 3251 | 660 | -24.6 | -41.2 | ||
| 2025-12-27T23:40 | 3431 | 643 | 297 | 32 | ||
| 2025-12-27T23:41 | 3681 | 622 | -26.3 | -45.3 | ||
| 2025-12-27T23:41 | 3744 | 616 | 305 | 30 | ||
| 2025-12-27T23:42 | 4011 | 594 | -27.9 | -50.2 | ||
| 2025-12-27T23:42 | 4072 | 589 | 305 | 33 | ||
| 2025-12-27T23:42 | 4094 | 587 | -28.2 | -50.4 | ||
| 2025-12-27T23:43 | 4210 | 578 | -27.7 | -51.0 | ||
| 2025-12-27T23:43 | 4364 | 565 | 308 | 40 | ||
| 2025-12-27T23:44 | 4491 | 555 | -29.1 | -48.9 | ||
| 2025-12-27T23:44 | 4639 | 544 | -29.7 | -48.7 | ||
| 2025-12-27T23:44 | 4696 | 540 | 312 | 42 | ||
| 2025-12-27T23:44 | 4815 | 531 | -30.0 | -47.8 | ||
| 2025-12-27T23:45 | 4827 | 530 | 311 | 45 | ||
| 2025-12-27T23:45 | 5049 | 513 | -31.6 | -47.2 | ||
| 2025-12-27T23:45 | 5155 | 506 | 311 | 44 | ||
| 2025-12-27T23:46 | 5422 | 487 | -34.2 | -53.8 | ||
| 2025-12-27T23:46 | 5484 | 483 | 309 | 45 | ||
| 2025-12-27T23:47 | 5671 | 470 | -35.5 | -56.3 | ||
| 2025-12-27T23:47 | 5832 | 459 | 310 | 48 | ||
| 2025-12-27T23:48 | 5868 | 457 | -36.9 | -55.3 | ||
| 2025-12-27T23:48 | 6098 | 442 | 312 | 48 | ||
| 2025-12-27T23:48 | 6136 | 439 | -38.5 | -58.0 | ||
| 2025-12-27T23:49 | 6299 | 429 | -40.0 | -59.2 | ||
| 2025-12-27T23:49 | 6470 | 418 | 312 | 49 | ||
| 2025-12-27T23:50 | 6783 | 399 | -43.3 | |||
| 2025-12-27T23:50 | 6839 | 396 | 310 | 50 | ||
| 2025-12-27T23:51 | 7131 | 379 | -45.1 | |||
| 2025-12-27T23:51 | 7196 | 375 | 316 | 46 | ||
| 2025-12-27T23:51 | 7285 | 370 | -45.8 | |||
| 2025-12-27T23:52 | 7383 | 365 | -45.9 | |||
| 2025-12-27T23:52 | 7396 | 364 | 316 | 42 | ||
| 2025-12-27T23:52 | 7569 | 355 | -46.9 | |||
| 2025-12-27T23:53 | 7767 | 344 | 312 | 38 | ||
| 2025-12-27T23:53 | 8008 | 332 | -48.8 | |||
| 2025-12-27T23:54 | 8171 | 324 | 307 | 39 | ||
| 2025-12-27T23:54 | 8304 | 317 | -50.3 | |||
| 2025-12-27T23:54 | 8326 | 316 | 305 | 36 | ||
| 2025-12-27T23:55 | 8496 | 308 | -51.1 | |||
| 2025-12-27T23:55 | 8575 | 305 | -51.6 | |||
| 2025-12-27T23:55 | 8648 | 301 | -51.0 | |||
| 2025-12-27T23:55 | 8718 | 298 | 294 | 37 | ||
| 2025-12-27T23:56 | 8906 | 289 | 295 | 39 | ||
| 2025-12-27T23:56 | 9050 | 283 | 302 | 33 | ||
| 2025-12-27T23:57 | 9219 | 276 | -50.1 | |||
| 2025-12-27T23:57 | 9351 | 270 | 300 | 34 | ||
| 2025-12-27T23:58 | 9504 | 264 | -51.7 | |||
| 2025-12-27T23:58 | 9605 | 260 | 304 | 33 | ||
| 2025-12-27T23:58 | 9729 | 255 | -51.0 | |||
| 2025-12-27T23:59 | 9975 | 246 | -52.5 | |||
| 2025-12-27T23:59 | 9981 | 245 | 297 | 23 | ||
| 2025-12-27T23:59 | 10102 | 241 | -52.2 | |||
| 2025-12-28T00:00 | 10237 | 236 | -52.4 | |||
| 2025-12-28T00:00 | 10269 | 235 | 272 | 27 | ||
| 2025-12-28T00:00 | 10415 | 229 | -50.9 | |||
| 2025-12-28T00:01 | 10552 | 225 | 272 | 28 | ||
| 2025-12-28T00:02 | 10765 | 217 | -51.4 | 273 | 33 | |
| 2025-12-28T00:02 | 10837 | 215 | -50.3 | |||
| 2025-12-28T00:02 | 10879 | 214 | 270 | 31 | ||
| 2025-12-28T00:02 | 11041 | 208 | -51.2 | |||
| 2025-12-28T00:03 | 11177 | 204 | 257 | 33 | ||
| 2025-12-28T00:04 | 11478 | 195 | 261 | 35 | ||
| 2025-12-28T00:04 | 11612 | 191 | -51.2 | |||
| 2025-12-28T00:05 | 11725 | 188 | -50.5 | |||
| 2025-12-28T00:05 | 11835 | 184 | 267 | 38 | ||
| 2025-12-28T00:06 | 12256 | 173 | 259 | 37 | ||
| 2025-12-28T00:06 | 12320 | 171 | -50.5 | |||
| 2025-12-28T00:07 | 12547 | 165 | -49.2 | |||
| 2025-12-28T00:07 | 12633 | 163 | -48.6 | |||
| 2025-12-28T00:07 | 12637 | 163 | 249 | 45 | ||
| 2025-12-28T00:07 | 12710 | 161 | -48.2 | |||
| 2025-12-28T00:07 | 12753 | 160 | 252 | 45 | ||
| 2025-12-28T00:08 | 12969 | 155 | -44.8 | |||
| 2025-12-28T00:08 | 12998 | 154 | 253 | 43 | ||
| 2025-12-28T00:09 | 13318 | 147 | -43.1 | |||
| 2025-12-28T00:09 | 13368 | 146 | 249 | 43 | ||
| 2025-12-28T00:10 | 13652 | 140 | 257 | 42 | ||
| 2025-12-28T00:10 | 13734 | 138 | -42.7 | |||
| 2025-12-28T00:11 | 14079 | 132 | 263 | 27 | ||
| 2025-12-28T00:11 | 14234 | 129 | -41.1 | |||
| 2025-12-28T00:12 | 14333 | 127 | 261 | 22 | ||
| 2025-12-28T00:13 | 14654 | 121 | -43.6 | 254 | 17 | |
| 2025-12-28T00:13 | 14965 | 115 | 249 | 14 | ||
| 2025-12-28T00:14 | 15403 | 108 | -47.8 | 253 | 19 | |
| 2025-12-28T00:15 | 15758 | 102 | -50.3 | |||
| 2025-12-28T00:15 | 15823 | 101 | 261 | 19 | ||
| 2025-12-28T00:16 | 15968 | 99 | -50.4 | |||
| 2025-12-28T00:16 | 16062 | 98 | 255 | 15 | ||
| 2025-12-28T00:17 | 16396 | 93 | -51.4 | |||
| 2025-12-28T00:17 | 16416 | 92 | 253 | 17 | ||
| 2025-12-28T00:18 | 16738 | 88 | 237 | 14 | ||
| 2025-12-28T00:18 | 16770 | 88 | -52.3 | |||
| 2025-12-28T00:18 | 16943 | 85 | 212 | 11 | ||
| 2025-12-28T00:19 | 17066 | 84 | -53.1 | |||
| 2025-12-28T00:19 | 17299 | 81 | 234 | 17 | ||
| 2025-12-28T00:19 | 17305 | 81 | -53.5 | |||
| 2025-12-28T00:20 | 17419 | 79 | -52.0 | |||
| 2025-12-28T00:20 | 17535 | 78 | 220 | 11 | ||
| 2025-12-28T00:21 | 17938 | 73 | 218 | 15 | ||
| 2025-12-28T00:22 | 18270 | 69 | 223 | 23 | ||
| 2025-12-28T00:22 | 18589 | 66 | -57.0 | |||
| 2025-12-28T00:23 | 18717 | 65 | 243 | 19 | ||
| 2025-12-28T00:23 | 18755 | 64 | -57.5 | |||
| 2025-12-28T00:23 | 19016 | 62 | -56.8 | |||
| 2025-12-28T00:24 | 19111 | 61 | 261 | 24 | ||
| 2025-12-28T00:24 | 19121 | 61 | -55.3 | |||
| 2025-12-28T00:24 | 19216 | 60 | -52.3 | |||
| 2025-12-28T00:24 | 19358 | 58 | 264 | 18 | ||
| 2025-12-28T00:24 | 19369 | 58 | -50.8 | |||
| 2025-12-28T00:25 | 19484 | 57 | -50.8 | |||
| 2025-12-28T00:25 | 19624 | 56 | -49.0 | |||
| 2025-12-28T00:25 | 19730 | 55 | -49.2 | |||
| 2025-12-28T00:25 | 19765 | 55 | 231 | 21 | ||
| 2025-12-28T00:25 | 19824 | 54 | -47.3 | |||
| 2025-12-28T00:26 | 20047 | 53 | 257 | 14 | ||
| 2025-12-28T00:26 | 20173 | 52 | -47.0 | 256 | 6 | |
| 2025-12-28T00:27 | 20396 | 50 | 261 | 4 | ||
| 2025-12-28T00:27 | 20570 | 49 | 233 | 2 | ||
| 2025-12-28T00:28 | 21050 | 45 | 117 | 1 | ||
| 2025-12-28T00:28 | 21237 | 44 | -56.0 | |||
| 2025-12-28T00:29 | 21505 | 42 | 167 | 3 | ||
| 2025-12-28T00:29 | 21564 | 42 | -56.5 | |||
| 2025-12-28T00:29 | 21657 | 41 | 185 | 4 | ||
| 2025-12-28T00:30 | 21930 | 39 | -55.9 | 212 | 9 | |
| 2025-12-28T00:30 | 22092 | 38 | 181 | 6 | ||
| 2025-12-28T00:30 | 22142 | 38 | -55.3 | |||
| 2025-12-28T00:31 | 22277 | 37 | 168 | 8 | ||
| 2025-12-28T00:31 | 22361 | 37 | -56.0 | |||
| 2025-12-28T00:32 | 22595 | 35 | 170 | 11 | ||
| 2025-12-28T00:32 | 22911 | 34 | -52.0 | |||
| 2025-12-28T00:33 | 23008 | 33 | 214 | 12 | ||
| 2025-12-28T00:34 | 23431 | 31 | 207 | 9 | ||
| 2025-12-28T00:34 | 23515 | 31 | -50.4 | |||
| 2025-12-28T00:34 | 23621 | 30 | 261 | 2 | ||
| 2025-12-28T00:35 | 24024 | 28 | 278 | 5 | ||
| 2025-12-28T00:35 | 24185 | 28 | 284 | 3 | ||
| 2025-12-28T00:36 | 24255 | 27 | -52.0 | |||
| 2025-12-28T00:36 | 24465 | 27 | -52.8 | 197 | 3 | |
| 2025-12-28T11:30 | 18 | 1017 | -2.7 | -7.6 | 150 | 4 |
| 2025-12-28T11:30 | 24 | 1016 | -2.9 | -8.4 | 0 | 0 |
| 2025-12-28T11:30 | 45 | 1014 | -2.7 | -8.6 | ||
| 2025-12-28T11:30 | 67 | 1011 | -2.0 | -8.5 | ||
| 2025-12-28T11:30 | 94 | 1007 | 179 | 3 | ||
| 2025-12-28T11:30 | 111 | 1005 | -1.8 | -9.2 | ||
| 2025-12-28T11:30 | 163 | 999 | -0.9 | -9.5 | ||
| 2025-12-28T11:31 | 196 | 994 | 173 | 6 | ||
| 2025-12-28T11:31 | 339 | 977 | -1.3 | -9.7 | ||
| 2025-12-28T11:31 | 362 | 974 | 230 | 5 | ||
| 2025-12-28T11:31 | 452 | 963 | 239 | 5 | ||
| 2025-12-28T11:32 | 552 | 951 | 250 | 5 | ||
| 2025-12-28T11:32 | 640 | 940 | 251 | 5 | ||
| 2025-12-28T11:33 | 948 | 904 | 264 | 6 | ||
| 2025-12-28T11:34 | 1198 | 876 | 266 | 6 | ||
| 2025-12-28T11:34 | 1230 | 872 | -8.9 | -12.0 | ||
| 2025-12-28T11:34 | 1363 | 857 | 288 | 6 | ||
| 2025-12-28T11:34 | 1408 | 852 | -9.8 | -13.7 | ||
| 2025-12-28T11:35 | 1598 | 832 | -9.7 | -18.9 | ||
| 2025-12-28T11:35 | 1649 | 826 | 278 | 16 | ||
| 2025-12-28T11:35 | 1656 | 826 | -8.9 | -23.3 | ||
| 2025-12-28T11:35 | 1701 | 821 | -9.4 | -24.6 | ||
| 2025-12-28T11:35 | 1740 | 817 | -8.6 | -28.1 | ||
| 2025-12-28T11:36 | 1912 | 799 | -9.4 | -23.8 | ||
| 2025-12-28T11:36 | 1952 | 795 | 290 | 19 | ||
| 2025-12-28T11:36 | 2198 | 770 | -11.4 | -22.6 | ||
| 2025-12-28T11:37 | 2346 | 755 | 280 | 19 | ||
| 2025-12-28T11:37 | 2420 | 748 | -11.0 | -23.8 | ||
| 2025-12-28T11:37 | 2570 | 733 | -11.3 | -26.6 | ||
| 2025-12-28T11:38 | 2709 | 720 | 280 | 17 | ||
| 2025-12-28T11:38 | 2778 | 714 | -12.5 | -27.7 | ||
| 2025-12-28T11:38 | 2897 | 702 | -12.8 | -28.3 | ||
| 2025-12-28T11:39 | 3084 | 685 | 276 | 19 | ||
| 2025-12-28T11:39 | 3278 | 668 | -15.7 | -29.0 | ||
| 2025-12-28T11:40 | 3462 | 652 | 281 | 20 | ||
| 2025-12-28T11:40 | 3487 | 650 | -16.9 | -29.7 | ||
| 2025-12-28T11:40 | 3717 | 630 | -17.7 | -33.0 | ||
| 2025-12-28T11:41 | 3755 | 627 | 279 | 22 | ||
| 2025-12-28T11:42 | 4134 | 596 | 280 | 25 | ||
| 2025-12-28T11:42 | 4254 | 586 | -21.5 | -38.0 | ||
| 2025-12-28T11:42 | 4330 | 580 | 278 | 25 | ||
| 2025-12-28T11:42 | 4407 | 574 | -22.5 | -37.2 | ||
| 2025-12-28T11:43 | 4618 | 558 | -24.0 | -39.3 | ||
| 2025-12-28T11:43 | 4683 | 553 | 282 | 25 | ||
| 2025-12-28T11:44 | 4863 | 539 | -25.8 | -44.3 | ||
| 2025-12-28T11:44 | 5043 | 526 | 283 | 27 | ||
| 2025-12-28T11:45 | 5263 | 510 | 285 | 25 | ||
| 2025-12-28T11:45 | 5305 | 507 | -29.1 | -44.1 | ||
| 2025-12-28T11:46 | 5572 | 488 | -31.4 | -42.4 | ||
| 2025-12-28T11:46 | 5618 | 485 | 289 | 26 | ||
| 2025-12-28T11:46 | 5785 | 474 | -33.2 | -43.7 | ||
| 2025-12-28T11:46 | 5878 | 468 | -34.1 | -41.7 | ||
| 2025-12-28T11:47 | 5983 | 461 | 291 | 27 | ||
| 2025-12-28T11:48 | 6350 | 437 | 289 | 25 | ||
| 2025-12-28T11:48 | 6610 | 421 | -40.0 | -46.6 | ||
| 2025-12-28T11:49 | 6746 | 412 | 282 | 24 | ||
| 2025-12-28T11:50 | 7097 | 391 | -43.9 | |||
| 2025-12-28T11:50 | 7142 | 389 | 274 | 25 | ||
| 2025-12-28T11:50 | 7347 | 377 | -45.6 | |||
| 2025-12-28T11:51 | 7549 | 366 | 275 | 27 | ||
| 2025-12-28T11:51 | 7696 | 358 | -47.4 | |||
| 2025-12-28T11:51 | 7892 | 347 | 288 | 25 | ||
| 2025-12-28T11:52 | 8079 | 337 | -50.5 | |||
| 2025-12-28T11:52 | 8147 | 334 | 284 | 21 | ||
| 2025-12-28T11:53 | 8568 | 313 | 283 | 24 | ||
| 2025-12-28T11:53 | 8722 | 305 | -54.4 | |||
| 2025-12-28T11:54 | 8974 | 294 | 275 | 26 | ||
| 2025-12-28T11:55 | 9166 | 285 | -56.6 | |||
| 2025-12-28T11:55 | 9212 | 283 | 272 | 23 | ||
| 2025-12-28T11:56 | 9604 | 266 | 276 | 25 | ||
| 2025-12-28T11:56 | 9668 | 263 | -58.3 | |||
| 2025-12-28T11:57 | 9939 | 252 | -59.1 | |||
| 2025-12-28T11:57 | 9976 | 251 | 265 | 26 | ||
| 2025-12-28T11:58 | 10329 | 237 | 266 | 29 | ||
| 2025-12-28T11:58 | 10380 | 235 | -59.5 | |||
| 2025-12-28T11:59 | 10656 | 225 | 270 | 28 | ||
| 2025-12-28T12:00 | 10919 | 216 | 270 | 28 | ||
| 2025-12-28T12:00 | 11096 | 210 | -56.2 | |||
| 2025-12-28T12:01 | 11224 | 206 | 270 | 28 | ||
| 2025-12-28T12:01 | 11275 | 204 | -55.9 | |||
| 2025-12-28T12:01 | 11512 | 196 | -54.5 | |||
| 2025-12-28T12:02 | 11539 | 196 | 267 | 27 | ||
| 2025-12-28T12:02 | 11735 | 190 | -53.5 | |||
| 2025-12-28T12:02 | 11752 | 189 | 258 | 28 | ||
| 2025-12-28T12:03 | 12062 | 180 | -51.8 | |||
| 2025-12-28T12:03 | 12098 | 179 | 265 | 29 | ||
| 2025-12-28T12:04 | 12341 | 173 | 266 | 31 | ||
| 2025-12-28T12:05 | 12636 | 165 | 262 | 29 | ||
| 2025-12-28T12:05 | 12783 | 161 | 262 | 30 | ||
| 2025-12-28T12:05 | 12795 | 161 | -50.1 | |||
| 2025-12-28T12:06 | 12917 | 158 | 263 | 29 | ||
| 2025-12-28T12:06 | 12922 | 158 | -49.6 | |||
| 2025-12-28T12:06 | 13205 | 151 | -47.7 | |||
| 2025-12-28T12:07 | 13257 | 150 | 257 | 29 | ||
| 2025-12-28T12:08 | 13620 | 142 | 259 | 26 | ||
| 2025-12-28T12:08 | 13632 | 142 | -48.3 | |||
| 2025-12-28T12:09 | 13975 | 135 | 253 | 27 | ||
| 2025-12-28T12:09 | 14059 | 133 | -49.4 | |||
| 2025-12-28T12:10 | 14303 | 128 | 265 | 24 | ||
| 2025-12-28T12:10 | 14357 | 127 | -49.1 | |||
| 2025-12-28T12:11 | 14629 | 122 | 263 | 29 | ||
| 2025-12-28T12:11 | 14656 | 121 | -50.4 | |||
| 2025-12-28T12:11 | 14776 | 119 | -49.3 | |||
| 2025-12-28T12:11 | 14792 | 119 | 265 | 29 | ||
| 2025-12-28T12:12 | 14997 | 115 | 267 | 30 | ||
| 2025-12-28T12:12 | 15009 | 115 | -48.0 | |||
| 2025-12-28T12:13 | 15376 | 109 | 271 | 27 | ||
| 2025-12-28T12:13 | 15677 | 104 | 270 | 25 | ||
| 2025-12-28T12:14 | 15754 | 103 | -49.4 | |||
| 2025-12-28T12:14 | 16015 | 99 | 260 | 16 | ||
| 2025-12-28T12:15 | 16148 | 97 | 241 | 13 | ||
| 2025-12-28T12:15 | 16362 | 94 | 249 | 19 | ||
| 2025-12-28T12:16 | 16581 | 91 | 263 | 18 | ||
| 2025-12-28T12:16 | 16603 | 90 | -49.5 | |||
| 2025-12-28T12:17 | 16912 | 86 | 237 | 13 | ||
| 2025-12-28T12:17 | 16971 | 85 | -50.5 | |||
| 2025-12-28T12:18 | 17297 | 81 | 221 | 16 | ||
| 2025-12-28T12:18 | 17441 | 79 | -52.8 | |||
| 2025-12-28T12:19 | 17664 | 77 | 216 | 20 | ||
| 2025-12-28T12:19 | 17768 | 75 | -53.9 | |||
| 2025-12-28T12:19 | 17859 | 74 | 233 | 20 | ||
| 2025-12-28T12:20 | 18144 | 71 | 244 | 15 | ||
| 2025-12-28T12:20 | 18232 | 70 | -53.6 | |||
| 2025-12-28T12:21 | 18514 | 67 | 246 | 29 | ||
| 2025-12-28T12:21 | 18533 | 67 | -52.7 | |||
| 2025-12-28T12:21 | 18692 | 65 | -51.4 | |||
| 2025-12-28T12:21 | 18698 | 65 | 256 | 23 | ||
| 2025-12-28T12:22 | 18900 | 63 | -50.7 | |||
| 2025-12-28T12:22 | 18912 | 63 | 264 | 13 | ||
| 2025-12-28T12:22 | 18997 | 62 | -49.2 | |||
| 2025-12-28T12:22 | 19094 | 61 | 239 | 8 | ||
| 2025-12-28T12:23 | 19361 | 59 | 207 | 7 | ||
| 2025-12-28T12:24 | 19597 | 57 | 226 | 13 | ||
| 2025-12-28T12:24 | 19744 | 56 | -54.2 | |||
| 2025-12-28T12:24 | 19830 | 55 | 226 | 15 | ||
| 2025-12-28T12:24 | 19885 | 54 | -52.3 | |||
| 2025-12-28T12:25 | 20032 | 53 | 239 | 13 | ||
| 2025-12-28T12:25 | 20278 | 51 | 253 | 13 | ||
| 2025-12-28T12:26 | 20455 | 50 | -53.3 | |||
| 2025-12-28T12:26 | 20587 | 49 | 275 | 11 | ||
| 2025-12-28T12:27 | 20854 | 47 | 277 | 7 | ||
| 2025-12-28T12:27 | 20899 | 46 | -52.8 | |||
| 2025-12-28T12:27 | 21109 | 45 | 264 | 9 | ||
| 2025-12-28T12:28 | 21183 | 44 | -52.8 | |||
| 2025-12-28T12:28 | 21267 | 44 | 265 | 8 | ||
| 2025-12-28T12:28 | 21432 | 43 | 282 | 3 | ||
| 2025-12-28T12:28 | 21525 | 42 | 295 | 2 | ||
| 2025-12-28T12:29 | 21616 | 42 | 192 | 3 | ||
| 2025-12-28T12:29 | 21720 | 41 | -53.6 | 197 | 8 | |
| 2025-12-28T23:31 | 18 | 1014 | 1.5 | -0.3 | 110 | 3 |
| 2025-12-28T23:31 | 23 | 1014 | 1.5 | -0.7 | 0 | 0 |
| 2025-12-28T23:31 | 80 | 1006 | 106 | 3 | ||
| 2025-12-28T23:31 | 160 | 997 | 0.6 | -1.5 | ||
| 2025-12-28T23:32 | 212 | 990 | 0.6 | -1.3 | ||
| 2025-12-28T23:32 | 232 | 988 | 158 | 5 | ||
| 2025-12-28T23:32 | 300 | 979 | 0.2 | -1.6 | ||
| 2025-12-28T23:32 | 349 | 973 | 0.8 | -1.9 | ||
| 2025-12-28T23:32 | 444 | 962 | 178 | 15 | ||
| 2025-12-28T23:33 | 822 | 917 | -1.5 | -3.8 | ||
| 2025-12-28T23:33 | 867 | 912 | 182 | 16 | ||
| 2025-12-28T23:34 | 1027 | 894 | -2.1 | -5.6 | ||
| 2025-12-28T23:34 | 1127 | 883 | -2.5 | -6.1 | ||
| 2025-12-28T23:34 | 1149 | 880 | 185 | 15 | ||
| 2025-12-28T23:35 | 1485 | 844 | -4.5 | -6.9 | 212 | 9 |
| 2025-12-28T23:35 | 1672 | 824 | -6.0 | -7.8 | ||
| 2025-12-28T23:36 | 1825 | 808 | 209 | 9 | ||
| 2025-12-28T23:36 | 1864 | 804 | -6.5 | -8.5 | ||
| 2025-12-28T23:37 | 2034 | 787 | 223 | 13 | ||
| 2025-12-28T23:37 | 2099 | 780 | -7.8 | -9.9 | ||
| 2025-12-28T23:38 | 2365 | 754 | 237 | 15 | ||
| 2025-12-28T23:38 | 2394 | 751 | -9.8 | -12.3 | ||
| 2025-12-28T23:38 | 2511 | 740 | 231 | 18 | ||
| 2025-12-28T23:39 | 2746 | 717 | -12.6 | -14.9 | ||
| 2025-12-28T23:39 | 2892 | 704 | 234 | 18 | ||
| 2025-12-28T23:39 | 3070 | 687 | -15.3 | -16.4 | ||
| 2025-12-28T23:40 | 3164 | 679 | -15.3 | -18.9 | ||
| 2025-12-28T23:40 | 3215 | 674 | -15.2 | -22.0 | ||
| 2025-12-28T23:40 | 3326 | 664 | 237 | 22 | ||
| 2025-12-28T23:40 | 3334 | 664 | -16.1 | -20.6 | ||
| 2025-12-28T23:40 | 3393 | 659 | -16.6 | -18.4 | ||
| 2025-12-28T23:40 | 3488 | 650 | -17.4 | -18.6 | ||
| 2025-12-28T23:41 | 3555 | 644 | -17.7 | -20.9 | ||
| 2025-12-28T23:41 | 3684 | 633 | 234 | 23 | ||
| 2025-12-28T23:41 | 3787 | 625 | -19.4 | -20.9 | ||
| 2025-12-28T23:41 | 3831 | 621 | -19.7 | -23.6 | ||
| 2025-12-28T23:41 | 3875 | 617 | -19.5 | -28.0 | ||
| 2025-12-28T23:42 | 4019 | 606 | 234 | 25 | ||
| 2025-12-28T23:43 | 4420 | 573 | 236 | 23 | ||
| 2025-12-28T23:43 | 4485 | 568 | -23.8 | -34.1 | ||
| 2025-12-28T23:44 | 4800 | 544 | 235 | 22 | ||
| 2025-12-28T23:44 | 4856 | 540 | -26.8 | -36.4 | ||
| 2025-12-28T23:44 | 5009 | 529 | 234 | 20 | ||
| 2025-12-28T23:45 | 5365 | 503 | 232 | 19 | ||
| 2025-12-28T23:45 | 5390 | 501 | -30.8 | -41.6 | ||
| 2025-12-28T23:46 | 5588 | 487 | -31.7 | -51.0 | ||
| 2025-12-28T23:46 | 5637 | 484 | 229 | 16 | ||
| 2025-12-28T23:47 | 6049 | 456 | 234 | 16 | ||
| 2025-12-28T23:48 | 6398 | 434 | 240 | 17 | ||
| 2025-12-28T23:48 | 6464 | 429 | -39.4 | -51.0 | ||
| 2025-12-28T23:48 | 6537 | 425 | -40.0 | -51.3 | ||
| 2025-12-28T23:48 | 6736 | 413 | -41.3 | |||
| 2025-12-28T23:49 | 6838 | 406 | 234 | 16 | ||
| 2025-12-28T23:49 | 7092 | 391 | -43.3 | |||
| 2025-12-28T23:50 | 7281 | 381 | 245 | 15 | ||
| 2025-12-28T23:51 | 7648 | 360 | 239 | 14 | ||
| 2025-12-28T23:52 | 8023 | 340 | 237 | 18 | ||
| 2025-12-28T23:53 | 8387 | 321 | 235 | 20 | ||
| 2025-12-28T23:53 | 8597 | 311 | -56.1 | |||
| 2025-12-28T23:53 | 8754 | 303 | 232 | 21 | ||
| 2025-12-28T23:54 | 9128 | 286 | 230 | 21 | ||
| 2025-12-28T23:55 | 9209 | 282 | -59.9 | |||
| 2025-12-28T23:56 | 9532 | 268 | 238 | 25 | ||
| 2025-12-28T23:56 | 9804 | 256 | -59.9 | |||
| 2025-12-28T23:56 | 9909 | 252 | 251 | 23 | ||
| 2025-12-28T23:57 | 10269 | 238 | -59.2 | |||
| 2025-12-28T23:57 | 10275 | 238 | 249 | 23 | ||
| 2025-12-28T23:58 | 10392 | 233 | -57.5 | |||
| 2025-12-28T23:58 | 10584 | 226 | 258 | 22 | ||
| 2025-12-28T23:59 | 10896 | 216 | 258 | 26 | ||
| 2025-12-29T00:00 | 11048 | 210 | -57.8 | |||
| 2025-12-29T00:00 | 11229 | 204 | 250 | 21 | ||
| 2025-12-29T00:01 | 11532 | 195 | -56.7 | |||
| 2025-12-29T00:01 | 11559 | 194 | 259 | 24 | ||
| 2025-12-29T00:02 | 11807 | 187 | 263 | 22 | ||
| 2025-12-29T00:03 | 12045 | 180 | -54.9 | |||
| 2025-12-29T00:03 | 12118 | 178 | 255 | 25 | ||
| 2025-12-29T00:04 | 12326 | 172 | -55.4 | |||
| 2025-12-29T00:04 | 12432 | 169 | 251 | 26 | ||
| 2025-12-29T00:05 | 12523 | 167 | -55.2 | |||
| 2025-12-29T00:05 | 12756 | 161 | 249 | 28 | ||
| 2025-12-29T00:06 | 12934 | 157 | -53.6 | |||
| 2025-12-29T00:06 | 13077 | 153 | 253 | 32 | ||
| 2025-12-29T00:07 | 13327 | 147 | -52.6 | |||
| 2025-12-29T00:07 | 13374 | 146 | 255 | 31 | ||
| 2025-12-29T00:08 | 13516 | 143 | -51.3 | |||
| 2025-12-29T00:08 | 13697 | 139 | 254 | 32 | ||
| 2025-12-29T00:09 | 13987 | 133 | -49.1 | |||
| 2025-12-29T00:09 | 14032 | 132 | 256 | 30 | ||
| 2025-12-29T00:09 | 14060 | 132 | -48.1 | |||
| 2025-12-29T00:10 | 14318 | 127 | -47.0 | |||
| 2025-12-29T00:10 | 14375 | 126 | 256 | 29 | ||
| 2025-12-29T00:11 | 14717 | 119 | 258 | 27 | ||
| 2025-12-29T00:12 | 14815 | 118 | -45.2 | |||
| 2025-12-29T00:12 | 14928 | 116 | -45.1 | 264 | 24 | |
| 2025-12-29T00:13 | 15181 | 111 | -45.6 | |||
| 2025-12-29T00:13 | 15260 | 110 | 253 | 18 | ||
| 2025-12-29T00:13 | 15470 | 107 | 264 | 14 | ||
| 2025-12-29T00:14 | 15551 | 105 | -46.4 | |||
| 2025-12-29T00:14 | 15780 | 102 | -47.4 | |||
| 2025-12-29T00:14 | 15843 | 101 | 241 | 20 | ||
| 2025-12-29T00:15 | 16012 | 98 | -47.0 | |||
| 2025-12-29T00:15 | 16068 | 97 | 250 | 19 | ||
| 2025-12-29T00:16 | 16456 | 92 | 248 | 19 | ||
| 2025-12-29T00:16 | 16583 | 90 | -48.3 | |||
| 2025-12-29T00:17 | 16765 | 88 | 231 | 16 | ||
| 2025-12-29T00:17 | 16825 | 87 | -49.5 | |||
| 2025-12-29T00:18 | 17118 | 83 | 248 | 19 | ||
| 2025-12-29T00:19 | 17434 | 79 | -49.9 | |||
| 2025-12-29T00:19 | 17482 | 78 | 256 | 22 | ||
| 2025-12-29T00:20 | 17862 | 74 | 270 | 18 | ||
| 2025-12-29T00:20 | 17974 | 73 | -50.1 | |||
| 2025-12-29T00:21 | 18287 | 69 | 282 | 11 | ||
| 2025-12-29T00:22 | 18640 | 66 | -54.7 | |||
| 2025-12-29T00:22 | 18729 | 65 | 271 | 10 | ||
| 2025-12-29T00:22 | 18790 | 64 | -53.3 | |||
| 2025-12-29T00:23 | 19098 | 61 | 261 | 10 | ||
| 2025-12-29T00:23 | 19311 | 59 | 245 | 12 | ||
| 2025-12-29T00:24 | 19614 | 56 | 237 | 24 | ||
| 2025-12-29T00:24 | 19762 | 55 | -52.3 | |||
| 2025-12-29T00:24 | 19868 | 54 | 259 | 19 | ||
| 2025-12-29T00:25 | 20052 | 53 | -50.8 | |||
| 2025-12-29T00:25 | 20114 | 52 | 286 | 12 | ||
| 2025-12-29T00:26 | 20327 | 51 | 288 | 7 | ||
| 2025-12-29T00:26 | 20354 | 50 | -51.0 | |||
| 2025-12-29T00:27 | 20728 | 48 | 215 | 6 | ||
| 2025-12-29T00:27 | 20837 | 47 | -53.9 | |||
| 2025-12-29T00:27 | 20905 | 46 | 206 | 12 | ||
| 2025-12-29T00:28 | 21320 | 43 | -53.6 | 236 | 16 | |
| 2025-12-29T00:28 | 21532 | 42 | -53.8 | |||
| 2025-12-29T00:29 | 21737 | 41 | 262 | 11 | ||
| 2025-12-29T00:29 | 21946 | 39 | 303 | 6 | ||
| 2025-12-29T00:30 | 22144 | 38 | 23 | 5 | ||
| 2025-12-29T00:30 | 22248 | 38 | 1 | 2 | ||
| 2025-12-29T00:31 | 22385 | 37 | 167 | 2 | ||
| 2025-12-29T00:31 | 22474 | 36 | -53.0 | |||
| 2025-12-29T00:31 | 22563 | 36 | 147 | 7 | ||
| 2025-12-29T00:31 | 22764 | 35 | -53.8 | |||
| 2025-12-29T00:32 | 22951 | 34 | 197 | 6 | ||
| 2025-12-29T00:32 | 23110 | 33 | 196 | 6 | ||
| 2025-12-29T00:32 | 23149 | 33 | -53.8 | |||
| 2025-12-29T00:33 | 23267 | 32 | 146 | 4 | ||
| 2025-12-29T00:34 | 23593 | 30 | 141 | 9 | ||
| 2025-12-29T00:34 | 23747 | 30 | 155 | 11 | ||
| 2025-12-29T00:34 | 23896 | 29 | -55.0 | |||
| 2025-12-29T00:34 | 23938 | 29 | 156 | 14 | ||
| 2025-12-29T00:35 | 24099 | 28 | 157 | 10 | ||
| 2025-12-29T00:35 | 24261 | 27 | 140 | 10 | ||
| 2025-12-29T00:36 | 24450 | 27 | 167 | 7 | ||
| 2025-12-29T00:36 | 24599 | 26 | -52.9 | |||
| 2025-12-29T00:36 | 24699 | 26 | 160 | 13 | ||
| 2025-12-29T00:37 | 24957 | 25 | 169 | 9 | ||
| 2025-12-29T00:37 | 25130 | 24 | -53.2 | 143 | 9 | |
| 2025-12-29T11:30 | 18 | 1010 | 4.6 | 2.6 | 130 | 2 |
| 2025-12-29T11:30 | 24 | 1009 | 4.9 | 2.4 | 0 | 0 |
| 2025-12-29T11:30 | 103 | 999 | 152 | 3 | ||
| 2025-12-29T11:31 | 208 | 987 | 3.9 | 1.3 | ||
| 2025-12-29T11:31 | 419 | 961 | 3.2 | -0.3 | ||
| 2025-12-29T11:31 | 458 | 957 | 181 | 10 | ||
| 2025-12-29T11:31 | 530 | 948 | 2.8 | -1.6 | ||
| 2025-12-29T11:32 | 836 | 913 | 205 | 8 | ||
| 2025-12-29T11:32 | 843 | 912 | 0.5 | -3.8 | ||
| 2025-12-29T11:33 | 1218 | 870 | 208 | 10 | ||
| 2025-12-29T11:34 | 1387 | 852 | -3.2 | -5.8 | ||
| 2025-12-29T11:34 | 1592 | 830 | 210 | 13 | ||
| 2025-12-29T11:35 | 1883 | 800 | -6.7 | -8.6 | ||
| 2025-12-29T11:35 | 1966 | 791 | 232 | 12 | ||
| 2025-12-29T11:36 | 2352 | 753 | 237 | 13 | ||
| 2025-12-29T11:37 | 2746 | 715 | 218 | 14 | ||
| 2025-12-29T11:37 | 2780 | 712 | -12.7 | -13.7 | ||
| 2025-12-29T11:38 | 3098 | 683 | 213 | 18 | ||
| 2025-12-29T11:39 | 3297 | 665 | -16.0 | -17.5 | ||
| 2025-12-29T11:39 | 3505 | 647 | 218 | 19 | ||
| 2025-12-29T11:40 | 3911 | 613 | 219 | 18 | ||
| 2025-12-29T11:40 | 4078 | 599 | -22.1 | -23.9 | ||
| 2025-12-29T11:41 | 4333 | 578 | 228 | 18 | ||
| 2025-12-29T11:42 | 4740 | 547 | 233 | 19 | ||
| 2025-12-29T11:43 | 5001 | 527 | -30.1 | -31.9 | ||
| 2025-12-29T11:43 | 5133 | 518 | 229 | 20 | ||
| 2025-12-29T11:44 | 5519 | 490 | 235 | 21 | ||
| 2025-12-29T11:45 | 5910 | 463 | 237 | 21 | ||
| 2025-12-29T11:45 | 6045 | 454 | -39.7 | -42.2 | ||
| 2025-12-29T11:45 | 6077 | 452 | -40.0 | -42.4 | ||
| 2025-12-29T11:46 | 6254 | 440 | 221 | 23 | ||
| 2025-12-29T11:46 | 6286 | 438 | -41.3 | |||
| 2025-12-29T11:46 | 6446 | 428 | 224 | 26 | ||
| 2025-12-29T11:47 | 6509 | 424 | -42.6 | |||
| 2025-12-29T11:47 | 6843 | 403 | 227 | 27 | ||
| 2025-12-29T11:48 | 7262 | 378 | 229 | 27 | ||
| 2025-12-29T11:49 | 7334 | 374 | -48.8 | |||
| 2025-12-29T11:49 | 7706 | 354 | 228 | 29 | ||
| 2025-12-29T11:50 | 8157 | 330 | 226 | 30 | ||
| 2025-12-29T11:51 | 8302 | 322 | -55.3 | |||
| 2025-12-29T11:51 | 8499 | 312 | 235 | 29 | ||
| 2025-12-29T11:52 | 8717 | 302 | -56.5 | |||
| 2025-12-29T11:52 | 8799 | 298 | 232 | 27 | ||
| 2025-12-29T11:53 | 9243 | 278 | 241 | 26 | ||
| 2025-12-29T11:53 | 9340 | 274 | -55.5 | |||
| 2025-12-29T11:54 | 9693 | 259 | 250 | 25 | ||
| 2025-12-29T11:54 | 9883 | 251 | -52.9 | |||
| 2025-12-29T11:55 | 10150 | 241 | 252 | 25 | ||
| 2025-12-29T11:56 | 10521 | 228 | 258 | 25 | ||
| 2025-12-29T11:56 | 10817 | 218 | 260 | 26 | ||
| 2025-12-29T11:57 | 10899 | 215 | -50.6 | |||
| 2025-12-29T11:57 | 11207 | 205 | -51.5 | |||
| 2025-12-29T11:57 | 11214 | 205 | 265 | 23 | ||
| 2025-12-29T11:58 | 11532 | 195 | 260 | 19 | ||
| 2025-12-29T11:58 | 11624 | 192 | -51.6 | |||
| 2025-12-29T11:59 | 11945 | 183 | 249 | 18 | ||
| 2025-12-29T11:59 | 11992 | 182 | -52.8 | |||
| 2025-12-29T12:00 | 12230 | 175 | -53.2 | |||
| 2025-12-29T12:00 | 12346 | 172 | 241 | 23 | ||
| 2025-12-29T12:01 | 12664 | 164 | -53.9 | |||
| 2025-12-29T12:01 | 12697 | 163 | 245 | 27 | ||
| 2025-12-29T12:02 | 13039 | 154 | 250 | 25 | ||
| 2025-12-29T12:02 | 13109 | 153 | -51.6 | |||
| 2025-12-29T12:03 | 13320 | 148 | 252 | 23 | ||
| 2025-12-29T12:03 | 13454 | 145 | -53.2 | |||
| 2025-12-29T12:04 | 13730 | 139 | 247 | 29 | ||
| 2025-12-29T12:04 | 13821 | 137 | -54.4 | |||
| 2025-12-29T12:05 | 14137 | 130 | 254 | 30 | ||
| 2025-12-29T12:05 | 14220 | 128 | -53.5 | |||
| 2025-12-29T12:05 | 14318 | 127 | -52.9 | |||
| 2025-12-29T12:06 | 14453 | 124 | -52.0 | |||
| 2025-12-29T12:06 | 14476 | 123 | 257 | 30 | ||
| 2025-12-29T12:07 | 14818 | 117 | 256 | 30 | ||
| 2025-12-29T12:07 | 15043 | 113 | -49.2 | |||
| 2025-12-29T12:08 | 15127 | 112 | 259 | 30 | ||
| 2025-12-29T12:08 | 15226 | 110 | -48.6 | |||
| 2025-12-29T12:08 | 15406 | 107 | -48.2 | |||
| 2025-12-29T12:08 | 15460 | 106 | 254 | 25 | ||
| 2025-12-29T12:09 | 15650 | 103 | 243 | 23 | ||
| 2025-12-29T12:09 | 15847 | 100 | -45.8 | |||
| 2025-12-29T12:09 | 15885 | 100 | 252 | 28 | ||
| 2025-12-29T12:10 | 16132 | 96 | -44.1 | |||
| 2025-12-29T12:10 | 16156 | 96 | 245 | 23 | ||
| 2025-12-29T12:11 | 16291 | 94 | -43.4 | |||
| 2025-12-29T12:11 | 16517 | 91 | 261 | 24 | ||
| 2025-12-29T12:12 | 16756 | 87 | -45.2 | |||
| 2025-12-29T12:12 | 16819 | 87 | 273 | 26 | ||
| 2025-12-29T12:12 | 17025 | 84 | -45.5 | |||
| 2025-12-29T12:13 | 17231 | 81 | 272 | 15 | ||
| 2025-12-29T12:14 | 17500 | 78 | 252 | 16 | ||
| 2025-12-29T12:14 | 17626 | 77 | -48.5 | |||
| 2025-12-29T12:14 | 17762 | 75 | 248 | 22 | ||
| 2025-12-29T12:15 | 18208 | 70 | 254 | 22 | ||
| 2025-12-29T12:15 | 18215 | 70 | -49.6 | |||
| 2025-12-29T12:16 | 18501 | 67 | 248 | 20 | ||
| 2025-12-29T12:16 | 18665 | 65 | -53.0 | |||
| 2025-12-29T12:17 | 18756 | 65 | 245 | 20 | ||
| 2025-12-29T12:17 | 18788 | 64 | -50.7 | |||
| 2025-12-29T12:17 | 18877 | 63 | -50.3 | |||
| 2025-12-29T12:17 | 18992 | 62 | -50.0 | |||
| 2025-12-29T12:18 | 19100 | 61 | 242 | 17 | ||
| 2025-12-29T12:18 | 19238 | 60 | -50.5 | 242 | 16 | |
| 2025-12-29T12:18 | 19436 | 58 | 242 | 13 | ||
| 2025-12-29T12:19 | 19873 | 54 | 226 | 14 | ||
| 2025-12-29T12:20 | 20172 | 52 | -56.0 | |||
| 2025-12-29T12:20 | 20208 | 52 | 218 | 13 | ||
| 2025-12-29T12:21 | 20350 | 50 | -52.9 | |||
| 2025-12-29T12:21 | 20493 | 49 | 230 | 12 | ||
| 2025-12-29T12:21 | 20649 | 48 | 222 | 10 | ||
| 2025-12-29T12:22 | 20965 | 46 | 227 | 10 | ||
| 2025-12-29T12:22 | 20992 | 46 | -54.8 | |||
| 2025-12-29T12:23 | 21365 | 43 | 226 | 7 | ||
| 2025-12-29T12:24 | 21513 | 42 | -55.3 | |||
| 2025-12-29T12:24 | 21530 | 42 | 203 | 12 | ||
| 2025-12-29T12:24 | 21621 | 41 | -52.3 | |||
| 2025-12-29T12:24 | 21673 | 41 | 213 | 14 | ||
| 2025-12-29T12:25 | 22131 | 38 | 248 | 14 | ||
| 2025-12-29T12:26 | 22458 | 36 | 241 | 8 | ||
| 2025-12-29T12:26 | 22604 | 36 | 241 | 5 | ||
| 2025-12-29T12:26 | 22623 | 35 | -50.3 | |||
| 2025-12-29T12:26 | 22735 | 35 | 202 | 3 | ||
| 2025-12-29T12:27 | 22954 | 34 | -51.8 | 222 | 6 | |
| 2025-12-29T23:30 | 18 | 1008 | 2.1 | 0.8 | 300 | 1 |
| 2025-12-29T23:30 | 22 | 1008 | 2.1 | 0.3 | 0 | 0 |
| 2025-12-29T23:30 | 126 | 995 | 1.7 | 0.2 | ||
| 2025-12-29T23:30 | 169 | 989 | 2.3 | 0.7 | ||
| 2025-12-29T23:31 | 258 | 979 | 2.3 | 0.8 | ||
| 2025-12-29T23:31 | 369 | 965 | 0 | 0 | ||
| 2025-12-29T23:32 | 734 | 922 | 211 | 2 | ||
| 2025-12-29T23:32 | 856 | 908 | -2.3 | -3.1 | ||
| 2025-12-29T23:33 | 1039 | 888 | -3.4 | -5.1 | ||
| 2025-12-29T23:33 | 1109 | 880 | 178 | 3 | ||
| 2025-12-29T23:33 | 1242 | 865 | -5.1 | -7.1 | ||
| 2025-12-29T23:34 | 1367 | 851 | -6.1 | -7.8 | 200 | 6 |
| 2025-12-29T23:34 | 1457 | 842 | -6.9 | -8.4 | ||
| 2025-12-29T23:34 | 1621 | 824 | -8.3 | -9.0 | ||
| 2025-12-29T23:35 | 1708 | 815 | 202 | 9 | ||
| 2025-12-29T23:35 | 1781 | 807 | -9.3 | -10.2 | ||
| 2025-12-29T23:36 | 2012 | 784 | 222 | 14 | ||
| 2025-12-29T23:36 | 2176 | 767 | -11.3 | -13.0 | ||
| 2025-12-29T23:36 | 2240 | 761 | 223 | 17 | ||
| 2025-12-29T23:36 | 2319 | 753 | -11.8 | -15.0 | ||
| 2025-12-29T23:36 | 2390 | 746 | -12.2 | -18.0 | ||
| 2025-12-29T23:37 | 2497 | 736 | -12.8 | -16.6 | ||
| 2025-12-29T23:37 | 2636 | 722 | -13.6 | -17.2 | ||
| 2025-12-29T23:37 | 2664 | 719 | 229 | 14 | ||
| 2025-12-29T23:38 | 2901 | 697 | -15.9 | -19.2 | ||
| 2025-12-29T23:38 | 3035 | 685 | -16.9 | -20.9 | ||
| 2025-12-29T23:38 | 3069 | 682 | 225 | 13 | ||
| 2025-12-29T23:38 | 3144 | 675 | -17.4 | -24.5 | ||
| 2025-12-29T23:39 | 3245 | 666 | -18.2 | -30.2 | ||
| 2025-12-29T23:39 | 3435 | 649 | 230 | 17 | ||
| 2025-12-29T23:39 | 3482 | 645 | -20.3 | -36.6 | ||
| 2025-12-29T23:40 | 3839 | 615 | 235 | 17 | ||
| 2025-12-29T23:40 | 3935 | 607 | -24.3 | -38.0 | ||
| 2025-12-29T23:41 | 4206 | 584 | -26.3 | -41.7 | ||
| 2025-12-29T23:41 | 4245 | 581 | 228 | 20 | ||
| 2025-12-29T23:42 | 4446 | 565 | -27.7 | -46.4 | ||
| 2025-12-29T23:42 | 4636 | 550 | 230 | 22 | ||
| 2025-12-29T23:43 | 4940 | 527 | 229 | 21 | ||
| 2025-12-29T23:43 | 5011 | 522 | -32.3 | -46.1 | ||
| 2025-12-29T23:44 | 5324 | 499 | 232 | 20 | ||
| 2025-12-29T23:44 | 5475 | 489 | -35.7 | -49.5 | ||
| 2025-12-29T23:44 | 5521 | 485 | 234 | 20 | ||
| 2025-12-29T23:45 | 5833 | 464 | 236 | 22 | ||
| 2025-12-29T23:46 | 6042 | 450 | -40.0 | -52.5 | ||
| 2025-12-29T23:46 | 6205 | 439 | 241 | 24 | ||
| 2025-12-29T23:46 | 6338 | 431 | -41.8 | |||
| 2025-12-29T23:47 | 6509 | 420 | 243 | 27 | ||
| 2025-12-29T23:48 | 6755 | 405 | 242 | 29 | ||
| 2025-12-29T23:48 | 6957 | 393 | 243 | 29 | ||
| 2025-12-29T23:48 | 7096 | 385 | -47.3 | |||
| 2025-12-29T23:49 | 7309 | 372 | 246 | 32 | ||
| 2025-12-29T23:50 | 7518 | 361 | -49.9 | |||
| 2025-12-29T23:50 | 7665 | 353 | 244 | 26 | ||
| 2025-12-29T23:50 | 7690 | 351 | -49.4 | |||
| 2025-12-29T23:50 | 7828 | 344 | 244 | 27 | ||
| 2025-12-29T23:51 | 7841 | 343 | -49.1 | |||
| 2025-12-29T23:51 | 8040 | 333 | 248 | 29 | ||
| 2025-12-29T23:51 | 8145 | 328 | 250 | 26 | ||
| 2025-12-29T23:52 | 8360 | 317 | -51.1 | |||
| 2025-12-29T23:52 | 8554 | 308 | 253 | 28 | ||
| 2025-12-29T23:53 | 8736 | 299 | 255 | 28 | ||
| 2025-12-29T23:53 | 8839 | 294 | -53.8 | |||
| 2025-12-29T23:53 | 9028 | 286 | -53.7 | |||
| 2025-12-29T23:54 | 9141 | 281 | 251 | 29 | ||
| 2025-12-29T23:54 | 9290 | 274 | -53.9 | |||
| 2025-12-29T23:54 | 9429 | 269 | -53.1 | |||
| 2025-12-29T23:55 | 9508 | 265 | 251 | 31 | ||
| 2025-12-29T23:55 | 9568 | 263 | -52.8 | |||
| 2025-12-29T23:56 | 9835 | 252 | 252 | 30 | ||
| 2025-12-29T23:56 | 9945 | 248 | -51.8 | |||
| 2025-12-29T23:57 | 10178 | 239 | 257 | 29 | ||
| 2025-12-29T23:57 | 10315 | 234 | -50.8 | |||
| 2025-12-29T23:58 | 10505 | 228 | 254 | 30 | ||
| 2025-12-29T23:59 | 10783 | 218 | 252 | 31 | ||
| 2025-12-29T23:59 | 10880 | 215 | -50.7 | |||
| 2025-12-29T23:59 | 11054 | 209 | 259 | 31 | ||
| 2025-12-30T00:00 | 11314 | 201 | 255 | 27 | ||
| 2025-12-30T00:01 | 11431 | 198 | -49.8 | |||
| 2025-12-30T00:01 | 11652 | 191 | 259 | 30 | ||
| 2025-12-30T00:02 | 12011 | 181 | 262 | 32 | ||
| 2025-12-30T00:03 | 12366 | 171 | 257 | 30 | ||
| 2025-12-30T00:04 | 12554 | 166 | -52.5 | |||
| 2025-12-30T00:04 | 12703 | 163 | 256 | 32 | ||
| 2025-12-30T00:05 | 13048 | 154 | 249 | 31 | ||
| 2025-12-30T00:06 | 13314 | 148 | -52.0 | |||
| 2025-12-30T00:06 | 13343 | 147 | 248 | 32 | ||
| 2025-12-30T00:07 | 13604 | 141 | 251 | 36 | ||
| 2025-12-30T00:07 | 13738 | 138 | -53.2 | |||
| 2025-12-30T00:08 | 13891 | 135 | 253 | 34 | ||
| 2025-12-30T00:08 | 14067 | 132 | 258 | 34 | ||
| 2025-12-30T00:08 | 14136 | 130 | -52.9 | |||
| 2025-12-30T00:09 | 14228 | 128 | 261 | 36 | ||
| 2025-12-30T00:09 | 14486 | 123 | -52.1 | |||
| 2025-12-30T00:10 | 14594 | 121 | 262 | 31 | ||
| 2025-12-30T00:10 | 14928 | 115 | -52.6 | |||
| 2025-12-30T00:11 | 14996 | 114 | 255 | 27 | ||
| 2025-12-30T00:11 | 15275 | 109 | 264 | 29 | ||
| 2025-12-30T00:12 | 15593 | 104 | -51.3 | |||
| 2025-12-30T00:12 | 15661 | 103 | 262 | 27 | ||
| 2025-12-30T00:12 | 15729 | 102 | -50.6 | |||
| 2025-12-30T00:13 | 16078 | 96 | 256 | 27 | ||
| 2025-12-30T00:14 | 16481 | 91 | 246 | 26 | ||
| 2025-12-30T00:15 | 16812 | 86 | -52.2 | |||
| 2025-12-30T00:15 | 16851 | 86 | 243 | 26 | ||
| 2025-12-30T00:15 | 16926 | 85 | -50.5 | |||
| 2025-12-30T00:16 | 17086 | 83 | -49.5 | |||
| 2025-12-30T00:16 | 17121 | 82 | 253 | 24 | ||
| 2025-12-30T00:16 | 17202 | 81 | -49.2 | |||
| 2025-12-30T00:16 | 17372 | 79 | -49.5 | |||
| 2025-12-30T00:17 | 17458 | 78 | -49.0 | |||
| 2025-12-30T00:17 | 17467 | 78 | 231 | 24 | ||
| 2025-12-30T00:17 | 17671 | 76 | -46.9 | |||
| 2025-12-30T00:17 | 17717 | 75 | 231 | 23 | ||
| 2025-12-30T00:18 | 18123 | 71 | 207 | 20 | ||
| 2025-12-30T00:19 | 18263 | 69 | -50.4 | |||
| 2025-12-30T00:19 | 18465 | 67 | 211 | 22 | ||
| 2025-12-30T00:20 | 18833 | 63 | 217 | 21 | ||
| 2025-12-30T00:20 | 18895 | 63 | -51.8 | |||
| 2025-12-30T00:21 | 19248 | 59 | 225 | 22 | ||
| 2025-12-30T00:21 | 19344 | 58 | -53.1 | |||
| 2025-12-30T00:22 | 19446 | 58 | 230 | 19 | ||
| 2025-12-30T00:22 | 19549 | 57 | -50.2 | |||
| 2025-12-30T00:22 | 19651 | 56 | 206 | 12 | ||
| 2025-12-30T00:23 | 19987 | 53 | 168 | 9 | ||
| 2025-12-30T00:23 | 20035 | 53 | -52.0 | |||
| 2025-12-30T00:24 | 20346 | 50 | 173 | 14 | ||
| 2025-12-30T00:25 | 20735 | 47 | 197 | 16 | ||
| 2025-12-30T00:25 | 20942 | 46 | -54.5 | |||
| 2025-12-30T00:26 | 21168 | 44 | 182 | 15 | ||
| 2025-12-30T00:26 | 21259 | 43 | -50.5 | |||
| 2025-12-30T00:27 | 21629 | 41 | 199 | 14 | ||
| 2025-12-30T00:28 | 21902 | 39 | -52.7 | |||
| 2025-12-30T00:28 | 22052 | 38 | 220 | 12 | ||
| 2025-12-30T00:29 | 22310 | 37 | 215 | 10 | ||
| 2025-12-30T00:29 | 22361 | 37 | -52.9 | |||
| 2025-12-30T00:29 | 22687 | 35 | 219 | 13 | ||
| 2025-12-30T00:30 | 22858 | 34 | 231 | 10 | ||
| 2025-12-30T00:30 | 23090 | 33 | 226 | 9 | ||
| 2025-12-30T00:31 | 23272 | 32 | -51.4 | |||
| 2025-12-30T00:31 | 23459 | 31 | 189 | 12 | ||
| 2025-12-30T00:32 | 23609 | 30 | -51.9 | |||
| 2025-12-30T00:32 | 23893 | 29 | 238 | 9 | ||
| 2025-12-30T00:33 | 24050 | 28 | 212 | 5 | ||
| 2025-12-30T00:33 | 24158 | 28 | -51.4 | 212 | 7 | |
| 2025-12-30T11:30 | 18 | 1010 | -0.7 | -6.9 | 340 | 3 |
| 2025-12-30T11:30 | 23 | 1009 | -0.4 | -6.4 | 0 | 0 |
| 2025-12-30T11:30 | 62 | 1004 | 299 | 3 | ||
| 2025-12-30T11:30 | 113 | 998 | 317 | 5 | ||
| 2025-12-30T11:30 | 135 | 995 | -1.4 | -8.8 | ||
| 2025-12-30T11:31 | 253 | 980 | 285 | 7 | ||
| 2025-12-30T11:31 | 398 | 962 | 263 | 4 | ||
| 2025-12-30T11:31 | 412 | 961 | -4.1 | -9.3 | ||
| 2025-12-30T11:31 | 590 | 939 | 274 | 8 | ||
| 2025-12-30T11:32 | 673 | 929 | -6.2 | -11.9 | ||
| 2025-12-30T11:32 | 845 | 909 | -7.7 | -13.1 | ||
| 2025-12-30T11:32 | 852 | 908 | 267 | 10 | ||
| 2025-12-30T11:32 | 1000 | 891 | -9.2 | -13.0 | ||
| 2025-12-30T11:32 | 1032 | 887 | 274 | 11 | ||
| 2025-12-30T11:33 | 1126 | 877 | -10.2 | -14.3 | ||
| 2025-12-30T11:33 | 1275 | 860 | -11.5 | -15.5 | ||
| 2025-12-30T11:33 | 1381 | 848 | -11.2 | -17.2 | ||
| 2025-12-30T11:33 | 1473 | 838 | 240 | 13 | ||
| 2025-12-30T11:34 | 1815 | 801 | 239 | 11 | ||
| 2025-12-30T11:35 | 1915 | 791 | -15.4 | -19.3 | ||
| 2025-12-30T11:35 | 2003 | 781 | 233 | 11 | ||
| 2025-12-30T11:35 | 2023 | 779 | -15.9 | -20.1 | ||
| 2025-12-30T11:35 | 2069 | 775 | -16.2 | -21.1 | ||
| 2025-12-30T11:35 | 2119 | 769 | 227 | 11 | ||
| 2025-12-30T11:36 | 2417 | 739 | 216 | 11 | ||
| 2025-12-30T11:37 | 2500 | 731 | -19.9 | -23.2 | ||
| 2025-12-30T11:37 | 2643 | 717 | -20.2 | -30.6 | ||
| 2025-12-30T11:37 | 2810 | 701 | 248 | 11 | ||
| 2025-12-30T11:37 | 2825 | 700 | -20.8 | -38.4 | ||
| 2025-12-30T11:38 | 3132 | 671 | -22.5 | -46.8 | ||
| 2025-12-30T11:38 | 3295 | 656 | 209 | 8 | ||
| 2025-12-30T11:39 | 3477 | 640 | 220 | 8 | ||
| 2025-12-30T11:39 | 3546 | 634 | -25.5 | -50.2 | ||
| 2025-12-30T11:39 | 3877 | 606 | 239 | 12 | ||
| 2025-12-30T11:40 | 4079 | 589 | -29.5 | -53.4 | ||
| 2025-12-30T11:40 | 4162 | 582 | -29.9 | -53.7 | ||
| 2025-12-30T11:40 | 4316 | 570 | 242 | 18 | ||
| 2025-12-30T11:41 | 4559 | 550 | -32.8 | -47.8 | ||
| 2025-12-30T11:41 | 4726 | 537 | 238 | 22 | ||
| 2025-12-30T11:42 | 4770 | 534 | -34.1 | -53.0 | ||
| 2025-12-30T11:42 | 4900 | 524 | -34.9 | -55.8 | ||
| 2025-12-30T11:42 | 5087 | 510 | 236 | 23 | ||
| 2025-12-30T11:43 | 5436 | 485 | 240 | 24 | ||
| 2025-12-30T11:43 | 5442 | 485 | -39.1 | -57.8 | ||
| 2025-12-30T11:44 | 5685 | 468 | -40.0 | -60.0 | ||
| 2025-12-30T11:44 | 5758 | 463 | 240 | 29 | ||
| 2025-12-30T11:45 | 5983 | 448 | 243 | 29 | ||
| 2025-12-30T11:45 | 6137 | 438 | 246 | 31 | ||
| 2025-12-30T11:46 | 6388 | 422 | -43.2 | |||
| 2025-12-30T11:46 | 6523 | 413 | 245 | 35 | ||
| 2025-12-30T11:47 | 6902 | 391 | -43.8 | 251 | 41 | |
| 2025-12-30T11:48 | 7228 | 372 | -44.6 | |||
| 2025-12-30T11:48 | 7294 | 368 | 255 | 44 | ||
| 2025-12-30T11:49 | 7496 | 357 | -45.4 | |||
| 2025-12-30T11:49 | 7698 | 347 | 256 | 48 | ||
| 2025-12-30T11:50 | 7757 | 344 | -46.7 | |||
| 2025-12-30T11:50 | 8043 | 329 | 259 | 48 | ||
| 2025-12-30T11:51 | 8290 | 317 | -48.8 | |||
| 2025-12-30T11:51 | 8412 | 311 | 261 | 44 | ||
| 2025-12-30T11:51 | 8520 | 306 | -48.6 | |||
| 2025-12-30T11:51 | 8578 | 303 | 260 | 42 | ||
| 2025-12-30T11:52 | 8880 | 290 | -49.2 | |||
| 2025-12-30T11:52 | 8973 | 286 | 264 | 37 | ||
| 2025-12-30T11:53 | 9215 | 275 | 256 | 35 | ||
| 2025-12-30T11:53 | 9221 | 275 | -48.6 | |||
| 2025-12-30T11:54 | 9412 | 267 | 258 | 35 | ||
| 2025-12-30T11:54 | 9486 | 264 | -49.3 | |||
| 2025-12-30T11:55 | 9677 | 257 | 255 | 35 | ||
| 2025-12-30T11:55 | 9688 | 256 | -48.3 | |||
| 2025-12-30T11:55 | 9865 | 249 | -48.8 | |||
| 2025-12-30T11:56 | 9998 | 244 | 262 | 37 | ||
| 2025-12-30T11:56 | 10035 | 243 | -47.6 | |||
| 2025-12-30T11:56 | 10218 | 236 | 258 | 30 | ||
| 2025-12-30T11:56 | 10250 | 235 | -47.6 | |||
| 2025-12-30T11:57 | 10437 | 229 | -47.4 | |||
| 2025-12-30T11:57 | 10533 | 225 | 251 | 28 | ||
| 2025-12-30T11:58 | 10835 | 215 | 249 | 30 | ||
| 2025-12-30T11:59 | 11038 | 209 | -48.5 | |||
| 2025-12-30T11:59 | 11171 | 205 | 261 | 33 | ||
| 2025-12-30T12:00 | 11367 | 198 | -48.3 | |||
| 2025-12-30T12:00 | 11510 | 194 | 258 | 32 | ||
| 2025-12-30T12:01 | 11765 | 187 | 253 | 31 | ||
| 2025-12-30T12:01 | 11818 | 185 | -49.4 | |||
| 2025-12-30T12:01 | 11954 | 182 | 249 | 29 | ||
| 2025-12-30T12:02 | 12279 | 173 | -49.9 | |||
| 2025-12-30T12:02 | 12321 | 172 | 252 | 35 | ||
| 2025-12-30T12:03 | 12665 | 163 | 256 | 36 | ||
| 2025-12-30T12:04 | 12930 | 156 | -48.7 | |||
| 2025-12-30T12:04 | 12993 | 155 | 257 | 33 | ||
| 2025-12-30T12:05 | 13161 | 151 | -48.1 | |||
| 2025-12-30T12:05 | 13327 | 147 | 249 | 33 | ||
| 2025-12-30T12:06 | 13680 | 140 | -50.0 | |||
| 2025-12-30T12:06 | 13772 | 138 | 261 | 33 | ||
| 2025-12-30T12:07 | 14018 | 132 | -51.0 | |||
| 2025-12-30T12:07 | 14176 | 129 | 261 | 31 | ||
| 2025-12-30T12:08 | 14481 | 123 | -52.2 | |||
| 2025-12-30T12:08 | 14554 | 122 | 260 | 31 | ||
| 2025-12-30T12:09 | 14704 | 119 | -51.6 | |||
| 2025-12-30T12:09 | 14819 | 117 | 249 | 35 | ||
| 2025-12-30T12:09 | 14871 | 116 | -51.4 | |||
| 2025-12-30T12:10 | 15057 | 113 | 251 | 35 | ||
| 2025-12-30T12:10 | 15425 | 107 | 263 | 30 | ||
| 2025-12-30T12:11 | 15450 | 106 | -52.9 | |||
| 2025-12-30T12:11 | 15733 | 102 | -53.6 | |||
| 2025-12-30T12:12 | 15759 | 101 | 258 | 32 | ||
| 2025-12-30T12:12 | 15992 | 98 | -53.5 | |||
| 2025-12-30T12:13 | 16012 | 97 | 261 | 34 | ||
| 2025-12-30T12:13 | 16125 | 96 | -51.5 | |||
| 2025-12-30T12:13 | 16166 | 95 | 267 | 32 | ||
| 2025-12-30T12:14 | 16291 | 93 | -48.1 | |||
| 2025-12-30T12:14 | 16348 | 92 | 275 | 19 | ||
| 2025-12-30T12:14 | 16393 | 92 | -47.3 | |||
| 2025-12-30T12:14 | 16531 | 90 | 276 | 14 | ||
| 2025-12-30T12:15 | 16748 | 87 | 248 | 12 | ||
| 2025-12-30T12:15 | 16978 | 84 | 222 | 13 | ||
| 2025-12-30T12:16 | 17242 | 81 | -49.4 | |||
| 2025-12-30T12:16 | 17349 | 79 | 228 | 15 | ||
| 2025-12-30T12:17 | 17632 | 76 | -51.0 | |||
| 2025-12-30T12:17 | 17747 | 75 | 222 | 18 | ||
| 2025-12-30T12:18 | 18123 | 71 | 241 | 23 | ||
| 2025-12-30T12:19 | 18189 | 70 | -50.3 | |||
| 2025-12-30T12:19 | 18513 | 66 | 253 | 30 | ||
| 2025-12-30T12:20 | 18742 | 64 | -51.7 | |||
| 2025-12-30T12:20 | 18815 | 63 | 249 | 34 | ||
| 2025-12-30T12:21 | 18988 | 62 | -51.8 | |||
| 2025-12-30T12:21 | 19064 | 61 | 246 | 26 | ||
| 2025-12-30T12:21 | 19118 | 61 | -49.1 | |||
| 2025-12-30T12:22 | 19294 | 59 | -49.1 | |||
| 2025-12-30T12:22 | 19506 | 57 | 218 | 24 | ||
| 2025-12-30T12:23 | 19726 | 55 | 217 | 28 | ||
| 2025-12-30T12:23 | 19893 | 54 | -54.0 | |||
| 2025-12-30T12:24 | 20012 | 53 | 235 | 27 | ||
| 2025-12-30T12:24 | 20175 | 51 | 250 | 17 | ||
| 2025-12-30T12:24 | 20218 | 51 | -48.4 | |||
| 2025-12-30T12:25 | 20372 | 50 | 239 | 7 | ||
| 2025-12-30T12:25 | 20573 | 48 | 175 | 1 | ||
| 2025-12-30T12:26 | 20791 | 47 | -51.6 | |||
| 2025-12-30T12:26 | 20887 | 46 | 185 | 7 | ||
| 2025-12-30T12:27 | 21157 | 44 | -53.0 | |||
| 2025-12-30T12:27 | 21247 | 44 | 177 | 13 | ||
| 2025-12-30T12:27 | 21291 | 43 | -49.5 | |||
| 2025-12-30T12:28 | 21617 | 41 | 186 | 11 | ||
| 2025-12-30T12:28 | 21730 | 41 | -49.5 | |||
| 2025-12-30T12:29 | 22064 | 39 | 169 | 11 | ||
| 2025-12-30T12:30 | 22337 | 37 | 169 | 9 | ||
| 2025-12-30T12:30 | 22582 | 36 | -53.7 | |||
| 2025-12-30T12:30 | 22655 | 35 | 179 | 9 | ||
| 2025-12-30T12:31 | 22786 | 34 | -52.5 | |||
| 2025-12-30T12:31 | 22839 | 34 | 187 | 15 | ||
| 2025-12-30T12:31 | 23053 | 33 | 195 | 12 | ||
| 2025-12-30T12:32 | 23255 | 32 | -51.5 | |||
| 2025-12-30T12:32 | 23376 | 31 | 162 | 11 | ||
| 2025-12-30T12:33 | 23695 | 30 | 175 | 11 | ||
| 2025-12-30T12:34 | 23869 | 29 | -51.1 | |||
| 2025-12-30T12:34 | 24052 | 28 | 148 | 11 | ||
| 2025-12-30T12:34 | 24096 | 28 | -50.5 | |||
| 2025-12-30T12:35 | 24506 | 26 | 155 | 5 | ||
| 2025-12-30T12:35 | 24659 | 26 | 206 | 5 | ||
| 2025-12-30T12:36 | 24889 | 25 | -50.2 | 251 | 9 | |
| 2025-12-30T12:36 | 25048 | 24 | 246 | 4 | ||
| 2025-12-30T12:37 | 25129 | 24 | 122 | 2 | ||
| 2025-12-30T12:37 | 25185 | 24 | 111 | 4 | ||
| 2025-12-30T12:38 | 25550 | 23 | 193 | 6 | ||
| 2025-12-30T12:38 | 25667 | 22 | 182 | 4 | ||
| 2025-12-30T12:38 | 25786 | 22 | 132 | 5 | ||
| 2025-12-30T12:39 | 25998 | 21 | 106 | 1 | ||
| 2025-12-30T12:39 | 26186 | 20 | 273 | 3 | ||
| 2025-12-30T12:39 | 26318 | 20 | 266 | 3 | ||
| 2025-12-30T12:40 | 26482 | 20 | 284 | 2 | ||
| 2025-12-30T12:41 | 26881 | 18 | -50.8 | 169 | 3 | |
| 2025-12-30T23:30 | 18 | 1010 | -4.1 | -12.0 | 280 | 2 |
| 2025-12-30T23:30 | 23 | 1009 | -3.9 | -12.6 | 0 | 0 |
| 2025-12-30T23:30 | 41 | 1007 | 302 | 3 | ||
| 2025-12-30T23:30 | 69 | 1004 | 296 | 2 | ||
| 2025-12-30T23:30 | 81 | 1002 | -4.6 | -13.5 | ||
| 2025-12-30T23:30 | 163 | 992 | 266 | 3 | ||
| 2025-12-30T23:31 | 441 | 957 | 284 | 5 | ||
| 2025-12-30T23:32 | 555 | 943 | 275 | 5 | ||
| 2025-12-30T23:32 | 866 | 905 | 283 | 8 | ||
| 2025-12-30T23:32 | 876 | 904 | -12.3 | -16.5 | ||
| 2025-12-30T23:33 | 999 | 890 | -13.4 | -17.4 | ||
| 2025-12-30T23:33 | 1005 | 889 | 277 | 13 | ||
| 2025-12-30T23:33 | 1045 | 884 | -13.6 | -18.1 | ||
| 2025-12-30T23:33 | 1165 | 870 | -14.7 | -18.6 | ||
| 2025-12-30T23:33 | 1218 | 864 | -14.8 | -21.0 | ||
| 2025-12-30T23:34 | 1354 | 849 | 281 | 14 | ||
| 2025-12-30T23:35 | 1594 | 822 | -18.0 | -23.5 | ||
| 2025-12-30T23:35 | 1687 | 812 | 280 | 15 | ||
| 2025-12-30T23:36 | 1958 | 783 | -21.2 | -26.0 | ||
| 2025-12-30T23:36 | 2020 | 777 | 284 | 16 | ||
| 2025-12-30T23:36 | 2075 | 771 | -22.2 | -26.8 | ||
| 2025-12-30T23:36 | 2240 | 754 | -23.6 | -29.6 | ||
| 2025-12-30T23:37 | 2311 | 746 | -24.1 | -31.2 | 291 | 14 |
| 2025-12-30T23:37 | 2462 | 731 | -25.4 | -31.6 | ||
| 2025-12-30T23:37 | 2516 | 726 | -25.1 | -34.3 | ||
| 2025-12-30T23:37 | 2521 | 725 | 281 | 16 | ||
| 2025-12-30T23:38 | 2556 | 722 | -25.1 | -36.1 | ||
| 2025-12-30T23:38 | 2703 | 707 | -25.3 | -37.5 | ||
| 2025-12-30T23:38 | 2829 | 695 | -26.0 | -38.2 | ||
| 2025-12-30T23:38 | 2835 | 694 | 278 | 15 | ||
| 2025-12-30T23:39 | 3002 | 678 | -27.1 | -39.5 | ||
| 2025-12-30T23:39 | 3186 | 661 | 275 | 13 | ||
| 2025-12-30T23:40 | 3522 | 631 | 256 | 10 | ||
| 2025-12-30T23:41 | 3720 | 613 | -31.6 | -46.7 | ||
| 2025-12-30T23:41 | 3918 | 596 | 256 | 13 | ||
| 2025-12-30T23:42 | 4347 | 561 | 260 | 14 | ||
| 2025-12-30T23:43 | 4536 | 546 | -39.1 | -48.8 | ||
| 2025-12-30T23:43 | 4666 | 535 | 263 | 16 | ||
| 2025-12-30T23:43 | 4687 | 534 | -40.0 | -50.7 | ||
| 2025-12-30T23:44 | 5069 | 505 | 255 | 15 | ||
| 2025-12-30T23:44 | 5107 | 502 | -42.5 | |||
| 2025-12-30T23:45 | 5246 | 492 | -43.3 | |||
| 2025-12-30T23:45 | 5398 | 480 | -44.0 | |||
| 2025-12-30T23:45 | 5439 | 478 | 253 | 21 | ||
| 2025-12-30T23:46 | 5606 | 466 | -44.4 | |||
| 2025-12-30T23:46 | 5752 | 456 | 257 | 26 | ||
| 2025-12-30T23:46 | 5826 | 451 | -44.3 | |||
| 2025-12-30T23:47 | 6046 | 436 | 249 | 26 | ||
| 2025-12-30T23:47 | 6052 | 436 | -45.2 | |||
| 2025-12-30T23:47 | 6246 | 423 | -45.2 | |||
| 2025-12-30T23:48 | 6395 | 414 | 255 | 32 | ||
| 2025-12-30T23:48 | 6479 | 409 | -45.6 | |||
| 2025-12-30T23:49 | 6818 | 388 | -45.9 | |||
| 2025-12-30T23:49 | 6825 | 388 | 257 | 32 | ||
| 2025-12-30T23:49 | 6960 | 380 | -46.1 | |||
| 2025-12-30T23:50 | 7224 | 365 | 257 | 35 | ||
| 2025-12-30T23:50 | 7301 | 361 | -46.6 | |||
| 2025-12-30T23:50 | 7392 | 356 | 258 | 35 | ||
| 2025-12-30T23:50 | 7411 | 355 | -46.5 | |||
| 2025-12-30T23:51 | 7466 | 352 | 260 | 37 | ||
| 2025-12-30T23:51 | 7607 | 345 | -45.8 | |||
| 2025-12-30T23:51 | 7665 | 342 | -45.2 | |||
| 2025-12-30T23:51 | 7702 | 340 | 261 | 37 | ||
| 2025-12-30T23:52 | 7854 | 332 | -44.9 | |||
| 2025-12-30T23:52 | 8011 | 325 | -44.0 | |||
| 2025-12-30T23:52 | 8056 | 322 | 256 | 37 | ||
| 2025-12-30T23:53 | 8196 | 316 | -44.5 | |||
| 2025-12-30T23:53 | 8488 | 302 | 259 | 37 | ||
| 2025-12-30T23:53 | 8517 | 301 | -43.7 | |||
| 2025-12-30T23:54 | 8735 | 291 | -41.8 | |||
| 2025-12-30T23:54 | 8891 | 285 | 267 | 37 | ||
| 2025-12-30T23:55 | 9163 | 274 | 271 | 38 | ||
| 2025-12-30T23:56 | 9374 | 265 | -41.3 | 274 | 36 | |
| 2025-12-30T23:56 | 9575 | 257 | -41.8 | |||
| 2025-12-30T23:57 | 9754 | 251 | 270 | 36 | ||
| 2025-12-30T23:57 | 9821 | 248 | -41.9 | |||
| 2025-12-30T23:58 | 10164 | 236 | 264 | 32 | ||
| 2025-12-30T23:59 | 10484 | 225 | -42.8 | |||
| 2025-12-30T23:59 | 10541 | 223 | 264 | 31 | ||
| 2025-12-30T23:59 | 10727 | 217 | -42.4 | |||
| 2025-12-31T00:00 | 10799 | 215 | 265 | 30 | ||
| 2025-12-31T00:00 | 11028 | 208 | -41.8 | |||
| 2025-12-31T00:00 | 11127 | 205 | 266 | 30 | ||
| 2025-12-31T00:01 | 11369 | 198 | -43.2 | |||
| 2025-12-31T00:01 | 11506 | 194 | 261 | 33 | ||
| 2025-12-31T00:02 | 11930 | 182 | 254 | 31 | ||
| 2025-12-31T00:03 | 12150 | 176 | -46.3 | |||
| 2025-12-31T00:04 | 12365 | 170 | 257 | 31 | ||
| 2025-12-31T00:04 | 12662 | 163 | 256 | 33 | ||
| 2025-12-31T00:04 | 12694 | 162 | -47.8 | |||
| 2025-12-31T00:05 | 12843 | 158 | 257 | 36 | ||
| 2025-12-31T00:05 | 12929 | 156 | -47.8 | |||
| 2025-12-31T00:06 | 13217 | 150 | -47.1 | 253 | 33 | |
| 2025-12-31T00:07 | 13624 | 141 | 250 | 30 | ||
| 2025-12-31T00:07 | 13946 | 134 | -50.2 | |||
| 2025-12-31T00:07 | 13984 | 133 | 260 | 32 | ||
| 2025-12-31T00:08 | 14235 | 128 | -49.7 | |||
| 2025-12-31T00:08 | 14389 | 125 | -49.7 | |||
| 2025-12-31T00:08 | 14417 | 125 | 257 | 33 | ||
| 2025-12-31T00:09 | 14802 | 117 | 257 | 37 | ||
| 2025-12-31T00:10 | 14835 | 117 | -51.8 | |||
| 2025-12-31T00:10 | 15015 | 114 | -50.4 | |||
| 2025-12-31T00:10 | 15117 | 112 | 270 | 32 | ||
| 2025-12-31T00:11 | 15247 | 110 | 266 | 28 | ||
| 2025-12-31T00:11 | 15337 | 108 | -50.5 | |||
| 2025-12-31T00:11 | 15613 | 104 | 264 | 27 | ||
| 2025-12-31T00:12 | 15683 | 103 | -50.1 | |||
| 2025-12-31T00:12 | 16031 | 97 | 263 | 24 | ||
| 2025-12-31T00:13 | 16340 | 93 | -53.4 | |||
| 2025-12-31T00:13 | 16394 | 92 | 272 | 21 | ||
| 2025-12-31T00:14 | 16723 | 87 | 264 | 20 | ||
| 2025-12-31T00:15 | 16783 | 87 | -54.5 | |||
| 2025-12-31T00:15 | 16895 | 85 | 259 | 18 | ||
| 2025-12-31T00:15 | 17018 | 83 | 240 | 16 | ||
| 2025-12-31T00:16 | 17212 | 81 | -54.7 | |||
| 2025-12-31T00:16 | 17284 | 80 | 203 | 18 | ||
| 2025-12-31T00:16 | 17305 | 80 | -53.6 | |||
| 2025-12-31T00:17 | 17659 | 76 | 231 | 20 | ||
| 2025-12-31T00:17 | 17675 | 75 | -51.5 | |||
| 2025-12-31T00:18 | 17957 | 72 | -51.8 | |||
| 2025-12-31T00:18 | 18057 | 71 | 244 | 22 | ||
| 2025-12-31T00:18 | 18159 | 70 | -52.3 | |||
| 2025-12-31T00:18 | 18309 | 68 | 244 | 21 | ||
| 2025-12-31T00:19 | 18422 | 67 | -51.8 | |||
| 2025-12-31T00:19 | 18690 | 64 | 244 | 17 | ||
| 2025-12-31T00:20 | 18975 | 62 | 231 | 19 | ||
| 2025-12-31T00:20 | 19017 | 61 | -54.2 | |||
| 2025-12-31T00:21 | 19316 | 58 | 252 | 27 | ||
| 2025-12-31T00:22 | 19540 | 56 | -53.5 | |||
| 2025-12-31T00:22 | 19574 | 56 | 253 | 23 | ||
| 2025-12-31T00:22 | 19716 | 55 | -49.5 | |||
| 2025-12-31T00:22 | 19729 | 55 | 236 | 17 | ||
| 2025-12-31T00:23 | 19996 | 53 | -49.1 | 243 | 20 | |
| 2025-12-31T00:23 | 20174 | 51 | 254 | 12 | ||
| 2025-12-31T00:23 | 20238 | 51 | -47.3 | |||
| 2025-12-31T00:23 | 20317 | 50 | 269 | 7 | ||
| 2025-12-31T00:24 | 20586 | 48 | 107 | 3 | ||
| 2025-12-31T00:24 | 20765 | 47 | 76 | 1 | ||
| 2025-12-31T00:25 | 20927 | 46 | 56 | 3 | ||
| 2025-12-31T00:25 | 21070 | 45 | 84 | 1 | ||
| 2025-12-31T00:26 | 21291 | 43 | -54.8 | |||
| 2025-12-31T00:26 | 21335 | 43 | 179 | 3 | ||
| 2025-12-31T00:26 | 21547 | 41 | 199 | 8 | ||
| 2025-12-31T00:26 | 21599 | 41 | -53.2 | |||
| 2025-12-31T00:27 | 21870 | 39 | 195 | 7 | ||
| 2025-12-31T00:28 | 22100 | 38 | 183 | 9 | ||
| 2025-12-31T00:28 | 22133 | 38 | -53.3 | |||
| 2025-12-31T00:28 | 22221 | 37 | -50.9 | |||
| 2025-12-31T00:28 | 22288 | 37 | 172 | 8 | ||
| 2025-12-31T00:29 | 22541 | 36 | -49.9 | |||
| 2025-12-31T00:29 | 22598 | 35 | 131 | 10 | ||
| 2025-12-31T00:29 | 22922 | 34 | -49.6 | |||
| 2025-12-31T00:30 | 23021 | 33 | 150 | 5 | ||
| 2025-12-31T00:30 | 23163 | 32 | -49.5 | |||
| 2025-12-31T00:30 | 23326 | 32 | 151 | 9 | ||
| 2025-12-31T00:31 | 23754 | 30 | 195 | 5 | ||
| 2025-12-31T00:32 | 24069 | 28 | 200 | 5 | ||
| 2025-12-31T00:33 | 24375 | 27 | 245 | 6 | ||
| 2025-12-31T00:33 | 24422 | 27 | -52.8 | |||
| 2025-12-31T00:33 | 24636 | 26 | -52.6 | 165 | 6 | |
| 2025-12-31T11:30 | 18 | 1008 | -5.9 | -10.1 | 270 | 1 |
| 2025-12-31T11:30 | 23 | 1007 | -5.9 | -10.9 | 0 | 0 |
| 2025-12-31T11:31 | 275 | 975 | -8.3 | -12.1 | ||
| 2025-12-31T11:31 | 400 | 959 | 90 | 1 | ||
| 2025-12-31T11:31 | 551 | 941 | -10.9 | -13.7 | ||
| 2025-12-31T11:31 | 574 | 938 | 321 | 3 | ||
| 2025-12-31T11:32 | 726 | 919 | 285 | 3 | ||
| 2025-12-31T11:32 | 884 | 901 | -13.6 | -17.7 | ||
| 2025-12-31T11:33 | 939 | 894 | 272 | 4 | ||
| 2025-12-31T11:33 | 1073 | 879 | 261 | 9 | ||
| 2025-12-31T11:34 | 1277 | 855 | 272 | 9 | ||
| 2025-12-31T11:34 | 1444 | 836 | -18.4 | -21.1 | ||
| 2025-12-31T11:35 | 1629 | 816 | -20.0 | -22.6 | ||
| 2025-12-31T11:35 | 1654 | 813 | 263 | 13 | ||
| 2025-12-31T11:35 | 1743 | 803 | -21.0 | -23.8 | ||
| 2025-12-31T11:36 | 2041 | 771 | 250 | 14 | ||
| 2025-12-31T11:37 | 2353 | 739 | -26.4 | -28.6 | ||
| 2025-12-31T11:37 | 2434 | 731 | 258 | 14 | ||
| 2025-12-31T11:37 | 2561 | 718 | -28.0 | -29.5 | ||
| 2025-12-31T11:37 | 2581 | 716 | 254 | 17 | ||
| 2025-12-31T11:37 | 2601 | 714 | -27.0 | -30.5 | ||
| 2025-12-31T11:37 | 2646 | 709 | -25.1 | -34.8 | ||
| 2025-12-31T11:37 | 2703 | 704 | -25.0 | -36.1 | ||
| 2025-12-31T11:38 | 2753 | 699 | 250 | 20 | ||
| 2025-12-31T11:38 | 2828 | 692 | -25.1 | -38.0 | ||
| 2025-12-31T11:38 | 3090 | 667 | -26.8 | -39.9 | ||
| 2025-12-31T11:39 | 3113 | 665 | 254 | 19 | ||
| 2025-12-31T11:39 | 3377 | 641 | -28.4 | -42.7 | ||
| 2025-12-31T11:40 | 3460 | 634 | 260 | 19 | ||
| 2025-12-31T11:40 | 3689 | 614 | -30.5 | -45.8 | ||
| 2025-12-31T11:41 | 3833 | 601 | 262 | 20 | ||
| 2025-12-31T11:41 | 3964 | 590 | -31.8 | -47.8 | ||
| 2025-12-31T11:42 | 4211 | 570 | 261 | 21 | ||
| 2025-12-31T11:43 | 4593 | 540 | 263 | 19 | ||
| 2025-12-31T11:43 | 4643 | 536 | -36.1 | -51.9 | ||
| 2025-12-31T11:43 | 4937 | 513 | -37.8 | -53.9 | ||
| 2025-12-31T11:44 | 4984 | 510 | 256 | 22 | ||
| 2025-12-31T11:44 | 5287 | 488 | -40.0 | -56.2 | ||
| 2025-12-31T11:45 | 5400 | 480 | 259 | 19 | ||
| 2025-12-31T11:45 | 5462 | 475 | -40.9 | |||
| 2025-12-31T11:46 | 5799 | 452 | 254 | 18 | ||
| 2025-12-31T11:46 | 5806 | 452 | -42.8 | |||
| 2025-12-31T11:46 | 6012 | 438 | 260 | 23 | ||
| 2025-12-31T11:47 | 6206 | 426 | -44.7 | |||
| 2025-12-31T11:47 | 6302 | 420 | 251 | 23 | ||
| 2025-12-31T11:47 | 6445 | 411 | -45.5 | |||
| 2025-12-31T11:47 | 6535 | 405 | -45.2 | |||
| 2025-12-31T11:48 | 6592 | 402 | 256 | 27 | ||
| 2025-12-31T11:48 | 6775 | 391 | -43.3 | |||
| 2025-12-31T11:48 | 6845 | 387 | 259 | 32 | ||
| 2025-12-31T11:48 | 6912 | 383 | -43.3 | |||
| 2025-12-31T11:49 | 6982 | 379 | -43.2 | |||
| 2025-12-31T11:49 | 7018 | 377 | 256 | 32 | ||
| 2025-12-31T11:49 | 7180 | 368 | -42.5 | |||
| 2025-12-31T11:49 | 7255 | 364 | -42.5 | |||
| 2025-12-31T11:49 | 7389 | 357 | 259 | 37 | ||
| 2025-12-31T11:50 | 7484 | 352 | -43.1 | |||
| 2025-12-31T11:50 | 7622 | 345 | -43.3 | |||
| 2025-12-31T11:50 | 7741 | 339 | -43.5 | |||
| 2025-12-31T11:50 | 7825 | 335 | 256 | 36 | ||
| 2025-12-31T11:51 | 7912 | 330 | -43.8 | |||
| 2025-12-31T11:51 | 8123 | 320 | -44.8 | |||
| 2025-12-31T11:51 | 8128 | 320 | 261 | 40 | ||
| 2025-12-31T11:52 | 8363 | 309 | -43.6 | |||
| 2025-12-31T11:52 | 8444 | 305 | 264 | 39 | ||
| 2025-12-31T11:53 | 8525 | 301 | -42.9 | |||
| 2025-12-31T11:53 | 8668 | 295 | -42.8 | |||
| 2025-12-31T11:53 | 8770 | 291 | 270 | 37 | ||
| 2025-12-31T11:54 | 8950 | 283 | -43.0 | |||
| 2025-12-31T11:54 | 9086 | 277 | 268 | 39 | ||
| 2025-12-31T11:54 | 9213 | 272 | -42.1 | |||
| 2025-12-31T11:55 | 9367 | 266 | -42.9 | |||
| 2025-12-31T11:55 | 9380 | 266 | 266 | 40 | ||
| 2025-12-31T11:56 | 9603 | 257 | 264 | 44 | ||
| 2025-12-31T11:56 | 9724 | 252 | -43.1 | |||
| 2025-12-31T11:56 | 9828 | 248 | 264 | 39 | ||
| 2025-12-31T11:57 | 9996 | 242 | -43.0 | |||
| 2025-12-31T11:57 | 10065 | 240 | 261 | 35 | ||
| 2025-12-31T11:57 | 10191 | 235 | 262 | 37 | ||
| 2025-12-31T11:57 | 10214 | 235 | -41.9 | |||
| 2025-12-31T11:58 | 10287 | 232 | 264 | 33 | ||
| 2025-12-31T11:58 | 10412 | 228 | -41.8 | |||
| 2025-12-31T11:58 | 10434 | 227 | 264 | 36 | ||
| 2025-12-31T11:59 | 10531 | 224 | -41.5 | |||
| 2025-12-31T11:59 | 10652 | 220 | -41.2 | |||
| 2025-12-31T11:59 | 10682 | 219 | 264 | 32 | ||
| 2025-12-31T12:00 | 10852 | 214 | -41.5 | |||
| 2025-12-31T12:00 | 11021 | 208 | 265 | 35 | ||
| 2025-12-31T12:01 | 11438 | 196 | 266 | 36 | ||
| 2025-12-31T12:02 | 11679 | 189 | 270 | 37 | ||
| 2025-12-31T12:02 | 11764 | 186 | -46.1 | |||
| 2025-12-31T12:03 | 12059 | 178 | 263 | 36 | ||
| 2025-12-31T12:03 | 12287 | 172 | -47.2 | |||
| 2025-12-31T12:04 | 12371 | 170 | 264 | 36 | ||
| 2025-12-31T12:04 | 12386 | 170 | -46.2 | |||
| 2025-12-31T12:05 | 12664 | 163 | 272 | 34 | ||
| 2025-12-31T12:05 | 12761 | 160 | -46.9 | |||
| 2025-12-31T12:06 | 12952 | 156 | -46.9 | |||
| 2025-12-31T12:06 | 12961 | 156 | 261 | 30 | ||
| 2025-12-31T12:06 | 13132 | 152 | -46.9 | |||
| 2025-12-31T12:07 | 13221 | 150 | 258 | 31 | ||
| 2025-12-31T12:08 | 13531 | 143 | -47.3 | |||
| 2025-12-31T12:08 | 13556 | 142 | 261 | 31 | ||
| 2025-12-31T12:09 | 13985 | 133 | 261 | 25 | ||
| 2025-12-31T12:09 | 14267 | 128 | 258 | 26 | ||
| 2025-12-31T12:10 | 14426 | 125 | -51.8 | |||
| 2025-12-31T12:10 | 14544 | 122 | 255 | 28 | ||
| 2025-12-31T12:10 | 14705 | 119 | -52.4 | |||
| 2025-12-31T12:11 | 15062 | 113 | 241 | 30 | ||
| 2025-12-31T12:11 | 15251 | 110 | -53.3 | |||
| 2025-12-31T12:12 | 15494 | 105 | 247 | 35 | ||
| 2025-12-31T12:12 | 15594 | 104 | -55.5 | |||
| 2025-12-31T12:13 | 15839 | 100 | 256 | 38 | ||
| 2025-12-31T12:13 | 15897 | 99 | -53.1 | |||
| 2025-12-31T12:13 | 16077 | 96 | 254 | 37 | ||
| 2025-12-31T12:14 | 16231 | 94 | 250 | 32 | ||
| 2025-12-31T12:14 | 16373 | 92 | -50.4 | |||
| 2025-12-31T12:15 | 16634 | 88 | 259 | 32 | ||
| 2025-12-31T12:15 | 16783 | 86 | -49.7 | |||
| 2025-12-31T12:16 | 16985 | 84 | -49.8 | |||
| 2025-12-31T12:16 | 17065 | 83 | 262 | 32 | ||
| 2025-12-31T12:16 | 17355 | 79 | -50.2 | |||
| 2025-12-31T12:17 | 17378 | 79 | 271 | 25 | ||
| 2025-12-31T12:17 | 17459 | 78 | -49.3 | |||
| 2025-12-31T12:17 | 17544 | 77 | 263 | 18 | ||
| 2025-12-31T12:18 | 17861 | 73 | -48.0 | |||
| 2025-12-31T12:18 | 17924 | 73 | 229 | 11 | ||
| 2025-12-31T12:19 | 18320 | 68 | 200 | 14 | ||
| 2025-12-31T12:19 | 18744 | 64 | -54.0 | |||
| 2025-12-31T12:19 | 18779 | 64 | 207 | 16 | ||
| 2025-12-31T12:20 | 19228 | 59 | 216 | 21 | ||
| 2025-12-31T12:21 | 19400 | 58 | -56.6 | |||
| 2025-12-31T12:21 | 19512 | 57 | 225 | 21 | ||
| 2025-12-31T12:21 | 19547 | 56 | -56.3 | |||
| 2025-12-31T12:22 | 19660 | 55 | -55.3 | |||
| 2025-12-31T12:22 | 19787 | 54 | 229 | 21 | ||
| 2025-12-31T12:22 | 19812 | 54 | -53.6 | |||
| 2025-12-31T12:22 | 19895 | 53 | -51.0 | |||
| 2025-12-31T12:22 | 19909 | 53 | 227 | 25 | ||
| 2025-12-31T12:23 | 20233 | 51 | 250 | 22 | ||
| 2025-12-31T12:23 | 20287 | 50 | -49.6 | |||
| 2025-12-31T12:23 | 20377 | 50 | 259 | 20 | ||
| 2025-12-31T12:23 | 20431 | 49 | -47.4 | |||
| 2025-12-31T12:24 | 20773 | 47 | 261 | 10 | ||
| 2025-12-31T12:25 | 20959 | 45 | 269 | 5 | ||
| 2025-12-31T12:25 | 21161 | 44 | -52.3 | |||
| 2025-12-31T12:25 | 21175 | 44 | 254 | 5 | ||
| 2025-12-31T12:25 | 21311 | 43 | 231 | 5 | ||
| 2025-12-31T12:26 | 21400 | 42 | -53.7 | |||
| 2025-12-31T12:26 | 21476 | 42 | 210 | 9 | ||
| 2025-12-31T12:26 | 21632 | 41 | 226 | 7 | ||
| 2025-12-31T12:26 | 21663 | 41 | -52.0 | |||
| 2025-12-31T12:26 | 21714 | 40 | -51.9 | 221 | 9 | |
| 2025-12-31T23:30 | 18 | 1005 | -8.6 | -13.6 | 170 | 2 |
| 2025-12-31T23:30 | 21 | 1004 | -8.2 | -13.6 | 0 | 0 |
| 2025-12-31T23:30 | 32 | 1003 | -8.3 | -13.7 | ||
| 2025-12-31T23:30 | 45 | 1001 | 193 | 3 | ||
| 2025-12-31T23:30 | 74 | 998 | -9.5 | -14.9 | ||
| 2025-12-31T23:31 | 234 | 977 | 198 | 5 | ||
| 2025-12-31T23:31 | 347 | 963 | 198 | 3 | ||
| 2025-12-31T23:31 | 458 | 949 | 231 | 5 | ||
| 2025-12-31T23:32 | 640 | 926 | 230 | 6 | ||
| 2025-12-31T23:32 | 653 | 925 | -14.8 | -17.3 | ||
| 2025-12-31T23:32 | 772 | 910 | 239 | 7 | ||
| 2025-12-31T23:33 | 879 | 897 | 246 | 8 | ||
| 2025-12-31T23:33 | 908 | 894 | -16.8 | -20.2 | ||
| 2025-12-31T23:34 | 1183 | 862 | -18.9 | -23.0 | ||
| 2025-12-31T23:34 | 1205 | 859 | 253 | 12 | ||
| 2025-12-31T23:34 | 1498 | 826 | -21.7 | -24.8 | ||
| 2025-12-31T23:35 | 1547 | 820 | 252 | 12 | ||
| 2025-12-31T23:35 | 1761 | 797 | -24.1 | -27.7 | ||
| 2025-12-31T23:35 | 1809 | 791 | -24.3 | -29.0 | 261 | 13 |
| 2025-12-31T23:36 | 1932 | 778 | -25.6 | -29.5 | ||
| 2025-12-31T23:36 | 2120 | 758 | -27.0 | -31.9 | ||
| 2025-12-31T23:36 | 2152 | 755 | 265 | 18 | ||
| 2025-12-31T23:37 | 2339 | 736 | -28.6 | -34.6 | ||
| 2025-12-31T23:37 | 2466 | 722 | 266 | 19 | ||
| 2025-12-31T23:38 | 2826 | 687 | 268 | 19 | ||
| 2025-12-31T23:39 | 2959 | 674 | -33.9 | -39.2 | ||
| 2025-12-31T23:39 | 3016 | 668 | -33.9 | -40.9 | ||
| 2025-12-31T23:39 | 3053 | 665 | 265 | 20 | ||
| 2025-12-31T23:39 | 3072 | 663 | -33.9 | -43.3 | ||
| 2025-12-31T23:39 | 3116 | 659 | -33.4 | -43.6 | ||
| 2025-12-31T23:39 | 3217 | 649 | -32.5 | -45.6 | ||
| 2025-12-31T23:39 | 3274 | 644 | 270 | 23 | ||
| 2025-12-31T23:40 | 3524 | 622 | 264 | 20 | ||
| 2025-12-31T23:40 | 3543 | 620 | -34.6 | -48.1 | ||
| 2025-12-31T23:40 | 3581 | 617 | -33.9 | -50.1 | ||
| 2025-12-31T23:41 | 3761 | 601 | -34.5 | -53.3 | ||
| 2025-12-31T23:41 | 3850 | 593 | -34.5 | -54.7 | ||
| 2025-12-31T23:41 | 3875 | 591 | 253 | 29 | ||
| 2025-12-31T23:41 | 4000 | 581 | -35.1 | -56.9 | ||
| 2025-12-31T23:42 | 4157 | 568 | -34.5 | -59.6 | ||
| 2025-12-31T23:42 | 4284 | 557 | 250 | 28 | ||
| 2025-12-31T23:42 | 4392 | 549 | -35.4 | -60.3 | ||
| 2025-12-31T23:43 | 4570 | 535 | 256 | 26 | ||
| 2025-12-31T23:43 | 4605 | 532 | -36.3 | -62.4 | ||
| 2025-12-31T23:43 | 4748 | 521 | -37.2 | -63.1 | ||
| 2025-12-31T23:44 | 4937 | 507 | 258 | 30 | ||
| 2025-12-31T23:44 | 5082 | 497 | -37.9 | -65.3 | ||
| 2025-12-31T23:44 | 5257 | 484 | -38.4 | -65.7 | ||
| 2025-12-31T23:45 | 5352 | 478 | -39.2 | -66.3 | ||
| 2025-12-31T23:45 | 5358 | 477 | 262 | 25 | ||
| 2025-12-31T23:45 | 5597 | 461 | -39.5 | -66.5 | ||
| 2025-12-31T23:45 | 5676 | 456 | -39.1 | -68.3 | ||
| 2025-12-31T23:46 | 5753 | 450 | 262 | 25 | ||
| 2025-12-31T23:46 | 5893 | 441 | -39.7 | -68.7 | ||
| 2025-12-31T23:46 | 6028 | 433 | -40.0 | -66.9 | ||
| 2025-12-31T23:47 | 6139 | 426 | 258 | 25 | ||
| 2025-12-31T23:47 | 6230 | 420 | -41.1 | |||
| 2025-12-31T23:48 | 6534 | 402 | 252 | 26 | ||
| 2025-12-31T23:48 | 6731 | 390 | -41.6 | |||
| 2025-12-31T23:49 | 6950 | 378 | -42.7 | 257 | 31 | |
| 2025-12-31T23:49 | 7141 | 367 | -42.7 | |||
| 2025-12-31T23:49 | 7306 | 358 | 248 | 29 | ||
| 2025-12-31T23:50 | 7392 | 354 | -42.5 | |||
| 2025-12-31T23:50 | 7522 | 347 | 249 | 32 | ||
| 2025-12-31T23:51 | 7772 | 334 | 255 | 36 | ||
| 2025-12-31T23:51 | 7866 | 330 | -41.9 | |||
| 2025-12-31T23:51 | 7933 | 326 | -41.4 | |||
| 2025-12-31T23:51 | 7969 | 325 | 264 | 36 | ||
| 2025-12-31T23:51 | 8089 | 319 | -41.3 | |||
| 2025-12-31T23:52 | 8189 | 314 | 264 | 39 | ||
| 2025-12-31T23:53 | 8566 | 297 | 262 | 36 | ||
| 2025-12-31T23:53 | 8630 | 295 | -40.9 | |||
| 2025-12-31T23:53 | 8917 | 282 | 267 | 36 | ||
| 2025-12-31T23:54 | 8958 | 281 | -41.0 | |||
| 2025-12-31T23:54 | 9283 | 268 | -40.6 | |||
| 2025-12-31T23:54 | 9324 | 266 | 262 | 32 | ||
| 2025-12-31T23:55 | 9474 | 260 | 263 | 35 | ||
| 2025-12-31T23:55 | 9571 | 256 | -41.8 | |||
| 2025-12-31T23:56 | 9764 | 249 | 259 | 36 | ||
| 2025-12-31T23:56 | 9888 | 245 | 258 | 38 | ||
| 2025-12-31T23:56 | 9976 | 242 | -41.4 | |||
| 2025-12-31T23:57 | 10152 | 235 | 255 | 38 | ||
| 2025-12-31T23:57 | 10367 | 228 | 257 | 38 | ||
| 2025-12-31T23:58 | 10443 | 225 | -40.7 | |||
| 2025-12-31T23:58 | 10624 | 220 | 263 | 35 | ||
| 2025-12-31T23:59 | 10785 | 214 | -40.2 | |||
| 2025-12-31T23:59 | 10840 | 213 | 262 | 35 | ||
| 2025-12-31T23:59 | 11104 | 205 | 265 | 33 |
